<?xml version="1.0" encoding="utf-8"?>
<gpx xmlns:xsi="http://www.w3.org/2001/XMLSchema-instance" xmlns:xsd="http://www.w3.org/2001/XMLSchema" xsi:schemaLocation="http://www.topografix.com/GPX/1/1 http://www.topografix.com/GPX/1/1/gpx.xsd" version="1.1" creator="SportTracks 3.1" xmlns="http://www.topografix.com/GPX/1/1">
 <metadata />
 <trk>
  <name />
  <cmt />
  <trkseg>
   <trkpt lat="46.8421096801758" lon="12.7737426757812">
    <ele>744.018737792969</ele>
    <time>2025-03-30T07:07:03Z</time>
   </trkpt>
   <trkpt lat="46.8421173095703" lon="12.7737321853638">
    <ele>744.22021484375</ele>
    <time>2025-03-30T07:07:04Z</time>
   </trkpt>
   <trkpt lat="46.8421440124512" lon="12.77366065979">
    <ele>745.143859863281</ele>
    <time>2025-03-30T07:07:09Z</time>
   </trkpt>
   <trkpt lat="46.8421363830566" lon="12.773585319519">
    <ele>745.468139648438</ele>
    <time>2025-03-30T07:07:14Z</time>
   </trkpt>
   <trkpt lat="46.8421325683594" lon="12.7735633850098">
    <ele>745.532409667969</ele>
    <time>2025-03-30T07:07:16Z</time>
   </trkpt>
   <trkpt lat="46.8421287536621" lon="12.7735185623169">
    <ele>745.736450195312</ele>
    <time>2025-03-30T07:07:19Z</time>
   </trkpt>
   <trkpt lat="46.8421096801758" lon="12.7734317779541">
    <ele>745.90771484375</ele>
    <time>2025-03-30T07:07:25Z</time>
   </trkpt>
   <trkpt lat="46.8421058654785" lon="12.7734127044678">
    <ele>745.951232910156</ele>
    <time>2025-03-30T07:07:26Z</time>
   </trkpt>
   <trkpt lat="46.8421058654785" lon="12.7732992172241">
    <ele>746.329162597656</ele>
    <time>2025-03-30T07:07:33Z</time>
   </trkpt>
   <trkpt lat="46.842113494873" lon="12.773268699646">
    <ele>746.382385253906</ele>
    <time>2025-03-30T07:07:35Z</time>
   </trkpt>
   <trkpt lat="46.8421211242676" lon="12.7732191085815">
    <ele>746.376708984375</ele>
    <time>2025-03-30T07:07:39Z</time>
   </trkpt>
   <trkpt lat="46.8421287536621" lon="12.7731304168701">
    <ele>746.250061035156</ele>
    <time>2025-03-30T07:07:45Z</time>
   </trkpt>
   <trkpt lat="46.8421363830566" lon="12.7731037139893">
    <ele>746.312133789062</ele>
    <time>2025-03-30T07:07:47Z</time>
   </trkpt>
   <trkpt lat="46.8421440124512" lon="12.7730588912964">
    <ele>746.317749023438</ele>
    <time>2025-03-30T07:07:51Z</time>
   </trkpt>
   <trkpt lat="46.8421974182129" lon="12.7729911804199">
    <ele>747.107788085938</ele>
    <time>2025-03-30T07:07:58Z</time>
   </trkpt>
   <trkpt lat="46.8422470092773" lon="12.7729301452637">
    <ele>747.838012695312</ele>
    <time>2025-03-30T07:08:05Z</time>
   </trkpt>
   <trkpt lat="46.8423385620117" lon="12.7728490829468">
    <ele>749.269653320312</ele>
    <time>2025-03-30T07:08:14Z</time>
   </trkpt>
   <trkpt lat="46.8423728942871" lon="12.7728776931763">
    <ele>750.002685546875</ele>
    <time>2025-03-30T07:08:18Z</time>
   </trkpt>
   <trkpt lat="46.8423805236816" lon="12.7729063034058">
    <ele>750.2421875</ele>
    <time>2025-03-30T07:08:20Z</time>
   </trkpt>
   <trkpt lat="46.8423843383789" lon="12.7729587554932">
    <ele>750.493225097656</ele>
    <time>2025-03-30T07:08:25Z</time>
   </trkpt>
   <trkpt lat="46.8423919677734" lon="12.772970199585">
    <ele>750.674987792969</ele>
    <time>2025-03-30T07:08:27Z</time>
   </trkpt>
   <trkpt lat="46.8424072265625" lon="12.7729768753052">
    <ele>750.983093261719</ele>
    <time>2025-03-30T07:08:31Z</time>
   </trkpt>
   <trkpt lat="46.8424339294434" lon="12.7729806900024">
    <ele>751.495483398438</ele>
    <time>2025-03-30T07:08:35Z</time>
   </trkpt>
   <trkpt lat="46.8424377441406" lon="12.7729873657227">
    <ele>751.590209960938</ele>
    <time>2025-03-30T07:08:36Z</time>
   </trkpt>
   <trkpt lat="46.8424797058106" lon="12.7730016708374">
    <ele>752.426086425781</ele>
    <time>2025-03-30T07:08:42Z</time>
   </trkpt>
   <trkpt lat="46.8425102233887" lon="12.772988319397">
    <ele>752.931823730469</ele>
    <time>2025-03-30T07:08:48Z</time>
   </trkpt>
   <trkpt lat="46.8425331115723" lon="12.7729816436768">
    <ele>753.29638671875</ele>
    <time>2025-03-30T07:08:54Z</time>
   </trkpt>
   <trkpt lat="46.8425407409668" lon="12.7729759216309">
    <ele>753.404724121094</ele>
    <time>2025-03-30T07:08:55Z</time>
   </trkpt>
   <trkpt lat="46.8425712585449" lon="12.7729597091675">
    <ele>753.860900878906</ele>
    <time>2025-03-30T07:08:59Z</time>
   </trkpt>
   <trkpt lat="46.842586517334" lon="12.7729558944702">
    <ele>754.1044921875</ele>
    <time>2025-03-30T07:09:02Z</time>
   </trkpt>
   <trkpt lat="46.8426055908203" lon="12.772952079773">
    <ele>754.412170410156</ele>
    <time>2025-03-30T07:09:04Z</time>
   </trkpt>
   <trkpt lat="46.842643737793" lon="12.7729425430298">
    <ele>755.018676757812</ele>
    <time>2025-03-30T07:09:11Z</time>
   </trkpt>
   <trkpt lat="46.8426475524902" lon="12.7729415893555">
    <ele>755.079223632812</ele>
    <time>2025-03-30T07:09:12Z</time>
   </trkpt>
   <trkpt lat="46.8427085876465" lon="12.7729415893555">
    <ele>756.108947753906</ele>
    <time>2025-03-30T07:09:20Z</time>
   </trkpt>
   <trkpt lat="46.8427200317383" lon="12.7729377746582">
    <ele>756.285888671875</ele>
    <time>2025-03-30T07:09:22Z</time>
   </trkpt>
   <trkpt lat="46.8427543640137" lon="12.7729358673096">
    <ele>756.856506347656</ele>
    <time>2025-03-30T07:09:27Z</time>
   </trkpt>
   <trkpt lat="46.8427658081055" lon="12.7729377746582">
    <ele>757.057739257812</ele>
    <time>2025-03-30T07:09:29Z</time>
   </trkpt>
   <trkpt lat="46.8427963256836" lon="12.772931098938">
    <ele>757.542541503906</ele>
    <time>2025-03-30T07:09:35Z</time>
   </trkpt>
   <trkpt lat="46.8428153991699" lon="12.7729349136353">
    <ele>757.880981445312</ele>
    <time>2025-03-30T07:09:38Z</time>
   </trkpt>
   <trkpt lat="46.842845916748" lon="12.7729330062866">
    <ele>758.386474609375</ele>
    <time>2025-03-30T07:09:44Z</time>
   </trkpt>
   <trkpt lat="46.8428764343262" lon="12.7729339599609">
    <ele>758.905090332031</ele>
    <time>2025-03-30T07:09:49Z</time>
   </trkpt>
   <trkpt lat="46.8428955078125" lon="12.772931098938">
    <ele>759.212951660156</ele>
    <time>2025-03-30T07:09:52Z</time>
   </trkpt>
   <trkpt lat="46.842903137207" lon="12.7729396820068">
    <ele>759.382263183594</ele>
    <time>2025-03-30T07:09:59Z</time>
   </trkpt>
   <trkpt lat="46.8429222106934" lon="12.772931098938">
    <ele>759.662658691406</ele>
    <time>2025-03-30T07:10:06Z</time>
   </trkpt>
   <trkpt lat="46.8429336547852" lon="12.7729234695435">
    <ele>759.818359375</ele>
    <time>2025-03-30T07:10:08Z</time>
   </trkpt>
   <trkpt lat="46.8429641723633" lon="12.7729110717773">
    <ele>760.270446777344</ele>
    <time>2025-03-30T07:10:12Z</time>
   </trkpt>
   <trkpt lat="46.8429832458496" lon="12.7729082107544">
    <ele>760.576293945312</ele>
    <time>2025-03-30T07:10:15Z</time>
   </trkpt>
   <trkpt lat="46.8429908752441" lon="12.7729005813599">
    <ele>760.666076660156</ele>
    <time>2025-03-30T07:10:17Z</time>
   </trkpt>
   <trkpt lat="46.8429985046387" lon="12.7728958129883">
    <ele>760.769836425781</ele>
    <time>2025-03-30T07:10:18Z</time>
   </trkpt>
   <trkpt lat="46.8430252075195" lon="12.7728824615479">
    <ele>761.148620605469</ele>
    <time>2025-03-30T07:10:23Z</time>
   </trkpt>
   <trkpt lat="46.8430442810059" lon="12.7728786468506">
    <ele>761.447448730469</ele>
    <time>2025-03-30T07:10:26Z</time>
   </trkpt>
   <trkpt lat="46.8430557250977" lon="12.7728691101074">
    <ele>761.5888671875</ele>
    <time>2025-03-30T07:10:29Z</time>
   </trkpt>
   <trkpt lat="46.8430824279785" lon="12.7728672027588">
    <ele>762.023742675781</ele>
    <time>2025-03-30T07:10:34Z</time>
   </trkpt>
   <trkpt lat="46.8430976867676" lon="12.7728719711304">
    <ele>762.303283691406</ele>
    <time>2025-03-30T07:10:36Z</time>
   </trkpt>
   <trkpt lat="46.843132019043" lon="12.7728643417358">
    <ele>762.834289550781</ele>
    <time>2025-03-30T07:10:41Z</time>
   </trkpt>
   <trkpt lat="46.8431587219238" lon="12.7728576660156">
    <ele>763.2421875</ele>
    <time>2025-03-30T07:10:46Z</time>
   </trkpt>
   <trkpt lat="46.8431816101074" lon="12.7728433609009">
    <ele>763.543273925781</ele>
    <time>2025-03-30T07:10:50Z</time>
   </trkpt>
   <trkpt lat="46.8431968688965" lon="12.7728385925293">
    <ele>763.769653320312</ele>
    <time>2025-03-30T07:10:52Z</time>
   </trkpt>
   <trkpt lat="46.8432273864746" lon="12.772819519043">
    <ele>764.166870117188</ele>
    <time>2025-03-30T07:10:56Z</time>
   </trkpt>
   <trkpt lat="46.8432350158691" lon="12.7728147506714">
    <ele>764.265625</ele>
    <time>2025-03-30T07:10:58Z</time>
   </trkpt>
   <trkpt lat="46.8432464599609" lon="12.7728090286255">
    <ele>764.421630859375</ele>
    <time>2025-03-30T07:11:00Z</time>
   </trkpt>
   <trkpt lat="46.8432807922363" lon="12.7727937698364">
    <ele>764.898498535156</ele>
    <time>2025-03-30T07:11:06Z</time>
   </trkpt>
   <trkpt lat="46.8432884216309" lon="12.7727861404419">
    <ele>764.979187011719</ele>
    <time>2025-03-30T07:11:07Z</time>
   </trkpt>
   <trkpt lat="46.843318939209" lon="12.7727670669556">
    <ele>765.366760253906</ele>
    <time>2025-03-30T07:11:11Z</time>
   </trkpt>
   <trkpt lat="46.8433265686035" lon="12.772762298584">
    <ele>765.463134765625</ele>
    <time>2025-03-30T07:11:13Z</time>
   </trkpt>
   <trkpt lat="46.8433303833008" lon="12.7727613449097">
    <ele>765.519836425781</ele>
    <time>2025-03-30T07:11:14Z</time>
   </trkpt>
   <trkpt lat="46.8433723449707" lon="12.7727470397949">
    <ele>766.011047363281</ele>
    <time>2025-03-30T07:11:19Z</time>
   </trkpt>
   <trkpt lat="46.8433952331543" lon="12.7727451324463">
    <ele>766.309692382812</ele>
    <time>2025-03-30T07:11:22Z</time>
   </trkpt>
   <trkpt lat="46.8434066772461" lon="12.7727460861206">
    <ele>766.470642089844</ele>
    <time>2025-03-30T07:11:24Z</time>
   </trkpt>
   <trkpt lat="46.8434562683106" lon="12.7727365493774">
    <ele>767.083923339844</ele>
    <time>2025-03-30T07:11:30Z</time>
   </trkpt>
   <trkpt lat="46.8434753417969" lon="12.7727346420288">
    <ele>767.330322265625</ele>
    <time>2025-03-30T07:11:33Z</time>
   </trkpt>
   <trkpt lat="46.8434829711914" lon="12.7727327346802">
    <ele>767.421752929688</ele>
    <time>2025-03-30T07:11:34Z</time>
   </trkpt>
   <trkpt lat="46.843505859375" lon="12.7727222442627">
    <ele>767.666015625</ele>
    <time>2025-03-30T07:11:38Z</time>
   </trkpt>
   <trkpt lat="46.8435173034668" lon="12.7727251052856">
    <ele>767.838684082031</ele>
    <time>2025-03-30T07:11:39Z</time>
   </trkpt>
   <trkpt lat="46.8435249328613" lon="12.7727203369141">
    <ele>767.911926269531</ele>
    <time>2025-03-30T07:11:41Z</time>
   </trkpt>
   <trkpt lat="46.8435440063477" lon="12.7727184295654">
    <ele>768.15771484375</ele>
    <time>2025-03-30T07:11:44Z</time>
   </trkpt>
   <trkpt lat="46.843578338623" lon="12.7727108001709">
    <ele>768.5732421875</ele>
    <time>2025-03-30T07:11:49Z</time>
   </trkpt>
   <trkpt lat="46.8435859680176" lon="12.7727127075195">
    <ele>768.688415527344</ele>
    <time>2025-03-30T07:11:50Z</time>
   </trkpt>
   <trkpt lat="46.8435935974121" lon="12.7727127075195">
    <ele>768.791442871094</ele>
    <time>2025-03-30T07:11:51Z</time>
   </trkpt>
   <trkpt lat="46.8436088562012" lon="12.7727108001709">
    <ele>768.9853515625</ele>
    <time>2025-03-30T07:11:53Z</time>
   </trkpt>
   <trkpt lat="46.8436164855957" lon="12.772705078125">
    <ele>769.051696777344</ele>
    <time>2025-03-30T07:11:55Z</time>
   </trkpt>
   <trkpt lat="46.8436508178711" lon="12.7726955413818">
    <ele>769.453430175781</ele>
    <time>2025-03-30T07:12:00Z</time>
   </trkpt>
   <trkpt lat="46.8436660766602" lon="12.7726917266846">
    <ele>769.634460449219</ele>
    <time>2025-03-30T07:12:02Z</time>
   </trkpt>
   <trkpt lat="46.8437004089356" lon="12.7726926803589">
    <ele>770.103332519531</ele>
    <time>2025-03-30T07:12:07Z</time>
   </trkpt>
   <trkpt lat="46.8437080383301" lon="12.7726936340332">
    <ele>770.21240234375</ele>
    <time>2025-03-30T07:12:09Z</time>
   </trkpt>
   <trkpt lat="46.8437576293945" lon="12.7726888656616">
    <ele>770.849304199219</ele>
    <time>2025-03-30T07:12:15Z</time>
   </trkpt>
   <trkpt lat="46.8437767028809" lon="12.7726879119873">
    <ele>771.099914550781</ele>
    <time>2025-03-30T07:12:17Z</time>
   </trkpt>
   <trkpt lat="46.8438110351562" lon="12.7726926803589">
    <ele>771.594299316406</ele>
    <time>2025-03-30T07:12:22Z</time>
   </trkpt>
   <trkpt lat="46.8438491821289" lon="12.7727003097534">
    <ele>772.159851074219</ele>
    <time>2025-03-30T07:12:26Z</time>
   </trkpt>
   <trkpt lat="46.8438568115234" lon="12.7726974487305">
    <ele>772.243469238281</ele>
    <time>2025-03-30T07:12:27Z</time>
   </trkpt>
   <trkpt lat="46.8438758850098" lon="12.7727041244507">
    <ele>772.5458984375</ele>
    <time>2025-03-30T07:12:32Z</time>
   </trkpt>
   <trkpt lat="46.8439025878906" lon="12.7727088928223">
    <ele>772.938781738281</ele>
    <time>2025-03-30T07:12:36Z</time>
   </trkpt>
   <trkpt lat="46.8439407348633" lon="12.7727098464966">
    <ele>773.460327148438</ele>
    <time>2025-03-30T07:12:40Z</time>
   </trkpt>
   <trkpt lat="46.8439788818359" lon="12.7727184295654">
    <ele>774.034851074219</ele>
    <time>2025-03-30T07:12:45Z</time>
   </trkpt>
   <trkpt lat="46.8439979553223" lon="12.7727241516113">
    <ele>774.332458496094</ele>
    <time>2025-03-30T07:12:47Z</time>
   </trkpt>
   <trkpt lat="46.8440284729004" lon="12.7727308273315">
    <ele>774.791870117188</ele>
    <time>2025-03-30T07:12:52Z</time>
   </trkpt>
   <trkpt lat="46.8440322875977" lon="12.7727355957031">
    <ele>774.876892089844</ele>
    <time>2025-03-30T07:12:53Z</time>
   </trkpt>
   <trkpt lat="46.8440704345703" lon="12.7727451324463">
    <ele>775.460693359375</ele>
    <time>2025-03-30T07:12:58Z</time>
   </trkpt>
   <trkpt lat="46.8440895080566" lon="12.7727527618408">
    <ele>775.773315429688</ele>
    <time>2025-03-30T07:13:03Z</time>
   </trkpt>
   <trkpt lat="46.8441009521484" lon="12.7727584838867">
    <ele>775.969177246094</ele>
    <time>2025-03-30T07:13:04Z</time>
   </trkpt>
   <trkpt lat="46.8441276550293" lon="12.7727613449097">
    <ele>776.35205078125</ele>
    <time>2025-03-30T07:13:08Z</time>
   </trkpt>
   <trkpt lat="46.844165802002" lon="12.7727651596069">
    <ele>776.897399902344</ele>
    <time>2025-03-30T07:13:12Z</time>
   </trkpt>
   <trkpt lat="46.8441772460938" lon="12.7727727890015">
    <ele>777.099365234375</ele>
    <time>2025-03-30T07:13:14Z</time>
   </trkpt>
   <trkpt lat="46.8442115783691" lon="12.772780418396">
    <ele>777.59423828125</ele>
    <time>2025-03-30T07:13:20Z</time>
   </trkpt>
   <trkpt lat="46.8442764282227" lon="12.7728061676025">
    <ele>778.618347167969</ele>
    <time>2025-03-30T07:13:27Z</time>
   </trkpt>
   <trkpt lat="46.844295501709" lon="12.7728090286255">
    <ele>778.885681152344</ele>
    <time>2025-03-30T07:13:30Z</time>
   </trkpt>
   <trkpt lat="46.8443260192871" lon="12.7728214263916">
    <ele>779.3740234375</ele>
    <time>2025-03-30T07:13:34Z</time>
   </trkpt>
   <trkpt lat="46.8443565368652" lon="12.7728309631348">
    <ele>779.842346191406</ele>
    <time>2025-03-30T07:13:38Z</time>
   </trkpt>
   <trkpt lat="46.8443870544434" lon="12.7728338241577">
    <ele>780.260070800781</ele>
    <time>2025-03-30T07:13:41Z</time>
   </trkpt>
   <trkpt lat="46.8444290161133" lon="12.7728424072266">
    <ele>780.872253417969</ele>
    <time>2025-03-30T07:13:46Z</time>
   </trkpt>
   <trkpt lat="46.8444595336914" lon="12.7728452682495">
    <ele>781.291564941406</ele>
    <time>2025-03-30T07:13:49Z</time>
   </trkpt>
   <trkpt lat="46.8444786071777" lon="12.7728538513184">
    <ele>781.60888671875</ele>
    <time>2025-03-30T07:13:53Z</time>
   </trkpt>
   <trkpt lat="46.8444862365723" lon="12.7728576660156">
    <ele>781.739196777344</ele>
    <time>2025-03-30T07:13:55Z</time>
   </trkpt>
   <trkpt lat="46.8445129394531" lon="12.7728719711304">
    <ele>782.204406738281</ele>
    <time>2025-03-30T07:14:01Z</time>
   </trkpt>
   <trkpt lat="46.8445205688477" lon="12.7728729248047">
    <ele>782.31201171875</ele>
    <time>2025-03-30T07:14:02Z</time>
   </trkpt>
   <trkpt lat="46.8445587158203" lon="12.7729005813599">
    <ele>783.041076660156</ele>
    <time>2025-03-30T07:14:08Z</time>
   </trkpt>
   <trkpt lat="46.8445739746094" lon="12.7729139328003">
    <ele>783.353576660156</ele>
    <time>2025-03-30T07:14:11Z</time>
   </trkpt>
   <trkpt lat="46.8446006774902" lon="12.7729425430298">
    <ele>783.947570800781</ele>
    <time>2025-03-30T07:14:16Z</time>
   </trkpt>
   <trkpt lat="46.844612121582" lon="12.7729568481445">
    <ele>784.220886230469</ele>
    <time>2025-03-30T07:14:19Z</time>
   </trkpt>
   <trkpt lat="46.8446350097656" lon="12.7729682922363">
    <ele>784.623474121094</ele>
    <time>2025-03-30T07:14:23Z</time>
   </trkpt>
   <trkpt lat="46.8446655273438" lon="12.7729988098145">
    <ele>785.29443359375</ele>
    <time>2025-03-30T07:14:28Z</time>
   </trkpt>
   <trkpt lat="46.8447036743164" lon="12.7730436325073">
    <ele>786.199035644531</ele>
    <time>2025-03-30T07:14:33Z</time>
   </trkpt>
   <trkpt lat="46.8447265625" lon="12.7730741500854">
    <ele>786.778442382812</ele>
    <time>2025-03-30T07:14:36Z</time>
   </trkpt>
   <trkpt lat="46.8447494506836" lon="12.7730989456177">
    <ele>787.311096191406</ele>
    <time>2025-03-30T07:14:39Z</time>
   </trkpt>
   <trkpt lat="46.8447761535644" lon="12.7731294631958">
    <ele>787.950866699219</ele>
    <time>2025-03-30T07:14:43Z</time>
   </trkpt>
   <trkpt lat="46.8447875976562" lon="12.7731399536133">
    <ele>788.203247070312</ele>
    <time>2025-03-30T07:14:45Z</time>
   </trkpt>
   <trkpt lat="46.8448181152344" lon="12.7731819152832">
    <ele>789.006591796875</ele>
    <time>2025-03-30T07:14:51Z</time>
   </trkpt>
   <trkpt lat="46.8448257446289" lon="12.7731857299805">
    <ele>789.147827148438</ele>
    <time>2025-03-30T07:14:52Z</time>
   </trkpt>
   <trkpt lat="46.844856262207" lon="12.77321434021">
    <ele>789.837097167969</ele>
    <time>2025-03-30T07:14:59Z</time>
   </trkpt>
   <trkpt lat="46.8448677062988" lon="12.7732200622559">
    <ele>790.050720214844</ele>
    <time>2025-03-30T07:15:00Z</time>
   </trkpt>
   <trkpt lat="46.8449058532715" lon="12.7732515335083">
    <ele>790.881164550781</ele>
    <time>2025-03-30T07:15:04Z</time>
   </trkpt>
   <trkpt lat="46.844913482666" lon="12.773250579834">
    <ele>790.980346679688</ele>
    <time>2025-03-30T07:15:05Z</time>
   </trkpt>
   <trkpt lat="46.8449440002441" lon="12.773286819458">
    <ele>791.754577636719</ele>
    <time>2025-03-30T07:15:09Z</time>
   </trkpt>
   <trkpt lat="46.8449363708496" lon="12.7732887268066">
    <ele>791.663696289062</ele>
    <time>2025-03-30T07:15:10Z</time>
   </trkpt>
   <trkpt lat="46.8449401855469" lon="12.7732839584351">
    <ele>791.673156738281</ele>
    <time>2025-03-30T07:15:12Z</time>
   </trkpt>
   <trkpt lat="46.8449440002441" lon="12.7732934951782">
    <ele>791.817565917969</ele>
    <time>2025-03-30T07:15:14Z</time>
   </trkpt>
   <trkpt lat="46.8449363708496" lon="12.7733068466187">
    <ele>791.834350585938</ele>
    <time>2025-03-30T07:15:21Z</time>
   </trkpt>
   <trkpt lat="46.8449478149414" lon="12.7732992172241">
    <ele>791.926147460938</ele>
    <time>2025-03-30T07:15:31Z</time>
   </trkpt>
   <trkpt lat="46.8449630737305" lon="12.7732839584351">
    <ele>791.99951171875</ele>
    <time>2025-03-30T07:15:39Z</time>
   </trkpt>
   <trkpt lat="46.8449630737305" lon="12.7732839584351">
    <ele>791.99951171875</ele>
    <time>2025-03-30T07:15:45Z</time>
   </trkpt>
   <trkpt lat="46.8449630737305" lon="12.7732839584351">
    <ele>791.99951171875</ele>
    <time>2025-03-30T07:15:52Z</time>
   </trkpt>
   <trkpt lat="46.8449630737305" lon="12.7732839584351">
    <ele>791.99951171875</ele>
    <time>2025-03-30T07:16:00Z</time>
   </trkpt>
   <trkpt lat="46.8449592590332" lon="12.7732849121094">
    <ele>791.954162597656</ele>
    <time>2025-03-30T07:16:07Z</time>
   </trkpt>
   <trkpt lat="46.8449592590332" lon="12.7732858657837">
    <ele>791.963195800781</ele>
    <time>2025-03-30T07:16:08Z</time>
   </trkpt>
   <trkpt lat="46.8449554443359" lon="12.773289680481">
    <ele>791.944946289062</ele>
    <time>2025-03-30T07:16:15Z</time>
   </trkpt>
   <trkpt lat="46.8449630737305" lon="12.7733144760132">
    <ele>792.289245605469</ele>
    <time>2025-03-30T07:16:21Z</time>
   </trkpt>
   <trkpt lat="46.8449745178223" lon="12.7733306884766">
    <ele>792.607849121094</ele>
    <time>2025-03-30T07:16:25Z</time>
   </trkpt>
   <trkpt lat="46.8449859619141" lon="12.7733449935913">
    <ele>792.894165039062</ele>
    <time>2025-03-30T07:16:28Z</time>
   </trkpt>
   <trkpt lat="46.8449935913086" lon="12.7733516693115">
    <ele>793.060546875</ele>
    <time>2025-03-30T07:16:30Z</time>
   </trkpt>
   <trkpt lat="46.8450202941894" lon="12.7733688354492">
    <ele>793.594604492188</ele>
    <time>2025-03-30T07:16:34Z</time>
   </trkpt>
   <trkpt lat="46.8450508117676" lon="12.7733783721924">
    <ele>794.123168945312</ele>
    <time>2025-03-30T07:16:38Z</time>
   </trkpt>
   <trkpt lat="46.8450736999512" lon="12.7733888626099">
    <ele>794.55126953125</ele>
    <time>2025-03-30T07:16:42Z</time>
   </trkpt>
   <trkpt lat="46.8450813293457" lon="12.7733926773071">
    <ele>794.697448730469</ele>
    <time>2025-03-30T07:16:43Z</time>
   </trkpt>
   <trkpt lat="46.8451309204102" lon="12.773434638977">
    <ele>795.812622070312</ele>
    <time>2025-03-30T07:16:50Z</time>
   </trkpt>
   <trkpt lat="46.8451461791992" lon="12.7734460830688">
    <ele>796.147033691406</ele>
    <time>2025-03-30T07:16:52Z</time>
   </trkpt>
   <trkpt lat="46.8451538085938" lon="12.7734603881836">
    <ele>796.394653320312</ele>
    <time>2025-03-30T07:16:54Z</time>
   </trkpt>
   <trkpt lat="46.8451881408691" lon="12.7735080718994">
    <ele>797.366394042969</ele>
    <time>2025-03-30T07:17:01Z</time>
   </trkpt>
   <trkpt lat="46.8452262878418" lon="12.7735376358032">
    <ele>798.240966796875</ele>
    <time>2025-03-30T07:17:07Z</time>
   </trkpt>
   <trkpt lat="46.8452453613281" lon="12.7735624313354">
    <ele>798.781433105469</ele>
    <time>2025-03-30T07:17:11Z</time>
   </trkpt>
   <trkpt lat="46.8452529907227" lon="12.7735652923584">
    <ele>798.929565429688</ele>
    <time>2025-03-30T07:17:13Z</time>
   </trkpt>
   <trkpt lat="46.8452911376953" lon="12.7735996246338">
    <ele>799.875793457031</ele>
    <time>2025-03-30T07:17:20Z</time>
   </trkpt>
   <trkpt lat="46.845329284668" lon="12.7736501693726">
    <ele>801.004028320312</ele>
    <time>2025-03-30T07:17:26Z</time>
   </trkpt>
   <trkpt lat="46.845344543457" lon="12.7736692428589">
    <ele>801.44970703125</ele>
    <time>2025-03-30T07:17:29Z</time>
   </trkpt>
   <trkpt lat="46.8453559875488" lon="12.7736930847168">
    <ele>801.885803222656</ele>
    <time>2025-03-30T07:17:32Z</time>
   </trkpt>
   <trkpt lat="46.8453712463379" lon="12.7737236022949">
    <ele>802.458740234375</ele>
    <time>2025-03-30T07:17:37Z</time>
   </trkpt>
   <trkpt lat="46.8453788757324" lon="12.773736000061">
    <ele>802.716979980469</ele>
    <time>2025-03-30T07:17:39Z</time>
   </trkpt>
   <trkpt lat="46.8453941345215" lon="12.7737531661987">
    <ele>803.1552734375</ele>
    <time>2025-03-30T07:17:43Z</time>
   </trkpt>
   <trkpt lat="46.8454132080078" lon="12.7737760543823">
    <ele>803.722778320312</ele>
    <time>2025-03-30T07:17:48Z</time>
   </trkpt>
   <trkpt lat="46.8454208374023" lon="12.7737808227539">
    <ele>803.903686523438</ele>
    <time>2025-03-30T07:17:50Z</time>
   </trkpt>
   <trkpt lat="46.8454513549805" lon="12.7738046646118">
    <ele>804.68408203125</ele>
    <time>2025-03-30T07:17:54Z</time>
   </trkpt>
   <trkpt lat="46.8454742431641" lon="12.7738304138184">
    <ele>805.362426757812</ele>
    <time>2025-03-30T07:17:58Z</time>
   </trkpt>
   <trkpt lat="46.8454856872559" lon="12.7738332748413">
    <ele>805.592041015625</ele>
    <time>2025-03-30T07:18:00Z</time>
   </trkpt>
   <trkpt lat="46.845516204834" lon="12.7738656997681">
    <ele>806.488159179688</ele>
    <time>2025-03-30T07:18:06Z</time>
   </trkpt>
   <trkpt lat="46.8455238342285" lon="12.7738780975342">
    <ele>806.762939453125</ele>
    <time>2025-03-30T07:18:07Z</time>
   </trkpt>
   <trkpt lat="46.8455467224121" lon="12.7739009857178">
    <ele>807.4287109375</ele>
    <time>2025-03-30T07:18:11Z</time>
   </trkpt>
   <trkpt lat="46.845573425293" lon="12.7739248275757">
    <ele>808.179565429688</ele>
    <time>2025-03-30T07:18:16Z</time>
   </trkpt>
   <trkpt lat="46.8456001281738" lon="12.7739715576172">
    <ele>809.209106445312</ele>
    <time>2025-03-30T07:18:22Z</time>
   </trkpt>
   <trkpt lat="46.8456077575684" lon="12.7739810943604">
    <ele>809.460510253906</ele>
    <time>2025-03-30T07:18:24Z</time>
   </trkpt>
   <trkpt lat="46.8456344604492" lon="12.7740077972412">
    <ele>810.266540527344</ele>
    <time>2025-03-30T07:18:29Z</time>
   </trkpt>
   <trkpt lat="46.8456535339356" lon="12.7740345001221">
    <ele>810.940124511719</ele>
    <time>2025-03-30T07:18:33Z</time>
   </trkpt>
   <trkpt lat="46.8456687927246" lon="12.7740488052368">
    <ele>811.396728515625</ele>
    <time>2025-03-30T07:18:35Z</time>
   </trkpt>
   <trkpt lat="46.8456954956055" lon="12.7740859985352">
    <ele>812.352722167969</ele>
    <time>2025-03-30T07:18:40Z</time>
   </trkpt>
   <trkpt lat="46.8456993103027" lon="12.7740917205811">
    <ele>812.495300292969</ele>
    <time>2025-03-30T07:18:41Z</time>
   </trkpt>
   <trkpt lat="46.8457221984863" lon="12.7741222381592">
    <ele>813.308166503906</ele>
    <time>2025-03-30T07:18:46Z</time>
   </trkpt>
   <trkpt lat="46.8457374572754" lon="12.7741403579712">
    <ele>813.826416015625</ele>
    <time>2025-03-30T07:18:49Z</time>
   </trkpt>
   <trkpt lat="46.8457450866699" lon="12.774151802063">
    <ele>814.117004394531</ele>
    <time>2025-03-30T07:18:51Z</time>
   </trkpt>
   <trkpt lat="46.8457870483398" lon="12.7741889953613">
    <ele>815.349487304688</ele>
    <time>2025-03-30T07:18:57Z</time>
   </trkpt>
   <trkpt lat="46.8458023071289" lon="12.7742023468018">
    <ele>815.786437988281</ele>
    <time>2025-03-30T07:18:59Z</time>
   </trkpt>
   <trkpt lat="46.8458251953125" lon="12.7742214202881">
    <ele>816.433776855469</ele>
    <time>2025-03-30T07:19:03Z</time>
   </trkpt>
   <trkpt lat="46.8458480834961" lon="12.7742519378662">
    <ele>817.027099609375</ele>
    <time>2025-03-30T07:19:08Z</time>
   </trkpt>
   <trkpt lat="46.8458595275879" lon="12.7742586135864">
    <ele>817.181640625</ele>
    <time>2025-03-30T07:19:09Z</time>
   </trkpt>
   <trkpt lat="46.8459091186523" lon="12.7742881774902">
    <ele>817.857971191406</ele>
    <time>2025-03-30T07:19:15Z</time>
   </trkpt>
   <trkpt lat="46.845947265625" lon="12.7743291854858">
    <ele>818.575500488281</ele>
    <time>2025-03-30T07:19:19Z</time>
   </trkpt>
   <trkpt lat="46.8459548950195" lon="12.774338722229">
    <ele>818.733459472656</ele>
    <time>2025-03-30T07:19:20Z</time>
   </trkpt>
   <trkpt lat="46.8459701538086" lon="12.7743530273438">
    <ele>818.997802734375</ele>
    <time>2025-03-30T07:19:22Z</time>
   </trkpt>
   <trkpt lat="46.8460006713867" lon="12.7743854522705">
    <ele>819.567687988281</ele>
    <time>2025-03-30T07:19:27Z</time>
   </trkpt>
   <trkpt lat="46.8460235595703" lon="12.7744131088257">
    <ele>820.031188964844</ele>
    <time>2025-03-30T07:19:31Z</time>
   </trkpt>
   <trkpt lat="46.8460388183594" lon="12.7744398117065">
    <ele>820.429443359375</ele>
    <time>2025-03-30T07:19:34Z</time>
   </trkpt>
   <trkpt lat="46.8460578918457" lon="12.7744836807251">
    <ele>821.040588378906</ele>
    <time>2025-03-30T07:19:41Z</time>
   </trkpt>
   <trkpt lat="46.8460731506348" lon="12.7745065689087">
    <ele>821.397644042969</ele>
    <time>2025-03-30T07:19:44Z</time>
   </trkpt>
   <trkpt lat="46.8460960388184" lon="12.7745370864868">
    <ele>821.892028808594</ele>
    <time>2025-03-30T07:19:49Z</time>
   </trkpt>
   <trkpt lat="46.846118927002" lon="12.7745714187622">
    <ele>822.427612304688</ele>
    <time>2025-03-30T07:19:53Z</time>
   </trkpt>
   <trkpt lat="46.8461608886719" lon="12.774621963501">
    <ele>823.275573730469</ele>
    <time>2025-03-30T07:20:01Z</time>
   </trkpt>
   <trkpt lat="46.8461647033691" lon="12.7746295928955">
    <ele>823.385437011719</ele>
    <time>2025-03-30T07:20:02Z</time>
   </trkpt>
   <trkpt lat="46.8461723327637" lon="12.7746524810791">
    <ele>823.687561035156</ele>
    <time>2025-03-30T07:20:06Z</time>
   </trkpt>
   <trkpt lat="46.8462104797363" lon="12.7746753692627">
    <ele>824.209411621094</ele>
    <time>2025-03-30T07:20:14Z</time>
   </trkpt>
   <trkpt lat="46.8462257385254" lon="12.7746734619141">
    <ele>824.298706054688</ele>
    <time>2025-03-30T07:20:18Z</time>
   </trkpt>
   <trkpt lat="46.8462333679199" lon="12.7746734619141">
    <ele>824.353637695312</ele>
    <time>2025-03-30T07:20:20Z</time>
   </trkpt>
   <trkpt lat="46.8462753295898" lon="12.7746801376343">
    <ele>824.727844238281</ele>
    <time>2025-03-30T07:20:26Z</time>
   </trkpt>
   <trkpt lat="46.8463096618652" lon="12.7746734619141">
    <ele>824.902954101562</ele>
    <time>2025-03-30T07:20:33Z</time>
   </trkpt>
   <trkpt lat="46.8463096618652" lon="12.7746715545654">
    <ele>824.88232421875</ele>
    <time>2025-03-30T07:20:34Z</time>
   </trkpt>
   <trkpt lat="46.8463554382324" lon="12.7746658325195">
    <ele>825.150146484375</ele>
    <time>2025-03-30T07:20:40Z</time>
   </trkpt>
   <trkpt lat="46.846363067627" lon="12.7746648788452">
    <ele>825.194763183594</ele>
    <time>2025-03-30T07:20:42Z</time>
   </trkpt>
   <trkpt lat="46.846378326416" lon="12.7746601104736">
    <ele>825.253112792969</ele>
    <time>2025-03-30T07:20:45Z</time>
   </trkpt>
   <trkpt lat="46.8464241027832" lon="12.7746543884277">
    <ele>825.520935058594</ele>
    <time>2025-03-30T07:20:51Z</time>
   </trkpt>
   <trkpt lat="46.846435546875" lon="12.7746515274048">
    <ele>825.572448730469</ele>
    <time>2025-03-30T07:20:53Z</time>
   </trkpt>
   <trkpt lat="46.8464775085449" lon="12.7746543884277">
    <ele>825.905456542969</ele>
    <time>2025-03-30T07:20:59Z</time>
   </trkpt>
   <trkpt lat="46.846492767334" lon="12.7746524810791">
    <ele>825.994689941406</ele>
    <time>2025-03-30T07:21:01Z</time>
   </trkpt>
   <trkpt lat="46.8465156555176" lon="12.7746562957764">
    <ele>826.20068359375</ele>
    <time>2025-03-30T07:21:05Z</time>
   </trkpt>
   <trkpt lat="46.846549987793" lon="12.7746620178223">
    <ele>826.509704589844</ele>
    <time>2025-03-30T07:21:09Z</time>
   </trkpt>
   <trkpt lat="46.8465576171875" lon="12.7746658325195">
    <ele>826.605834960938</ele>
    <time>2025-03-30T07:21:10Z</time>
   </trkpt>
   <trkpt lat="46.8465805053711" lon="12.774676322937">
    <ele>826.883911132812</ele>
    <time>2025-03-30T07:21:13Z</time>
   </trkpt>
   <trkpt lat="46.8466186523438" lon="12.7746982574463">
    <ele>827.395446777344</ele>
    <time>2025-03-30T07:21:19Z</time>
   </trkpt>
   <trkpt lat="46.8466300964356" lon="12.7747011184692">
    <ele>827.5087890625</ele>
    <time>2025-03-30T07:21:21Z</time>
   </trkpt>
   <trkpt lat="46.8466567993164" lon="12.7747163772583">
    <ele>827.865844726562</ele>
    <time>2025-03-30T07:21:26Z</time>
   </trkpt>
   <trkpt lat="46.8466758728027" lon="12.7747268676758">
    <ele>828.325622558594</ele>
    <time>2025-03-30T07:21:30Z</time>
   </trkpt>
   <trkpt lat="46.8466949462891" lon="12.7747383117676">
    <ele>829.014282226562</ele>
    <time>2025-03-30T07:21:33Z</time>
   </trkpt>
   <trkpt lat="46.8467292785644" lon="12.7747526168823">
    <ele>830.173706054688</ele>
    <time>2025-03-30T07:21:38Z</time>
   </trkpt>
   <trkpt lat="46.846736907959" lon="12.7747535705566">
    <ele>830.407775878906</ele>
    <time>2025-03-30T07:21:39Z</time>
   </trkpt>
   <trkpt lat="46.8467483520508" lon="12.7747592926025">
    <ele>830.798583984375</ele>
    <time>2025-03-30T07:21:40Z</time>
   </trkpt>
   <trkpt lat="46.8467712402344" lon="12.7747745513916">
    <ele>831.607788085938</ele>
    <time>2025-03-30T07:21:44Z</time>
   </trkpt>
   <trkpt lat="46.8468017578125" lon="12.7747831344604">
    <ele>832.568420410156</ele>
    <time>2025-03-30T07:21:48Z</time>
   </trkpt>
   <trkpt lat="46.846809387207" lon="12.7747888565063">
    <ele>832.8369140625</ele>
    <time>2025-03-30T07:21:49Z</time>
   </trkpt>
   <trkpt lat="46.8468246459961" lon="12.7747936248779">
    <ele>833.315612792969</ele>
    <time>2025-03-30T07:21:51Z</time>
   </trkpt>
   <trkpt lat="46.846851348877" lon="12.7748041152954">
    <ele>834.16357421875</ele>
    <time>2025-03-30T07:21:56Z</time>
   </trkpt>
   <trkpt lat="46.8468742370606" lon="12.7748098373413">
    <ele>834.859069824219</ele>
    <time>2025-03-30T07:21:59Z</time>
   </trkpt>
   <trkpt lat="46.8469009399414" lon="12.7748241424561">
    <ele>835.71630859375</ele>
    <time>2025-03-30T07:22:05Z</time>
   </trkpt>
   <trkpt lat="46.8469085693359" lon="12.774827003479">
    <ele>835.950744628906</ele>
    <time>2025-03-30T07:22:06Z</time>
   </trkpt>
   <trkpt lat="46.8469429016113" lon="12.7748336791992">
    <ele>836.958740234375</ele>
    <time>2025-03-30T07:22:10Z</time>
   </trkpt>
   <trkpt lat="46.8469696044922" lon="12.7748327255249">
    <ele>837.703125</ele>
    <time>2025-03-30T07:22:13Z</time>
   </trkpt>
   <trkpt lat="46.8469848632812" lon="12.7748394012451">
    <ele>838.167114257812</ele>
    <time>2025-03-30T07:22:16Z</time>
   </trkpt>
   <trkpt lat="46.8470001220703" lon="12.7748403549194">
    <ele>838.598815917969</ele>
    <time>2025-03-30T07:22:18Z</time>
   </trkpt>
   <trkpt lat="46.8470153808594" lon="12.7748460769653">
    <ele>839.052734375</ele>
    <time>2025-03-30T07:22:21Z</time>
   </trkpt>
   <trkpt lat="46.8470649719238" lon="12.7748670578003">
    <ele>840.516540527344</ele>
    <time>2025-03-30T07:22:28Z</time>
   </trkpt>
   <trkpt lat="46.8470687866211" lon="12.7748680114746">
    <ele>840.625061035156</ele>
    <time>2025-03-30T07:22:29Z</time>
   </trkpt>
   <trkpt lat="46.8471069335938" lon="12.7748737335205">
    <ele>841.691650390625</ele>
    <time>2025-03-30T07:22:35Z</time>
   </trkpt>
   <trkpt lat="46.8471221923828" lon="12.7748699188232">
    <ele>842.098327636719</ele>
    <time>2025-03-30T07:22:37Z</time>
   </trkpt>
   <trkpt lat="46.8471603393555" lon="12.7748785018921">
    <ele>843.164855957031</ele>
    <time>2025-03-30T07:22:41Z</time>
   </trkpt>
   <trkpt lat="46.8471832275391" lon="12.7748832702637">
    <ele>843.798583984375</ele>
    <time>2025-03-30T07:22:45Z</time>
   </trkpt>
   <trkpt lat="46.8471984863281" lon="12.7748804092407">
    <ele>844.209289550781</ele>
    <time>2025-03-30T07:22:47Z</time>
   </trkpt>
   <trkpt lat="46.8472366333008" lon="12.7748880386353">
    <ele>845.256713867188</ele>
    <time>2025-03-30T07:22:53Z</time>
   </trkpt>
   <trkpt lat="46.8472442626953" lon="12.7748861312866">
    <ele>845.462158203125</ele>
    <time>2025-03-30T07:22:54Z</time>
   </trkpt>
   <trkpt lat="46.8472671508789" lon="12.7748908996582">
    <ele>846.085998535156</ele>
    <time>2025-03-30T07:22:59Z</time>
   </trkpt>
   <trkpt lat="46.8472862243652" lon="12.7749013900757">
    <ele>846.603576660156</ele>
    <time>2025-03-30T07:23:02Z</time>
   </trkpt>
   <trkpt lat="46.8473052978516" lon="12.7749071121216">
    <ele>847.115356445312</ele>
    <time>2025-03-30T07:23:05Z</time>
   </trkpt>
   <trkpt lat="46.8473243713379" lon="12.7749128341675">
    <ele>847.623413085938</ele>
    <time>2025-03-30T07:23:08Z</time>
   </trkpt>
   <trkpt lat="46.8473472595215" lon="12.7749156951904">
    <ele>848.23193359375</ele>
    <time>2025-03-30T07:23:11Z</time>
   </trkpt>
   <trkpt lat="46.8473777770996" lon="12.7749280929565">
    <ele>849.026977539062</ele>
    <time>2025-03-30T07:23:15Z</time>
   </trkpt>
   <trkpt lat="46.8473892211914" lon="12.7749290466309">
    <ele>849.328002929688</ele>
    <time>2025-03-30T07:23:17Z</time>
   </trkpt>
   <trkpt lat="46.8474235534668" lon="12.7749423980713">
    <ele>850.204833984375</ele>
    <time>2025-03-30T07:23:23Z</time>
   </trkpt>
   <trkpt lat="46.8474617004394" lon="12.7749423980713">
    <ele>851.2041015625</ele>
    <time>2025-03-30T07:23:29Z</time>
   </trkpt>
   <trkpt lat="46.8474731445312" lon="12.7749423980713">
    <ele>851.50390625</ele>
    <time>2025-03-30T07:23:31Z</time>
   </trkpt>
   <trkpt lat="46.8475036621094" lon="12.7749443054199">
    <ele>852.421997070312</ele>
    <time>2025-03-30T07:23:35Z</time>
   </trkpt>
   <trkpt lat="46.8475112915039" lon="12.7749423980713">
    <ele>852.890502929688</ele>
    <time>2025-03-30T07:23:36Z</time>
   </trkpt>
   <trkpt lat="46.847541809082" lon="12.7749481201172">
    <ele>854.714050292969</ele>
    <time>2025-03-30T07:23:41Z</time>
   </trkpt>
   <trkpt lat="46.8475608825684" lon="12.7749547958374">
    <ele>855.839477539062</ele>
    <time>2025-03-30T07:23:44Z</time>
   </trkpt>
   <trkpt lat="46.847583770752" lon="12.7749576568604">
    <ele>857.209350585938</ele>
    <time>2025-03-30T07:23:48Z</time>
   </trkpt>
   <trkpt lat="46.8476104736328" lon="12.7749700546265">
    <ele>858.764831542969</ele>
    <time>2025-03-30T07:23:53Z</time>
   </trkpt>
   <trkpt lat="46.8476219177246" lon="12.7749729156494">
    <ele>859.441101074219</ele>
    <time>2025-03-30T07:23:54Z</time>
   </trkpt>
   <trkpt lat="46.8476448059082" lon="12.7749862670898">
    <ele>860.755004882812</ele>
    <time>2025-03-30T07:23:58Z</time>
   </trkpt>
   <trkpt lat="46.847728729248" lon="12.7749948501587">
    <ele>865.75244140625</ele>
    <time>2025-03-30T07:24:05Z</time>
   </trkpt>
   <trkpt lat="46.8477363586426" lon="12.7749996185303">
    <ele>866.183654785156</ele>
    <time>2025-03-30T07:24:06Z</time>
   </trkpt>
   <trkpt lat="46.8477363586426" lon="12.7749996185303">
    <ele>866.183654785156</ele>
    <time>2025-03-30T07:24:07Z</time>
   </trkpt>
   <trkpt lat="46.8477821350098" lon="12.775016784668">
    <ele>868.946350097656</ele>
    <time>2025-03-30T07:24:11Z</time>
   </trkpt>
   <trkpt lat="46.8477897644043" lon="12.7750301361084">
    <ele>869.412658691406</ele>
    <time>2025-03-30T07:24:16Z</time>
   </trkpt>
   <trkpt lat="46.8477897644043" lon="12.7750301361084">
    <ele>869.412658691406</ele>
    <time>2025-03-30T07:24:20Z</time>
   </trkpt>
   <trkpt lat="46.847827911377" lon="12.775016784668">
    <ele>871.673034667969</ele>
    <time>2025-03-30T07:24:27Z</time>
   </trkpt>
   <trkpt lat="46.8478317260742" lon="12.775016784668">
    <ele>871.900207519531</ele>
    <time>2025-03-30T07:24:28Z</time>
   </trkpt>
   <trkpt lat="46.8478355407715" lon="12.774998664856">
    <ele>872.14111328125</ele>
    <time>2025-03-30T07:24:32Z</time>
   </trkpt>
   <trkpt lat="46.8478393554688" lon="12.7749691009521">
    <ele>872.563171386719</ele>
    <time>2025-03-30T07:24:36Z</time>
   </trkpt>
   <trkpt lat="46.847843170166" lon="12.7749576568604">
    <ele>872.8681640625</ele>
    <time>2025-03-30T07:24:39Z</time>
   </trkpt>
   <trkpt lat="46.8478736877441" lon="12.7749280929565">
    <ele>874.912292480469</ele>
    <time>2025-03-30T07:24:43Z</time>
   </trkpt>
   <trkpt lat="46.8478813171387" lon="12.7749061584473">
    <ele>875.526000976562</ele>
    <time>2025-03-30T07:24:45Z</time>
   </trkpt>
   <trkpt lat="46.8478927612305" lon="12.7748804092407">
    <ele>876.402038574219</ele>
    <time>2025-03-30T07:24:49Z</time>
   </trkpt>
   <trkpt lat="46.8479194641113" lon="12.7748498916626">
    <ele>878.252258300781</ele>
    <time>2025-03-30T07:24:53Z</time>
   </trkpt>
   <trkpt lat="46.8479385375977" lon="12.7748146057129">
    <ele>879.68212890625</ele>
    <time>2025-03-30T07:24:57Z</time>
   </trkpt>
   <trkpt lat="46.8479537963867" lon="12.7747812271118">
    <ele>880.873107910156</ele>
    <time>2025-03-30T07:25:01Z</time>
   </trkpt>
   <trkpt lat="46.8479690551758" lon="12.774754524231">
    <ele>882.021850585938</ele>
    <time>2025-03-30T07:25:04Z</time>
   </trkpt>
   <trkpt lat="46.8480072021484" lon="12.7746992111206">
    <ele>884.833068847656</ele>
    <time>2025-03-30T07:25:09Z</time>
   </trkpt>
   <trkpt lat="46.8480110168457" lon="12.7746906280518">
    <ele>885.140686035156</ele>
    <time>2025-03-30T07:25:10Z</time>
   </trkpt>
   <trkpt lat="46.8480491638184" lon="12.7746438980103">
    <ele>887.921447753906</ele>
    <time>2025-03-30T07:25:16Z</time>
   </trkpt>
   <trkpt lat="46.8480567932129" lon="12.7746410369873">
    <ele>888.426696777344</ele>
    <time>2025-03-30T07:25:17Z</time>
   </trkpt>
   <trkpt lat="46.8480911254883" lon="12.7746305465698">
    <ele>890.684509277344</ele>
    <time>2025-03-30T07:25:21Z</time>
   </trkpt>
   <trkpt lat="46.8481178283691" lon="12.7746343612671">
    <ele>892.337768554688</ele>
    <time>2025-03-30T07:25:24Z</time>
   </trkpt>
   <trkpt lat="46.8481330871582" lon="12.7746448516846">
    <ele>893.206359863281</ele>
    <time>2025-03-30T07:25:26Z</time>
   </trkpt>
   <trkpt lat="46.8481674194336" lon="12.7746896743774">
    <ele>894.951843261719</ele>
    <time>2025-03-30T07:25:31Z</time>
   </trkpt>
   <trkpt lat="46.8481750488281" lon="12.7747211456299">
    <ele>895.133178710938</ele>
    <time>2025-03-30T07:25:33Z</time>
   </trkpt>
   <trkpt lat="46.8481979370117" lon="12.7747936248779">
    <ele>895.863647460938</ele>
    <time>2025-03-30T07:25:38Z</time>
   </trkpt>
   <trkpt lat="46.8481979370117" lon="12.7748079299927">
    <ele>895.725891113281</ele>
    <time>2025-03-30T07:25:39Z</time>
   </trkpt>
   <trkpt lat="46.8481903076172" lon="12.7748613357544">
    <ele>894.744689941406</ele>
    <time>2025-03-30T07:25:44Z</time>
   </trkpt>
   <trkpt lat="46.8481864929199" lon="12.774881362915">
    <ele>894.3203125</ele>
    <time>2025-03-30T07:25:47Z</time>
   </trkpt>
   <trkpt lat="46.8481903076172" lon="12.774923324585">
    <ele>894.151794433594</ele>
    <time>2025-03-30T07:25:51Z</time>
   </trkpt>
   <trkpt lat="46.8481864929199" lon="12.7749309539795">
    <ele>893.84765625</ele>
    <time>2025-03-30T07:25:52Z</time>
   </trkpt>
   <trkpt lat="46.8481750488281" lon="12.7749824523926">
    <ele>892.66845703125</ele>
    <time>2025-03-30T07:25:57Z</time>
   </trkpt>
   <trkpt lat="46.8481750488281" lon="12.7749967575073">
    <ele>892.533508300781</ele>
    <time>2025-03-30T07:25:58Z</time>
   </trkpt>
   <trkpt lat="46.8481674194336" lon="12.7750291824341">
    <ele>891.785461425781</ele>
    <time>2025-03-30T07:26:03Z</time>
   </trkpt>
   <trkpt lat="46.8481559753418" lon="12.7750263214111">
    <ele>891.132080078125</ele>
    <time>2025-03-30T07:26:05Z</time>
   </trkpt>
   <trkpt lat="46.8481636047363" lon="12.7750158309937">
    <ele>891.676940917969</ele>
    <time>2025-03-30T07:26:09Z</time>
   </trkpt>
   <trkpt lat="46.8481674194336" lon="12.7749967575073">
    <ele>892.075561523438</ele>
    <time>2025-03-30T07:26:13Z</time>
   </trkpt>
   <trkpt lat="46.8481712341309" lon="12.7749853134155">
    <ele>892.412109375</ele>
    <time>2025-03-30T07:26:14Z</time>
   </trkpt>
   <trkpt lat="46.8481903076172" lon="12.7749128341675">
    <ele>894.252136230469</ele>
    <time>2025-03-30T07:26:20Z</time>
   </trkpt>
   <trkpt lat="46.848201751709" lon="12.774899482727">
    <ele>895.076416015625</ele>
    <time>2025-03-30T07:26:22Z</time>
   </trkpt>
   <trkpt lat="46.848217010498" lon="12.7748622894287">
    <ele>896.369506835938</ele>
    <time>2025-03-30T07:26:27Z</time>
   </trkpt>
   <trkpt lat="46.8482208251953" lon="12.7748594284058">
    <ele>896.631042480469</ele>
    <time>2025-03-30T07:26:28Z</time>
   </trkpt>
   <trkpt lat="46.8482284545898" lon="12.7748365402222">
    <ele>897.324523925781</ele>
    <time>2025-03-30T07:26:32Z</time>
   </trkpt>
   <trkpt lat="46.8482437133789" lon="12.7748203277588">
    <ele>898.424133300781</ele>
    <time>2025-03-30T07:26:35Z</time>
   </trkpt>
   <trkpt lat="46.8482475280762" lon="12.7747964859009">
    <ele>898.898742675781</ele>
    <time>2025-03-30T07:26:38Z</time>
   </trkpt>
   <trkpt lat="46.8482666015625" lon="12.7747735977173">
    <ele>900.310729980469</ele>
    <time>2025-03-30T07:26:43Z</time>
   </trkpt>
   <trkpt lat="46.8482856750488" lon="12.7747421264648">
    <ele>901.8193359375</ele>
    <time>2025-03-30T07:26:49Z</time>
   </trkpt>
   <trkpt lat="46.8482894897461" lon="12.774733543396">
    <ele>902.146179199219</ele>
    <time>2025-03-30T07:26:50Z</time>
   </trkpt>
   <trkpt lat="46.8483047485352" lon="12.774694442749">
    <ele>903.509460449219</ele>
    <time>2025-03-30T07:26:57Z</time>
   </trkpt>
   <trkpt lat="46.8483047485352" lon="12.7746801376343">
    <ele>903.660400390625</ele>
    <time>2025-03-30T07:26:59Z</time>
   </trkpt>
   <trkpt lat="46.8483085632324" lon="12.7746486663818">
    <ele>904.233032226562</ele>
    <time>2025-03-30T07:27:03Z</time>
   </trkpt>
   <trkpt lat="46.8483085632324" lon="12.7746362686157">
    <ele>904.3642578125</ele>
    <time>2025-03-30T07:27:05Z</time>
   </trkpt>
   <trkpt lat="46.8483047485352" lon="12.7746286392212">
    <ele>904.203918457031</ele>
    <time>2025-03-30T07:27:06Z</time>
   </trkpt>
   <trkpt lat="46.8483047485352" lon="12.7745990753174">
    <ele>904.515869140625</ele>
    <time>2025-03-30T07:27:12Z</time>
   </trkpt>
   <trkpt lat="46.8483047485352" lon="12.7745933532715">
    <ele>904.576293945312</ele>
    <time>2025-03-30T07:27:13Z</time>
   </trkpt>
   <trkpt lat="46.8482971191406" lon="12.7745542526245">
    <ele>904.501770019531</ele>
    <time>2025-03-30T07:27:18Z</time>
   </trkpt>
   <trkpt lat="46.8482971191406" lon="12.7745475769043">
    <ele>904.57177734375</ele>
    <time>2025-03-30T07:27:21Z</time>
   </trkpt>
   <trkpt lat="46.8482933044434" lon="12.7745208740234">
    <ele>904.607116699219</ele>
    <time>2025-03-30T07:27:25Z</time>
   </trkpt>
   <trkpt lat="46.8482933044434" lon="12.7745037078857">
    <ele>904.786560058594</ele>
    <time>2025-03-30T07:27:27Z</time>
   </trkpt>
   <trkpt lat="46.8482894897461" lon="12.7744741439819">
    <ele>904.849426269531</ele>
    <time>2025-03-30T07:27:31Z</time>
   </trkpt>
   <trkpt lat="46.8482894897461" lon="12.7744607925415">
    <ele>904.988586425781</ele>
    <time>2025-03-30T07:27:33Z</time>
   </trkpt>
   <trkpt lat="46.8482894897461" lon="12.7744464874268">
    <ele>905.137634277344</ele>
    <time>2025-03-30T07:27:35Z</time>
   </trkpt>
   <trkpt lat="46.8482818603516" lon="12.7744159698486">
    <ele>904.959411621094</ele>
    <time>2025-03-30T07:27:39Z</time>
   </trkpt>
   <trkpt lat="46.8482818603516" lon="12.7744016647339">
    <ele>905.107543945312</ele>
    <time>2025-03-30T07:27:41Z</time>
   </trkpt>
   <trkpt lat="46.8482856750488" lon="12.7743663787842">
    <ele>905.722717285156</ele>
    <time>2025-03-30T07:27:45Z</time>
   </trkpt>
   <trkpt lat="46.8482818603516" lon="12.7743463516235">
    <ele>905.680358886719</ele>
    <time>2025-03-30T07:27:47Z</time>
   </trkpt>
   <trkpt lat="46.8482780456543" lon="12.7743244171143">
    <ele>905.656311035156</ele>
    <time>2025-03-30T07:27:50Z</time>
   </trkpt>
   <trkpt lat="46.8482818603516" lon="12.7743053436279">
    <ele>906.10498046875</ele>
    <time>2025-03-30T07:27:53Z</time>
   </trkpt>
   <trkpt lat="46.8482818603516" lon="12.7742719650269">
    <ele>906.450622558594</ele>
    <time>2025-03-30T07:27:59Z</time>
   </trkpt>
   <trkpt lat="46.8482818603516" lon="12.7742719650269">
    <ele>906.450622558594</ele>
    <time>2025-03-30T07:28:00Z</time>
   </trkpt>
   <trkpt lat="46.8482856750488" lon="12.7742137908936">
    <ele>907.307800292969</ele>
    <time>2025-03-30T07:28:06Z</time>
   </trkpt>
   <trkpt lat="46.8482856750488" lon="12.7742033004761">
    <ele>907.416809082031</ele>
    <time>2025-03-30T07:28:07Z</time>
   </trkpt>
   <trkpt lat="46.8482856750488" lon="12.7741708755493">
    <ele>907.753662109375</ele>
    <time>2025-03-30T07:28:14Z</time>
   </trkpt>
   <trkpt lat="46.8482894897461" lon="12.7741279602051">
    <ele>908.471740722656</ele>
    <time>2025-03-30T07:28:19Z</time>
   </trkpt>
   <trkpt lat="46.8482894897461" lon="12.7741069793701">
    <ele>908.698364257812</ele>
    <time>2025-03-30T07:28:22Z</time>
   </trkpt>
   <trkpt lat="46.8482894897461" lon="12.7740926742554">
    <ele>908.852844238281</ele>
    <time>2025-03-30T07:28:27Z</time>
   </trkpt>
   <trkpt lat="46.8482933044434" lon="12.7740573883057">
    <ele>909.490295410156</ele>
    <time>2025-03-30T07:28:30Z</time>
   </trkpt>
   <trkpt lat="46.8482971191406" lon="12.7740325927734">
    <ele>910.014404296875</ele>
    <time>2025-03-30T07:28:33Z</time>
   </trkpt>
   <trkpt lat="46.8483047485352" lon="12.7739934921265">
    <ele>910.949401855469</ele>
    <time>2025-03-30T07:28:38Z</time>
   </trkpt>
   <trkpt lat="46.8483123779297" lon="12.7739696502686">
    <ele>911.719604492188</ele>
    <time>2025-03-30T07:28:41Z</time>
   </trkpt>
   <trkpt lat="46.8483085632324" lon="12.7739334106445">
    <ele>911.854614257812</ele>
    <time>2025-03-30T07:28:47Z</time>
   </trkpt>
   <trkpt lat="46.8483047485352" lon="12.7739238739014">
    <ele>911.701293945312</ele>
    <time>2025-03-30T07:28:48Z</time>
   </trkpt>
   <trkpt lat="46.8483085632324" lon="12.7738790512085">
    <ele>912.441711425781</ele>
    <time>2025-03-30T07:28:55Z</time>
   </trkpt>
   <trkpt lat="46.8483085632324" lon="12.7738704681396">
    <ele>912.534423828125</ele>
    <time>2025-03-30T07:28:56Z</time>
   </trkpt>
   <trkpt lat="46.8483085632324" lon="12.7738380432129">
    <ele>912.884582519531</ele>
    <time>2025-03-30T07:29:01Z</time>
   </trkpt>
   <trkpt lat="46.8483085632324" lon="12.7738208770752">
    <ele>913.070007324219</ele>
    <time>2025-03-30T07:29:03Z</time>
   </trkpt>
   <trkpt lat="46.8483200073242" lon="12.7737770080566">
    <ele>914.312805175781</ele>
    <time>2025-03-30T07:29:08Z</time>
   </trkpt>
   <trkpt lat="46.8483200073242" lon="12.7737665176392">
    <ele>914.426086425781</ele>
    <time>2025-03-30T07:29:11Z</time>
   </trkpt>
   <trkpt lat="46.8483200073242" lon="12.7737369537354">
    <ele>914.745422363281</ele>
    <time>2025-03-30T07:29:15Z</time>
   </trkpt>
   <trkpt lat="46.8483238220215" lon="12.7737140655518">
    <ele>915.248962402344</ele>
    <time>2025-03-30T07:29:18Z</time>
   </trkpt>
   <trkpt lat="46.8483276367188" lon="12.7736949920654">
    <ele>915.711303710938</ele>
    <time>2025-03-30T07:29:21Z</time>
   </trkpt>
   <trkpt lat="46.8483390808106" lon="12.7736520767212">
    <ele>916.94482421875</ele>
    <time>2025-03-30T07:29:27Z</time>
   </trkpt>
   <trkpt lat="46.8483390808106" lon="12.7736139297485">
    <ele>917.355834960938</ele>
    <time>2025-03-30T07:29:34Z</time>
   </trkpt>
   <trkpt lat="46.8483390808106" lon="12.773609161377">
    <ele>917.4072265625</ele>
    <time>2025-03-30T07:29:35Z</time>
   </trkpt>
   <trkpt lat="46.8483428955078" lon="12.7735662460327">
    <ele>918.125244140625</ele>
    <time>2025-03-30T07:29:43Z</time>
   </trkpt>
   <trkpt lat="46.8483467102051" lon="12.7735605239868">
    <ele>918.442321777344</ele>
    <time>2025-03-30T07:29:44Z</time>
   </trkpt>
   <trkpt lat="46.8483581542969" lon="12.7735061645508">
    <ele>919.790161132812</ele>
    <time>2025-03-30T07:29:51Z</time>
   </trkpt>
   <trkpt lat="46.8483657836914" lon="12.7734689712524">
    <ele>920.695861816406</ele>
    <time>2025-03-30T07:29:57Z</time>
   </trkpt>
   <trkpt lat="46.8483657836914" lon="12.7734661102295">
    <ele>920.726318359375</ele>
    <time>2025-03-30T07:29:59Z</time>
   </trkpt>
   <trkpt lat="46.8483657836914" lon="12.7734441757202">
    <ele>920.960144042969</ele>
    <time>2025-03-30T07:30:03Z</time>
   </trkpt>
   <trkpt lat="46.8483695983887" lon="12.7734184265137">
    <ele>921.48779296875</ele>
    <time>2025-03-30T07:30:07Z</time>
   </trkpt>
   <trkpt lat="46.8483734130859" lon="12.7733888626099">
    <ele>922.05517578125</ele>
    <time>2025-03-30T07:30:10Z</time>
   </trkpt>
   <trkpt lat="46.8483772277832" lon="12.7733526229858">
    <ele>922.6923828125</ele>
    <time>2025-03-30T07:30:16Z</time>
   </trkpt>
   <trkpt lat="46.8484001159668" lon="12.7733154296875">
    <ele>924.560607910156</ele>
    <time>2025-03-30T07:30:23Z</time>
   </trkpt>
   <trkpt lat="46.8484077453613" lon="12.7733125686646">
    <ele>925.086059570312</ele>
    <time>2025-03-30T07:30:25Z</time>
   </trkpt>
   <trkpt lat="46.8484153747559" lon="12.7733058929443">
    <ele>925.642517089844</ele>
    <time>2025-03-30T07:30:30Z</time>
   </trkpt>
   <trkpt lat="46.8484191894531" lon="12.7733030319214">
    <ele>925.916198730469</ele>
    <time>2025-03-30T07:30:31Z</time>
   </trkpt>
   <trkpt lat="46.8484268188477" lon="12.7732791900635">
    <ele>926.609619140625</ele>
    <time>2025-03-30T07:30:37Z</time>
   </trkpt>
   <trkpt lat="46.8484306335449" lon="12.7732715606689">
    <ele>926.919616699219</ele>
    <time>2025-03-30T07:30:38Z</time>
   </trkpt>
   <trkpt lat="46.8484420776367" lon="12.7732496261597">
    <ele>927.836547851562</ele>
    <time>2025-03-30T07:30:44Z</time>
   </trkpt>
   <trkpt lat="46.8484382629394" lon="12.7732429504395">
    <ele>927.642822265625</ele>
    <time>2025-03-30T07:30:45Z</time>
   </trkpt>
   <trkpt lat="46.8484535217285" lon="12.7732172012329">
    <ele>928.826232910156</ele>
    <time>2025-03-30T07:30:50Z</time>
   </trkpt>
   <trkpt lat="46.8484573364258" lon="12.7732057571411">
    <ele>929.158325195312</ele>
    <time>2025-03-30T07:30:54Z</time>
   </trkpt>
   <trkpt lat="46.848461151123" lon="12.7731914520264">
    <ele>929.510803222656</ele>
    <time>2025-03-30T07:30:56Z</time>
   </trkpt>
   <trkpt lat="46.8484687805176" lon="12.7731695175171">
    <ele>930.160705566406</ele>
    <time>2025-03-30T07:31:01Z</time>
   </trkpt>
   <trkpt lat="46.8484802246094" lon="12.7731637954712">
    <ele>930.927917480469</ele>
    <time>2025-03-30T07:31:04Z</time>
   </trkpt>
   <trkpt lat="46.8484878540039" lon="12.7731399536133">
    <ele>931.581481933594</ele>
    <time>2025-03-30T07:31:09Z</time>
   </trkpt>
   <trkpt lat="46.8484916687012" lon="12.7731313705444">
    <ele>931.882446289062</ele>
    <time>2025-03-30T07:31:12Z</time>
   </trkpt>
   <trkpt lat="46.8485107421875" lon="12.7731142044067">
    <ele>933.196838378906</ele>
    <time>2025-03-30T07:31:18Z</time>
   </trkpt>
   <trkpt lat="46.848518371582" lon="12.7731027603149">
    <ele>933.750244140625</ele>
    <time>2025-03-30T07:31:19Z</time>
   </trkpt>
   <trkpt lat="46.8485260009766" lon="12.7730684280396">
    <ele>934.45068359375</ele>
    <time>2025-03-30T07:31:25Z</time>
   </trkpt>
   <trkpt lat="46.8485298156738" lon="12.7730598449707">
    <ele>934.742126464844</ele>
    <time>2025-03-30T07:31:26Z</time>
   </trkpt>
   <trkpt lat="46.8485450744629" lon="12.7730169296265">
    <ele>935.951171875</ele>
    <time>2025-03-30T07:31:33Z</time>
   </trkpt>
   <trkpt lat="46.8485565185547" lon="12.7730083465576">
    <ele>936.701171875</ele>
    <time>2025-03-30T07:31:34Z</time>
   </trkpt>
   <trkpt lat="46.8485717773438" lon="12.7729873657227">
    <ele>937.751892089844</ele>
    <time>2025-03-30T07:31:38Z</time>
   </trkpt>
   <trkpt lat="46.848575592041" lon="12.7729845046997">
    <ele>937.999267578125</ele>
    <time>2025-03-30T07:31:40Z</time>
   </trkpt>
   <trkpt lat="46.848575592041" lon="12.7729845046997">
    <ele>937.999267578125</ele>
    <time>2025-03-30T07:31:41Z</time>
   </trkpt>
   <trkpt lat="46.8485908508301" lon="12.7729549407959">
    <ele>939.085205078125</ele>
    <time>2025-03-30T07:31:47Z</time>
   </trkpt>
   <trkpt lat="46.8485946655273" lon="12.7729434967041">
    <ele>939.376647949219</ele>
    <time>2025-03-30T07:31:50Z</time>
   </trkpt>
   <trkpt lat="46.8485908508301" lon="12.7729330062866">
    <ele>939.206359863281</ele>
    <time>2025-03-30T07:31:55Z</time>
   </trkpt>
   <trkpt lat="46.8485908508301" lon="12.7729330062866">
    <ele>939.206359863281</ele>
    <time>2025-03-30T07:31:57Z</time>
   </trkpt>
   <trkpt lat="46.8485908508301" lon="12.7729005813599">
    <ele>939.385314941406</ele>
    <time>2025-03-30T07:32:02Z</time>
   </trkpt>
   <trkpt lat="46.8485908508301" lon="12.772873878479">
    <ele>939.532775878906</ele>
    <time>2025-03-30T07:32:05Z</time>
   </trkpt>
   <trkpt lat="46.8485946655273" lon="12.7728614807129">
    <ele>939.824462890625</ele>
    <time>2025-03-30T07:32:08Z</time>
   </trkpt>
   <trkpt lat="46.8486022949219" lon="12.772834777832">
    <ele>940.41357421875</ele>
    <time>2025-03-30T07:32:11Z</time>
   </trkpt>
   <trkpt lat="46.8486137390137" lon="12.7728147506714">
    <ele>941.181823730469</ele>
    <time>2025-03-30T07:32:14Z</time>
   </trkpt>
   <trkpt lat="46.8486213684082" lon="12.7727947235107">
    <ele>941.723571777344</ele>
    <time>2025-03-30T07:32:18Z</time>
   </trkpt>
   <trkpt lat="46.8486289978027" lon="12.7727737426758">
    <ele>942.265197753906</ele>
    <time>2025-03-30T07:32:21Z</time>
   </trkpt>
   <trkpt lat="46.8486328125" lon="12.7727632522583">
    <ele>942.534057617188</ele>
    <time>2025-03-30T07:32:24Z</time>
   </trkpt>
   <trkpt lat="46.8486328125" lon="12.7727537155151">
    <ele>942.580383300781</ele>
    <time>2025-03-30T07:32:27Z</time>
   </trkpt>
   <trkpt lat="46.8486366271973" lon="12.77272605896">
    <ele>942.929748535156</ele>
    <time>2025-03-30T07:32:32Z</time>
   </trkpt>
   <trkpt lat="46.8486442565918" lon="12.7727069854736">
    <ele>943.449096679688</ele>
    <time>2025-03-30T07:32:34Z</time>
   </trkpt>
   <trkpt lat="46.8486557006836" lon="12.7726860046387">
    <ele>944.185119628906</ele>
    <time>2025-03-30T07:32:39Z</time>
   </trkpt>
   <trkpt lat="46.8486671447754" lon="12.7726812362671">
    <ele>944.843688964844</ele>
    <time>2025-03-30T07:32:41Z</time>
   </trkpt>
   <trkpt lat="46.8486824035644" lon="12.7726879119873">
    <ele>945.665954589844</ele>
    <time>2025-03-30T07:32:46Z</time>
   </trkpt>
   <trkpt lat="46.8486938476562" lon="12.7726831436157">
    <ele>946.322814941406</ele>
    <time>2025-03-30T07:32:48Z</time>
   </trkpt>
   <trkpt lat="46.8486938476562" lon="12.7726831436157">
    <ele>946.322814941406</ele>
    <time>2025-03-30T07:32:49Z</time>
   </trkpt>
   <trkpt lat="46.8486938476562" lon="12.77268409729">
    <ele>946.319091796875</ele>
    <time>2025-03-30T07:32:51Z</time>
   </trkpt>
   <trkpt lat="46.8486976623535" lon="12.7726907730103">
    <ele>946.506103515625</ele>
    <time>2025-03-30T07:32:53Z</time>
   </trkpt>
   <trkpt lat="46.8487014770508" lon="12.7726984024048">
    <ele>946.690307617188</ele>
    <time>2025-03-30T07:32:55Z</time>
   </trkpt>
   <trkpt lat="46.848705291748" lon="12.7727031707764">
    <ele>946.885986328125</ele>
    <time>2025-03-30T07:32:56Z</time>
   </trkpt>
   <trkpt lat="46.8487205505371" lon="12.7727031707764">
    <ele>947.740783691406</ele>
    <time>2025-03-30T07:32:59Z</time>
   </trkpt>
   <trkpt lat="46.8487319946289" lon="12.7727069854736">
    <ele>948.369323730469</ele>
    <time>2025-03-30T07:33:03Z</time>
   </trkpt>
   <trkpt lat="46.8487396240234" lon="12.7727108001709">
    <ele>948.785095214844</ele>
    <time>2025-03-30T07:33:04Z</time>
   </trkpt>
   <trkpt lat="46.8487548828125" lon="12.772723197937">
    <ele>949.60546875</ele>
    <time>2025-03-30T07:33:09Z</time>
   </trkpt>
   <trkpt lat="46.8487586975098" lon="12.7727279663086">
    <ele>949.806762695312</ele>
    <time>2025-03-30T07:33:11Z</time>
   </trkpt>
   <trkpt lat="46.8487815856934" lon="12.772762298584">
    <ele>951.012084960938</ele>
    <time>2025-03-30T07:33:18Z</time>
   </trkpt>
   <trkpt lat="46.848804473877" lon="12.7727851867676">
    <ele>952.266723632812</ele>
    <time>2025-03-30T07:33:24Z</time>
   </trkpt>
   <trkpt lat="46.8488082885742" lon="12.7727870941162">
    <ele>952.4814453125</ele>
    <time>2025-03-30T07:33:25Z</time>
   </trkpt>
   <trkpt lat="46.848819732666" lon="12.772801399231">
    <ele>953.110595703125</ele>
    <time>2025-03-30T07:33:29Z</time>
   </trkpt>
   <trkpt lat="46.8488159179688" lon="12.772798538208">
    <ele>952.896545410156</ele>
    <time>2025-03-30T07:33:31Z</time>
   </trkpt>
   <trkpt lat="46.8488311767578" lon="12.7728281021118">
    <ele>953.723693847656</ele>
    <time>2025-03-30T07:33:36Z</time>
   </trkpt>
   <trkpt lat="46.8488349914551" lon="12.7728433609009">
    <ele>953.919738769531</ele>
    <time>2025-03-30T07:33:40Z</time>
   </trkpt>
   <trkpt lat="46.8488388061523" lon="12.7728509902954">
    <ele>954.129699707031</ele>
    <time>2025-03-30T07:33:42Z</time>
   </trkpt>
   <trkpt lat="46.8488464355469" lon="12.7728633880615">
    <ele>954.556701660156</ele>
    <time>2025-03-30T07:33:46Z</time>
   </trkpt>
   <trkpt lat="46.8488540649414" lon="12.7728757858276">
    <ele>954.986694335938</ele>
    <time>2025-03-30T07:33:48Z</time>
   </trkpt>
   <trkpt lat="46.8488693237305" lon="12.7728939056396">
    <ele>955.863098144531</ele>
    <time>2025-03-30T07:33:54Z</time>
   </trkpt>
   <trkpt lat="46.8488693237305" lon="12.7728967666626">
    <ele>955.859924316406</ele>
    <time>2025-03-30T07:33:55Z</time>
   </trkpt>
   <trkpt lat="46.848876953125" lon="12.7729053497314">
    <ele>956.302185058594</ele>
    <time>2025-03-30T07:34:00Z</time>
   </trkpt>
   <trkpt lat="46.8488807678223" lon="12.7729053497314">
    <ele>956.528137207031</ele>
    <time>2025-03-30T07:34:03Z</time>
   </trkpt>
   <trkpt lat="46.8488922119141" lon="12.7729187011719">
    <ele>957.195861816406</ele>
    <time>2025-03-30T07:34:07Z</time>
   </trkpt>
   <trkpt lat="46.8489074707031" lon="12.7729339599609">
    <ele>958.095031738281</ele>
    <time>2025-03-30T07:34:10Z</time>
   </trkpt>
   <trkpt lat="46.8489151000977" lon="12.7729597091675">
    <ele>958.540405273438</ele>
    <time>2025-03-30T07:34:15Z</time>
   </trkpt>
   <trkpt lat="46.8489151000977" lon="12.772967338562">
    <ele>958.537475585938</ele>
    <time>2025-03-30T07:34:18Z</time>
   </trkpt>
   <trkpt lat="46.8489265441894" lon="12.7729768753052">
    <ele>959.224487304688</ele>
    <time>2025-03-30T07:34:24Z</time>
   </trkpt>
   <trkpt lat="46.8489456176758" lon="12.7730131149292">
    <ele>960.379211425781</ele>
    <time>2025-03-30T07:34:31Z</time>
   </trkpt>
   <trkpt lat="46.8489456176758" lon="12.7730226516724">
    <ele>960.380126953125</ele>
    <time>2025-03-30T07:34:33Z</time>
   </trkpt>
   <trkpt lat="46.848949432373" lon="12.7730255126953">
    <ele>960.613586425781</ele>
    <time>2025-03-30T07:34:39Z</time>
   </trkpt>
   <trkpt lat="46.8489532470703" lon="12.7730321884155">
    <ele>960.848205566406</ele>
    <time>2025-03-30T07:34:45Z</time>
   </trkpt>
   <trkpt lat="46.8489608764648" lon="12.773042678833">
    <ele>961.318969726562</ele>
    <time>2025-03-30T07:34:47Z</time>
   </trkpt>
   <trkpt lat="46.8489761352539" lon="12.7730464935303">
    <ele>962.257995605469</ele>
    <time>2025-03-30T07:34:53Z</time>
   </trkpt>
   <trkpt lat="46.8490104675293" lon="12.7730846405029">
    <ele>964.410888671875</ele>
    <time>2025-03-30T07:35:00Z</time>
   </trkpt>
   <trkpt lat="46.8490371704102" lon="12.7731018066406">
    <ele>966.094665527344</ele>
    <time>2025-03-30T07:35:06Z</time>
   </trkpt>
   <trkpt lat="46.8490371704102" lon="12.7731018066406">
    <ele>966.094665527344</ele>
    <time>2025-03-30T07:35:07Z</time>
   </trkpt>
   <trkpt lat="46.849048614502" lon="12.7731266021729">
    <ele>966.850891113281</ele>
    <time>2025-03-30T07:35:12Z</time>
   </trkpt>
   <trkpt lat="46.849048614502" lon="12.7731266021729">
    <ele>966.850891113281</ele>
    <time>2025-03-30T07:35:13Z</time>
   </trkpt>
   <trkpt lat="46.8490562438965" lon="12.7731552124023">
    <ele>967.382385253906</ele>
    <time>2025-03-30T07:35:21Z</time>
   </trkpt>
   <trkpt lat="46.849063873291" lon="12.7731666564941">
    <ele>967.886962890625</ele>
    <time>2025-03-30T07:35:22Z</time>
   </trkpt>
   <trkpt lat="46.8490676879883" lon="12.7731943130493">
    <ele>968.184875488281</ele>
    <time>2025-03-30T07:35:29Z</time>
   </trkpt>
   <trkpt lat="46.8490753173828" lon="12.7732095718384">
    <ele>968.704467773438</ele>
    <time>2025-03-30T07:35:34Z</time>
   </trkpt>
   <trkpt lat="46.8490753173828" lon="12.7732095718384">
    <ele>968.704467773438</ele>
    <time>2025-03-30T07:35:35Z</time>
   </trkpt>
   <trkpt lat="46.8490867614746" lon="12.7732229232788">
    <ele>969.468505859375</ele>
    <time>2025-03-30T07:35:40Z</time>
   </trkpt>
   <trkpt lat="46.8490943908691" lon="12.7732381820679">
    <ele>969.996215820312</ele>
    <time>2025-03-30T07:35:42Z</time>
   </trkpt>
   <trkpt lat="46.8490982055664" lon="12.7732486724854">
    <ele>970.268615722656</ele>
    <time>2025-03-30T07:35:46Z</time>
   </trkpt>
   <trkpt lat="46.8491134643555" lon="12.7732553482056">
    <ele>971.273620605469</ele>
    <time>2025-03-30T07:35:49Z</time>
   </trkpt>
   <trkpt lat="46.8491287231445" lon="12.773265838623">
    <ele>972.293334960938</ele>
    <time>2025-03-30T07:35:52Z</time>
   </trkpt>
   <trkpt lat="46.8491516113281" lon="12.773268699646">
    <ele>973.7890625</ele>
    <time>2025-03-30T07:35:58Z</time>
   </trkpt>
   <trkpt lat="46.8491554260254" lon="12.7732744216919">
    <ele>974.056518554688</ele>
    <time>2025-03-30T07:36:00Z</time>
   </trkpt>
   <trkpt lat="46.8491630554199" lon="12.7732925415039">
    <ele>974.617126464844</ele>
    <time>2025-03-30T07:36:07Z</time>
   </trkpt>
   <trkpt lat="46.8491859436035" lon="12.7733316421509">
    <ele>976.080749511719</ele>
    <time>2025-03-30T07:36:13Z</time>
   </trkpt>
   <trkpt lat="46.8492088317871" lon="12.7733507156372">
    <ele>977.256103515625</ele>
    <time>2025-03-30T07:36:19Z</time>
   </trkpt>
   <trkpt lat="46.8492088317871" lon="12.7733507156372">
    <ele>977.256103515625</ele>
    <time>2025-03-30T07:36:20Z</time>
   </trkpt>
   <trkpt lat="46.8492164611816" lon="12.773362159729">
    <ele>977.607055664062</ele>
    <time>2025-03-30T07:36:25Z</time>
   </trkpt>
   <trkpt lat="46.8492202758789" lon="12.7733974456787">
    <ele>977.576782226562</ele>
    <time>2025-03-30T07:36:28Z</time>
   </trkpt>
   <trkpt lat="46.8492279052734" lon="12.7734289169312">
    <ele>977.790954589844</ele>
    <time>2025-03-30T07:36:32Z</time>
   </trkpt>
   <trkpt lat="46.8492393493652" lon="12.7734375">
    <ele>978.382019042969</ele>
    <time>2025-03-30T07:36:36Z</time>
   </trkpt>
   <trkpt lat="46.8492469787598" lon="12.7734355926514">
    <ele>978.828796386719</ele>
    <time>2025-03-30T07:36:38Z</time>
   </trkpt>
   <trkpt lat="46.8492622375488" lon="12.7734451293945">
    <ele>979.631408691406</ele>
    <time>2025-03-30T07:36:44Z</time>
   </trkpt>
   <trkpt lat="46.8492660522461" lon="12.7734451293945">
    <ele>979.848388671875</ele>
    <time>2025-03-30T07:36:45Z</time>
   </trkpt>
   <trkpt lat="46.8492698669434" lon="12.7734479904175">
    <ele>980.046081542969</ele>
    <time>2025-03-30T07:36:49Z</time>
   </trkpt>
   <trkpt lat="46.8492813110352" lon="12.7734575271606">
    <ele>980.633239746094</ele>
    <time>2025-03-30T07:36:53Z</time>
   </trkpt>
   <trkpt lat="46.8493003845215" lon="12.7734680175781">
    <ele>981.649780273438</ele>
    <time>2025-03-30T07:36:56Z</time>
   </trkpt>
   <trkpt lat="46.8493232727051" lon="12.7734842300415">
    <ele>982.848205566406</ele>
    <time>2025-03-30T07:37:01Z</time>
   </trkpt>
   <trkpt lat="46.8493499755859" lon="12.7735071182251">
    <ele>984.224975585938</ele>
    <time>2025-03-30T07:37:08Z</time>
   </trkpt>
   <trkpt lat="46.8493728637695" lon="12.773530960083">
    <ele>985.382629394531</ele>
    <time>2025-03-30T07:37:14Z</time>
   </trkpt>
   <trkpt lat="46.8493804931641" lon="12.7735471725464">
    <ele>985.717712402344</ele>
    <time>2025-03-30T07:37:17Z</time>
   </trkpt>
   <trkpt lat="46.8493919372559" lon="12.7735643386841">
    <ele>986.266845703125</ele>
    <time>2025-03-30T07:37:21Z</time>
   </trkpt>
   <trkpt lat="46.8493919372559" lon="12.7735691070557">
    <ele>986.237121582031</ele>
    <time>2025-03-30T07:37:23Z</time>
   </trkpt>
   <trkpt lat="46.8493957519531" lon="12.7735795974731">
    <ele>986.391052246094</ele>
    <time>2025-03-30T07:37:29Z</time>
   </trkpt>
   <trkpt lat="46.8493957519531" lon="12.7735872268677">
    <ele>986.343627929688</ele>
    <time>2025-03-30T07:37:32Z</time>
   </trkpt>
   <trkpt lat="46.8493995666504" lon="12.7736005783081">
    <ele>986.480285644531</ele>
    <time>2025-03-30T07:37:35Z</time>
   </trkpt>
   <trkpt lat="46.8494033813477" lon="12.7736101150513">
    <ele>986.640930175781</ele>
    <time>2025-03-30T07:37:38Z</time>
   </trkpt>
   <trkpt lat="46.8494338989258" lon="12.7736406326294">
    <ele>988.214111328125</ele>
    <time>2025-03-30T07:37:45Z</time>
   </trkpt>
   <trkpt lat="46.8494415283203" lon="12.7736358642578">
    <ele>988.683227539062</ele>
    <time>2025-03-30T07:37:51Z</time>
   </trkpt>
   <trkpt lat="46.8494567871094" lon="12.7736406326294">
    <ele>989.535400390625</ele>
    <time>2025-03-30T07:37:53Z</time>
   </trkpt>
   <trkpt lat="46.8494720458984" lon="12.7736511230469">
    <ele>990.354553222656</ele>
    <time>2025-03-30T07:37:57Z</time>
   </trkpt>
   <trkpt lat="46.849479675293" lon="12.7736520767212">
    <ele>990.789733886719</ele>
    <time>2025-03-30T07:38:00Z</time>
   </trkpt>
   <trkpt lat="46.8494987487793" lon="12.7736520767212">
    <ele>991.891723632812</ele>
    <time>2025-03-30T07:38:04Z</time>
   </trkpt>
   <trkpt lat="46.8495140075684" lon="12.7736806869507">
    <ele>992.610290527344</ele>
    <time>2025-03-30T07:38:09Z</time>
   </trkpt>
   <trkpt lat="46.8495140075684" lon="12.7736806869507">
    <ele>992.610290527344</ele>
    <time>2025-03-30T07:38:10Z</time>
   </trkpt>
   <trkpt lat="46.8495407104492" lon="12.7736988067627">
    <ele>994.055236816406</ele>
    <time>2025-03-30T07:38:16Z</time>
   </trkpt>
   <trkpt lat="46.8495445251465" lon="12.7737083435059">
    <ele>994.223266601562</ele>
    <time>2025-03-30T07:38:22Z</time>
   </trkpt>
   <trkpt lat="46.8495483398438" lon="12.7737045288086">
    <ele>994.4658203125</ele>
    <time>2025-03-30T07:38:23Z</time>
   </trkpt>
   <trkpt lat="46.8495597839356" lon="12.7737121582031">
    <ele>995.087646484375</ele>
    <time>2025-03-30T07:38:27Z</time>
   </trkpt>
   <trkpt lat="46.8495712280273" lon="12.7737255096436">
    <ele>995.679016113281</ele>
    <time>2025-03-30T07:38:30Z</time>
   </trkpt>
   <trkpt lat="46.8495750427246" lon="12.7737283706665">
    <ele>995.885070800781</ele>
    <time>2025-03-30T07:38:31Z</time>
   </trkpt>
   <trkpt lat="46.8495941162109" lon="12.773736000061">
    <ele>996.952514648438</ele>
    <time>2025-03-30T07:38:37Z</time>
   </trkpt>
   <trkpt lat="46.8496017456055" lon="12.7737379074097">
    <ele>997.385925292969</ele>
    <time>2025-03-30T07:38:38Z</time>
   </trkpt>
   <trkpt lat="46.8496208190918" lon="12.7737436294556">
    <ele>998.465026855469</ele>
    <time>2025-03-30T07:38:45Z</time>
   </trkpt>
   <trkpt lat="46.8496398925781" lon="12.7737474441528">
    <ele>999.554931640625</ele>
    <time>2025-03-30T07:38:50Z</time>
   </trkpt>
   <trkpt lat="46.8496398925781" lon="12.773754119873">
    <ele>999.5205078125</ele>
    <time>2025-03-30T07:38:52Z</time>
   </trkpt>
   <trkpt lat="46.8496513366699" lon="12.7737483978271">
    <ele>1000.21600341797</ele>
    <time>2025-03-30T07:38:57Z</time>
   </trkpt>
   <trkpt lat="46.8496513366699" lon="12.7737512588501">
    <ele>1000.20135498047</ele>
    <time>2025-03-30T07:38:58Z</time>
   </trkpt>
   <trkpt lat="46.8496475219727" lon="12.7737216949463">
    <ele>1000.13079833984</ele>
    <time>2025-03-30T07:39:04Z</time>
   </trkpt>
   <trkpt lat="46.849666595459" lon="12.773681640625">
    <ele>1001.4404296875</ele>
    <time>2025-03-30T07:39:10Z</time>
   </trkpt>
   <trkpt lat="46.8496742248535" lon="12.7736740112305">
    <ele>1001.92041015625</ele>
    <time>2025-03-30T07:39:12Z</time>
   </trkpt>
   <trkpt lat="46.8497085571289" lon="12.7736644744873">
    <ele>1003.95361328125</ele>
    <time>2025-03-30T07:39:16Z</time>
   </trkpt>
   <trkpt lat="46.8497123718262" lon="12.7736854553223">
    <ele>1004.07263183594</ele>
    <time>2025-03-30T07:39:18Z</time>
   </trkpt>
   <trkpt lat="46.8497314453125" lon="12.7737255096436">
    <ele>1004.98669433594</ele>
    <time>2025-03-30T07:39:22Z</time>
   </trkpt>
   <trkpt lat="46.8497314453125" lon="12.7737255096436">
    <ele>1004.98669433594</ele>
    <time>2025-03-30T07:39:28Z</time>
   </trkpt>
   <trkpt lat="46.849739074707" lon="12.7737483978271">
    <ele>1005.32171630859</ele>
    <time>2025-03-30T07:39:34Z</time>
   </trkpt>
   <trkpt lat="46.849739074707" lon="12.7737483978271">
    <ele>1005.32171630859</ele>
    <time>2025-03-30T07:39:41Z</time>
   </trkpt>
   <trkpt lat="46.849739074707" lon="12.7737483978271">
    <ele>1005.32171630859</ele>
    <time>2025-03-30T07:39:42Z</time>
   </trkpt>
   <trkpt lat="46.849739074707" lon="12.7737483978271">
    <ele>1005.32171630859</ele>
    <time>2025-03-30T07:39:43Z</time>
   </trkpt>
   <trkpt lat="46.849739074707" lon="12.7737483978271">
    <ele>1005.32171630859</ele>
    <time>2025-03-30T07:39:47Z</time>
   </trkpt>
   <trkpt lat="46.849739074707" lon="12.7737483978271">
    <ele>1005.32171630859</ele>
    <time>2025-03-30T07:39:48Z</time>
   </trkpt>
   <trkpt lat="46.8497467041016" lon="12.7737674713135">
    <ele>1005.67614746094</ele>
    <time>2025-03-30T07:39:54Z</time>
   </trkpt>
   <trkpt lat="46.8497505187988" lon="12.7737674713135">
    <ele>1005.8984375</ele>
    <time>2025-03-30T07:39:56Z</time>
   </trkpt>
   <trkpt lat="46.8497505187988" lon="12.7737684249878">
    <ele>1005.89398193359</ele>
    <time>2025-03-30T07:39:59Z</time>
   </trkpt>
   <trkpt lat="46.8497505187988" lon="12.7737703323364">
    <ele>1005.88507080078</ele>
    <time>2025-03-30T07:40:03Z</time>
   </trkpt>
   <trkpt lat="46.8497619628906" lon="12.7737817764282">
    <ele>1006.49914550781</ele>
    <time>2025-03-30T07:40:06Z</time>
   </trkpt>
   <trkpt lat="46.8497695922852" lon="12.7737903594971">
    <ele>1006.90478515625</ele>
    <time>2025-03-30T07:40:11Z</time>
   </trkpt>
   <trkpt lat="46.8497734069824" lon="12.7737951278687">
    <ele>1007.10565185547</ele>
    <time>2025-03-30T07:40:12Z</time>
   </trkpt>
   <trkpt lat="46.8497772216797" lon="12.773796081543">
    <ele>1007.32403564453</ele>
    <time>2025-03-30T07:40:16Z</time>
   </trkpt>
   <trkpt lat="46.8497924804688" lon="12.7737970352173">
    <ele>1008.21087646484</ele>
    <time>2025-03-30T07:40:19Z</time>
   </trkpt>
   <trkpt lat="46.8498115539551" lon="12.7738065719604">
    <ele>1009.28271484375</ele>
    <time>2025-03-30T07:40:23Z</time>
   </trkpt>
   <trkpt lat="46.8498153686523" lon="12.773811340332">
    <ele>1009.48468017578</ele>
    <time>2025-03-30T07:40:25Z</time>
   </trkpt>
   <trkpt lat="46.8498344421387" lon="12.7738275527954">
    <ele>1010.52984619141</ele>
    <time>2025-03-30T07:40:30Z</time>
   </trkpt>
   <trkpt lat="46.8498420715332" lon="12.773850440979">
    <ele>1010.87847900391</ele>
    <time>2025-03-30T07:40:35Z</time>
   </trkpt>
   <trkpt lat="46.8498458862305" lon="12.773853302002">
    <ele>1011.08990478516</ele>
    <time>2025-03-30T07:40:36Z</time>
   </trkpt>
   <trkpt lat="46.8498725891113" lon="12.7738771438599">
    <ele>1012.55700683594</ele>
    <time>2025-03-30T07:40:42Z</time>
   </trkpt>
   <trkpt lat="46.8498764038086" lon="12.7738790512085">
    <ele>1012.77319335938</ele>
    <time>2025-03-30T07:40:43Z</time>
   </trkpt>
   <trkpt lat="46.8498878479004" lon="12.773889541626">
    <ele>1013.40277099609</ele>
    <time>2025-03-30T07:40:47Z</time>
   </trkpt>
   <trkpt lat="46.8498878479004" lon="12.773889541626">
    <ele>1013.40277099609</ele>
    <time>2025-03-30T07:40:49Z</time>
   </trkpt>
   <trkpt lat="46.8499145507812" lon="12.773922920227">
    <ele>1014.84051513672</ele>
    <time>2025-03-30T07:40:55Z</time>
   </trkpt>
   <trkpt lat="46.8499183654785" lon="12.7739295959473">
    <ele>1015.03900146484</ele>
    <time>2025-03-30T07:40:57Z</time>
   </trkpt>
   <trkpt lat="46.8499336242676" lon="12.7739591598511">
    <ele>1015.82397460938</ele>
    <time>2025-03-30T07:41:01Z</time>
   </trkpt>
   <trkpt lat="46.8499336242676" lon="12.7739591598511">
    <ele>1015.82397460938</ele>
    <time>2025-03-30T07:41:03Z</time>
   </trkpt>
   <trkpt lat="46.8499374389648" lon="12.7739839553833">
    <ele>1015.95349121094</ele>
    <time>2025-03-30T07:41:07Z</time>
   </trkpt>
   <trkpt lat="46.8499526977539" lon="12.7740097045898">
    <ele>1016.75903320312</ele>
    <time>2025-03-30T07:41:12Z</time>
   </trkpt>
   <trkpt lat="46.8499488830566" lon="12.7740020751953">
    <ele>1016.56182861328</ele>
    <time>2025-03-30T07:41:13Z</time>
   </trkpt>
   <trkpt lat="46.8499641418457" lon="12.7740211486816">
    <ele>1017.39489746094</ele>
    <time>2025-03-30T07:41:17Z</time>
   </trkpt>
   <trkpt lat="46.8499641418457" lon="12.7740211486816">
    <ele>1017.39489746094</ele>
    <time>2025-03-30T07:41:18Z</time>
   </trkpt>
   <trkpt lat="46.8499641418457" lon="12.7740230560303">
    <ele>1017.38775634766</ele>
    <time>2025-03-30T07:41:19Z</time>
   </trkpt>
   <trkpt lat="46.8499717712402" lon="12.774037361145">
    <ele>1017.78753662109</ele>
    <time>2025-03-30T07:41:24Z</time>
   </trkpt>
   <trkpt lat="46.8499717712402" lon="12.774037361145">
    <ele>1017.78753662109</ele>
    <time>2025-03-30T07:41:25Z</time>
   </trkpt>
   <trkpt lat="46.849983215332" lon="12.7740535736084">
    <ele>1018.40826416016</ele>
    <time>2025-03-30T07:41:30Z</time>
   </trkpt>
   <trkpt lat="46.8499946594238" lon="12.7740831375122">
    <ele>1018.98217773438</ele>
    <time>2025-03-30T07:41:33Z</time>
   </trkpt>
   <trkpt lat="46.8499946594238" lon="12.7741022109985">
    <ele>1018.9130859375</ele>
    <time>2025-03-30T07:41:36Z</time>
   </trkpt>
   <trkpt lat="46.8499870300293" lon="12.7741279602051">
    <ele>1018.36334228516</ele>
    <time>2025-03-30T07:41:40Z</time>
   </trkpt>
   <trkpt lat="46.8499908447266" lon="12.7741432189941">
    <ele>1018.53601074219</ele>
    <time>2025-03-30T07:41:44Z</time>
   </trkpt>
   <trkpt lat="46.8500022888184" lon="12.7741594314575">
    <ele>1019.1796875</ele>
    <time>2025-03-30T07:41:48Z</time>
   </trkpt>
   <trkpt lat="46.8500099182129" lon="12.7741622924805">
    <ele>1019.68176269531</ele>
    <time>2025-03-30T07:41:50Z</time>
   </trkpt>
   <trkpt lat="46.8500137329102" lon="12.7741575241089">
    <ele>1019.95434570312</ele>
    <time>2025-03-30T07:41:54Z</time>
   </trkpt>
   <trkpt lat="46.850025177002" lon="12.7741708755493">
    <ele>1020.66204833984</ele>
    <time>2025-03-30T07:41:56Z</time>
   </trkpt>
   <trkpt lat="46.8500328063965" lon="12.7742204666138">
    <ele>1020.82482910156</ele>
    <time>2025-03-30T07:42:01Z</time>
   </trkpt>
   <trkpt lat="46.8500289916992" lon="12.7742309570312">
    <ele>1020.49340820312</ele>
    <time>2025-03-30T07:42:03Z</time>
   </trkpt>
   <trkpt lat="46.8500289916992" lon="12.7742309570312">
    <ele>1020.49340820312</ele>
    <time>2025-03-30T07:42:09Z</time>
   </trkpt>
   <trkpt lat="46.8500442504883" lon="12.7742433547974">
    <ele>1021.43615722656</ele>
    <time>2025-03-30T07:42:16Z</time>
   </trkpt>
   <trkpt lat="46.8500442504883" lon="12.7742433547974">
    <ele>1021.43615722656</ele>
    <time>2025-03-30T07:42:17Z</time>
   </trkpt>
   <trkpt lat="46.8500518798828" lon="12.7742471694946">
    <ele>1021.92474365234</ele>
    <time>2025-03-30T07:42:21Z</time>
   </trkpt>
   <trkpt lat="46.8500556945801" lon="12.7742490768433">
    <ele>1022.16912841797</ele>
    <time>2025-03-30T07:42:22Z</time>
   </trkpt>
   <trkpt lat="46.8500709533691" lon="12.7742395401001">
    <ele>1023.26568603516</ele>
    <time>2025-03-30T07:42:26Z</time>
   </trkpt>
   <trkpt lat="46.8500709533691" lon="12.7742204666138">
    <ele>1023.39721679688</ele>
    <time>2025-03-30T07:42:28Z</time>
   </trkpt>
   <trkpt lat="46.8500938415527" lon="12.774188041687">
    <ele>1025.16088867188</ele>
    <time>2025-03-30T07:42:31Z</time>
   </trkpt>
   <trkpt lat="46.8501129150391" lon="12.7741603851318">
    <ele>1026.60229492188</ele>
    <time>2025-03-30T07:42:35Z</time>
   </trkpt>
   <trkpt lat="46.8501091003418" lon="12.7741432189941">
    <ele>1026.38647460938</ele>
    <time>2025-03-30T07:42:36Z</time>
   </trkpt>
   <trkpt lat="46.8501167297363" lon="12.7741165161133">
    <ele>1026.95739746094</ele>
    <time>2025-03-30T07:42:39Z</time>
   </trkpt>
   <trkpt lat="46.8501243591309" lon="12.7740879058838">
    <ele>1027.52758789062</ele>
    <time>2025-03-30T07:42:42Z</time>
   </trkpt>
   <trkpt lat="46.8501243591309" lon="12.7740793228149">
    <ele>1027.54626464844</ele>
    <time>2025-03-30T07:42:43Z</time>
   </trkpt>
   <trkpt lat="46.8501396179199" lon="12.7740068435669">
    <ele>1028.70068359375</ele>
    <time>2025-03-30T07:42:50Z</time>
   </trkpt>
   <trkpt lat="46.8501396179199" lon="12.7739944458008">
    <ele>1028.72534179688</ele>
    <time>2025-03-30T07:42:51Z</time>
   </trkpt>
   <trkpt lat="46.8501434326172" lon="12.7739248275757">
    <ele>1029.10974121094</ele>
    <time>2025-03-30T07:42:58Z</time>
   </trkpt>
   <trkpt lat="46.8501472473144" lon="12.7739162445068">
    <ele>1029.37170410156</ele>
    <time>2025-03-30T07:42:59Z</time>
   </trkpt>
   <trkpt lat="46.8501510620117" lon="12.7738809585571">
    <ele>1029.68273925781</ele>
    <time>2025-03-30T07:43:03Z</time>
   </trkpt>
   <trkpt lat="46.850154876709" lon="12.7738399505615">
    <ele>1030.0009765625</ele>
    <time>2025-03-30T07:43:08Z</time>
   </trkpt>
   <trkpt lat="46.8501586914062" lon="12.7738275527954">
    <ele>1030.26489257812</ele>
    <time>2025-03-30T07:43:12Z</time>
   </trkpt>
   <trkpt lat="46.850154876709" lon="12.7738103866577">
    <ele>1030.0546875</ele>
    <time>2025-03-30T07:43:13Z</time>
   </trkpt>
   <trkpt lat="46.8501510620117" lon="12.7737560272217">
    <ele>1029.9150390625</ele>
    <time>2025-03-30T07:43:17Z</time>
   </trkpt>
   <trkpt lat="46.8501396179199" lon="12.7737255096436">
    <ele>1029.26098632812</ele>
    <time>2025-03-30T07:43:20Z</time>
   </trkpt>
   <trkpt lat="46.8501358032227" lon="12.7737169265747">
    <ele>1029.04150390625</ele>
    <time>2025-03-30T07:43:21Z</time>
   </trkpt>
   <trkpt lat="46.8501358032227" lon="12.7737016677856">
    <ele>1029.07250976562</ele>
    <time>2025-03-30T07:43:22Z</time>
   </trkpt>
   <trkpt lat="46.8501243591309" lon="12.7736234664917">
    <ele>1028.53430175781</ele>
    <time>2025-03-30T07:43:29Z</time>
   </trkpt>
   <trkpt lat="46.8501205444336" lon="12.7735614776611">
    <ele>1028.43884277344</ele>
    <time>2025-03-30T07:43:34Z</time>
   </trkpt>
   <trkpt lat="46.8501167297363" lon="12.7735280990601">
    <ele>1028.28442382812</ele>
    <time>2025-03-30T07:43:38Z</time>
   </trkpt>
   <trkpt lat="46.8501167297363" lon="12.7735071182251">
    <ele>1028.33166503906</ele>
    <time>2025-03-30T07:43:40Z</time>
   </trkpt>
   <trkpt lat="46.8501167297363" lon="12.7734956741333">
    <ele>1028.35754394531</ele>
    <time>2025-03-30T07:43:41Z</time>
   </trkpt>
   <trkpt lat="46.8501052856445" lon="12.7734622955322">
    <ele>1027.75659179688</ele>
    <time>2025-03-30T07:43:45Z</time>
   </trkpt>
   <trkpt lat="46.85009765625" lon="12.7734251022339">
    <ele>1027.39782714844</ele>
    <time>2025-03-30T07:43:49Z</time>
   </trkpt>
   <trkpt lat="46.8500823974609" lon="12.7733306884766">
    <ele>1026.71118164062</ele>
    <time>2025-03-30T07:43:57Z</time>
   </trkpt>
   <trkpt lat="46.8500785827637" lon="12.7733201980591">
    <ele>1026.35302734375</ele>
    <time>2025-03-30T07:43:58Z</time>
   </trkpt>
   <trkpt lat="46.8500556945801" lon="12.7732419967651">
    <ele>1024.00231933594</ele>
    <time>2025-03-30T07:44:06Z</time>
   </trkpt>
   <trkpt lat="46.8500442504883" lon="12.7732162475586">
    <ele>1023.00329589844</ele>
    <time>2025-03-30T07:44:08Z</time>
   </trkpt>
   <trkpt lat="46.8500328063965" lon="12.7731666564941">
    <ele>1021.68951416016</ele>
    <time>2025-03-30T07:44:13Z</time>
   </trkpt>
   <trkpt lat="46.8500213623047" lon="12.7731246948242">
    <ele>1020.47644042969</ele>
    <time>2025-03-30T07:44:18Z</time>
   </trkpt>
   <trkpt lat="46.8500175476074" lon="12.7731084823608">
    <ele>1020.04272460938</ele>
    <time>2025-03-30T07:44:19Z</time>
   </trkpt>
   <trkpt lat="46.8500137329102" lon="12.7730598449707">
    <ele>1019.18096923828</ele>
    <time>2025-03-30T07:44:22Z</time>
   </trkpt>
   <trkpt lat="46.8500137329102" lon="12.7729711532593">
    <ele>1018.01025390625</ele>
    <time>2025-03-30T07:44:27Z</time>
   </trkpt>
   <trkpt lat="46.8500099182129" lon="12.7728977203369">
    <ele>1016.82116699219</ele>
    <time>2025-03-30T07:44:32Z</time>
   </trkpt>
   <trkpt lat="46.8500137329102" lon="12.7728624343872">
    <ele>1016.57513427734</ele>
    <time>2025-03-30T07:44:35Z</time>
   </trkpt>
   <trkpt lat="46.8500442504883" lon="12.7727708816528">
    <ele>1017.12445068359</ele>
    <time>2025-03-30T07:44:42Z</time>
   </trkpt>
   <trkpt lat="46.8500747680664" lon="12.7726917266846">
    <ele>1017.83740234375</ele>
    <time>2025-03-30T07:44:49Z</time>
   </trkpt>
   <trkpt lat="46.8501091003418" lon="12.7726249694824">
    <ele>1018.93377685547</ele>
    <time>2025-03-30T07:44:55Z</time>
   </trkpt>
   <trkpt lat="46.8501319885254" lon="12.7725687026978">
    <ele>1019.50939941406</ele>
    <time>2025-03-30T07:45:02Z</time>
   </trkpt>
   <trkpt lat="46.8501358032227" lon="12.7725620269775">
    <ele>1019.64099121094</ele>
    <time>2025-03-30T07:45:03Z</time>
   </trkpt>
   <trkpt lat="46.8501853942871" lon="12.7724800109863">
    <ele>1021.37487792969</ele>
    <time>2025-03-30T07:45:11Z</time>
   </trkpt>
   <trkpt lat="46.8502006530762" lon="12.7724475860596">
    <ele>1021.75744628906</ele>
    <time>2025-03-30T07:45:14Z</time>
   </trkpt>
   <trkpt lat="46.8502197265625" lon="12.7724142074585">
    <ele>1022.33941650391</ele>
    <time>2025-03-30T07:45:18Z</time>
   </trkpt>
   <trkpt lat="46.8502540588379" lon="12.7723436355591">
    <ele>1023.21051025391</ele>
    <time>2025-03-30T07:45:25Z</time>
   </trkpt>
   <trkpt lat="46.8502655029297" lon="12.7723245620728">
    <ele>1023.5654296875</ele>
    <time>2025-03-30T07:45:27Z</time>
   </trkpt>
   <trkpt lat="46.850284576416" lon="12.7722721099854">
    <ele>1023.82983398438</ele>
    <time>2025-03-30T07:45:33Z</time>
   </trkpt>
   <trkpt lat="46.8503112792969" lon="12.7722282409668">
    <ele>1024.65087890625</ele>
    <time>2025-03-30T07:45:38Z</time>
   </trkpt>
   <trkpt lat="46.8503341674805" lon="12.7721843719482">
    <ele>1025.24731445312</ele>
    <time>2025-03-30T07:45:42Z</time>
   </trkpt>
   <trkpt lat="46.8503494262695" lon="12.7721242904663">
    <ele>1025.14953613281</ele>
    <time>2025-03-30T07:45:48Z</time>
   </trkpt>
   <trkpt lat="46.8503799438477" lon="12.7720632553101">
    <ele>1025.87878417969</ele>
    <time>2025-03-30T07:45:55Z</time>
   </trkpt>
   <trkpt lat="46.8504028320312" lon="12.7720098495483">
    <ele>1026.2919921875</ele>
    <time>2025-03-30T07:46:01Z</time>
   </trkpt>
   <trkpt lat="46.8504257202148" lon="12.77197265625">
    <ele>1026.95788574219</ele>
    <time>2025-03-30T07:46:04Z</time>
   </trkpt>
   <trkpt lat="46.8504447937012" lon="12.7719163894653">
    <ele>1027.0947265625</ele>
    <time>2025-03-30T07:46:10Z</time>
   </trkpt>
   <trkpt lat="46.8504486083984" lon="12.7719039916992">
    <ele>1027.10229492188</ele>
    <time>2025-03-30T07:46:11Z</time>
   </trkpt>
   <trkpt lat="46.8504943847656" lon="12.7718448638916">
    <ele>1028.64343261719</ele>
    <time>2025-03-30T07:46:18Z</time>
   </trkpt>
   <trkpt lat="46.8505096435547" lon="12.7718181610107">
    <ele>1029.03576660156</ele>
    <time>2025-03-30T07:46:21Z</time>
   </trkpt>
   <trkpt lat="46.8505363464356" lon="12.7717914581299">
    <ele>1030.048828125</ele>
    <time>2025-03-30T07:46:25Z</time>
   </trkpt>
   <trkpt lat="46.8505744934082" lon="12.7717409133911">
    <ele>1031.27612304688</ele>
    <time>2025-03-30T07:46:31Z</time>
   </trkpt>
   <trkpt lat="46.8505935668945" lon="12.7717199325562">
    <ele>1031.95617675781</ele>
    <time>2025-03-30T07:46:34Z</time>
   </trkpt>
   <trkpt lat="46.850643157959" lon="12.7716608047485">
    <ele>1033.64929199219</ele>
    <time>2025-03-30T07:46:41Z</time>
   </trkpt>
   <trkpt lat="46.8506469726562" lon="12.771653175354">
    <ele>1033.74951171875</ele>
    <time>2025-03-30T07:46:42Z</time>
   </trkpt>
   <trkpt lat="46.8507041931152" lon="12.7715721130371">
    <ele>1035.70007324219</ele>
    <time>2025-03-30T07:46:50Z</time>
   </trkpt>
   <trkpt lat="46.850715637207" lon="12.7715559005737">
    <ele>1036.0869140625</ele>
    <time>2025-03-30T07:46:51Z</time>
   </trkpt>
   <trkpt lat="46.8507461547852" lon="12.7715015411377">
    <ele>1036.9560546875</ele>
    <time>2025-03-30T07:46:57Z</time>
   </trkpt>
   <trkpt lat="46.8507690429688" lon="12.7714672088623">
    <ele>1037.69311523438</ele>
    <time>2025-03-30T07:47:02Z</time>
   </trkpt>
   <trkpt lat="46.8507919311523" lon="12.7714290618896">
    <ele>1038.37109375</ele>
    <time>2025-03-30T07:47:06Z</time>
   </trkpt>
   <trkpt lat="46.8508415222168" lon="12.7713375091553">
    <ele>1039.74194335938</ele>
    <time>2025-03-30T07:47:14Z</time>
   </trkpt>
   <trkpt lat="46.8508453369141" lon="12.7713346481323">
    <ele>1039.9248046875</ele>
    <time>2025-03-30T07:47:15Z</time>
   </trkpt>
   <trkpt lat="46.8508720397949" lon="12.7713003158569">
    <ele>1040.99133300781</ele>
    <time>2025-03-30T07:47:20Z</time>
   </trkpt>
   <trkpt lat="46.8508758544922" lon="12.7712888717651">
    <ele>1041.04638671875</ele>
    <time>2025-03-30T07:47:21Z</time>
   </trkpt>
   <trkpt lat="46.8509140014648" lon="12.7712411880493">
    <ele>1042.56286621094</ele>
    <time>2025-03-30T07:47:26Z</time>
   </trkpt>
   <trkpt lat="46.850944519043" lon="12.7712020874023">
    <ele>1043.74267578125</ele>
    <time>2025-03-30T07:47:30Z</time>
   </trkpt>
   <trkpt lat="46.8509521484375" lon="12.7711935043335">
    <ele>1044.05322265625</ele>
    <time>2025-03-30T07:47:31Z</time>
   </trkpt>
   <trkpt lat="46.8509521484375" lon="12.7711935043335">
    <ele>1044.05322265625</ele>
    <time>2025-03-30T07:47:32Z</time>
   </trkpt>
   <trkpt lat="46.8509674072266" lon="12.7711725234985">
    <ele>1044.61267089844</ele>
    <time>2025-03-30T07:47:37Z</time>
   </trkpt>
   <trkpt lat="46.8509750366211" lon="12.7711658477783">
    <ele>1044.94946289062</ele>
    <time>2025-03-30T07:47:38Z</time>
   </trkpt>
   <trkpt lat="46.8509750366211" lon="12.7711486816406">
    <ele>1044.68481445312</ele>
    <time>2025-03-30T07:47:43Z</time>
   </trkpt>
   <trkpt lat="46.8509826660156" lon="12.7711296081543">
    <ele>1044.828125</ele>
    <time>2025-03-30T07:47:50Z</time>
   </trkpt>
   <trkpt lat="46.8510055541992" lon="12.7711057662964">
    <ele>1045.76745605469</ele>
    <time>2025-03-30T07:47:56Z</time>
   </trkpt>
   <trkpt lat="46.851016998291" lon="12.7711067199707">
    <ele>1046.43664550781</ele>
    <time>2025-03-30T07:47:59Z</time>
   </trkpt>
   <trkpt lat="46.8510284423828" lon="12.7710952758789">
    <ele>1046.90991210938</ele>
    <time>2025-03-30T07:48:02Z</time>
   </trkpt>
   <trkpt lat="46.8510360717773" lon="12.7710943222046">
    <ele>1047.33032226562</ele>
    <time>2025-03-30T07:48:07Z</time>
   </trkpt>
   <trkpt lat="46.8510360717773" lon="12.7710962295532">
    <ele>1047.36059570312</ele>
    <time>2025-03-30T07:48:08Z</time>
   </trkpt>
   <trkpt lat="46.8510513305664" lon="12.7710790634155">
    <ele>1047.95764160156</ele>
    <time>2025-03-30T07:48:12Z</time>
   </trkpt>
   <trkpt lat="46.8510589599609" lon="12.7710742950439">
    <ele>1048.31591796875</ele>
    <time>2025-03-30T07:48:13Z</time>
   </trkpt>
   <trkpt lat="46.85107421875" lon="12.7710657119751">
    <ele>1049.04614257812</ele>
    <time>2025-03-30T07:48:16Z</time>
   </trkpt>
   <trkpt lat="46.8510856628418" lon="12.7710599899292">
    <ele>1049.60424804688</ele>
    <time>2025-03-30T07:48:19Z</time>
   </trkpt>
   <trkpt lat="46.8510932922363" lon="12.7710571289062">
    <ele>1049.9912109375</ele>
    <time>2025-03-30T07:48:21Z</time>
   </trkpt>
   <trkpt lat="46.8511123657227" lon="12.7710380554199">
    <ele>1050.76184082031</ele>
    <time>2025-03-30T07:48:25Z</time>
   </trkpt>
   <trkpt lat="46.8511199951172" lon="12.771035194397">
    <ele>1051.14721679688</ele>
    <time>2025-03-30T07:48:27Z</time>
   </trkpt>
   <trkpt lat="46.8511543273926" lon="12.7710304260254">
    <ele>1053.01257324219</ele>
    <time>2025-03-30T07:48:33Z</time>
   </trkpt>
   <trkpt lat="46.8511543273926" lon="12.7710304260254">
    <ele>1053.01257324219</ele>
    <time>2025-03-30T07:48:34Z</time>
   </trkpt>
   <trkpt lat="46.8511772155762" lon="12.7710084915161">
    <ele>1053.93823242188</ele>
    <time>2025-03-30T07:48:39Z</time>
   </trkpt>
   <trkpt lat="46.8511924743652" lon="12.7709875106812">
    <ele>1054.443359375</ele>
    <time>2025-03-30T07:48:43Z</time>
   </trkpt>
   <trkpt lat="46.8511962890625" lon="12.7709798812866">
    <ele>1054.52844238281</ele>
    <time>2025-03-30T07:48:46Z</time>
   </trkpt>
   <trkpt lat="46.8512001037598" lon="12.7709608078003">
    <ele>1054.41796875</ele>
    <time>2025-03-30T07:48:50Z</time>
   </trkpt>
   <trkpt lat="46.8512115478516" lon="12.770956993103">
    <ele>1054.99487304688</ele>
    <time>2025-03-30T07:48:52Z</time>
   </trkpt>
   <trkpt lat="46.8512306213379" lon="12.7709398269653">
    <ele>1055.76843261719</ele>
    <time>2025-03-30T07:48:57Z</time>
   </trkpt>
   <trkpt lat="46.8512382507324" lon="12.7709331512451">
    <ele>1056.07983398438</ele>
    <time>2025-03-30T07:48:58Z</time>
   </trkpt>
   <trkpt lat="46.8512573242188" lon="12.7709131240845">
    <ele>1056.796875</ele>
    <time>2025-03-30T07:49:03Z</time>
   </trkpt>
   <trkpt lat="46.8512649536133" lon="12.7708911895752">
    <ele>1056.83837890625</ele>
    <time>2025-03-30T07:49:05Z</time>
   </trkpt>
   <trkpt lat="46.8512840270996" lon="12.7708692550659">
    <ele>1057.51208496094</ele>
    <time>2025-03-30T07:49:08Z</time>
   </trkpt>
   <trkpt lat="46.8512954711914" lon="12.7708511352539">
    <ele>1057.82556152344</ele>
    <time>2025-03-30T07:49:13Z</time>
   </trkpt>
   <trkpt lat="46.8513031005859" lon="12.7708463668823">
    <ele>1058.16296386719</ele>
    <time>2025-03-30T07:49:15Z</time>
   </trkpt>
   <trkpt lat="46.8513221740723" lon="12.770827293396">
    <ele>1058.87707519531</ele>
    <time>2025-03-30T07:49:21Z</time>
   </trkpt>
   <trkpt lat="46.8513259887695" lon="12.7708120346069">
    <ele>1058.81701660156</ele>
    <time>2025-03-30T07:49:24Z</time>
   </trkpt>
   <trkpt lat="46.8513450622559" lon="12.7707777023315">
    <ele>1059.25659179688</ele>
    <time>2025-03-30T07:49:29Z</time>
   </trkpt>
   <trkpt lat="46.8513641357422" lon="12.7707271575928">
    <ele>1059.40051269531</ele>
    <time>2025-03-30T07:49:36Z</time>
   </trkpt>
   <trkpt lat="46.8513717651367" lon="12.7707176208496">
    <ele>1059.64721679688</ele>
    <time>2025-03-30T07:49:37Z</time>
   </trkpt>
   <trkpt lat="46.8513946533203" lon="12.7706842422485">
    <ele>1060.29748535156</ele>
    <time>2025-03-30T07:49:42Z</time>
   </trkpt>
   <trkpt lat="46.8514022827148" lon="12.7706565856934">
    <ele>1060.21435546875</ele>
    <time>2025-03-30T07:49:46Z</time>
   </trkpt>
   <trkpt lat="46.8514060974121" lon="12.7706508636475">
    <ele>1060.31860351562</ele>
    <time>2025-03-30T07:49:47Z</time>
   </trkpt>
   <trkpt lat="46.8514137268066" lon="12.7706365585327">
    <ele>1060.474609375</ele>
    <time>2025-03-30T07:49:49Z</time>
   </trkpt>
   <trkpt lat="46.8514289855957" lon="12.7706098556519">
    <ele>1060.81872558594</ele>
    <time>2025-03-30T07:49:53Z</time>
   </trkpt>
   <trkpt lat="46.8514404296875" lon="12.7705841064453">
    <ele>1060.97009277344</ele>
    <time>2025-03-30T07:49:57Z</time>
   </trkpt>
   <trkpt lat="46.8514366149902" lon="12.770580291748">
    <ele>1060.69421386719</ele>
    <time>2025-03-30T07:49:59Z</time>
   </trkpt>
   <trkpt lat="46.8514518737793" lon="12.7705535888672">
    <ele>1061.03186035156</ele>
    <time>2025-03-30T07:50:03Z</time>
   </trkpt>
   <trkpt lat="46.8514633178711" lon="12.7705373764038">
    <ele>1061.35278320312</ele>
    <time>2025-03-30T07:50:06Z</time>
   </trkpt>
   <trkpt lat="46.8514823913574" lon="12.7705163955688">
    <ele>1061.9951171875</ele>
    <time>2025-03-30T07:50:10Z</time>
   </trkpt>
   <trkpt lat="46.8515014648438" lon="12.7704935073853">
    <ele>1062.59875488281</ele>
    <time>2025-03-30T07:50:14Z</time>
   </trkpt>
   <trkpt lat="46.8515243530273" lon="12.7704839706421">
    <ele>1063.6513671875</ele>
    <time>2025-03-30T07:50:19Z</time>
   </trkpt>
   <trkpt lat="46.8515319824219" lon="12.7704811096191">
    <ele>1064.00769042969</ele>
    <time>2025-03-30T07:50:21Z</time>
   </trkpt>
   <trkpt lat="46.8515663146973" lon="12.7704792022705">
    <ele>1065.81481933594</ele>
    <time>2025-03-30T07:50:27Z</time>
   </trkpt>
   <trkpt lat="46.8515663146973" lon="12.7704706192017">
    <ele>1065.65368652344</ele>
    <time>2025-03-30T07:50:30Z</time>
   </trkpt>
   <trkpt lat="46.8515815734863" lon="12.7704601287842">
    <ele>1066.27453613281</ele>
    <time>2025-03-30T07:50:35Z</time>
   </trkpt>
   <trkpt lat="46.8515930175781" lon="12.7704544067383">
    <ele>1066.77978515625</ele>
    <time>2025-03-30T07:50:38Z</time>
   </trkpt>
   <trkpt lat="46.8516159057617" lon="12.7704477310181">
    <ele>1067.87902832031</ele>
    <time>2025-03-30T07:50:42Z</time>
   </trkpt>
   <trkpt lat="46.8516731262207" lon="12.7704391479492">
    <ele>1070.88525390625</ele>
    <time>2025-03-30T07:50:49Z</time>
   </trkpt>
   <trkpt lat="46.8516960144043" lon="12.7704343795776">
    <ele>1072.40100097656</ele>
    <time>2025-03-30T07:50:55Z</time>
   </trkpt>
   <trkpt lat="46.8516960144043" lon="12.7704343795776">
    <ele>1072.40100097656</ele>
    <time>2025-03-30T07:50:56Z</time>
   </trkpt>
   <trkpt lat="46.8517074584961" lon="12.7704296112061">
    <ele>1073.11291503906</ele>
    <time>2025-03-30T07:50:57Z</time>
   </trkpt>
   <trkpt lat="46.8517112731934" lon="12.7704238891602">
    <ele>1073.2705078125</ele>
    <time>2025-03-30T07:50:58Z</time>
   </trkpt>
   <trkpt lat="46.8517112731934" lon="12.7704219818115">
    <ele>1073.23376464844</ele>
    <time>2025-03-30T07:50:59Z</time>
   </trkpt>
   <trkpt lat="46.8517265319824" lon="12.7704124450684">
    <ele>1074.12109375</ele>
    <time>2025-03-30T07:51:05Z</time>
   </trkpt>
   <trkpt lat="46.8517265319824" lon="12.7704124450684">
    <ele>1074.12109375</ele>
    <time>2025-03-30T07:51:06Z</time>
   </trkpt>
   <trkpt lat="46.851749420166" lon="12.7703838348389">
    <ele>1075.17504882812</ele>
    <time>2025-03-30T07:51:10Z</time>
   </trkpt>
   <trkpt lat="46.8517684936523" lon="12.7703647613525">
    <ele>1076.14404296875</ele>
    <time>2025-03-30T07:51:14Z</time>
   </trkpt>
   <trkpt lat="46.8517684936523" lon="12.7703647613525">
    <ele>1076.14404296875</ele>
    <time>2025-03-30T07:51:16Z</time>
   </trkpt>
   <trkpt lat="46.8517837524414" lon="12.7703647613525">
    <ele>1077.21411132812</ele>
    <time>2025-03-30T07:51:21Z</time>
   </trkpt>
   <trkpt lat="46.8517913818359" lon="12.770357131958">
    <ele>1077.60119628906</ele>
    <time>2025-03-30T07:51:23Z</time>
   </trkpt>
   <trkpt lat="46.8517990112305" lon="12.7703409194946">
    <ele>1077.82177734375</ele>
    <time>2025-03-30T07:51:29Z</time>
   </trkpt>
   <trkpt lat="46.8518028259277" lon="12.7703409194946">
    <ele>1078.08923339844</ele>
    <time>2025-03-30T07:51:30Z</time>
   </trkpt>
   <trkpt lat="46.8518104553223" lon="12.770339012146">
    <ele>1078.5869140625</ele>
    <time>2025-03-30T07:51:34Z</time>
   </trkpt>
   <trkpt lat="46.8518295288086" lon="12.7703351974487">
    <ele>1079.849609375</ele>
    <time>2025-03-30T07:51:36Z</time>
   </trkpt>
   <trkpt lat="46.8518486022949" lon="12.7703247070312">
    <ele>1080.98217773438</ele>
    <time>2025-03-30T07:51:39Z</time>
   </trkpt>
   <trkpt lat="46.8518524169922" lon="12.770320892334">
    <ele>1081.17517089844</ele>
    <time>2025-03-30T07:51:41Z</time>
   </trkpt>
   <trkpt lat="46.8518562316894" lon="12.7703199386597">
    <ele>1081.423828125</ele>
    <time>2025-03-30T07:51:42Z</time>
   </trkpt>
   <trkpt lat="46.8518753051758" lon="12.7702836990356">
    <ele>1082.05346679688</ele>
    <time>2025-03-30T07:51:48Z</time>
   </trkpt>
   <trkpt lat="46.8518981933594" lon="12.7702579498291">
    <ele>1083.15295410156</ele>
    <time>2025-03-30T07:51:54Z</time>
   </trkpt>
   <trkpt lat="46.8519020080566" lon="12.7702531814575">
    <ele>1083.32666015625</ele>
    <time>2025-03-30T07:51:55Z</time>
   </trkpt>
   <trkpt lat="46.8519325256348" lon="12.7702341079712">
    <ele>1085.08825683594</ele>
    <time>2025-03-30T07:52:02Z</time>
   </trkpt>
   <trkpt lat="46.8519401550293" lon="12.7702255249023">
    <ele>1085.45373535156</ele>
    <time>2025-03-30T07:52:04Z</time>
   </trkpt>
   <trkpt lat="46.8519592285156" lon="12.7702236175537">
    <ele>1086.75</ele>
    <time>2025-03-30T07:52:09Z</time>
   </trkpt>
   <trkpt lat="46.8519668579102" lon="12.770224571228">
    <ele>1087.30212402344</ele>
    <time>2025-03-30T07:52:12Z</time>
   </trkpt>
   <trkpt lat="46.8519744873047" lon="12.7702159881592">
    <ele>1087.6669921875</ele>
    <time>2025-03-30T07:52:15Z</time>
   </trkpt>
   <trkpt lat="46.8519897460938" lon="12.770206451416">
    <ele>1088.54626464844</ele>
    <time>2025-03-30T07:52:21Z</time>
   </trkpt>
   <trkpt lat="46.8520050048828" lon="12.7701940536499">
    <ele>1089.36877441406</ele>
    <time>2025-03-30T07:52:28Z</time>
   </trkpt>
   <trkpt lat="46.8520126342773" lon="12.7701873779297">
    <ele>1089.77038574219</ele>
    <time>2025-03-30T07:52:29Z</time>
   </trkpt>
   <trkpt lat="46.8520355224609" lon="12.7701635360718">
    <ele>1090.89916992188</ele>
    <time>2025-03-30T07:52:36Z</time>
   </trkpt>
   <trkpt lat="46.8520393371582" lon="12.7701587677002">
    <ele>1091.07141113281</ele>
    <time>2025-03-30T07:52:37Z</time>
   </trkpt>
   <trkpt lat="46.8520431518555" lon="12.7701482772827">
    <ele>1091.13073730469</ele>
    <time>2025-03-30T07:52:42Z</time>
   </trkpt>
   <trkpt lat="46.85205078125" lon="12.770131111145">
    <ele>1091.32421875</ele>
    <time>2025-03-30T07:52:45Z</time>
   </trkpt>
   <trkpt lat="46.8520584106445" lon="12.7701091766357">
    <ele>1091.42321777344</ele>
    <time>2025-03-30T07:52:49Z</time>
   </trkpt>
   <trkpt lat="46.8520736694336" lon="12.7700843811035">
    <ele>1091.99694824219</ele>
    <time>2025-03-30T07:52:54Z</time>
   </trkpt>
   <trkpt lat="46.8520889282227" lon="12.7700576782227">
    <ele>1092.53186035156</ele>
    <time>2025-03-30T07:53:01Z</time>
   </trkpt>
   <trkpt lat="46.8520889282227" lon="12.7700576782227">
    <ele>1092.53186035156</ele>
    <time>2025-03-30T07:53:02Z</time>
   </trkpt>
   <trkpt lat="46.8521156311035" lon="12.7700424194336">
    <ele>1094.08984375</ele>
    <time>2025-03-30T07:53:08Z</time>
   </trkpt>
   <trkpt lat="46.8521347045898" lon="12.7700099945068">
    <ele>1094.77404785156</ele>
    <time>2025-03-30T07:53:14Z</time>
   </trkpt>
   <trkpt lat="46.8521385192871" lon="12.7700042724609">
    <ele>1094.92590332031</ele>
    <time>2025-03-30T07:53:16Z</time>
   </trkpt>
   <trkpt lat="46.8521575927734" lon="12.7699842453003">
    <ele>1095.8994140625</ele>
    <time>2025-03-30T07:53:21Z</time>
   </trkpt>
   <trkpt lat="46.852180480957" lon="12.7699594497681">
    <ele>1097.07287597656</ele>
    <time>2025-03-30T07:53:25Z</time>
   </trkpt>
   <trkpt lat="46.8521881103516" lon="12.7699575424194">
    <ele>1097.57287597656</ele>
    <time>2025-03-30T07:53:27Z</time>
   </trkpt>
   <trkpt lat="46.8522071838379" lon="12.7699289321899">
    <ele>1098.42138671875</ele>
    <time>2025-03-30T07:53:33Z</time>
   </trkpt>
   <trkpt lat="46.852222442627" lon="12.7699041366577">
    <ele>1099.07153320312</ele>
    <time>2025-03-30T07:53:39Z</time>
   </trkpt>
   <trkpt lat="46.8522262573242" lon="12.7699003219604">
    <ele>1099.27465820312</ele>
    <time>2025-03-30T07:53:40Z</time>
   </trkpt>
   <trkpt lat="46.8522453308106" lon="12.7698850631714">
    <ele>1100.35559082031</ele>
    <time>2025-03-30T07:53:43Z</time>
   </trkpt>
   <trkpt lat="46.8522491455078" lon="12.7698802947998">
    <ele>1100.54345703125</ele>
    <time>2025-03-30T07:53:45Z</time>
   </trkpt>
   <trkpt lat="46.8522682189941" lon="12.7698583602905">
    <ele>1101.5166015625</ele>
    <time>2025-03-30T07:53:50Z</time>
   </trkpt>
   <trkpt lat="46.8522911071777" lon="12.7698545455933">
    <ele>1103.06066894531</ele>
    <time>2025-03-30T07:53:56Z</time>
   </trkpt>
   <trkpt lat="46.8523101806641" lon="12.7698469161987">
    <ele>1104.27490234375</ele>
    <time>2025-03-30T07:53:59Z</time>
   </trkpt>
   <trkpt lat="46.8523216247559" lon="12.7698450088501">
    <ele>1105.04772949219</ele>
    <time>2025-03-30T07:54:02Z</time>
   </trkpt>
   <trkpt lat="46.8523330688477" lon="12.7698488235474">
    <ele>1105.91418457031</ele>
    <time>2025-03-30T07:54:06Z</time>
   </trkpt>
   <trkpt lat="46.8523330688477" lon="12.769847869873">
    <ele>1105.89868164062</ele>
    <time>2025-03-30T07:54:07Z</time>
   </trkpt>
   <trkpt lat="46.8523445129394" lon="12.7698402404785">
    <ele>1106.57849121094</ele>
    <time>2025-03-30T07:54:12Z</time>
   </trkpt>
   <trkpt lat="46.8523597717285" lon="12.7697906494141">
    <ele>1106.84741210938</ele>
    <time>2025-03-30T07:54:19Z</time>
   </trkpt>
   <trkpt lat="46.8523597717285" lon="12.7697839736938">
    <ele>1106.7392578125</ele>
    <time>2025-03-30T07:54:20Z</time>
   </trkpt>
   <trkpt lat="46.852367401123" lon="12.7697620391846">
    <ele>1106.92260742188</ele>
    <time>2025-03-30T07:54:25Z</time>
   </trkpt>
   <trkpt lat="46.8523750305176" lon="12.7697458267212">
    <ele>1107.19982910156</ele>
    <time>2025-03-30T07:54:27Z</time>
   </trkpt>
   <trkpt lat="46.8523826599121" lon="12.769736289978">
    <ele>1107.58557128906</ele>
    <time>2025-03-30T07:54:30Z</time>
   </trkpt>
   <trkpt lat="46.8523826599121" lon="12.769736289978">
    <ele>1107.58557128906</ele>
    <time>2025-03-30T07:54:31Z</time>
   </trkpt>
   <trkpt lat="46.8523941040039" lon="12.7697124481201">
    <ele>1108.01232910156</ele>
    <time>2025-03-30T07:54:35Z</time>
   </trkpt>
   <trkpt lat="46.8524055480957" lon="12.7696990966797">
    <ele>1108.60925292969</ele>
    <time>2025-03-30T07:54:37Z</time>
   </trkpt>
   <trkpt lat="46.852409362793" lon="12.7696933746338">
    <ele>1108.78820800781</ele>
    <time>2025-03-30T07:54:42Z</time>
   </trkpt>
   <trkpt lat="46.852409362793" lon="12.7696886062622">
    <ele>1108.71203613281</ele>
    <time>2025-03-30T07:54:43Z</time>
   </trkpt>
   <trkpt lat="46.8524208068848" lon="12.7696647644043">
    <ele>1109.14379882812</ele>
    <time>2025-03-30T07:54:50Z</time>
   </trkpt>
   <trkpt lat="46.8524208068848" lon="12.769660949707">
    <ele>1109.0830078125</ele>
    <time>2025-03-30T07:54:51Z</time>
   </trkpt>
   <trkpt lat="46.852424621582" lon="12.7696161270142">
    <ele>1108.64025878906</ele>
    <time>2025-03-30T07:54:57Z</time>
   </trkpt>
   <trkpt lat="46.8524322509766" lon="12.7695932388306">
    <ele>1108.82019042969</ele>
    <time>2025-03-30T07:54:59Z</time>
   </trkpt>
   <trkpt lat="46.8524322509766" lon="12.7695598602295">
    <ele>1108.28967285156</ele>
    <time>2025-03-30T07:55:04Z</time>
   </trkpt>
   <trkpt lat="46.8524322509766" lon="12.769549369812">
    <ele>1108.12292480469</ele>
    <time>2025-03-30T07:55:05Z</time>
   </trkpt>
   <trkpt lat="46.8524360656738" lon="12.7695112228394">
    <ele>1107.79028320312</ele>
    <time>2025-03-30T07:55:11Z</time>
   </trkpt>
   <trkpt lat="46.8524322509766" lon="12.7694988250732">
    <ele>1107.31970214844</ele>
    <time>2025-03-30T07:55:14Z</time>
   </trkpt>
   <trkpt lat="46.8524360656738" lon="12.7694568634033">
    <ele>1106.92724609375</ele>
    <time>2025-03-30T07:55:18Z</time>
   </trkpt>
   <trkpt lat="46.8524475097656" lon="12.7694253921509">
    <ele>1107.25244140625</ele>
    <time>2025-03-30T07:55:23Z</time>
   </trkpt>
   <trkpt lat="46.8524475097656" lon="12.7694177627563">
    <ele>1107.13171386719</ele>
    <time>2025-03-30T07:55:24Z</time>
   </trkpt>
   <trkpt lat="46.8524475097656" lon="12.7693872451782">
    <ele>1106.64880371094</ele>
    <time>2025-03-30T07:55:30Z</time>
   </trkpt>
   <trkpt lat="46.8524475097656" lon="12.7693862915039">
    <ele>1106.63366699219</ele>
    <time>2025-03-30T07:55:32Z</time>
   </trkpt>
   <trkpt lat="46.8524589538574" lon="12.7693452835083">
    <ele>1106.8134765625</ele>
    <time>2025-03-30T07:55:38Z</time>
   </trkpt>
   <trkpt lat="46.852466583252" lon="12.7693281173706">
    <ele>1107.09582519531</ele>
    <time>2025-03-30T07:55:41Z</time>
   </trkpt>
   <trkpt lat="46.8524742126465" lon="12.769323348999">
    <ele>1107.57409667969</ele>
    <time>2025-03-30T07:55:45Z</time>
   </trkpt>
   <trkpt lat="46.8524932861328" lon="12.7692880630493">
    <ele>1108.40588378906</ele>
    <time>2025-03-30T07:55:50Z</time>
   </trkpt>
   <trkpt lat="46.8525009155273" lon="12.769268989563">
    <ele>1108.65380859375</ele>
    <time>2025-03-30T07:55:52Z</time>
   </trkpt>
   <trkpt lat="46.8525123596191" lon="12.7692470550537">
    <ele>1109.02624511719</ele>
    <time>2025-03-30T07:55:59Z</time>
   </trkpt>
   <trkpt lat="46.8525123596191" lon="12.7692470550537">
    <ele>1109.02624511719</ele>
    <time>2025-03-30T07:56:00Z</time>
   </trkpt>
   <trkpt lat="46.8525352478027" lon="12.7692003250122">
    <ele>1109.70104980469</ele>
    <time>2025-03-30T07:56:07Z</time>
   </trkpt>
   <trkpt lat="46.8525428771973" lon="12.7691946029663">
    <ele>1110.07885742188</ele>
    <time>2025-03-30T07:56:09Z</time>
   </trkpt>
   <trkpt lat="46.8525466918945" lon="12.7691860198975">
    <ele>1110.173828125</ele>
    <time>2025-03-30T07:56:14Z</time>
   </trkpt>
   <trkpt lat="46.8525695800781" lon="12.7691669464111">
    <ele>1111.26293945312</ele>
    <time>2025-03-30T07:56:20Z</time>
   </trkpt>
   <trkpt lat="46.8525772094727" lon="12.7691650390625">
    <ele>1111.69482421875</ele>
    <time>2025-03-30T07:56:21Z</time>
   </trkpt>
   <trkpt lat="46.8526077270508" lon="12.7691516876221">
    <ele>1113.30932617188</ele>
    <time>2025-03-30T07:56:26Z</time>
   </trkpt>
   <trkpt lat="46.8526458740234" lon="12.7691049575806">
    <ele>1114.73889160156</ele>
    <time>2025-03-30T07:56:34Z</time>
   </trkpt>
   <trkpt lat="46.852668762207" lon="12.7690839767456">
    <ele>1115.71923828125</ele>
    <time>2025-03-30T07:56:41Z</time>
   </trkpt>
   <trkpt lat="46.8527069091797" lon="12.7690801620483">
    <ele>1117.951171875</ele>
    <time>2025-03-30T07:56:47Z</time>
   </trkpt>
   <trkpt lat="46.8527221679688" lon="12.7690773010254">
    <ele>1118.81652832031</ele>
    <time>2025-03-30T07:56:50Z</time>
   </trkpt>
   <trkpt lat="46.8527336120606" lon="12.7690696716309">
    <ele>1119.35534667969</ele>
    <time>2025-03-30T07:56:54Z</time>
   </trkpt>
   <trkpt lat="46.8527488708496" lon="12.7690715789795">
    <ele>1120.31481933594</ele>
    <time>2025-03-30T07:56:58Z</time>
   </trkpt>
   <trkpt lat="46.8527603149414" lon="12.7690773010254">
    <ele>1121.12170410156</ele>
    <time>2025-03-30T07:57:00Z</time>
   </trkpt>
   <trkpt lat="46.8527526855469" lon="12.7690877914429">
    <ele>1120.87243652344</ele>
    <time>2025-03-30T07:57:04Z</time>
   </trkpt>
   <trkpt lat="46.8527526855469" lon="12.7690877914429">
    <ele>1120.87243652344</ele>
    <time>2025-03-30T07:57:06Z</time>
   </trkpt>
   <trkpt lat="46.8527755737305" lon="12.7690954208374">
    <ele>1122.4130859375</ele>
    <time>2025-03-30T07:57:12Z</time>
   </trkpt>
   <trkpt lat="46.8527717590332" lon="12.7690963745117">
    <ele>1122.20129394531</ele>
    <time>2025-03-30T07:57:15Z</time>
   </trkpt>
   <trkpt lat="46.8527755737305" lon="12.7690925598145">
    <ele>1122.35473632812</ele>
    <time>2025-03-30T07:57:16Z</time>
   </trkpt>
   <trkpt lat="46.8527755737305" lon="12.7690896987915">
    <ele>1122.29638671875</ele>
    <time>2025-03-30T07:57:17Z</time>
   </trkpt>
   <trkpt lat="46.8527755737305" lon="12.7690887451172">
    <ele>1122.27697753906</ele>
    <time>2025-03-30T07:57:18Z</time>
   </trkpt>
   <trkpt lat="46.8527793884277" lon="12.7690877914429">
    <ele>1122.48840332031</ele>
    <time>2025-03-30T07:57:20Z</time>
   </trkpt>
   <trkpt lat="46.8527908325195" lon="12.769082069397">
    <ele>1123.06359863281</ele>
    <time>2025-03-30T07:57:26Z</time>
   </trkpt>
   <trkpt lat="46.8527984619141" lon="12.7690849304199">
    <ele>1123.58386230469</ele>
    <time>2025-03-30T07:57:28Z</time>
   </trkpt>
   <trkpt lat="46.8528137207031" lon="12.7690553665161">
    <ele>1123.89465332031</ele>
    <time>2025-03-30T07:57:32Z</time>
   </trkpt>
   <trkpt lat="46.8528251647949" lon="12.7690353393555">
    <ele>1124.16723632812</ele>
    <time>2025-03-30T07:57:37Z</time>
   </trkpt>
   <trkpt lat="46.8528289794922" lon="12.7690305709839">
    <ele>1124.29699707031</ele>
    <time>2025-03-30T07:57:39Z</time>
   </trkpt>
   <trkpt lat="46.8528327941894" lon="12.7690277099609">
    <ele>1124.46618652344</ele>
    <time>2025-03-30T07:57:43Z</time>
   </trkpt>
   <trkpt lat="46.8528442382812" lon="12.769021987915">
    <ele>1125.03283691406</ele>
    <time>2025-03-30T07:57:44Z</time>
   </trkpt>
   <trkpt lat="46.8528518676758" lon="12.7690134048462">
    <ele>1125.30969238281</ele>
    <time>2025-03-30T07:57:46Z</time>
   </trkpt>
   <trkpt lat="46.8528594970703" lon="12.7690048217773">
    <ele>1125.58532714844</ele>
    <time>2025-03-30T07:57:50Z</time>
   </trkpt>
   <trkpt lat="46.8528671264648" lon="12.7689914703369">
    <ele>1125.75891113281</ele>
    <time>2025-03-30T07:57:53Z</time>
   </trkpt>
   <trkpt lat="46.8528938293457" lon="12.7689723968506">
    <ele>1126.94445800781</ele>
    <time>2025-03-30T07:57:59Z</time>
   </trkpt>
   <trkpt lat="46.8528938293457" lon="12.7689723968506">
    <ele>1126.94445800781</ele>
    <time>2025-03-30T07:58:01Z</time>
   </trkpt>
   <trkpt lat="46.852912902832" lon="12.7689657211304">
    <ele>1127.93579101562</ele>
    <time>2025-03-30T07:58:05Z</time>
   </trkpt>
   <trkpt lat="46.8529167175293" lon="12.7689657211304">
    <ele>1128.16259765625</ele>
    <time>2025-03-30T07:58:06Z</time>
   </trkpt>
   <trkpt lat="46.8529319763184" lon="12.7689590454102">
    <ele>1128.92492675781</ele>
    <time>2025-03-30T07:58:10Z</time>
   </trkpt>
   <trkpt lat="46.8529472351074" lon="12.7689790725708">
    <ele>1130.26916503906</ele>
    <time>2025-03-30T07:58:15Z</time>
   </trkpt>
   <trkpt lat="46.8529510498047" lon="12.7689914703369">
    <ele>1130.76794433594</ele>
    <time>2025-03-30T07:58:16Z</time>
   </trkpt>
   <trkpt lat="46.852954864502" lon="12.7690095901489">
    <ele>1131.39306640625</ele>
    <time>2025-03-30T07:58:21Z</time>
   </trkpt>
   <trkpt lat="46.8529624938965" lon="12.7690076828003">
    <ele>1131.8076171875</ele>
    <time>2025-03-30T07:58:23Z</time>
   </trkpt>
   <trkpt lat="46.8529624938965" lon="12.7690095901489">
    <ele>1131.849609375</ele>
    <time>2025-03-30T07:58:27Z</time>
   </trkpt>
   <trkpt lat="46.8529624938965" lon="12.7690086364746">
    <ele>1131.82861328125</ele>
    <time>2025-03-30T07:58:31Z</time>
   </trkpt>
   <trkpt lat="46.8529624938965" lon="12.7690086364746">
    <ele>1131.82861328125</ele>
    <time>2025-03-30T07:58:36Z</time>
   </trkpt>
   <trkpt lat="46.8529777526856" lon="12.7690124511719">
    <ele>1132.82604980469</ele>
    <time>2025-03-30T07:58:38Z</time>
   </trkpt>
   <trkpt lat="46.8529777526856" lon="12.7690134048462">
    <ele>1132.84716796875</ele>
    <time>2025-03-30T07:58:40Z</time>
   </trkpt>
   <trkpt lat="46.8529815673828" lon="12.7690343856812">
    <ele>1133.54052734375</ele>
    <time>2025-03-30T07:58:44Z</time>
   </trkpt>
   <trkpt lat="46.8529815673828" lon="12.7690343856812">
    <ele>1133.54052734375</ele>
    <time>2025-03-30T07:58:46Z</time>
   </trkpt>
   <trkpt lat="46.8529739379883" lon="12.7690668106079">
    <ele>1133.79870605469</ele>
    <time>2025-03-30T07:58:54Z</time>
   </trkpt>
   <trkpt lat="46.8529777526856" lon="12.7690801620483">
    <ele>1134.32434082031</ele>
    <time>2025-03-30T07:58:55Z</time>
   </trkpt>
   <trkpt lat="46.8529853820801" lon="12.7691230773926">
    <ele>1135.73791503906</ele>
    <time>2025-03-30T07:59:01Z</time>
   </trkpt>
   <trkpt lat="46.8529891967773" lon="12.7691268920898">
    <ele>1136.05480957031</ele>
    <time>2025-03-30T07:59:03Z</time>
   </trkpt>
   <trkpt lat="46.8529968261719" lon="12.7691440582275">
    <ele>1136.90173339844</ele>
    <time>2025-03-30T07:59:07Z</time>
   </trkpt>
   <trkpt lat="46.8530044555664" lon="12.7691802978516">
    <ele>1138.19421386719</ele>
    <time>2025-03-30T07:59:12Z</time>
   </trkpt>
   <trkpt lat="46.8530006408691" lon="12.7691965103149">
    <ele>1138.34143066406</ele>
    <time>2025-03-30T07:59:14Z</time>
   </trkpt>
   <trkpt lat="46.8530006408691" lon="12.7692127227783">
    <ele>1138.72290039062</ele>
    <time>2025-03-30T07:59:19Z</time>
   </trkpt>
   <trkpt lat="46.8530006408691" lon="12.7692127227783">
    <ele>1138.72290039062</ele>
    <time>2025-03-30T07:59:20Z</time>
   </trkpt>
   <trkpt lat="46.8530044555664" lon="12.7692098617554">
    <ele>1138.89172363281</ele>
    <time>2025-03-30T07:59:22Z</time>
   </trkpt>
   <trkpt lat="46.8530082702637" lon="12.769193649292">
    <ele>1138.74426269531</ele>
    <time>2025-03-30T07:59:26Z</time>
   </trkpt>
   <trkpt lat="46.8530006408691" lon="12.7691965103149">
    <ele>1138.34143066406</ele>
    <time>2025-03-30T07:59:28Z</time>
   </trkpt>
   <trkpt lat="46.8530082702637" lon="12.7691841125488">
    <ele>1138.51879882812</ele>
    <time>2025-03-30T07:59:32Z</time>
   </trkpt>
   <trkpt lat="46.8530197143555" lon="12.7691431045532">
    <ele>1138.27661132812</ele>
    <time>2025-03-30T07:59:36Z</time>
   </trkpt>
   <trkpt lat="46.8530197143555" lon="12.7691192626953">
    <ele>1137.74035644531</ele>
    <time>2025-03-30T07:59:38Z</time>
   </trkpt>
   <trkpt lat="46.85302734375" lon="12.7691040039062">
    <ele>1137.85998535156</ele>
    <time>2025-03-30T07:59:41Z</time>
   </trkpt>
   <trkpt lat="46.8530311584473" lon="12.7691030502319">
    <ele>1138.06982421875</ele>
    <time>2025-03-30T07:59:42Z</time>
   </trkpt>
   <trkpt lat="46.8530540466309" lon="12.7690744400024">
    <ele>1138.80603027344</ele>
    <time>2025-03-30T07:59:47Z</time>
   </trkpt>
   <trkpt lat="46.8530769348144" lon="12.7690553665161">
    <ele>1139.75024414062</ele>
    <time>2025-03-30T07:59:51Z</time>
   </trkpt>
   <trkpt lat="46.8530960083008" lon="12.7690563201904">
    <ele>1140.92126464844</ele>
    <time>2025-03-30T07:59:54Z</time>
   </trkpt>
   <trkpt lat="46.853099822998" lon="12.7690591812134">
    <ele>1141.21740722656</ele>
    <time>2025-03-30T07:59:55Z</time>
   </trkpt>
   <trkpt lat="46.8531265258789" lon="12.7690877914429">
    <ele>1143.49670410156</ele>
    <time>2025-03-30T08:00:02Z</time>
   </trkpt>
   <trkpt lat="46.8531265258789" lon="12.7690963745117">
    <ele>1143.69763183594</ele>
    <time>2025-03-30T08:00:03Z</time>
   </trkpt>
   <trkpt lat="46.8531379699707" lon="12.7691030502319">
    <ele>1144.54797363281</ele>
    <time>2025-03-30T08:00:09Z</time>
   </trkpt>
   <trkpt lat="46.853157043457" lon="12.7690753936768">
    <ele>1145.05004882812</ele>
    <time>2025-03-30T08:00:16Z</time>
   </trkpt>
   <trkpt lat="46.853157043457" lon="12.7690715789795">
    <ele>1144.95971679688</ele>
    <time>2025-03-30T08:00:17Z</time>
   </trkpt>
   <trkpt lat="46.8531723022461" lon="12.7690505981445">
    <ele>1145.38146972656</ele>
    <time>2025-03-30T08:00:23Z</time>
   </trkpt>
   <trkpt lat="46.8531837463379" lon="12.7690420150757">
    <ele>1145.86511230469</ele>
    <time>2025-03-30T08:00:25Z</time>
   </trkpt>
   <trkpt lat="46.853199005127" lon="12.7690315246582">
    <ele>1146.53039550781</ele>
    <time>2025-03-30T08:00:30Z</time>
   </trkpt>
   <trkpt lat="46.8532180786133" lon="12.7690324783325">
    <ele>1147.69848632812</ele>
    <time>2025-03-30T08:00:34Z</time>
   </trkpt>
   <trkpt lat="46.8532257080078" lon="12.7690420150757">
    <ele>1148.38806152344</ele>
    <time>2025-03-30T08:00:37Z</time>
   </trkpt>
   <trkpt lat="46.8532333374023" lon="12.76904296875">
    <ele>1148.86987304688</ele>
    <time>2025-03-30T08:00:39Z</time>
   </trkpt>
   <trkpt lat="46.8532409667969" lon="12.7690448760986">
    <ele>1149.37524414062</ele>
    <time>2025-03-30T08:00:41Z</time>
   </trkpt>
   <trkpt lat="46.8532524108887" lon="12.76904296875">
    <ele>1150.01684570312</ele>
    <time>2025-03-30T08:00:43Z</time>
   </trkpt>
   <trkpt lat="46.8532676696777" lon="12.7690315246582">
    <ele>1150.65246582031</ele>
    <time>2025-03-30T08:00:48Z</time>
   </trkpt>
   <trkpt lat="46.853271484375" lon="12.7690229415894">
    <ele>1150.66979980469</ele>
    <time>2025-03-30T08:00:49Z</time>
   </trkpt>
   <trkpt lat="46.8532943725586" lon="12.7690191268921">
    <ele>1151.947265625</ele>
    <time>2025-03-30T08:00:52Z</time>
   </trkpt>
   <trkpt lat="46.8533096313477" lon="12.769024848938">
    <ele>1153.00463867188</ele>
    <time>2025-03-30T08:00:54Z</time>
   </trkpt>
   <trkpt lat="46.8533172607422" lon="12.7690334320068">
    <ele>1153.67736816406</ele>
    <time>2025-03-30T08:00:56Z</time>
   </trkpt>
   <trkpt lat="46.8533134460449" lon="12.7690477371216">
    <ele>1153.80627441406</ele>
    <time>2025-03-30T08:01:00Z</time>
   </trkpt>
   <trkpt lat="46.8533134460449" lon="12.7690582275391">
    <ele>1154.06884765625</ele>
    <time>2025-03-30T08:01:03Z</time>
   </trkpt>
   <trkpt lat="46.8533172607422" lon="12.7690677642822">
    <ele>1154.53771972656</ele>
    <time>2025-03-30T08:01:07Z</time>
   </trkpt>
   <trkpt lat="46.8533172607422" lon="12.7690734863281">
    <ele>1154.68115234375</ele>
    <time>2025-03-30T08:01:10Z</time>
   </trkpt>
   <trkpt lat="46.8533172607422" lon="12.7690734863281">
    <ele>1154.68115234375</ele>
    <time>2025-03-30T08:01:12Z</time>
   </trkpt>
   <trkpt lat="46.8533363342285" lon="12.7690801620483">
    <ele>1156.00830078125</ele>
    <time>2025-03-30T08:01:19Z</time>
   </trkpt>
   <trkpt lat="46.853343963623" lon="12.7690544128418">
    <ele>1155.83520507812</ele>
    <time>2025-03-30T08:01:26Z</time>
   </trkpt>
   <trkpt lat="46.853343963623" lon="12.7690534591675">
    <ele>1155.81115722656</ele>
    <time>2025-03-30T08:01:28Z</time>
   </trkpt>
   <trkpt lat="46.8533630371094" lon="12.769021987915">
    <ele>1156.19995117188</ele>
    <time>2025-03-30T08:01:33Z</time>
   </trkpt>
   <trkpt lat="46.8533897399902" lon="12.7690095901489">
    <ele>1157.53979492188</ele>
    <time>2025-03-30T08:01:38Z</time>
   </trkpt>
   <trkpt lat="46.8534126281738" lon="12.7689876556396">
    <ele>1158.38903808594</ele>
    <time>2025-03-30T08:01:44Z</time>
   </trkpt>
   <trkpt lat="46.8534164428711" lon="12.7689847946167">
    <ele>1158.55017089844</ele>
    <time>2025-03-30T08:01:45Z</time>
   </trkpt>
   <trkpt lat="46.8534469604492" lon="12.7689619064331">
    <ele>1159.83215332031</ele>
    <time>2025-03-30T08:01:50Z</time>
   </trkpt>
   <trkpt lat="46.8534469604492" lon="12.7689619064331">
    <ele>1159.83215332031</ele>
    <time>2025-03-30T08:01:51Z</time>
   </trkpt>
   <trkpt lat="46.853458404541" lon="12.768949508667">
    <ele>1160.20837402344</ele>
    <time>2025-03-30T08:01:55Z</time>
   </trkpt>
   <trkpt lat="46.8534851074219" lon="12.7689275741577">
    <ele>1161.26196289062</ele>
    <time>2025-03-30T08:02:00Z</time>
   </trkpt>
   <trkpt lat="46.8534927368164" lon="12.7689189910889">
    <ele>1161.49865722656</ele>
    <time>2025-03-30T08:02:02Z</time>
   </trkpt>
   <trkpt lat="46.853515625" lon="12.7689056396484">
    <ele>1162.53625488281</ele>
    <time>2025-03-30T08:02:08Z</time>
   </trkpt>
   <trkpt lat="46.8535194396973" lon="12.7688913345337">
    <ele>1162.38146972656</ele>
    <time>2025-03-30T08:02:11Z</time>
   </trkpt>
   <trkpt lat="46.8535499572754" lon="12.7688579559326">
    <ele>1163.32373046875</ele>
    <time>2025-03-30T08:02:16Z</time>
   </trkpt>
   <trkpt lat="46.8535766601562" lon="12.768853187561">
    <ele>1164.80700683594</ele>
    <time>2025-03-30T08:02:22Z</time>
   </trkpt>
   <trkpt lat="46.8535766601562" lon="12.7688465118408">
    <ele>1164.62243652344</ele>
    <time>2025-03-30T08:02:23Z</time>
   </trkpt>
   <trkpt lat="46.8535995483398" lon="12.7688207626343">
    <ele>1165.28625488281</ele>
    <time>2025-03-30T08:02:30Z</time>
   </trkpt>
   <trkpt lat="46.8536033630371" lon="12.7688188552856">
    <ele>1165.46228027344</ele>
    <time>2025-03-30T08:02:31Z</time>
   </trkpt>
   <trkpt lat="46.8536224365234" lon="12.768795967102">
    <ele>1165.96508789062</ele>
    <time>2025-03-30T08:02:36Z</time>
   </trkpt>
   <trkpt lat="46.8536491394043" lon="12.7687635421753">
    <ele>1166.64331054688</ele>
    <time>2025-03-30T08:02:44Z</time>
   </trkpt>
   <trkpt lat="46.8536529541016" lon="12.7687606811523">
    <ele>1166.7890625</ele>
    <time>2025-03-30T08:02:45Z</time>
   </trkpt>
   <trkpt lat="46.8536758422852" lon="12.7687406539917">
    <ele>1167.57727050781</ele>
    <time>2025-03-30T08:02:51Z</time>
   </trkpt>
   <trkpt lat="46.8536834716797" lon="12.7687339782715">
    <ele>1167.837890625</ele>
    <time>2025-03-30T08:02:52Z</time>
   </trkpt>
   <trkpt lat="46.8537139892578" lon="12.768702507019">
    <ele>1168.73193359375</ele>
    <time>2025-03-30T08:02:57Z</time>
   </trkpt>
   <trkpt lat="46.8537406921387" lon="12.7686796188354">
    <ele>1169.63452148438</ele>
    <time>2025-03-30T08:03:02Z</time>
   </trkpt>
   <trkpt lat="46.8537483215332" lon="12.768669128418">
    <ele>1169.77404785156</ele>
    <time>2025-03-30T08:03:04Z</time>
   </trkpt>
   <trkpt lat="46.8537788391113" lon="12.7686204910278">
    <ele>1170.11779785156</ele>
    <time>2025-03-30T08:03:12Z</time>
   </trkpt>
   <trkpt lat="46.8537902832031" lon="12.768611907959">
    <ele>1170.52685546875</ele>
    <time>2025-03-30T08:03:14Z</time>
   </trkpt>
   <trkpt lat="46.8538093566894" lon="12.7685976028442">
    <ele>1171.2041015625</ele>
    <time>2025-03-30T08:03:19Z</time>
   </trkpt>
   <trkpt lat="46.853816986084" lon="12.7685890197754">
    <ele>1171.38745117188</ele>
    <time>2025-03-30T08:03:21Z</time>
   </trkpt>
   <trkpt lat="46.853832244873" lon="12.7685747146606">
    <ele>1171.83666992188</ele>
    <time>2025-03-30T08:03:25Z</time>
   </trkpt>
   <trkpt lat="46.8538551330566" lon="12.7685556411743">
    <ele>1172.57482910156</ele>
    <time>2025-03-30T08:03:29Z</time>
   </trkpt>
   <trkpt lat="46.8538665771484" lon="12.7685480117798">
    <ele>1172.99890136719</ele>
    <time>2025-03-30T08:03:31Z</time>
   </trkpt>
   <trkpt lat="46.8538932800293" lon="12.7685260772705">
    <ele>1173.85412597656</ele>
    <time>2025-03-30T08:03:37Z</time>
   </trkpt>
   <trkpt lat="46.8539009094238" lon="12.7685213088989">
    <ele>1174.142578125</ele>
    <time>2025-03-30T08:03:38Z</time>
   </trkpt>
   <trkpt lat="46.8539276123047" lon="12.7685146331787">
    <ele>1175.458984375</ele>
    <time>2025-03-30T08:03:45Z</time>
   </trkpt>
   <trkpt lat="46.8539276123047" lon="12.7685146331787">
    <ele>1175.458984375</ele>
    <time>2025-03-30T08:03:46Z</time>
   </trkpt>
   <trkpt lat="46.8539390563965" lon="12.7685060501099">
    <ele>1175.84289550781</ele>
    <time>2025-03-30T08:03:49Z</time>
   </trkpt>
   <trkpt lat="46.8539428710938" lon="12.7685012817383">
    <ele>1175.91064453125</ele>
    <time>2025-03-30T08:03:51Z</time>
   </trkpt>
   <trkpt lat="46.853946685791" lon="12.7684955596924">
    <ele>1175.94812011719</ele>
    <time>2025-03-30T08:03:53Z</time>
   </trkpt>
   <trkpt lat="46.8539772033691" lon="12.7684745788574">
    <ele>1177.01770019531</ele>
    <time>2025-03-30T08:03:59Z</time>
   </trkpt>
   <trkpt lat="46.8539810180664" lon="12.7684745788574">
    <ele>1177.23376464844</ele>
    <time>2025-03-30T08:04:00Z</time>
   </trkpt>
   <trkpt lat="46.8540153503418" lon="12.7684545516968">
    <ele>1178.53540039062</ele>
    <time>2025-03-30T08:04:08Z</time>
   </trkpt>
   <trkpt lat="46.8540382385254" lon="12.7684345245361">
    <ele>1179.17980957031</ele>
    <time>2025-03-30T08:04:15Z</time>
   </trkpt>
   <trkpt lat="46.8540687561035" lon="12.76842212677">
    <ele>1180.4912109375</ele>
    <time>2025-03-30T08:04:21Z</time>
   </trkpt>
   <trkpt lat="46.8540802001953" lon="12.7684173583984">
    <ele>1180.97705078125</ele>
    <time>2025-03-30T08:04:23Z</time>
   </trkpt>
   <trkpt lat="46.8540878295898" lon="12.7684020996094">
    <ele>1180.90405273438</ele>
    <time>2025-03-30T08:04:27Z</time>
   </trkpt>
   <trkpt lat="46.8540992736816" lon="12.7683906555176">
    <ele>1181.1669921875</ele>
    <time>2025-03-30T08:04:29Z</time>
   </trkpt>
   <trkpt lat="46.854118347168" lon="12.7683639526367">
    <ele>1181.3466796875</ele>
    <time>2025-03-30T08:04:35Z</time>
   </trkpt>
   <trkpt lat="46.854133605957" lon="12.768346786499">
    <ele>1181.62255859375</ele>
    <time>2025-03-30T08:04:37Z</time>
   </trkpt>
   <trkpt lat="46.8541488647461" lon="12.7683258056641">
    <ele>1181.74890136719</ele>
    <time>2025-03-30T08:04:41Z</time>
   </trkpt>
   <trkpt lat="46.8541793823242" lon="12.7682876586914">
    <ele>1182.03149414062</ele>
    <time>2025-03-30T08:04:47Z</time>
   </trkpt>
   <trkpt lat="46.8542060852051" lon="12.7682657241821">
    <ele>1182.64477539062</ele>
    <time>2025-03-30T08:04:53Z</time>
   </trkpt>
   <trkpt lat="46.8542213439941" lon="12.7682571411133">
    <ele>1183.13171386719</ele>
    <time>2025-03-30T08:04:55Z</time>
   </trkpt>
   <trkpt lat="46.8542442321777" lon="12.7682447433472">
    <ele>1183.87060546875</ele>
    <time>2025-03-30T08:04:59Z</time>
   </trkpt>
   <trkpt lat="46.8542785644531" lon="12.7682237625122">
    <ele>1184.86840820312</ele>
    <time>2025-03-30T08:05:06Z</time>
   </trkpt>
   <trkpt lat="46.8542976379394" lon="12.7682237625122">
    <ele>1185.85925292969</ele>
    <time>2025-03-30T08:05:12Z</time>
   </trkpt>
   <trkpt lat="46.8543090820312" lon="12.768217086792">
    <ele>1186.19567871094</ele>
    <time>2025-03-30T08:05:15Z</time>
   </trkpt>
   <trkpt lat="46.854320526123" lon="12.7682008743286">
    <ele>1186.15832519531</ele>
    <time>2025-03-30T08:05:17Z</time>
   </trkpt>
   <trkpt lat="46.8543281555176" lon="12.7681970596313">
    <ele>1186.40258789062</ele>
    <time>2025-03-30T08:05:18Z</time>
   </trkpt>
   <trkpt lat="46.8543586730957" lon="12.7681789398193">
    <ele>1187.25524902344</ele>
    <time>2025-03-30T08:05:25Z</time>
   </trkpt>
   <trkpt lat="46.8543663024902" lon="12.7681636810303">
    <ele>1187.03881835938</ele>
    <time>2025-03-30T08:05:28Z</time>
   </trkpt>
   <trkpt lat="46.8543853759766" lon="12.768138885498">
    <ele>1187.01403808594</ele>
    <time>2025-03-30T08:05:31Z</time>
   </trkpt>
   <trkpt lat="46.8544006347656" lon="12.7681188583374">
    <ele>1186.97375488281</ele>
    <time>2025-03-30T08:05:37Z</time>
   </trkpt>
   <trkpt lat="46.8544158935547" lon="12.7681007385254">
    <ele>1186.99963378906</ele>
    <time>2025-03-30T08:05:40Z</time>
   </trkpt>
   <trkpt lat="46.8544540405273" lon="12.7680606842041">
    <ele>1187.23608398438</ele>
    <time>2025-03-30T08:05:46Z</time>
   </trkpt>
   <trkpt lat="46.8544578552246" lon="12.7680511474609">
    <ele>1187.02722167969</ele>
    <time>2025-03-30T08:05:47Z</time>
   </trkpt>
   <trkpt lat="46.8544654846191" lon="12.7680416107178">
    <ele>1187.00231933594</ele>
    <time>2025-03-30T08:05:49Z</time>
   </trkpt>
   <trkpt lat="46.8544692993164" lon="12.768030166626">
    <ele>1186.71069335938</ele>
    <time>2025-03-30T08:05:52Z</time>
   </trkpt>
   <trkpt lat="46.8544692993164" lon="12.7680234909058">
    <ele>1186.43249511719</ele>
    <time>2025-03-30T08:05:53Z</time>
   </trkpt>
   <trkpt lat="46.8544960021973" lon="12.7680072784424">
    <ele>1187.03601074219</ele>
    <time>2025-03-30T08:06:00Z</time>
   </trkpt>
   <trkpt lat="46.8544960021973" lon="12.7680063247681">
    <ele>1186.99572753906</ele>
    <time>2025-03-30T08:06:01Z</time>
   </trkpt>
   <trkpt lat="46.8545265197754" lon="12.7679920196533">
    <ele>1187.84558105469</ele>
    <time>2025-03-30T08:06:08Z</time>
   </trkpt>
   <trkpt lat="46.8545341491699" lon="12.7679872512817">
    <ele>1188.00427246094</ele>
    <time>2025-03-30T08:06:10Z</time>
   </trkpt>
   <trkpt lat="46.854549407959" lon="12.7679643630981">
    <ele>1187.74145507812</ele>
    <time>2025-03-30T08:06:14Z</time>
   </trkpt>
   <trkpt lat="46.8545608520508" lon="12.7679481506348">
    <ele>1187.5771484375</ele>
    <time>2025-03-30T08:06:18Z</time>
   </trkpt>
   <trkpt lat="46.8545608520508" lon="12.7679481506348">
    <ele>1187.5771484375</ele>
    <time>2025-03-30T08:06:19Z</time>
   </trkpt>
   <trkpt lat="46.8545684814453" lon="12.7679414749146">
    <ele>1187.6435546875</ele>
    <time>2025-03-30T08:06:20Z</time>
   </trkpt>
   <trkpt lat="46.8545951843262" lon="12.7679195404053">
    <ele>1187.92407226562</ele>
    <time>2025-03-30T08:06:26Z</time>
   </trkpt>
   <trkpt lat="46.8546180725098" lon="12.7679004669189">
    <ele>1188.13488769531</ele>
    <time>2025-03-30T08:06:32Z</time>
   </trkpt>
   <trkpt lat="46.8546333312988" lon="12.7678823471069">
    <ele>1188.02453613281</ele>
    <time>2025-03-30T08:06:36Z</time>
   </trkpt>
   <trkpt lat="46.8546524047852" lon="12.7678756713867">
    <ele>1188.59252929688</ele>
    <time>2025-03-30T08:06:40Z</time>
   </trkpt>
   <trkpt lat="46.854663848877" lon="12.7678651809692">
    <ele>1188.63708496094</ele>
    <time>2025-03-30T08:06:42Z</time>
   </trkpt>
   <trkpt lat="46.854663848877" lon="12.7678508758545">
    <ele>1187.98901367188</ele>
    <time>2025-03-30T08:06:46Z</time>
   </trkpt>
   <trkpt lat="46.8546714782715" lon="12.7678375244141">
    <ele>1187.72521972656</ele>
    <time>2025-03-30T08:06:48Z</time>
   </trkpt>
   <trkpt lat="46.8546867370606" lon="12.7678327560425">
    <ele>1188.18957519531</ele>
    <time>2025-03-30T08:06:51Z</time>
   </trkpt>
   <trkpt lat="46.8546943664551" lon="12.7678232192993">
    <ele>1188.09252929688</ele>
    <time>2025-03-30T08:06:53Z</time>
   </trkpt>
   <trkpt lat="46.8547286987305" lon="12.7677917480469">
    <ele>1188.15454101562</ele>
    <time>2025-03-30T08:06:58Z</time>
   </trkpt>
   <trkpt lat="46.854736328125" lon="12.7677803039551">
    <ele>1187.955078125</ele>
    <time>2025-03-30T08:06:59Z</time>
   </trkpt>
   <trkpt lat="46.8547477722168" lon="12.7677593231201">
    <ele>1187.47106933594</ele>
    <time>2025-03-30T08:07:03Z</time>
   </trkpt>
   <trkpt lat="46.8547706604004" lon="12.7677307128906">
    <ele>1187.10766601562</ele>
    <time>2025-03-30T08:07:08Z</time>
   </trkpt>
   <trkpt lat="46.8547706604004" lon="12.7677278518677">
    <ele>1186.97229003906</ele>
    <time>2025-03-30T08:07:10Z</time>
   </trkpt>
   <trkpt lat="46.854793548584" lon="12.7677068710327">
    <ele>1186.947265625</ele>
    <time>2025-03-30T08:07:16Z</time>
   </trkpt>
   <trkpt lat="46.854793548584" lon="12.7677068710327">
    <ele>1186.947265625</ele>
    <time>2025-03-30T08:07:18Z</time>
   </trkpt>
   <trkpt lat="46.8548049926758" lon="12.7676963806152">
    <ele>1186.92810058594</ele>
    <time>2025-03-30T08:07:21Z</time>
   </trkpt>
   <trkpt lat="46.8548316955566" lon="12.7676820755005">
    <ele>1187.35852050781</ele>
    <time>2025-03-30T08:07:26Z</time>
   </trkpt>
   <trkpt lat="46.8548355102539" lon="12.7676782608032">
    <ele>1187.33288574219</ele>
    <time>2025-03-30T08:07:28Z</time>
   </trkpt>
   <trkpt lat="46.8548698425293" lon="12.7676630020142">
    <ele>1188.01574707031</ele>
    <time>2025-03-30T08:07:34Z</time>
   </trkpt>
   <trkpt lat="46.8548812866211" lon="12.7676630020142">
    <ele>1188.49011230469</ele>
    <time>2025-03-30T08:07:37Z</time>
   </trkpt>
   <trkpt lat="46.8548927307129" lon="12.7676582336426">
    <ele>1188.72802734375</ele>
    <time>2025-03-30T08:07:41Z</time>
   </trkpt>
   <trkpt lat="46.8549041748047" lon="12.7676515579224">
    <ele>1188.86877441406</ele>
    <time>2025-03-30T08:07:45Z</time>
   </trkpt>
   <trkpt lat="46.8549156188965" lon="12.7676486968994">
    <ele>1189.19763183594</ele>
    <time>2025-03-30T08:07:46Z</time>
   </trkpt>
   <trkpt lat="46.8549575805664" lon="12.7676410675049">
    <ele>1190.53820800781</ele>
    <time>2025-03-30T08:07:53Z</time>
   </trkpt>
   <trkpt lat="46.8549652099609" lon="12.7676458358765">
    <ele>1191.09423828125</ele>
    <time>2025-03-30T08:07:55Z</time>
   </trkpt>
   <trkpt lat="46.85498046875" lon="12.7676296234131">
    <ele>1190.89123535156</ele>
    <time>2025-03-30T08:07:59Z</time>
   </trkpt>
   <trkpt lat="46.8550186157227" lon="12.7676162719727">
    <ele>1191.9716796875</ele>
    <time>2025-03-30T08:08:05Z</time>
   </trkpt>
   <trkpt lat="46.8550453186035" lon="12.7676076889038">
    <ele>1192.93701171875</ele>
    <time>2025-03-30T08:08:11Z</time>
   </trkpt>
   <trkpt lat="46.855052947998" lon="12.767599105835">
    <ele>1192.91125488281</ele>
    <time>2025-03-30T08:08:12Z</time>
   </trkpt>
   <trkpt lat="46.8550834655762" lon="12.7675743103027">
    <ele>1193.31860351562</ele>
    <time>2025-03-30T08:08:17Z</time>
   </trkpt>
   <trkpt lat="46.8550834655762" lon="12.7675685882568">
    <ele>1193.04052734375</ele>
    <time>2025-03-30T08:08:20Z</time>
   </trkpt>
   <trkpt lat="46.855094909668" lon="12.7675647735596">
    <ele>1193.47387695312</ele>
    <time>2025-03-30T08:08:23Z</time>
   </trkpt>
   <trkpt lat="46.855110168457" lon="12.7675590515137">
    <ele>1194.0263671875</ele>
    <time>2025-03-30T08:08:29Z</time>
   </trkpt>
   <trkpt lat="46.8551330566406" lon="12.7675352096558">
    <ele>1194.15258789062</ele>
    <time>2025-03-30T08:08:37Z</time>
   </trkpt>
   <trkpt lat="46.8551445007324" lon="12.7675285339355">
    <ele>1194.47375488281</ele>
    <time>2025-03-30T08:08:38Z</time>
   </trkpt>
   <trkpt lat="46.8551597595215" lon="12.7675228118896">
    <ele>1195.05627441406</ele>
    <time>2025-03-30T08:08:42Z</time>
   </trkpt>
   <trkpt lat="46.8551712036133" lon="12.7675218582153">
    <ele>1195.64904785156</ele>
    <time>2025-03-30T08:08:47Z</time>
   </trkpt>
   <trkpt lat="46.8551712036133" lon="12.7675180435181">
    <ele>1195.47570800781</ele>
    <time>2025-03-30T08:08:49Z</time>
   </trkpt>
   <trkpt lat="46.8551826477051" lon="12.7674989700317">
    <ele>1195.27661132812</ele>
    <time>2025-03-30T08:08:55Z</time>
   </trkpt>
   <trkpt lat="46.8551940917969" lon="12.7674989700317">
    <ele>1195.92248535156</ele>
    <time>2025-03-30T08:08:56Z</time>
   </trkpt>
   <trkpt lat="46.8552169799805" lon="12.7674837112427">
    <ele>1196.86608886719</ele>
    <time>2025-03-30T08:09:03Z</time>
   </trkpt>
   <trkpt lat="46.8552169799805" lon="12.7674856185913">
    <ele>1196.90954589844</ele>
    <time>2025-03-30T08:09:04Z</time>
   </trkpt>
   <trkpt lat="46.8552436828613" lon="12.7674808502197">
    <ele>1198.32373046875</ele>
    <time>2025-03-30T08:09:09Z</time>
   </trkpt>
   <trkpt lat="46.8552474975586" lon="12.767481803894">
    <ele>1198.56213378906</ele>
    <time>2025-03-30T08:09:11Z</time>
   </trkpt>
   <trkpt lat="46.8552474975586" lon="12.767481803894">
    <ele>1198.56213378906</ele>
    <time>2025-03-30T08:09:17Z</time>
   </trkpt>
   <trkpt lat="46.8552551269531" lon="12.7674798965454">
    <ele>1198.95593261719</ele>
    <time>2025-03-30T08:09:19Z</time>
   </trkpt>
   <trkpt lat="46.8552742004394" lon="12.7674694061279">
    <ele>1199.82495117188</ele>
    <time>2025-03-30T08:09:23Z</time>
   </trkpt>
   <trkpt lat="46.855297088623" lon="12.7674646377563">
    <ele>1201.04284667969</ele>
    <time>2025-03-30T08:09:27Z</time>
   </trkpt>
   <trkpt lat="46.8553085327148" lon="12.7674589157104">
    <ele>1201.58850097656</ele>
    <time>2025-03-30T08:09:29Z</time>
   </trkpt>
   <trkpt lat="46.8553199768066" lon="12.7674579620361">
    <ele>1202.23107910156</ele>
    <time>2025-03-30T08:09:30Z</time>
   </trkpt>
   <trkpt lat="46.8553314208984" lon="12.7674541473389">
    <ele>1202.81982421875</ele>
    <time>2025-03-30T08:09:32Z</time>
   </trkpt>
   <trkpt lat="46.8553466796875" lon="12.7674589157104">
    <ele>1203.7919921875</ele>
    <time>2025-03-30T08:09:34Z</time>
   </trkpt>
   <trkpt lat="46.8553504943848" lon="12.7674560546875">
    <ele>1203.95971679688</ele>
    <time>2025-03-30T08:09:37Z</time>
   </trkpt>
   <trkpt lat="46.8553733825684" lon="12.7674551010132">
    <ele>1205.26708984375</ele>
    <time>2025-03-30T08:09:42Z</time>
   </trkpt>
   <trkpt lat="46.8553848266602" lon="12.767463684082">
    <ele>1206.07763671875</ele>
    <time>2025-03-30T08:09:47Z</time>
   </trkpt>
   <trkpt lat="46.8553848266602" lon="12.7674713134766">
    <ele>1206.20922851562</ele>
    <time>2025-03-30T08:09:48Z</time>
   </trkpt>
   <trkpt lat="46.8553848266602" lon="12.7675018310547">
    <ele>1206.77331542969</ele>
    <time>2025-03-30T08:09:54Z</time>
   </trkpt>
   <trkpt lat="46.8553848266602" lon="12.767505645752">
    <ele>1206.91735839844</ele>
    <time>2025-03-30T08:09:55Z</time>
   </trkpt>
   <trkpt lat="46.8553733825684" lon="12.7675409317017">
    <ele>1207.62060546875</ele>
    <time>2025-03-30T08:10:02Z</time>
   </trkpt>
   <trkpt lat="46.8553695678711" lon="12.7675457000732">
    <ele>1207.59375</ele>
    <time>2025-03-30T08:10:03Z</time>
   </trkpt>
   <trkpt lat="46.8553581237793" lon="12.7675685882568">
    <ele>1207.85302734375</ele>
    <time>2025-03-30T08:10:06Z</time>
   </trkpt>
   <trkpt lat="46.855354309082" lon="12.7675800323486">
    <ele>1208.09191894531</ele>
    <time>2025-03-30T08:10:08Z</time>
   </trkpt>
   <trkpt lat="46.8553504943848" lon="12.7675905227661">
    <ele>1208.29663085938</ele>
    <time>2025-03-30T08:10:09Z</time>
   </trkpt>
   <trkpt lat="46.8553466796875" lon="12.7676010131836">
    <ele>1208.50427246094</ele>
    <time>2025-03-30T08:10:11Z</time>
   </trkpt>
   <trkpt lat="46.8553466796875" lon="12.7676038742065">
    <ele>1208.6162109375</ele>
    <time>2025-03-30T08:10:13Z</time>
   </trkpt>
   <trkpt lat="46.8553314208984" lon="12.7676305770874">
    <ele>1208.87194824219</ele>
    <time>2025-03-30T08:10:17Z</time>
   </trkpt>
   <trkpt lat="46.8553123474121" lon="12.7676486968994">
    <ele>1208.6171875</ele>
    <time>2025-03-30T08:10:22Z</time>
   </trkpt>
   <trkpt lat="46.8553009033203" lon="12.7676630020142">
    <ele>1208.61608886719</ele>
    <time>2025-03-30T08:10:25Z</time>
   </trkpt>
   <trkpt lat="46.8552780151367" lon="12.76771068573">
    <ele>1209.44274902344</ele>
    <time>2025-03-30T08:10:32Z</time>
   </trkpt>
   <trkpt lat="46.8552780151367" lon="12.7677192687988">
    <ele>1209.7998046875</ele>
    <time>2025-03-30T08:10:34Z</time>
   </trkpt>
   <trkpt lat="46.8552627563477" lon="12.7677574157715">
    <ele>1210.66711425781</ele>
    <time>2025-03-30T08:10:40Z</time>
   </trkpt>
   <trkpt lat="46.8552589416504" lon="12.767767906189">
    <ele>1210.93090820312</ele>
    <time>2025-03-30T08:10:41Z</time>
   </trkpt>
   <trkpt lat="46.8552474975586" lon="12.7677888870239">
    <ele>1211.29150390625</ele>
    <time>2025-03-30T08:10:45Z</time>
   </trkpt>
   <trkpt lat="46.8552398681641" lon="12.7678155899048">
    <ele>1212.08776855469</ele>
    <time>2025-03-30T08:10:51Z</time>
   </trkpt>
   <trkpt lat="46.8552322387695" lon="12.7678565979004">
    <ele>1213.51733398438</ele>
    <time>2025-03-30T08:10:55Z</time>
   </trkpt>
   <trkpt lat="46.8552360534668" lon="12.7678670883179">
    <ele>1214.1357421875</ele>
    <time>2025-03-30T08:10:56Z</time>
   </trkpt>
   <trkpt lat="46.8552284240723" lon="12.7679042816162">
    <ele>1215.41955566406</ele>
    <time>2025-03-30T08:11:02Z</time>
   </trkpt>
   <trkpt lat="46.8552207946777" lon="12.7679214477539">
    <ele>1215.849609375</ele>
    <time>2025-03-30T08:11:06Z</time>
   </trkpt>
   <trkpt lat="46.8552169799805" lon="12.7679357528687">
    <ele>1216.31872558594</ele>
    <time>2025-03-30T08:11:08Z</time>
   </trkpt>
   <trkpt lat="46.8552169799805" lon="12.7679643630981">
    <ele>1217.57153320312</ele>
    <time>2025-03-30T08:11:14Z</time>
   </trkpt>
   <trkpt lat="46.8552131652832" lon="12.7679777145386">
    <ele>1218.00659179688</ele>
    <time>2025-03-30T08:11:15Z</time>
   </trkpt>
   <trkpt lat="46.8552055358887" lon="12.7679843902588">
    <ele>1218.00256347656</ele>
    <time>2025-03-30T08:11:18Z</time>
   </trkpt>
   <trkpt lat="46.8551979064941" lon="12.768012046814">
    <ele>1218.93542480469</ele>
    <time>2025-03-30T08:11:23Z</time>
   </trkpt>
   <trkpt lat="46.8551979064941" lon="12.7680292129517">
    <ele>1219.69885253906</ele>
    <time>2025-03-30T08:11:24Z</time>
   </trkpt>
   <trkpt lat="46.8551940917969" lon="12.7680568695068">
    <ele>1220.79028320312</ele>
    <time>2025-03-30T08:11:30Z</time>
   </trkpt>
   <trkpt lat="46.8551902770996" lon="12.7680625915527">
    <ele>1220.90759277344</ele>
    <time>2025-03-30T08:11:31Z</time>
   </trkpt>
   <trkpt lat="46.8551788330078" lon="12.7680921554565">
    <ele>1221.8291015625</ele>
    <time>2025-03-30T08:11:37Z</time>
   </trkpt>
   <trkpt lat="46.8551788330078" lon="12.7680978775024">
    <ele>1222.08752441406</ele>
    <time>2025-03-30T08:11:39Z</time>
   </trkpt>
   <trkpt lat="46.8551826477051" lon="12.7681074142456">
    <ele>1222.65002441406</ele>
    <time>2025-03-30T08:11:43Z</time>
   </trkpt>
   <trkpt lat="46.8551864624023" lon="12.7681179046631">
    <ele>1223.25256347656</ele>
    <time>2025-03-30T08:11:47Z</time>
   </trkpt>
   <trkpt lat="46.8551864624023" lon="12.7681179046631">
    <ele>1223.25256347656</ele>
    <time>2025-03-30T08:11:50Z</time>
   </trkpt>
   <trkpt lat="46.8551826477051" lon="12.7681531906128">
    <ele>1224.71105957031</ele>
    <time>2025-03-30T08:11:54Z</time>
   </trkpt>
   <trkpt lat="46.8551712036133" lon="12.7681827545166">
    <ele>1225.67797851562</ele>
    <time>2025-03-30T08:11:56Z</time>
   </trkpt>
   <trkpt lat="46.855152130127" lon="12.7682399749756">
    <ele>1227.71020507812</ele>
    <time>2025-03-30T08:12:03Z</time>
   </trkpt>
   <trkpt lat="46.855152130127" lon="12.7682418823242">
    <ele>1227.79821777344</ele>
    <time>2025-03-30T08:12:13Z</time>
   </trkpt>
   <trkpt lat="46.8551559448242" lon="12.7682580947876">
    <ele>1228.65698242188</ele>
    <time>2025-03-30T08:12:20Z</time>
   </trkpt>
   <trkpt lat="46.8551559448242" lon="12.7682838439941">
    <ele>1229.84118652344</ele>
    <time>2025-03-30T08:12:29Z</time>
   </trkpt>
   <trkpt lat="46.8551826477051" lon="12.7682628631592">
    <ele>1229.64904785156</ele>
    <time>2025-03-30T08:12:34Z</time>
   </trkpt>
   <trkpt lat="46.8551788330078" lon="12.7682628631592">
    <ele>1229.53857421875</ele>
    <time>2025-03-30T08:12:35Z</time>
   </trkpt>
   <trkpt lat="46.8551635742188" lon="12.7682733535767">
    <ele>1229.57666015625</ele>
    <time>2025-03-30T08:12:40Z</time>
   </trkpt>
   <trkpt lat="46.8551483154297" lon="12.7682647705078">
    <ele>1228.74377441406</ele>
    <time>2025-03-30T08:12:44Z</time>
   </trkpt>
   <trkpt lat="46.8551254272461" lon="12.7683095932007">
    <ele>1230.19348144531</ele>
    <time>2025-03-30T08:12:50Z</time>
   </trkpt>
   <trkpt lat="46.855110168457" lon="12.7683506011963">
    <ele>1231.65686035156</ele>
    <time>2025-03-30T08:12:54Z</time>
   </trkpt>
   <trkpt lat="46.8551063537598" lon="12.7683773040771">
    <ele>1232.70947265625</ele>
    <time>2025-03-30T08:12:56Z</time>
   </trkpt>
   <trkpt lat="46.8550987243652" lon="12.76842212677">
    <ele>1234.43103027344</ele>
    <time>2025-03-30T08:13:02Z</time>
   </trkpt>
   <trkpt lat="46.8550910949707" lon="12.7684335708618">
    <ele>1234.70495605469</ele>
    <time>2025-03-30T08:13:03Z</time>
   </trkpt>
   <trkpt lat="46.8550834655762" lon="12.7684736251831">
    <ele>1236.19714355469</ele>
    <time>2025-03-30T08:13:07Z</time>
   </trkpt>
   <trkpt lat="46.8550682067871" lon="12.7685060501099">
    <ele>1237.11889648438</ele>
    <time>2025-03-30T08:13:11Z</time>
   </trkpt>
   <trkpt lat="46.8550643920898" lon="12.768515586853">
    <ele>1237.40625</ele>
    <time>2025-03-30T08:13:13Z</time>
   </trkpt>
   <trkpt lat="46.855037689209" lon="12.7685804367065">
    <ele>1239.29138183594</ele>
    <time>2025-03-30T08:13:20Z</time>
   </trkpt>
   <trkpt lat="46.855037689209" lon="12.7685861587524">
    <ele>1239.52978515625</ele>
    <time>2025-03-30T08:13:21Z</time>
   </trkpt>
   <trkpt lat="46.8550071716309" lon="12.7686395645142">
    <ele>1240.73413085938</ele>
    <time>2025-03-30T08:13:27Z</time>
   </trkpt>
   <trkpt lat="46.8550071716309" lon="12.7686452865601">
    <ele>1240.96862792969</ele>
    <time>2025-03-30T08:13:28Z</time>
   </trkpt>
   <trkpt lat="46.8549919128418" lon="12.7686996459961">
    <ele>1242.48327636719</ele>
    <time>2025-03-30T08:13:33Z</time>
   </trkpt>
   <trkpt lat="46.8549766540527" lon="12.7687349319458">
    <ele>1243.04357910156</ele>
    <time>2025-03-30T08:13:37Z</time>
   </trkpt>
   <trkpt lat="46.8549652099609" lon="12.7687702178955">
    <ele>1243.81494140625</ele>
    <time>2025-03-30T08:13:41Z</time>
   </trkpt>
   <trkpt lat="46.8549461364746" lon="12.768795967102">
    <ele>1243.75158691406</ele>
    <time>2025-03-30T08:13:45Z</time>
   </trkpt>
   <trkpt lat="46.8549346923828" lon="12.7688407897949">
    <ele>1244.89123535156</ele>
    <time>2025-03-30T08:13:50Z</time>
   </trkpt>
   <trkpt lat="46.854923248291" lon="12.7688646316528">
    <ele>1245.18005371094</ele>
    <time>2025-03-30T08:13:53Z</time>
   </trkpt>
   <trkpt lat="46.854923248291" lon="12.7688941955566">
    <ele>1246.36669921875</ele>
    <time>2025-03-30T08:13:57Z</time>
   </trkpt>
   <trkpt lat="46.8549156188965" lon="12.7689409255981">
    <ele>1247.79016113281</ele>
    <time>2025-03-30T08:14:02Z</time>
   </trkpt>
   <trkpt lat="46.8549118041992" lon="12.7689542770386">
    <ele>1248.09875488281</ele>
    <time>2025-03-30T08:14:04Z</time>
   </trkpt>
   <trkpt lat="46.8549003601074" lon="12.7690086364746">
    <ele>1249.59045410156</ele>
    <time>2025-03-30T08:14:10Z</time>
   </trkpt>
   <trkpt lat="46.8548889160156" lon="12.7690811157227">
    <ele>1251.79333496094</ele>
    <time>2025-03-30T08:14:18Z</time>
   </trkpt>
   <trkpt lat="46.8548812866211" lon="12.7691593170166">
    <ele>1254.4423828125</ele>
    <time>2025-03-30T08:14:24Z</time>
   </trkpt>
   <trkpt lat="46.8548736572266" lon="12.7691946029663">
    <ele>1255.51428222656</ele>
    <time>2025-03-30T08:14:27Z</time>
   </trkpt>
   <trkpt lat="46.8548583984375" lon="12.7692337036133">
    <ele>1256.30725097656</ele>
    <time>2025-03-30T08:14:30Z</time>
   </trkpt>
   <trkpt lat="46.8548431396484" lon="12.7692947387695">
    <ele>1258.04675292969</ele>
    <time>2025-03-30T08:14:36Z</time>
   </trkpt>
   <trkpt lat="46.8548240661621" lon="12.7693500518799">
    <ele>1259.2578125</ele>
    <time>2025-03-30T08:14:43Z</time>
   </trkpt>
   <trkpt lat="46.8548240661621" lon="12.7693614959717">
    <ele>1259.75854492188</ele>
    <time>2025-03-30T08:14:44Z</time>
   </trkpt>
   <trkpt lat="46.8548202514648" lon="12.7694025039673">
    <ele>1261.30407714844</ele>
    <time>2025-03-30T08:14:49Z</time>
   </trkpt>
   <trkpt lat="46.854808807373" lon="12.769434928894">
    <ele>1261.96740722656</ele>
    <time>2025-03-30T08:14:52Z</time>
   </trkpt>
   <trkpt lat="46.8547973632812" lon="12.7694664001465">
    <ele>1262.57666015625</ele>
    <time>2025-03-30T08:14:55Z</time>
   </trkpt>
   <trkpt lat="46.854793548584" lon="12.7695140838623">
    <ele>1264.38488769531</ele>
    <time>2025-03-30T08:14:59Z</time>
   </trkpt>
   <trkpt lat="46.8547897338867" lon="12.7695198059082">
    <ele>1264.37548828125</ele>
    <time>2025-03-30T08:15:00Z</time>
   </trkpt>
   <trkpt lat="46.8547668457031" lon="12.7695760726929">
    <ele>1265.24169921875</ele>
    <time>2025-03-30T08:15:05Z</time>
   </trkpt>
   <trkpt lat="46.854736328125" lon="12.7696418762207">
    <ele>1265.93786621094</ele>
    <time>2025-03-30T08:15:12Z</time>
   </trkpt>
   <trkpt lat="46.8547019958496" lon="12.7697191238403">
    <ele>1266.77221679688</ele>
    <time>2025-03-30T08:15:19Z</time>
   </trkpt>
   <trkpt lat="46.8547019958496" lon="12.7697248458862">
    <ele>1267.01062011719</ele>
    <time>2025-03-30T08:15:20Z</time>
   </trkpt>
   <trkpt lat="46.8546981811523" lon="12.7697649002075">
    <ele>1268.40600585938</ele>
    <time>2025-03-30T08:15:24Z</time>
   </trkpt>
   <trkpt lat="46.8546905517578" lon="12.7697877883911">
    <ele>1268.80895996094</ele>
    <time>2025-03-30T08:15:27Z</time>
   </trkpt>
   <trkpt lat="46.8546981811523" lon="12.7698402404785">
    <ele>1271.53894042969</ele>
    <time>2025-03-30T08:15:31Z</time>
   </trkpt>
   <trkpt lat="46.8546943664551" lon="12.7698793411255">
    <ele>1272.88452148438</ele>
    <time>2025-03-30T08:15:35Z</time>
   </trkpt>
   <trkpt lat="46.8546943664551" lon="12.769889831543">
    <ele>1273.32006835938</ele>
    <time>2025-03-30T08:15:36Z</time>
   </trkpt>
   <trkpt lat="46.8546829223633" lon="12.7699298858643">
    <ele>1274.13171386719</ele>
    <time>2025-03-30T08:15:41Z</time>
   </trkpt>
   <trkpt lat="46.8546752929688" lon="12.7699546813965">
    <ele>1274.58557128906</ele>
    <time>2025-03-30T08:15:43Z</time>
   </trkpt>
   <trkpt lat="46.8546752929688" lon="12.769965171814">
    <ele>1275.017578125</ele>
    <time>2025-03-30T08:15:44Z</time>
   </trkpt>
   <trkpt lat="46.8546676635742" lon="12.7700080871582">
    <ele>1276.14135742188</ele>
    <time>2025-03-30T08:15:48Z</time>
   </trkpt>
   <trkpt lat="46.854663848877" lon="12.7700271606445">
    <ele>1276.47961425781</ele>
    <time>2025-03-30T08:15:49Z</time>
   </trkpt>
   <trkpt lat="46.854663848877" lon="12.7700452804565">
    <ele>1277.07507324219</ele>
    <time>2025-03-30T08:15:51Z</time>
   </trkpt>
   <trkpt lat="46.8546562194824" lon="12.7700700759888">
    <ele>1277.31005859375</ele>
    <time>2025-03-30T08:15:53Z</time>
   </trkpt>
   <trkpt lat="46.8546447753906" lon="12.7701148986816">
    <ele>1277.90844726562</ele>
    <time>2025-03-30T08:15:58Z</time>
   </trkpt>
   <trkpt lat="46.8546409606934" lon="12.7701282501221">
    <ele>1278.05444335938</ele>
    <time>2025-03-30T08:15:59Z</time>
   </trkpt>
   <trkpt lat="46.8546257019043" lon="12.7701854705811">
    <ele>1278.75756835938</ele>
    <time>2025-03-30T08:16:06Z</time>
   </trkpt>
   <trkpt lat="46.8545989990234" lon="12.7702398300171">
    <ele>1278.47644042969</ele>
    <time>2025-03-30T08:16:11Z</time>
   </trkpt>
   <trkpt lat="46.8545837402344" lon="12.7702751159668">
    <ele>1278.44519042969</ele>
    <time>2025-03-30T08:16:14Z</time>
   </trkpt>
   <trkpt lat="46.8545722961426" lon="12.7702960968018">
    <ele>1278.24035644531</ele>
    <time>2025-03-30T08:16:16Z</time>
   </trkpt>
   <trkpt lat="46.8545455932617" lon="12.7703456878662">
    <ele>1277.77197265625</ele>
    <time>2025-03-30T08:16:22Z</time>
   </trkpt>
   <trkpt lat="46.8545417785644" lon="12.7703523635864">
    <ele>1277.69067382812</ele>
    <time>2025-03-30T08:16:23Z</time>
   </trkpt>
   <trkpt lat="46.8545150756836" lon="12.7704057693481">
    <ele>1277.3271484375</ele>
    <time>2025-03-30T08:16:30Z</time>
   </trkpt>
   <trkpt lat="46.8544921875" lon="12.7704601287842">
    <ele>1277.27600097656</ele>
    <time>2025-03-30T08:16:36Z</time>
   </trkpt>
   <trkpt lat="46.8544883728027" lon="12.7704744338989">
    <ele>1277.43310546875</ele>
    <time>2025-03-30T08:16:37Z</time>
   </trkpt>
   <trkpt lat="46.8544845581055" lon="12.7705078125">
    <ele>1278.19677734375</ele>
    <time>2025-03-30T08:16:41Z</time>
   </trkpt>
   <trkpt lat="46.8544731140137" lon="12.7705421447754">
    <ele>1278.388671875</ele>
    <time>2025-03-30T08:16:45Z</time>
   </trkpt>
   <trkpt lat="46.8544654846191" lon="12.7705545425415">
    <ele>1278.18139648438</ele>
    <time>2025-03-30T08:16:47Z</time>
   </trkpt>
   <trkpt lat="46.8544464111328" lon="12.7706155776978">
    <ele>1278.60791015625</ele>
    <time>2025-03-30T08:16:53Z</time>
   </trkpt>
   <trkpt lat="46.8544425964356" lon="12.7706441879272">
    <ele>1279.20971679688</ele>
    <time>2025-03-30T08:16:55Z</time>
   </trkpt>
   <trkpt lat="46.8544311523438" lon="12.7706832885742">
    <ele>1279.53466796875</ele>
    <time>2025-03-30T08:17:00Z</time>
   </trkpt>
   <trkpt lat="46.8544235229492" lon="12.7707052230835">
    <ele>1279.61840820312</ele>
    <time>2025-03-30T08:17:03Z</time>
   </trkpt>
   <trkpt lat="46.8544082641602" lon="12.7707376480103">
    <ele>1279.42077636719</ele>
    <time>2025-03-30T08:17:07Z</time>
   </trkpt>
   <trkpt lat="46.8543968200684" lon="12.7707672119141">
    <ele>1279.43298339844</ele>
    <time>2025-03-30T08:17:11Z</time>
   </trkpt>
   <trkpt lat="46.8543930053711" lon="12.7707872390747">
    <ele>1279.75476074219</ele>
    <time>2025-03-30T08:17:14Z</time>
   </trkpt>
   <trkpt lat="46.8543853759766" lon="12.7708415985107">
    <ele>1280.82702636719</ele>
    <time>2025-03-30T08:17:21Z</time>
   </trkpt>
   <trkpt lat="46.8543739318848" lon="12.770884513855">
    <ele>1281.1689453125</ele>
    <time>2025-03-30T08:17:26Z</time>
   </trkpt>
   <trkpt lat="46.8543701171875" lon="12.7709054946899">
    <ele>1281.47998046875</ele>
    <time>2025-03-30T08:17:29Z</time>
   </trkpt>
   <trkpt lat="46.854362487793" lon="12.7709541320801">
    <ele>1282.2998046875</ele>
    <time>2025-03-30T08:17:34Z</time>
   </trkpt>
   <trkpt lat="46.8543434143066" lon="12.7710189819336">
    <ele>1282.68542480469</ele>
    <time>2025-03-30T08:17:40Z</time>
   </trkpt>
   <trkpt lat="46.8543281555176" lon="12.7710809707642">
    <ele>1283.29760742188</ele>
    <time>2025-03-30T08:17:48Z</time>
   </trkpt>
   <trkpt lat="46.8543243408203" lon="12.7710914611816">
    <ele>1283.30358886719</ele>
    <time>2025-03-30T08:17:49Z</time>
   </trkpt>
   <trkpt lat="46.854320526123" lon="12.7711277008057">
    <ele>1284.07092285156</ele>
    <time>2025-03-30T08:17:54Z</time>
   </trkpt>
   <trkpt lat="46.854320526123" lon="12.7711496353149">
    <ele>1284.71923828125</ele>
    <time>2025-03-30T08:17:57Z</time>
   </trkpt>
   <trkpt lat="46.8543167114258" lon="12.7711763381958">
    <ele>1285.20556640625</ele>
    <time>2025-03-30T08:18:00Z</time>
   </trkpt>
   <trkpt lat="46.854305267334" lon="12.7712259292603">
    <ele>1285.7646484375</ele>
    <time>2025-03-30T08:18:04Z</time>
   </trkpt>
   <trkpt lat="46.854305267334" lon="12.7712345123291">
    <ele>1286.01867675781</ele>
    <time>2025-03-30T08:18:05Z</time>
   </trkpt>
   <trkpt lat="46.8542861938477" lon="12.7712955474854">
    <ele>1286.31726074219</ele>
    <time>2025-03-30T08:18:12Z</time>
   </trkpt>
   <trkpt lat="46.8542861938477" lon="12.7713212966919">
    <ele>1287.08093261719</ele>
    <time>2025-03-30T08:18:15Z</time>
   </trkpt>
   <trkpt lat="46.8542861938477" lon="12.771388053894">
    <ele>1289.06066894531</ele>
    <time>2025-03-30T08:18:20Z</time>
   </trkpt>
   <trkpt lat="46.8542747497559" lon="12.7714395523071">
    <ele>1289.68774414062</ele>
    <time>2025-03-30T08:18:24Z</time>
   </trkpt>
   <trkpt lat="46.8542671203613" lon="12.7714519500732">
    <ele>1289.4560546875</ele>
    <time>2025-03-30T08:18:26Z</time>
   </trkpt>
   <trkpt lat="46.8542556762695" lon="12.7715091705322">
    <ele>1290.25817871094</ele>
    <time>2025-03-30T08:18:32Z</time>
   </trkpt>
   <trkpt lat="46.8542518615723" lon="12.7715177536011">
    <ele>1290.21435546875</ele>
    <time>2025-03-30T08:18:33Z</time>
   </trkpt>
   <trkpt lat="46.8542442321777" lon="12.771577835083">
    <ele>1291.40502929688</ele>
    <time>2025-03-30T08:18:38Z</time>
   </trkpt>
   <trkpt lat="46.8542366027832" lon="12.7716035842896">
    <ele>1291.5751953125</ele>
    <time>2025-03-30T08:18:41Z</time>
   </trkpt>
   <trkpt lat="46.8542251586914" lon="12.771632194519">
    <ele>1291.53405761719</ele>
    <time>2025-03-30T08:18:45Z</time>
   </trkpt>
   <trkpt lat="46.8542022705078" lon="12.7716722488403">
    <ele>1290.96875</ele>
    <time>2025-03-30T08:18:50Z</time>
   </trkpt>
   <trkpt lat="46.8541946411133" lon="12.7716817855835">
    <ele>1290.70263671875</ele>
    <time>2025-03-30T08:18:51Z</time>
   </trkpt>
   <trkpt lat="46.8541526794434" lon="12.7717523574829">
    <ele>1289.92236328125</ele>
    <time>2025-03-30T08:18:56Z</time>
   </trkpt>
   <trkpt lat="46.8541450500488" lon="12.7717685699463">
    <ele>1289.90307617188</ele>
    <time>2025-03-30T08:18:58Z</time>
   </trkpt>
   <trkpt lat="46.8541259765625" lon="12.7718152999878">
    <ele>1290.04931640625</ele>
    <time>2025-03-30T08:19:03Z</time>
   </trkpt>
   <trkpt lat="46.8541221618652" lon="12.7718572616577">
    <ele>1291.18713378906</ele>
    <time>2025-03-30T08:19:07Z</time>
   </trkpt>
   <trkpt lat="46.854118347168" lon="12.7718715667725">
    <ele>1291.37878417969</ele>
    <time>2025-03-30T08:19:08Z</time>
   </trkpt>
   <trkpt lat="46.8541069030762" lon="12.7719240188599">
    <ele>1292.26586914062</ele>
    <time>2025-03-30T08:19:14Z</time>
   </trkpt>
   <trkpt lat="46.8540992736816" lon="12.7719554901123">
    <ele>1292.72863769531</ele>
    <time>2025-03-30T08:19:17Z</time>
   </trkpt>
   <trkpt lat="46.8540840148926" lon="12.7720136642456">
    <ele>1293.47192382812</ele>
    <time>2025-03-30T08:19:23Z</time>
   </trkpt>
   <trkpt lat="46.8540802001953" lon="12.7720642089844">
    <ele>1294.85693359375</ele>
    <time>2025-03-30T08:19:29Z</time>
   </trkpt>
   <trkpt lat="46.8540840148926" lon="12.772087097168">
    <ele>1295.93127441406</ele>
    <time>2025-03-30T08:19:31Z</time>
   </trkpt>
   <trkpt lat="46.8540802001953" lon="12.7720899581909">
    <ele>1295.71765136719</ele>
    <time>2025-03-30T08:19:32Z</time>
   </trkpt>
   <trkpt lat="46.8540802001953" lon="12.7720975875854">
    <ele>1295.97277832031</ele>
    <time>2025-03-30T08:19:33Z</time>
   </trkpt>
   <trkpt lat="46.8540840148926" lon="12.77210521698">
    <ele>1296.5380859375</ele>
    <time>2025-03-30T08:19:34Z</time>
   </trkpt>
   <trkpt lat="46.8540878295898" lon="12.772159576416">
    <ele>1298.67224121094</ele>
    <time>2025-03-30T08:19:40Z</time>
   </trkpt>
   <trkpt lat="46.8540878295898" lon="12.7721757888794">
    <ele>1299.21618652344</ele>
    <time>2025-03-30T08:19:41Z</time>
   </trkpt>
   <trkpt lat="46.8540878295898" lon="12.7722177505493">
    <ele>1300.6240234375</ele>
    <time>2025-03-30T08:19:46Z</time>
   </trkpt>
   <trkpt lat="46.8540878295898" lon="12.7722272872925">
    <ele>1300.94396972656</ele>
    <time>2025-03-30T08:19:48Z</time>
   </trkpt>
   <trkpt lat="46.8540878295898" lon="12.7722501754761">
    <ele>1301.7119140625</ele>
    <time>2025-03-30T08:19:53Z</time>
   </trkpt>
   <trkpt lat="46.8540878295898" lon="12.772255897522">
    <ele>1301.90393066406</ele>
    <time>2025-03-30T08:19:54Z</time>
   </trkpt>
   <trkpt lat="46.8540802001953" lon="12.7723016738892">
    <ele>1302.79541015625</ele>
    <time>2025-03-30T08:20:00Z</time>
   </trkpt>
   <trkpt lat="46.8540687561035" lon="12.7723255157471">
    <ele>1302.62158203125</ele>
    <time>2025-03-30T08:20:03Z</time>
   </trkpt>
   <trkpt lat="46.8540649414062" lon="12.7723331451416">
    <ele>1302.55114746094</ele>
    <time>2025-03-30T08:20:06Z</time>
   </trkpt>
   <trkpt lat="46.854061126709" lon="12.7723627090454">
    <ele>1303.20654296875</ele>
    <time>2025-03-30T08:20:10Z</time>
   </trkpt>
   <trkpt lat="46.8540496826172" lon="12.7723894119263">
    <ele>1303.10864257812</ele>
    <time>2025-03-30T08:20:14Z</time>
   </trkpt>
   <trkpt lat="46.8540458679199" lon="12.7724189758301">
    <ele>1303.75341796875</ele>
    <time>2025-03-30T08:20:18Z</time>
   </trkpt>
   <trkpt lat="46.8540382385254" lon="12.7724361419678">
    <ele>1303.65734863281</ele>
    <time>2025-03-30T08:20:22Z</time>
   </trkpt>
   <trkpt lat="46.8540382385254" lon="12.7724447250366">
    <ele>1303.93859863281</ele>
    <time>2025-03-30T08:20:23Z</time>
   </trkpt>
   <trkpt lat="46.8540306091309" lon="12.7724876403809">
    <ele>1304.67785644531</ele>
    <time>2025-03-30T08:20:31Z</time>
   </trkpt>
   <trkpt lat="46.8540306091309" lon="12.7725210189819">
    <ele>1305.52307128906</ele>
    <time>2025-03-30T08:20:39Z</time>
   </trkpt>
   <trkpt lat="46.8540267944336" lon="12.7725658416748">
    <ele>1306.12963867188</ele>
    <time>2025-03-30T08:20:46Z</time>
   </trkpt>
   <trkpt lat="46.8540229797363" lon="12.7725706100464">
    <ele>1305.89440917969</ele>
    <time>2025-03-30T08:20:47Z</time>
   </trkpt>
   <trkpt lat="46.8540229797363" lon="12.7726030349731">
    <ele>1306.57458496094</ele>
    <time>2025-03-30T08:20:53Z</time>
   </trkpt>
   <trkpt lat="46.8540229797363" lon="12.7726163864136">
    <ele>1306.85473632812</ele>
    <time>2025-03-30T08:20:55Z</time>
   </trkpt>
   <trkpt lat="46.8540267944336" lon="12.7726402282715">
    <ele>1307.69140625</ele>
    <time>2025-03-30T08:20:58Z</time>
   </trkpt>
   <trkpt lat="46.8540267944336" lon="12.7726802825928">
    <ele>1308.53234863281</ele>
    <time>2025-03-30T08:21:02Z</time>
   </trkpt>
   <trkpt lat="46.8540191650391" lon="12.7727365493774">
    <ele>1309.03759765625</ele>
    <time>2025-03-30T08:21:07Z</time>
   </trkpt>
   <trkpt lat="46.8540191650391" lon="12.7727422714233">
    <ele>1309.15759277344</ele>
    <time>2025-03-30T08:21:08Z</time>
   </trkpt>
   <trkpt lat="46.8540115356445" lon="12.7727832794189">
    <ele>1309.33947753906</ele>
    <time>2025-03-30T08:21:13Z</time>
   </trkpt>
   <trkpt lat="46.85400390625" lon="12.7728242874146">
    <ele>1309.51879882812</ele>
    <time>2025-03-30T08:21:19Z</time>
   </trkpt>
   <trkpt lat="46.85400390625" lon="12.7728567123413">
    <ele>1310.19641113281</ele>
    <time>2025-03-30T08:21:22Z</time>
   </trkpt>
   <trkpt lat="46.85400390625" lon="12.7728853225708">
    <ele>1310.79418945312</ele>
    <time>2025-03-30T08:21:26Z</time>
   </trkpt>
   <trkpt lat="46.8540077209473" lon="12.772912979126">
    <ele>1311.71313476562</ele>
    <time>2025-03-30T08:21:30Z</time>
   </trkpt>
   <trkpt lat="46.85400390625" lon="12.7729234695435">
    <ele>1311.59143066406</ele>
    <time>2025-03-30T08:21:32Z</time>
   </trkpt>
   <trkpt lat="46.8539962768555" lon="12.7729558944702">
    <ele>1311.58557128906</ele>
    <time>2025-03-30T08:21:39Z</time>
   </trkpt>
   <trkpt lat="46.8540077209473" lon="12.772988319397">
    <ele>1313.28869628906</ele>
    <time>2025-03-30T08:21:46Z</time>
   </trkpt>
   <trkpt lat="46.8540077209473" lon="12.7730026245117">
    <ele>1313.587890625</ele>
    <time>2025-03-30T08:21:47Z</time>
   </trkpt>
   <trkpt lat="46.8540115356445" lon="12.7730398178101">
    <ele>1314.70886230469</ele>
    <time>2025-03-30T08:21:54Z</time>
   </trkpt>
   <trkpt lat="46.8540153503418" lon="12.773063659668">
    <ele>1315.55126953125</ele>
    <time>2025-03-30T08:21:56Z</time>
   </trkpt>
   <trkpt lat="46.8540191650391" lon="12.7731046676636">
    <ele>1316.75439453125</ele>
    <time>2025-03-30T08:22:02Z</time>
   </trkpt>
   <trkpt lat="46.8540229797363" lon="12.7731304168701">
    <ele>1317.638671875</ele>
    <time>2025-03-30T08:22:06Z</time>
   </trkpt>
   <trkpt lat="46.8540267944336" lon="12.7731304168701">
    <ele>1317.98327636719</ele>
    <time>2025-03-30T08:22:09Z</time>
   </trkpt>
   <trkpt lat="46.8540267944336" lon="12.773154258728">
    <ele>1318.48388671875</ele>
    <time>2025-03-30T08:22:13Z</time>
   </trkpt>
   <trkpt lat="46.8540267944336" lon="12.7731647491455">
    <ele>1318.7041015625</ele>
    <time>2025-03-30T08:22:14Z</time>
   </trkpt>
   <trkpt lat="46.8540306091309" lon="12.7732000350952">
    <ele>1319.79064941406</ele>
    <time>2025-03-30T08:22:21Z</time>
   </trkpt>
   <trkpt lat="46.8540306091309" lon="12.7732009887695">
    <ele>1319.81066894531</ele>
    <time>2025-03-30T08:22:22Z</time>
   </trkpt>
   <trkpt lat="46.8540306091309" lon="12.7732496261597">
    <ele>1320.83264160156</ele>
    <time>2025-03-30T08:22:26Z</time>
   </trkpt>
   <trkpt lat="46.8540306091309" lon="12.773265838623">
    <ele>1321.17333984375</ele>
    <time>2025-03-30T08:22:29Z</time>
   </trkpt>
   <trkpt lat="46.8540267944336" lon="12.7732696533203">
    <ele>1320.90661621094</ele>
    <time>2025-03-30T08:22:30Z</time>
   </trkpt>
   <trkpt lat="46.8540267944336" lon="12.7732763290405">
    <ele>1321.04675292969</ele>
    <time>2025-03-30T08:22:32Z</time>
   </trkpt>
   <trkpt lat="46.8540382385254" lon="12.7733135223389">
    <ele>1322.87048339844</ele>
    <time>2025-03-30T08:22:39Z</time>
   </trkpt>
   <trkpt lat="46.8540382385254" lon="12.7733373641968">
    <ele>1323.33386230469</ele>
    <time>2025-03-30T08:22:44Z</time>
   </trkpt>
   <trkpt lat="46.8540382385254" lon="12.7733554840088">
    <ele>1323.54296875</ele>
    <time>2025-03-30T08:22:48Z</time>
   </trkpt>
   <trkpt lat="46.8540382385254" lon="12.7733602523804">
    <ele>1323.59802246094</ele>
    <time>2025-03-30T08:22:50Z</time>
   </trkpt>
   <trkpt lat="46.8540458679199" lon="12.7734117507935">
    <ele>1324.88464355469</ele>
    <time>2025-03-30T08:22:56Z</time>
   </trkpt>
   <trkpt lat="46.8540458679199" lon="12.7734212875366">
    <ele>1324.99426269531</ele>
    <time>2025-03-30T08:22:57Z</time>
   </trkpt>
   <trkpt lat="46.8540458679199" lon="12.7734661102295">
    <ele>1325.50952148438</ele>
    <time>2025-03-30T08:23:03Z</time>
   </trkpt>
   <trkpt lat="46.8540458679199" lon="12.7734994888306">
    <ele>1325.89318847656</ele>
    <time>2025-03-30T08:23:08Z</time>
   </trkpt>
   <trkpt lat="46.8540496826172" lon="12.773512840271">
    <ele>1326.39074707031</ele>
    <time>2025-03-30T08:23:11Z</time>
   </trkpt>
   <trkpt lat="46.8540534973144" lon="12.7735261917114">
    <ele>1326.88757324219</ele>
    <time>2025-03-30T08:23:16Z</time>
   </trkpt>
   <trkpt lat="46.8540496826172" lon="12.7735290527344">
    <ele>1326.57666015625</ele>
    <time>2025-03-30T08:23:17Z</time>
   </trkpt>
   <trkpt lat="46.8540496826172" lon="12.7735357284546">
    <ele>1326.6533203125</ele>
    <time>2025-03-30T08:23:18Z</time>
   </trkpt>
   <trkpt lat="46.854061126709" lon="12.7735900878906">
    <ele>1328.30383300781</ele>
    <time>2025-03-30T08:23:26Z</time>
   </trkpt>
   <trkpt lat="46.854061126709" lon="12.7736339569092">
    <ele>1328.80419921875</ele>
    <time>2025-03-30T08:23:31Z</time>
   </trkpt>
   <trkpt lat="46.8540573120117" lon="12.7736530303955">
    <ele>1328.68090820312</ele>
    <time>2025-03-30T08:23:35Z</time>
   </trkpt>
   <trkpt lat="46.854061126709" lon="12.7736654281616">
    <ele>1329.16320800781</ele>
    <time>2025-03-30T08:23:38Z</time>
   </trkpt>
   <trkpt lat="46.8540649414062" lon="12.7737131118774">
    <ele>1330.04675292969</ele>
    <time>2025-03-30T08:23:43Z</time>
   </trkpt>
   <trkpt lat="46.854061126709" lon="12.7737665176392">
    <ele>1330.31652832031</ele>
    <time>2025-03-30T08:23:49Z</time>
   </trkpt>
   <trkpt lat="46.8540573120117" lon="12.773811340332">
    <ele>1330.49047851562</ele>
    <time>2025-03-30T08:23:53Z</time>
   </trkpt>
   <trkpt lat="46.8540496826172" lon="12.7738475799561">
    <ele>1330.2314453125</ele>
    <time>2025-03-30T08:23:57Z</time>
   </trkpt>
   <trkpt lat="46.8540573120117" lon="12.7738647460938">
    <ele>1331.10083007812</ele>
    <time>2025-03-30T08:24:03Z</time>
   </trkpt>
   <trkpt lat="46.8540649414062" lon="12.7738733291626">
    <ele>1331.87097167969</ele>
    <time>2025-03-30T08:24:06Z</time>
   </trkpt>
   <trkpt lat="46.8540687561035" lon="12.7738809585571">
    <ele>1332.29370117188</ele>
    <time>2025-03-30T08:24:09Z</time>
   </trkpt>
   <trkpt lat="46.8540802001953" lon="12.7739038467407">
    <ele>1333.55993652344</ele>
    <time>2025-03-30T08:24:14Z</time>
   </trkpt>
   <trkpt lat="46.8540878295898" lon="12.773907661438">
    <ele>1334.27355957031</ele>
    <time>2025-03-30T08:24:16Z</time>
   </trkpt>
   <trkpt lat="46.8540916442871" lon="12.77392578125">
    <ele>1334.81237792969</ele>
    <time>2025-03-30T08:24:19Z</time>
   </trkpt>
   <trkpt lat="46.8541030883789" lon="12.7739572525024">
    <ele>1336.16845703125</ele>
    <time>2025-03-30T08:24:23Z</time>
   </trkpt>
   <trkpt lat="46.8540992736816" lon="12.7740030288696">
    <ele>1336.34643554688</ele>
    <time>2025-03-30T08:24:28Z</time>
   </trkpt>
   <trkpt lat="46.8540992736816" lon="12.7740068435669">
    <ele>1336.38916015625</ele>
    <time>2025-03-30T08:24:29Z</time>
   </trkpt>
   <trkpt lat="46.8541069030762" lon="12.7740268707275">
    <ele>1337.27856445312</ele>
    <time>2025-03-30T08:24:34Z</time>
   </trkpt>
   <trkpt lat="46.8541069030762" lon="12.7740268707275">
    <ele>1337.27856445312</ele>
    <time>2025-03-30T08:24:38Z</time>
   </trkpt>
   <trkpt lat="46.854118347168" lon="12.7740488052368">
    <ele>1338.51953125</ele>
    <time>2025-03-30T08:24:40Z</time>
   </trkpt>
   <trkpt lat="46.8541412353516" lon="12.7740755081177">
    <ele>1340.80480957031</ele>
    <time>2025-03-30T08:24:44Z</time>
   </trkpt>
   <trkpt lat="46.8541488647461" lon="12.7740850448608">
    <ele>1341.57202148438</ele>
    <time>2025-03-30T08:24:45Z</time>
   </trkpt>
   <trkpt lat="46.8541603088379" lon="12.7741212844849">
    <ele>1342.95886230469</ele>
    <time>2025-03-30T08:24:50Z</time>
   </trkpt>
   <trkpt lat="46.8541603088379" lon="12.7741212844849">
    <ele>1342.95886230469</ele>
    <time>2025-03-30T08:24:52Z</time>
   </trkpt>
   <trkpt lat="46.8541717529297" lon="12.7741317749023">
    <ele>1343.85693359375</ele>
    <time>2025-03-30T08:24:57Z</time>
   </trkpt>
   <trkpt lat="46.854175567627" lon="12.7741498947144">
    <ele>1344.22619628906</ele>
    <time>2025-03-30T08:25:02Z</time>
   </trkpt>
   <trkpt lat="46.854175567627" lon="12.7741498947144">
    <ele>1344.22619628906</ele>
    <time>2025-03-30T08:25:03Z</time>
   </trkpt>
   <trkpt lat="46.854190826416" lon="12.7741918563843">
    <ele>1345.20336914062</ele>
    <time>2025-03-30T08:25:09Z</time>
   </trkpt>
   <trkpt lat="46.8542022705078" lon="12.7742042541504">
    <ele>1345.76159667969</ele>
    <time>2025-03-30T08:25:11Z</time>
   </trkpt>
   <trkpt lat="46.8542022705078" lon="12.7742300033569">
    <ele>1345.85607910156</ele>
    <time>2025-03-30T08:25:15Z</time>
   </trkpt>
   <trkpt lat="46.8542060852051" lon="12.7742528915405">
    <ele>1346.10363769531</ele>
    <time>2025-03-30T08:25:20Z</time>
   </trkpt>
   <trkpt lat="46.8542060852051" lon="12.7742547988892">
    <ele>1346.11047363281</ele>
    <time>2025-03-30T08:25:22Z</time>
   </trkpt>
   <trkpt lat="46.8542175292969" lon="12.7742729187012">
    <ele>1346.65808105469</ele>
    <time>2025-03-30T08:25:28Z</time>
   </trkpt>
   <trkpt lat="46.8542175292969" lon="12.7742738723755">
    <ele>1346.6611328125</ele>
    <time>2025-03-30T08:25:29Z</time>
   </trkpt>
   <trkpt lat="46.8542327880859" lon="12.7742986679077">
    <ele>1347.37219238281</ele>
    <time>2025-03-30T08:25:34Z</time>
   </trkpt>
   <trkpt lat="46.8542327880859" lon="12.7742986679077">
    <ele>1347.37219238281</ele>
    <time>2025-03-30T08:25:39Z</time>
   </trkpt>
   <trkpt lat="46.8542404174805" lon="12.7743282318115">
    <ele>1347.76110839844</ele>
    <time>2025-03-30T08:25:41Z</time>
   </trkpt>
   <trkpt lat="46.8542518615723" lon="12.7743606567383">
    <ele>1348.29248046875</ele>
    <time>2025-03-30T08:25:46Z</time>
   </trkpt>
   <trkpt lat="46.8542556762695" lon="12.7743673324585">
    <ele>1348.45617675781</ele>
    <time>2025-03-30T08:25:48Z</time>
   </trkpt>
   <trkpt lat="46.8542556762695" lon="12.7743682861328">
    <ele>1348.45812988281</ele>
    <time>2025-03-30T08:25:50Z</time>
   </trkpt>
   <trkpt lat="46.8542709350586" lon="12.7743978500366">
    <ele>1349.10070800781</ele>
    <time>2025-03-30T08:25:54Z</time>
   </trkpt>
   <trkpt lat="46.8542861938477" lon="12.774435043335">
    <ele>1349.72241210938</ele>
    <time>2025-03-30T08:26:02Z</time>
   </trkpt>
   <trkpt lat="46.8542900085449" lon="12.7744379043579">
    <ele>1349.86645507812</ele>
    <time>2025-03-30T08:26:04Z</time>
   </trkpt>
   <trkpt lat="46.854305267334" lon="12.7744646072388">
    <ele>1350.44213867188</ele>
    <time>2025-03-30T08:26:08Z</time>
   </trkpt>
   <trkpt lat="46.8543090820312" lon="12.7744770050049">
    <ele>1350.58361816406</ele>
    <time>2025-03-30T08:26:10Z</time>
   </trkpt>
   <trkpt lat="46.8543128967285" lon="12.774489402771">
    <ele>1350.72216796875</ele>
    <time>2025-03-30T08:26:13Z</time>
   </trkpt>
   <trkpt lat="46.8543128967285" lon="12.7744941711426">
    <ele>1350.72290039062</ele>
    <time>2025-03-30T08:26:14Z</time>
   </trkpt>
   <trkpt lat="46.854320526123" lon="12.774510383606">
    <ele>1350.99047851562</ele>
    <time>2025-03-30T08:26:18Z</time>
   </trkpt>
   <trkpt lat="46.8543281555176" lon="12.7745323181152">
    <ele>1351.24841308594</ele>
    <time>2025-03-30T08:26:21Z</time>
   </trkpt>
   <trkpt lat="46.8543434143066" lon="12.7745590209961">
    <ele>1351.74609375</ele>
    <time>2025-03-30T08:26:26Z</time>
   </trkpt>
   <trkpt lat="46.8543434143066" lon="12.7745637893677">
    <ele>1351.7421875</ele>
    <time>2025-03-30T08:26:29Z</time>
   </trkpt>
   <trkpt lat="46.8543510437012" lon="12.7745809555054">
    <ele>1351.97631835938</ele>
    <time>2025-03-30T08:26:34Z</time>
   </trkpt>
   <trkpt lat="46.8543548583984" lon="12.7745866775513">
    <ele>1352.09350585938</ele>
    <time>2025-03-30T08:26:35Z</time>
   </trkpt>
   <trkpt lat="46.8543891906738" lon="12.7746095657349">
    <ele>1353.15075683594</ele>
    <time>2025-03-30T08:26:42Z</time>
   </trkpt>
   <trkpt lat="46.8543930053711" lon="12.7746143341064">
    <ele>1353.25988769531</ele>
    <time>2025-03-30T08:26:44Z</time>
   </trkpt>
   <trkpt lat="46.854419708252" lon="12.7746353149414">
    <ele>1354.03137207031</ele>
    <time>2025-03-30T08:26:49Z</time>
   </trkpt>
   <trkpt lat="46.8544387817383" lon="12.7746543884277">
    <ele>1354.54504394531</ele>
    <time>2025-03-30T08:26:53Z</time>
   </trkpt>
   <trkpt lat="46.8544464111328" lon="12.7746648788452">
    <ele>1354.732421875</ele>
    <time>2025-03-30T08:26:55Z</time>
   </trkpt>
   <trkpt lat="46.8544692993164" lon="12.7746782302856">
    <ele>1355.35095214844</ele>
    <time>2025-03-30T08:27:02Z</time>
   </trkpt>
   <trkpt lat="46.8544769287109" lon="12.7746849060059">
    <ele>1355.54162597656</ele>
    <time>2025-03-30T08:27:04Z</time>
   </trkpt>
   <trkpt lat="46.8545036315918" lon="12.7747030258179">
    <ele>1356.21447753906</ele>
    <time>2025-03-30T08:27:09Z</time>
   </trkpt>
   <trkpt lat="46.8545379638672" lon="12.7747097015381">
    <ele>1357.15014648438</ele>
    <time>2025-03-30T08:27:16Z</time>
   </trkpt>
   <trkpt lat="46.8545570373535" lon="12.7747144699097">
    <ele>1357.65576171875</ele>
    <time>2025-03-30T08:27:18Z</time>
   </trkpt>
   <trkpt lat="46.854564666748" lon="12.7747201919556">
    <ele>1357.82653808594</ele>
    <time>2025-03-30T08:27:22Z</time>
   </trkpt>
   <trkpt lat="46.854606628418" lon="12.774733543396">
    <ele>1358.88220214844</ele>
    <time>2025-03-30T08:27:27Z</time>
   </trkpt>
   <trkpt lat="46.8546104431152" lon="12.7747373580933">
    <ele>1358.95227050781</ele>
    <time>2025-03-30T08:27:29Z</time>
   </trkpt>
   <trkpt lat="46.8546180725098" lon="12.7747316360474">
    <ele>1359.21655273438</ele>
    <time>2025-03-30T08:27:34Z</time>
   </trkpt>
   <trkpt lat="46.8546371459961" lon="12.7747344970703">
    <ele>1359.71606445312</ele>
    <time>2025-03-30T08:27:40Z</time>
   </trkpt>
   <trkpt lat="46.8546409606934" lon="12.7747364044189">
    <ele>1359.80187988281</ele>
    <time>2025-03-30T08:27:41Z</time>
   </trkpt>
   <trkpt lat="46.8546676635742" lon="12.7747554779053">
    <ele>1360.32641601562</ele>
    <time>2025-03-30T08:27:46Z</time>
   </trkpt>
   <trkpt lat="46.8546829223633" lon="12.7747659683228">
    <ele>1360.61633300781</ele>
    <time>2025-03-30T08:27:48Z</time>
   </trkpt>
   <trkpt lat="46.8547019958496" lon="12.7747831344604">
    <ele>1360.91528320312</ele>
    <time>2025-03-30T08:27:53Z</time>
   </trkpt>
   <trkpt lat="46.8547248840332" lon="12.7748041152954">
    <ele>1361.24157714844</ele>
    <time>2025-03-30T08:27:57Z</time>
   </trkpt>
   <trkpt lat="46.854736328125" lon="12.7748136520386">
    <ele>1361.40600585938</ele>
    <time>2025-03-30T08:27:59Z</time>
   </trkpt>
   <trkpt lat="46.8547554016113" lon="12.7748222351074">
    <ele>1361.76599121094</ele>
    <time>2025-03-30T08:28:06Z</time>
   </trkpt>
   <trkpt lat="46.8547630310059" lon="12.7748231887817">
    <ele>1361.94201660156</ele>
    <time>2025-03-30T08:28:07Z</time>
   </trkpt>
   <trkpt lat="46.854793548584" lon="12.7748136520386">
    <ele>1362.84240722656</ele>
    <time>2025-03-30T08:28:12Z</time>
   </trkpt>
   <trkpt lat="46.8548278808594" lon="12.7747955322266">
    <ele>1363.99694824219</ele>
    <time>2025-03-30T08:28:19Z</time>
   </trkpt>
   <trkpt lat="46.8548622131348" lon="12.7747812271118">
    <ele>1365.125</ele>
    <time>2025-03-30T08:28:27Z</time>
   </trkpt>
   <trkpt lat="46.8548774719238" lon="12.7747678756714">
    <ele>1365.76025390625</ele>
    <time>2025-03-30T08:28:31Z</time>
   </trkpt>
   <trkpt lat="46.8548927307129" lon="12.7747564315796">
    <ele>1366.37377929688</ele>
    <time>2025-03-30T08:28:33Z</time>
   </trkpt>
   <trkpt lat="46.8549194335938" lon="12.7747173309326">
    <ele>1367.83728027344</ele>
    <time>2025-03-30T08:28:40Z</time>
   </trkpt>
   <trkpt lat="46.8549423217773" lon="12.7746877670288">
    <ele>1369.06628417969</ele>
    <time>2025-03-30T08:28:47Z</time>
   </trkpt>
   <trkpt lat="46.85498046875" lon="12.7746486663818">
    <ele>1370.99645996094</ele>
    <time>2025-03-30T08:28:53Z</time>
   </trkpt>
   <trkpt lat="46.85498046875" lon="12.7746391296387">
    <ele>1371.19653320312</ele>
    <time>2025-03-30T08:28:54Z</time>
   </trkpt>
   <trkpt lat="46.8549919128418" lon="12.7746124267578">
    <ele>1372.11706542969</ele>
    <time>2025-03-30T08:28:59Z</time>
   </trkpt>
   <trkpt lat="46.8549919128418" lon="12.7746124267578">
    <ele>1372.11706542969</ele>
    <time>2025-03-30T08:29:04Z</time>
   </trkpt>
   <trkpt lat="46.8550071716309" lon="12.7745685577393">
    <ele>1373.43676757812</ele>
    <time>2025-03-30T08:29:10Z</time>
   </trkpt>
   <trkpt lat="46.8550605773926" lon="12.7745027542114">
    <ele>1375.78515625</ele>
    <time>2025-03-30T08:29:17Z</time>
   </trkpt>
   <trkpt lat="46.8550720214844" lon="12.7744884490967">
    <ele>1376.30480957031</ele>
    <time>2025-03-30T08:29:22Z</time>
   </trkpt>
   <trkpt lat="46.8550720214844" lon="12.7744855880737">
    <ele>1376.36926269531</ele>
    <time>2025-03-30T08:29:24Z</time>
   </trkpt>
   <trkpt lat="46.8550758361816" lon="12.7744770050049">
    <ele>1376.62976074219</ele>
    <time>2025-03-30T08:29:26Z</time>
   </trkpt>
   <trkpt lat="46.8550834655762" lon="12.7744493484497">
    <ele>1377.39111328125</ele>
    <time>2025-03-30T08:29:30Z</time>
   </trkpt>
   <trkpt lat="46.8551025390625" lon="12.7744054794312">
    <ele>1378.73913574219</ele>
    <time>2025-03-30T08:29:36Z</time>
   </trkpt>
   <trkpt lat="46.8551216125488" lon="12.7743701934814">
    <ele>1379.90991210938</ele>
    <time>2025-03-30T08:29:41Z</time>
   </trkpt>
   <trkpt lat="46.8551254272461" lon="12.7743644714355">
    <ele>1380.11511230469</ele>
    <time>2025-03-30T08:29:42Z</time>
   </trkpt>
   <trkpt lat="46.8551330566406" lon="12.7743511199951">
    <ele>1380.57177734375</ele>
    <time>2025-03-30T08:29:44Z</time>
   </trkpt>
   <trkpt lat="46.8551368713379" lon="12.7743339538574">
    <ele>1381.04626464844</ele>
    <time>2025-03-30T08:29:47Z</time>
   </trkpt>
   <trkpt lat="46.8551406860352" lon="12.7743310928345">
    <ele>1381.18737792969</ele>
    <time>2025-03-30T08:29:49Z</time>
   </trkpt>
   <trkpt lat="46.8551635742188" lon="12.7742986679077">
    <ele>1382.40209960938</ele>
    <time>2025-03-30T08:29:55Z</time>
   </trkpt>
   <trkpt lat="46.855167388916" lon="12.7742910385132">
    <ele>1382.65930175781</ele>
    <time>2025-03-30T08:29:56Z</time>
   </trkpt>
   <trkpt lat="46.8551750183106" lon="12.7742605209351">
    <ele>1383.54028320312</ele>
    <time>2025-03-30T08:30:01Z</time>
   </trkpt>
   <trkpt lat="46.8551750183106" lon="12.7742595672607">
    <ele>1383.56298828125</ele>
    <time>2025-03-30T08:30:03Z</time>
   </trkpt>
   <trkpt lat="46.8551750183106" lon="12.7742433547974">
    <ele>1383.94995117188</ele>
    <time>2025-03-30T08:30:08Z</time>
   </trkpt>
   <trkpt lat="46.8551750183106" lon="12.7742433547974">
    <ele>1383.94995117188</ele>
    <time>2025-03-30T08:30:09Z</time>
   </trkpt>
   <trkpt lat="46.8551864624023" lon="12.7742042541504">
    <ele>1385.12487792969</ele>
    <time>2025-03-30T08:30:14Z</time>
   </trkpt>
   <trkpt lat="46.8551864624023" lon="12.7741937637329">
    <ele>1385.37683105469</ele>
    <time>2025-03-30T08:30:17Z</time>
   </trkpt>
   <trkpt lat="46.8551864624023" lon="12.7741794586182">
    <ele>1385.72033691406</ele>
    <time>2025-03-30T08:30:20Z</time>
   </trkpt>
   <trkpt lat="46.8552055358887" lon="12.7741422653198">
    <ele>1386.48217773438</ele>
    <time>2025-03-30T08:30:25Z</time>
   </trkpt>
   <trkpt lat="46.8552093505859" lon="12.774133682251">
    <ele>1386.58203125</ele>
    <time>2025-03-30T08:30:27Z</time>
   </trkpt>
   <trkpt lat="46.8552284240723" lon="12.7741003036499">
    <ele>1387.08032226562</ele>
    <time>2025-03-30T08:30:32Z</time>
   </trkpt>
   <trkpt lat="46.8552322387695" lon="12.7740840911865">
    <ele>1387.20483398438</ele>
    <time>2025-03-30T08:30:36Z</time>
   </trkpt>
   <trkpt lat="46.8552398681641" lon="12.7740716934204">
    <ele>1387.41247558594</ele>
    <time>2025-03-30T08:30:39Z</time>
   </trkpt>
   <trkpt lat="46.8552551269531" lon="12.7740535736084">
    <ele>1387.82104492188</ele>
    <time>2025-03-30T08:30:41Z</time>
   </trkpt>
   <trkpt lat="46.8552742004394" lon="12.774040222168">
    <ele>1388.31823730469</ele>
    <time>2025-03-30T08:30:44Z</time>
   </trkpt>
   <trkpt lat="46.8552780151367" lon="12.7740364074707">
    <ele>1388.42260742188</ele>
    <time>2025-03-30T08:30:45Z</time>
   </trkpt>
   <trkpt lat="46.8552856445312" lon="12.7740297317505">
    <ele>1388.6298828125</ele>
    <time>2025-03-30T08:30:47Z</time>
   </trkpt>
   <trkpt lat="46.8553085327148" lon="12.7739820480347">
    <ele>1389.36950683594</ele>
    <time>2025-03-30T08:30:52Z</time>
   </trkpt>
   <trkpt lat="46.8553199768066" lon="12.7739744186401">
    <ele>1389.69018554688</ele>
    <time>2025-03-30T08:30:54Z</time>
   </trkpt>
   <trkpt lat="46.8553237915039" lon="12.7739658355713">
    <ele>1389.82287597656</ele>
    <time>2025-03-30T08:30:59Z</time>
   </trkpt>
   <trkpt lat="46.8553466796875" lon="12.7739362716675">
    <ele>1390.54553222656</ele>
    <time>2025-03-30T08:31:02Z</time>
   </trkpt>
   <trkpt lat="46.8553581237793" lon="12.7739219665527">
    <ele>1390.91491699219</ele>
    <time>2025-03-30T08:31:07Z</time>
   </trkpt>
   <trkpt lat="46.8553848266602" lon="12.7738828659058">
    <ele>1391.83288574219</ele>
    <time>2025-03-30T08:31:13Z</time>
   </trkpt>
   <trkpt lat="46.8553886413574" lon="12.7738771438599">
    <ele>1391.96826171875</ele>
    <time>2025-03-30T08:31:14Z</time>
   </trkpt>
   <trkpt lat="46.8554267883301" lon="12.7738647460938">
    <ele>1393.091796875</ele>
    <time>2025-03-30T08:31:19Z</time>
   </trkpt>
   <trkpt lat="46.8554344177246" lon="12.7738618850708">
    <ele>1393.32116699219</ele>
    <time>2025-03-30T08:31:20Z</time>
   </trkpt>
   <trkpt lat="46.8554496765137" lon="12.7738590240479">
    <ele>1393.76354980469</ele>
    <time>2025-03-30T08:31:22Z</time>
   </trkpt>
   <trkpt lat="46.8554725646973" lon="12.7738637924194">
    <ele>1394.36596679688</ele>
    <time>2025-03-30T08:31:27Z</time>
   </trkpt>
   <trkpt lat="46.8554878234863" lon="12.7738647460938">
    <ele>1394.78161621094</ele>
    <time>2025-03-30T08:31:30Z</time>
   </trkpt>
   <trkpt lat="46.8554992675781" lon="12.7738618850708">
    <ele>1395.12036132812</ele>
    <time>2025-03-30T08:31:33Z</time>
   </trkpt>
   <trkpt lat="46.8554992675781" lon="12.7738561630249">
    <ele>1395.16430664062</ele>
    <time>2025-03-30T08:31:34Z</time>
   </trkpt>
   <trkpt lat="46.8555030822754" lon="12.7738456726074">
    <ele>1395.35180664062</ele>
    <time>2025-03-30T08:31:36Z</time>
   </trkpt>
   <trkpt lat="46.8555068969727" lon="12.7738332748413">
    <ele>1395.55578613281</ele>
    <time>2025-03-30T08:31:38Z</time>
   </trkpt>
   <trkpt lat="46.8555221557617" lon="12.7738246917725">
    <ele>1396.0576171875</ele>
    <time>2025-03-30T08:31:41Z</time>
   </trkpt>
   <trkpt lat="46.8555488586426" lon="12.7738027572632">
    <ele>1397.00866699219</ele>
    <time>2025-03-30T08:31:46Z</time>
   </trkpt>
   <trkpt lat="46.8555526733398" lon="12.7737998962402">
    <ele>1397.14404296875</ele>
    <time>2025-03-30T08:31:47Z</time>
   </trkpt>
   <trkpt lat="46.8555755615234" lon="12.7737731933594">
    <ele>1398.05334472656</ele>
    <time>2025-03-30T08:31:53Z</time>
   </trkpt>
   <trkpt lat="46.855583190918" lon="12.7737703323364">
    <ele>1398.30541992188</ele>
    <time>2025-03-30T08:31:54Z</time>
   </trkpt>
   <trkpt lat="46.855598449707" lon="12.773754119873">
    <ele>1398.91369628906</ele>
    <time>2025-03-30T08:31:59Z</time>
   </trkpt>
   <trkpt lat="46.8556060791016" lon="12.7737512588501">
    <ele>1399.17004394531</ele>
    <time>2025-03-30T08:32:01Z</time>
   </trkpt>
   <trkpt lat="46.8556289672852" lon="12.7737321853638">
    <ele>1400.05212402344</ele>
    <time>2025-03-30T08:32:04Z</time>
   </trkpt>
   <trkpt lat="46.8556327819824" lon="12.7737312316895">
    <ele>1400.17785644531</ele>
    <time>2025-03-30T08:32:06Z</time>
   </trkpt>
   <trkpt lat="46.8556518554688" lon="12.7737340927124">
    <ele>1400.7265625</ele>
    <time>2025-03-30T08:32:10Z</time>
   </trkpt>
   <trkpt lat="46.855655670166" lon="12.7737340927124">
    <ele>1400.84216308594</ele>
    <time>2025-03-30T08:32:11Z</time>
   </trkpt>
   <trkpt lat="46.8556709289551" lon="12.7737274169922">
    <ele>1401.37915039062</ele>
    <time>2025-03-30T08:32:16Z</time>
   </trkpt>
   <trkpt lat="46.8556709289551" lon="12.7737236022949">
    <ele>1401.42150878906</ele>
    <time>2025-03-30T08:32:17Z</time>
   </trkpt>
   <trkpt lat="46.8556747436523" lon="12.7736902236938">
    <ele>1401.91198730469</ele>
    <time>2025-03-30T08:32:23Z</time>
   </trkpt>
   <trkpt lat="46.8556861877441" lon="12.7736587524414">
    <ele>1402.62890625</ele>
    <time>2025-03-30T08:32:27Z</time>
   </trkpt>
   <trkpt lat="46.8556900024414" lon="12.7736463546753">
    <ele>1402.89306640625</ele>
    <time>2025-03-30T08:32:29Z</time>
   </trkpt>
   <trkpt lat="46.8556900024414" lon="12.7736349105835">
    <ele>1403.02478027344</ele>
    <time>2025-03-30T08:32:30Z</time>
   </trkpt>
   <trkpt lat="46.8556900024414" lon="12.7736263275146">
    <ele>1403.12365722656</ele>
    <time>2025-03-30T08:32:31Z</time>
   </trkpt>
   <trkpt lat="46.8556938171387" lon="12.7736072540283">
    <ele>1403.46850585938</ele>
    <time>2025-03-30T08:32:33Z</time>
   </trkpt>
   <trkpt lat="46.8556900024414" lon="12.7735996246338">
    <ele>1403.43090820312</ele>
    <time>2025-03-30T08:32:34Z</time>
   </trkpt>
   <trkpt lat="46.8556938171387" lon="12.7735586166382">
    <ele>1404.03210449219</ele>
    <time>2025-03-30T08:32:40Z</time>
   </trkpt>
   <trkpt lat="46.8556938171387" lon="12.7735223770142">
    <ele>1404.45202636719</ele>
    <time>2025-03-30T08:32:46Z</time>
   </trkpt>
   <trkpt lat="46.8556900024414" lon="12.7735118865967">
    <ele>1404.44091796875</ele>
    <time>2025-03-30T08:32:48Z</time>
   </trkpt>
   <trkpt lat="46.8556823730469" lon="12.7734870910645">
    <ele>1404.45690917969</ele>
    <time>2025-03-30T08:32:53Z</time>
   </trkpt>
   <trkpt lat="46.8556900024414" lon="12.7734260559082">
    <ele>1405.42883300781</ele>
    <time>2025-03-30T08:33:00Z</time>
   </trkpt>
   <trkpt lat="46.8556938171387" lon="12.7734327316284">
    <ele>1405.49084472656</ele>
    <time>2025-03-30T08:33:03Z</time>
   </trkpt>
   <trkpt lat="46.8556861877441" lon="12.7734298706055">
    <ele>1405.24584960938</ele>
    <time>2025-03-30T08:33:07Z</time>
   </trkpt>
   <trkpt lat="46.8556861877441" lon="12.773383140564">
    <ele>1405.78015136719</ele>
    <time>2025-03-30T08:33:14Z</time>
   </trkpt>
   <trkpt lat="46.8556938171387" lon="12.77330493927">
    <ele>1406.46081542969</ele>
    <time>2025-03-30T08:33:19Z</time>
   </trkpt>
   <trkpt lat="46.8557090759277" lon="12.7732248306274">
    <ele>1406.53869628906</ele>
    <time>2025-03-30T08:33:25Z</time>
   </trkpt>
   <trkpt lat="46.855712890625" lon="12.7732076644897">
    <ele>1406.57739257812</ele>
    <time>2025-03-30T08:33:26Z</time>
   </trkpt>
   <trkpt lat="46.8557205200195" lon="12.7731618881226">
    <ele>1406.58361816406</ele>
    <time>2025-03-30T08:33:30Z</time>
   </trkpt>
   <trkpt lat="46.8557395935059" lon="12.7730894088745">
    <ele>1406.87097167969</ele>
    <time>2025-03-30T08:33:36Z</time>
   </trkpt>
   <trkpt lat="46.8557434082031" lon="12.7730779647827">
    <ele>1406.94848632812</ele>
    <time>2025-03-30T08:33:37Z</time>
   </trkpt>
   <trkpt lat="46.855770111084" lon="12.7729892730713">
    <ele>1407.4453125</ele>
    <time>2025-03-30T08:33:44Z</time>
   </trkpt>
   <trkpt lat="46.8557739257812" lon="12.7729749679565">
    <ele>1407.50720214844</ele>
    <time>2025-03-30T08:33:45Z</time>
   </trkpt>
   <trkpt lat="46.8557968139648" lon="12.7729043960571">
    <ele>1407.97888183594</ele>
    <time>2025-03-30T08:33:51Z</time>
   </trkpt>
   <trkpt lat="46.8558158874512" lon="12.7728652954102">
    <ele>1408.49829101562</ele>
    <time>2025-03-30T08:33:55Z</time>
   </trkpt>
   <trkpt lat="46.8558235168457" lon="12.7728490829468">
    <ele>1408.70385742188</ele>
    <time>2025-03-30T08:33:57Z</time>
   </trkpt>
   <trkpt lat="46.8558464050293" lon="12.7727880477905">
    <ele>1409.20202636719</ele>
    <time>2025-03-30T08:34:02Z</time>
   </trkpt>
   <trkpt lat="46.8558502197266" lon="12.7727756500244">
    <ele>1409.26916503906</ele>
    <time>2025-03-30T08:34:03Z</time>
   </trkpt>
   <trkpt lat="46.8558807373047" lon="12.7727031707764">
    <ele>1410.00061035156</ele>
    <time>2025-03-30T08:34:09Z</time>
   </trkpt>
   <trkpt lat="46.8559265136719" lon="12.77259349823">
    <ele>1411.22473144531</ele>
    <time>2025-03-30T08:34:17Z</time>
   </trkpt>
   <trkpt lat="46.8559494018555" lon="12.7725458145142">
    <ele>1411.92626953125</ele>
    <time>2025-03-30T08:34:21Z</time>
   </trkpt>
   <trkpt lat="46.8559684753418" lon="12.7724924087524">
    <ele>1412.43481445312</ele>
    <time>2025-03-30T08:34:26Z</time>
   </trkpt>
   <trkpt lat="46.8559875488281" lon="12.7724361419678">
    <ele>1412.63073730469</ele>
    <time>2025-03-30T08:34:31Z</time>
   </trkpt>
   <trkpt lat="46.8560028076172" lon="12.7723922729492">
    <ele>1412.8037109375</ele>
    <time>2025-03-30T08:34:35Z</time>
   </trkpt>
   <trkpt lat="46.8560218811035" lon="12.7723321914673">
    <ele>1412.97155761719</ele>
    <time>2025-03-30T08:34:40Z</time>
   </trkpt>
   <trkpt lat="46.8560333251953" lon="12.7722949981689">
    <ele>1413.06372070312</ele>
    <time>2025-03-30T08:34:43Z</time>
   </trkpt>
   <trkpt lat="46.8560562133789" lon="12.7722110748291">
    <ele>1413.15856933594</ele>
    <time>2025-03-30T08:34:49Z</time>
   </trkpt>
   <trkpt lat="46.8560752868652" lon="12.7721605300903">
    <ele>1413.44201660156</ele>
    <time>2025-03-30T08:34:53Z</time>
   </trkpt>
   <trkpt lat="46.8560981750488" lon="12.7720832824707">
    <ele>1413.62280273438</ele>
    <time>2025-03-30T08:34:59Z</time>
   </trkpt>
   <trkpt lat="46.856128692627" lon="12.7719879150391">
    <ele>1413.95568847656</ele>
    <time>2025-03-30T08:35:07Z</time>
   </trkpt>
   <trkpt lat="46.8561325073242" lon="12.7719736099243">
    <ele>1413.97485351562</ele>
    <time>2025-03-30T08:35:08Z</time>
   </trkpt>
   <trkpt lat="46.8561477661133" lon="12.771933555603">
    <ele>1414.22424316406</ele>
    <time>2025-03-30T08:35:11Z</time>
   </trkpt>
   <trkpt lat="46.8561897277832" lon="12.7719058990479">
    <ele>1415.734375</ele>
    <time>2025-03-30T08:59:50Z</time>
   </trkpt>
   <trkpt lat="46.8561897277832" lon="12.7719144821167">
    <ele>1415.81823730469</ele>
    <time>2025-03-30T08:59:51Z</time>
   </trkpt>
   <trkpt lat="46.8561744689941" lon="12.771918296814">
    <ele>1415.20739746094</ele>
    <time>2025-03-30T08:59:52Z</time>
   </trkpt>
   <trkpt lat="46.8561668395996" lon="12.7719135284424">
    <ele>1414.83642578125</ele>
    <time>2025-03-30T08:59:57Z</time>
   </trkpt>
   <trkpt lat="46.8561668395996" lon="12.7719135284424">
    <ele>1414.83642578125</ele>
    <time>2025-03-30T08:59:58Z</time>
   </trkpt>
   <trkpt lat="46.8561553955078" lon="12.7719535827637">
    <ele>1414.74560546875</ele>
    <time>2025-03-30T09:00:03Z</time>
   </trkpt>
   <trkpt lat="46.8561248779297" lon="12.7720327377319">
    <ele>1414.24096679688</ele>
    <time>2025-03-30T09:00:09Z</time>
   </trkpt>
   <trkpt lat="46.8561172485352" lon="12.7721004486084">
    <ele>1414.59533691406</ele>
    <time>2025-03-30T09:00:14Z</time>
   </trkpt>
   <trkpt lat="46.8560981750488" lon="12.7721700668335">
    <ele>1414.49389648438</ele>
    <time>2025-03-30T09:00:20Z</time>
   </trkpt>
   <trkpt lat="46.8560562133789" lon="12.7722778320312">
    <ele>1413.83666992188</ele>
    <time>2025-03-30T09:00:28Z</time>
   </trkpt>
   <trkpt lat="46.8560485839844" lon="12.7722930908203">
    <ele>1413.67590332031</ele>
    <time>2025-03-30T09:00:29Z</time>
   </trkpt>
   <trkpt lat="46.8560218811035" lon="12.7723894119263">
    <ele>1413.55847167969</ele>
    <time>2025-03-30T09:00:35Z</time>
   </trkpt>
   <trkpt lat="46.8559875488281" lon="12.7724924087524">
    <ele>1413.21337890625</ele>
    <time>2025-03-30T09:00:42Z</time>
   </trkpt>
   <trkpt lat="46.8559494018555" lon="12.7725982666016">
    <ele>1412.14453125</ele>
    <time>2025-03-30T09:00:49Z</time>
   </trkpt>
   <trkpt lat="46.8559455871582" lon="12.7726144790649">
    <ele>1412.06323242188</ele>
    <time>2025-03-30T09:00:50Z</time>
   </trkpt>
   <trkpt lat="46.8559112548828" lon="12.7727222442627">
    <ele>1411.23840332031</ele>
    <time>2025-03-30T09:00:57Z</time>
   </trkpt>
   <trkpt lat="46.8559036254883" lon="12.7727403640747">
    <ele>1411.04248046875</ele>
    <time>2025-03-30T09:00:58Z</time>
   </trkpt>
   <trkpt lat="46.8558654785156" lon="12.7728271484375">
    <ele>1410.10778808594</ele>
    <time>2025-03-30T09:01:04Z</time>
   </trkpt>
   <trkpt lat="46.8558349609375" lon="12.7729301452637">
    <ele>1409.63623046875</ele>
    <time>2025-03-30T09:01:10Z</time>
   </trkpt>
   <trkpt lat="46.8558120727539" lon="12.7729873657227">
    <ele>1409.08654785156</ele>
    <time>2025-03-30T09:01:13Z</time>
   </trkpt>
   <trkpt lat="46.8557624816894" lon="12.773136138916">
    <ele>1408.05590820312</ele>
    <time>2025-03-30T09:01:22Z</time>
   </trkpt>
   <trkpt lat="46.8557395935059" lon="12.7732172012329">
    <ele>1407.67224121094</ele>
    <time>2025-03-30T09:01:27Z</time>
   </trkpt>
   <trkpt lat="46.8557319641113" lon="12.773250579834">
    <ele>1407.58679199219</ele>
    <time>2025-03-30T09:01:29Z</time>
   </trkpt>
   <trkpt lat="46.8557243347168" lon="12.7732906341553">
    <ele>1407.54479980469</ele>
    <time>2025-03-30T09:01:31Z</time>
   </trkpt>
   <trkpt lat="46.855712890625" lon="12.7734050750732">
    <ele>1406.51611328125</ele>
    <time>2025-03-30T09:01:36Z</time>
   </trkpt>
   <trkpt lat="46.8557167053223" lon="12.7734880447388">
    <ele>1405.65734863281</ele>
    <time>2025-03-30T09:01:40Z</time>
   </trkpt>
   <trkpt lat="46.8557319641113" lon="12.7735691070557">
    <ele>1405.19409179688</ele>
    <time>2025-03-30T09:01:44Z</time>
   </trkpt>
   <trkpt lat="46.8557319641113" lon="12.7736005783081">
    <ele>1404.80529785156</ele>
    <time>2025-03-30T09:01:46Z</time>
   </trkpt>
   <trkpt lat="46.8557205200195" lon="12.7736921310425">
    <ele>1403.31726074219</ele>
    <time>2025-03-30T09:01:51Z</time>
   </trkpt>
   <trkpt lat="46.8556861877441" lon="12.7737522125244">
    <ele>1401.56030273438</ele>
    <time>2025-03-30T09:01:57Z</time>
   </trkpt>
   <trkpt lat="46.8556671142578" lon="12.7737579345703">
    <ele>1400.92578125</ele>
    <time>2025-03-30T09:02:01Z</time>
   </trkpt>
   <trkpt lat="46.8556518554688" lon="12.7737665176392">
    <ele>1400.37829589844</ele>
    <time>2025-03-30T09:02:05Z</time>
   </trkpt>
   <trkpt lat="46.8556480407715" lon="12.7737684249878">
    <ele>1400.24475097656</ele>
    <time>2025-03-30T09:02:06Z</time>
   </trkpt>
   <trkpt lat="46.8556365966797" lon="12.7737970352173">
    <ele>1399.60717773438</ele>
    <time>2025-03-30T09:02:10Z</time>
   </trkpt>
   <trkpt lat="46.8556289672852" lon="12.7738065719604">
    <ele>1399.28747558594</ele>
    <time>2025-03-30T09:02:12Z</time>
   </trkpt>
   <trkpt lat="46.8556137084961" lon="12.7738189697266">
    <ele>1398.72351074219</ele>
    <time>2025-03-30T09:02:14Z</time>
   </trkpt>
   <trkpt lat="46.8555946350098" lon="12.7738409042358">
    <ele>1397.96752929688</ele>
    <time>2025-03-30T09:02:17Z</time>
   </trkpt>
   <trkpt lat="46.8555679321289" lon="12.7738523483276">
    <ele>1397.11181640625</ele>
    <time>2025-03-30T09:02:25Z</time>
   </trkpt>
   <trkpt lat="46.8555603027344" lon="12.7738523483276">
    <ele>1396.89868164062</ele>
    <time>2025-03-30T09:02:34Z</time>
   </trkpt>
   <trkpt lat="46.8555564880371" lon="12.7738571166992">
    <ele>1396.75</ele>
    <time>2025-03-30T09:02:36Z</time>
   </trkpt>
   <trkpt lat="46.8555564880371" lon="12.7738571166992">
    <ele>1396.75</ele>
    <time>2025-03-30T09:02:41Z</time>
   </trkpt>
   <trkpt lat="46.8555564880371" lon="12.7738571166992">
    <ele>1396.75</ele>
    <time>2025-03-30T09:02:42Z</time>
   </trkpt>
   <trkpt lat="46.855541229248" lon="12.7738599777222">
    <ele>1396.30078125</ele>
    <time>2025-03-30T09:02:43Z</time>
   </trkpt>
   <trkpt lat="46.8555107116699" lon="12.773886680603">
    <ele>1395.2421875</ele>
    <time>2025-03-30T09:02:48Z</time>
   </trkpt>
   <trkpt lat="46.8555107116699" lon="12.773886680603">
    <ele>1395.2421875</ele>
    <time>2025-03-30T09:02:49Z</time>
   </trkpt>
   <trkpt lat="46.8555107116699" lon="12.773886680603">
    <ele>1395.2421875</ele>
    <time>2025-03-30T09:02:50Z</time>
   </trkpt>
   <trkpt lat="46.8555107116699" lon="12.773886680603">
    <ele>1395.2421875</ele>
    <time>2025-03-30T09:02:58Z</time>
   </trkpt>
   <trkpt lat="46.8554992675781" lon="12.7738990783691">
    <ele>1394.83532714844</ele>
    <time>2025-03-30T09:03:14Z</time>
   </trkpt>
   <trkpt lat="46.8554763793945" lon="12.7738981246948">
    <ele>1394.22436523438</ele>
    <time>2025-03-30T09:03:18Z</time>
   </trkpt>
   <trkpt lat="46.8554649353027" lon="12.7738971710205">
    <ele>1393.921875</ele>
    <time>2025-03-30T09:03:20Z</time>
   </trkpt>
   <trkpt lat="46.8554382324219" lon="12.7739000320435">
    <ele>1393.18151855469</ele>
    <time>2025-03-30T09:03:24Z</time>
   </trkpt>
   <trkpt lat="46.855411529541" lon="12.7739200592041">
    <ele>1392.34313964844</ele>
    <time>2025-03-30T09:03:28Z</time>
   </trkpt>
   <trkpt lat="46.855396270752" lon="12.7739410400391">
    <ele>1391.82043457031</ele>
    <time>2025-03-30T09:03:32Z</time>
   </trkpt>
   <trkpt lat="46.8553848266602" lon="12.7739543914795">
    <ele>1391.44970703125</ele>
    <time>2025-03-30T09:03:36Z</time>
   </trkpt>
   <trkpt lat="46.8553695678711" lon="12.7739868164062">
    <ele>1390.89099121094</ele>
    <time>2025-03-30T09:03:40Z</time>
   </trkpt>
   <trkpt lat="46.8553428649902" lon="12.7740154266357">
    <ele>1390.08825683594</ele>
    <time>2025-03-30T09:03:44Z</time>
   </trkpt>
   <trkpt lat="46.855339050293" lon="12.774022102356">
    <ele>1389.96472167969</ele>
    <time>2025-03-30T09:03:45Z</time>
   </trkpt>
   <trkpt lat="46.8553161621094" lon="12.7740421295166">
    <ele>1389.32397460938</ele>
    <time>2025-03-30T09:03:49Z</time>
   </trkpt>
   <trkpt lat="46.8553085327148" lon="12.7740497589111">
    <ele>1389.11083984375</ele>
    <time>2025-03-30T09:03:51Z</time>
   </trkpt>
   <trkpt lat="46.8553009033203" lon="12.7740659713745">
    <ele>1388.86865234375</ele>
    <time>2025-03-30T09:03:54Z</time>
   </trkpt>
   <trkpt lat="46.8552932739258" lon="12.7740926742554">
    <ele>1388.59460449219</ele>
    <time>2025-03-30T09:03:58Z</time>
   </trkpt>
   <trkpt lat="46.8552856445312" lon="12.774097442627">
    <ele>1388.40246582031</ele>
    <time>2025-03-30T09:03:59Z</time>
   </trkpt>
   <trkpt lat="46.8552742004394" lon="12.7741079330444">
    <ele>1388.1064453125</ele>
    <time>2025-03-30T09:04:02Z</time>
   </trkpt>
   <trkpt lat="46.8552703857422" lon="12.7741098403931">
    <ele>1388.013671875</ele>
    <time>2025-03-30T09:04:03Z</time>
   </trkpt>
   <trkpt lat="46.8552627563477" lon="12.7741222381592">
    <ele>1387.80419921875</ele>
    <time>2025-03-30T09:04:05Z</time>
   </trkpt>
   <trkpt lat="46.8552589416504" lon="12.7741279602051">
    <ele>1387.70227050781</ele>
    <time>2025-03-30T09:04:06Z</time>
   </trkpt>
   <trkpt lat="46.8552436828613" lon="12.7741737365723">
    <ele>1387.08850097656</ele>
    <time>2025-03-30T09:04:11Z</time>
   </trkpt>
   <trkpt lat="46.8552398681641" lon="12.7741832733154">
    <ele>1386.77087402344</ele>
    <time>2025-03-30T09:04:12Z</time>
   </trkpt>
   <trkpt lat="46.8552284240723" lon="12.7742290496826">
    <ele>1385.40185546875</ele>
    <time>2025-03-30T09:04:16Z</time>
   </trkpt>
   <trkpt lat="46.8552131652832" lon="12.7742824554443">
    <ele>1383.78344726562</ele>
    <time>2025-03-30T09:04:20Z</time>
   </trkpt>
   <trkpt lat="46.8551940917969" lon="12.7743015289307">
    <ele>1382.94006347656</ele>
    <time>2025-03-30T09:04:22Z</time>
   </trkpt>
   <trkpt lat="46.8551902770996" lon="12.7743110656738">
    <ele>1382.63488769531</ele>
    <time>2025-03-30T09:04:23Z</time>
   </trkpt>
   <trkpt lat="46.8551826477051" lon="12.7743377685547">
    <ele>1381.84436035156</ele>
    <time>2025-03-30T09:04:25Z</time>
   </trkpt>
   <trkpt lat="46.855167388916" lon="12.7743730545044">
    <ele>1380.70983886719</ele>
    <time>2025-03-30T09:04:28Z</time>
   </trkpt>
   <trkpt lat="46.8551368713379" lon="12.7744188308716">
    <ele>1379.06237792969</ele>
    <time>2025-03-30T09:04:32Z</time>
   </trkpt>
   <trkpt lat="46.8551254272461" lon="12.7744579315186">
    <ele>1377.94445800781</ele>
    <time>2025-03-30T09:04:35Z</time>
   </trkpt>
   <trkpt lat="46.855094909668" lon="12.7744989395142">
    <ele>1376.46423339844</ele>
    <time>2025-03-30T09:04:39Z</time>
   </trkpt>
   <trkpt lat="46.8550910949707" lon="12.7745151519775">
    <ele>1376.02893066406</ele>
    <time>2025-03-30T09:04:41Z</time>
   </trkpt>
   <trkpt lat="46.8550682067871" lon="12.7745609283447">
    <ele>1374.60864257812</ele>
    <time>2025-03-30T09:04:45Z</time>
   </trkpt>
   <trkpt lat="46.8550415039062" lon="12.7746000289917">
    <ele>1373.302734375</ele>
    <time>2025-03-30T09:04:48Z</time>
   </trkpt>
   <trkpt lat="46.8550338745117" lon="12.7746200561523">
    <ele>1372.73937988281</ele>
    <time>2025-03-30T09:04:50Z</time>
   </trkpt>
   <trkpt lat="46.8549995422363" lon="12.7746925354004">
    <ele>1370.6279296875</ele>
    <time>2025-03-30T09:04:57Z</time>
   </trkpt>
   <trkpt lat="46.8549575805664" lon="12.7747554779053">
    <ele>1368.138671875</ele>
    <time>2025-03-30T09:05:03Z</time>
   </trkpt>
   <trkpt lat="46.8549270629883" lon="12.7747831344604">
    <ele>1366.78283691406</ele>
    <time>2025-03-30T09:05:06Z</time>
   </trkpt>
   <trkpt lat="46.8549003601074" lon="12.7748031616211">
    <ele>1365.71728515625</ele>
    <time>2025-03-30T09:05:09Z</time>
   </trkpt>
   <trkpt lat="46.8548812866211" lon="12.7748136520386">
    <ele>1365.04504394531</ele>
    <time>2025-03-30T09:05:11Z</time>
   </trkpt>
   <trkpt lat="46.8548622131348" lon="12.7748250961304">
    <ele>1364.36889648438</ele>
    <time>2025-03-30T09:05:13Z</time>
   </trkpt>
   <trkpt lat="46.8548431396484" lon="12.774827003479">
    <ele>1363.86535644531</ele>
    <time>2025-03-30T09:05:15Z</time>
   </trkpt>
   <trkpt lat="46.854793548584" lon="12.7748403549194">
    <ele>1362.44030761719</ele>
    <time>2025-03-30T09:05:19Z</time>
   </trkpt>
   <trkpt lat="46.8547706604004" lon="12.7748460769653">
    <ele>1361.80310058594</ele>
    <time>2025-03-30T09:05:21Z</time>
   </trkpt>
   <trkpt lat="46.8547477722168" lon="12.7748355865479">
    <ele>1361.39477539062</ele>
    <time>2025-03-30T09:05:23Z</time>
   </trkpt>
   <trkpt lat="46.8547210693359" lon="12.7748069763184">
    <ele>1361.10815429688</ele>
    <time>2025-03-30T09:05:27Z</time>
   </trkpt>
   <trkpt lat="46.8547058105469" lon="12.7748003005981">
    <ele>1360.80383300781</ele>
    <time>2025-03-30T09:05:29Z</time>
   </trkpt>
   <trkpt lat="46.8546714782715" lon="12.7747936248779">
    <ele>1360.00219726562</ele>
    <time>2025-03-30T09:05:33Z</time>
   </trkpt>
   <trkpt lat="46.854663848877" lon="12.774790763855">
    <ele>1359.83715820312</ele>
    <time>2025-03-30T09:05:34Z</time>
   </trkpt>
   <trkpt lat="46.8546371459961" lon="12.7747831344604">
    <ele>1359.224609375</ele>
    <time>2025-03-30T09:05:38Z</time>
   </trkpt>
   <trkpt lat="46.8546142578125" lon="12.7747821807861">
    <ele>1358.63684082031</ele>
    <time>2025-03-30T09:05:40Z</time>
   </trkpt>
   <trkpt lat="46.8545951843262" lon="12.7747755050659">
    <ele>1358.19763183594</ele>
    <time>2025-03-30T09:05:42Z</time>
   </trkpt>
   <trkpt lat="46.8545722961426" lon="12.7747707366943">
    <ele>1357.6337890625</ele>
    <time>2025-03-30T09:05:44Z</time>
   </trkpt>
   <trkpt lat="46.8545341491699" lon="12.7747468948364">
    <ele>1356.78735351562</ele>
    <time>2025-03-30T09:05:48Z</time>
   </trkpt>
   <trkpt lat="46.8545112609863" lon="12.7747259140015">
    <ele>1356.29272460938</ele>
    <time>2025-03-30T09:05:51Z</time>
   </trkpt>
   <trkpt lat="46.8544998168945" lon="12.774712562561">
    <ele>1356.05041503906</ele>
    <time>2025-03-30T09:05:53Z</time>
   </trkpt>
   <trkpt lat="46.8544883728027" lon="12.774715423584">
    <ele>1355.71105957031</ele>
    <time>2025-03-30T09:05:56Z</time>
   </trkpt>
   <trkpt lat="46.8544692993164" lon="12.7747039794922">
    <ele>1355.22766113281</ele>
    <time>2025-03-30T09:05:58Z</time>
   </trkpt>
   <trkpt lat="46.8544616699219" lon="12.7746963500977">
    <ele>1355.04431152344</ele>
    <time>2025-03-30T09:05:59Z</time>
   </trkpt>
   <trkpt lat="46.8544311523438" lon="12.7746534347534">
    <ele>1354.31848144531</ele>
    <time>2025-03-30T09:06:04Z</time>
   </trkpt>
   <trkpt lat="46.8544006347656" lon="12.7746305465698">
    <ele>1353.45727539062</ele>
    <time>2025-03-30T09:06:08Z</time>
   </trkpt>
   <trkpt lat="46.8543968200684" lon="12.774621963501">
    <ele>1353.36071777344</ele>
    <time>2025-03-30T09:06:09Z</time>
   </trkpt>
   <trkpt lat="46.8543663024902" lon="12.7745866775513">
    <ele>1352.46313476562</ele>
    <time>2025-03-30T09:06:13Z</time>
   </trkpt>
   <trkpt lat="46.8543548583984" lon="12.7745752334595">
    <ele>1352.10681152344</ele>
    <time>2025-03-30T09:06:15Z</time>
   </trkpt>
   <trkpt lat="46.8543472290039" lon="12.7745599746704">
    <ele>1351.87170410156</ele>
    <time>2025-03-30T09:06:17Z</time>
   </trkpt>
   <trkpt lat="46.8543281555176" lon="12.7745132446289">
    <ele>1351.25439453125</ele>
    <time>2025-03-30T09:06:21Z</time>
   </trkpt>
   <trkpt lat="46.8543128967285" lon="12.7744731903076">
    <ele>1350.71936035156</ele>
    <time>2025-03-30T09:06:26Z</time>
   </trkpt>
   <trkpt lat="46.8543090820312" lon="12.7744655609131">
    <ele>1350.58032226562</ele>
    <time>2025-03-30T09:06:27Z</time>
   </trkpt>
   <trkpt lat="46.8543014526367" lon="12.7744455337524">
    <ele>1350.29406738281</ele>
    <time>2025-03-30T09:06:30Z</time>
   </trkpt>
   <trkpt lat="46.8542938232422" lon="12.7744283676147">
    <ele>1350.00024414062</ele>
    <time>2025-03-30T09:06:33Z</time>
   </trkpt>
   <trkpt lat="46.8542900085449" lon="12.7744159698486">
    <ele>1349.84692382812</ele>
    <time>2025-03-30T09:06:34Z</time>
   </trkpt>
   <trkpt lat="46.8542709350586" lon="12.7743854522705">
    <ele>1349.08215332031</ele>
    <time>2025-03-30T09:06:38Z</time>
   </trkpt>
   <trkpt lat="46.8542671203613" lon="12.7743701934814">
    <ele>1348.90991210938</ele>
    <time>2025-03-30T09:06:42Z</time>
   </trkpt>
   <trkpt lat="46.8542594909668" lon="12.7743625640869">
    <ele>1348.59704589844</ele>
    <time>2025-03-30T09:06:46Z</time>
   </trkpt>
   <trkpt lat="46.8542594909668" lon="12.7743434906006">
    <ele>1348.5615234375</ele>
    <time>2025-03-30T09:06:51Z</time>
   </trkpt>
   <trkpt lat="46.8542594909668" lon="12.7743453979492">
    <ele>1348.56506347656</ele>
    <time>2025-03-30T09:06:52Z</time>
   </trkpt>
   <trkpt lat="46.8542366027832" lon="12.7743148803711">
    <ele>1347.57214355469</ele>
    <time>2025-03-30T09:06:57Z</time>
   </trkpt>
   <trkpt lat="46.8542251586914" lon="12.7742929458618">
    <ele>1347.03942871094</ele>
    <time>2025-03-30T09:06:59Z</time>
   </trkpt>
   <trkpt lat="46.8542137145996" lon="12.7742576599121">
    <ele>1346.44653320312</ele>
    <time>2025-03-30T09:07:03Z</time>
   </trkpt>
   <trkpt lat="46.8541870117188" lon="12.7742176055908">
    <ele>1345.13940429688</ele>
    <time>2025-03-30T09:07:07Z</time>
   </trkpt>
   <trkpt lat="46.854175567627" lon="12.7741994857788">
    <ele>1344.55419921875</ele>
    <time>2025-03-30T09:07:09Z</time>
   </trkpt>
   <trkpt lat="46.8541641235352" lon="12.7741851806641">
    <ele>1343.86999511719</ele>
    <time>2025-03-30T09:07:11Z</time>
   </trkpt>
   <trkpt lat="46.8541526794434" lon="12.774151802063">
    <ele>1342.62976074219</ele>
    <time>2025-03-30T09:07:15Z</time>
   </trkpt>
   <trkpt lat="46.8541412353516" lon="12.7741279602051">
    <ele>1341.37902832031</ele>
    <time>2025-03-30T09:07:18Z</time>
   </trkpt>
   <trkpt lat="46.8541374206543" lon="12.7741222381592">
    <ele>1340.98583984375</ele>
    <time>2025-03-30T09:07:19Z</time>
   </trkpt>
   <trkpt lat="46.8541259765625" lon="12.7741088867188">
    <ele>1339.84680175781</ele>
    <time>2025-03-30T09:07:23Z</time>
   </trkpt>
   <trkpt lat="46.8541259765625" lon="12.7740926742554">
    <ele>1339.66796875</ele>
    <time>2025-03-30T09:07:25Z</time>
   </trkpt>
   <trkpt lat="46.854118347168" lon="12.7740716934204">
    <ele>1338.77307128906</ele>
    <time>2025-03-30T09:07:27Z</time>
   </trkpt>
   <trkpt lat="46.8540916442871" lon="12.7740297317505">
    <ele>1335.97998046875</ele>
    <time>2025-03-30T09:07:31Z</time>
   </trkpt>
   <trkpt lat="46.8540802001953" lon="12.7740087509155">
    <ele>1334.7451171875</ele>
    <time>2025-03-30T09:07:33Z</time>
   </trkpt>
   <trkpt lat="46.8540649414062" lon="12.7739839553833">
    <ele>1333.13061523438</ele>
    <time>2025-03-30T09:07:35Z</time>
   </trkpt>
   <trkpt lat="46.8540649414062" lon="12.7739496231079">
    <ele>1332.73974609375</ele>
    <time>2025-03-30T09:07:37Z</time>
   </trkpt>
   <trkpt lat="46.854061126709" lon="12.7739362716675">
    <ele>1332.25305175781</ele>
    <time>2025-03-30T09:07:38Z</time>
   </trkpt>
   <trkpt lat="46.8540534973144" lon="12.7739162445068">
    <ele>1331.35437011719</ele>
    <time>2025-03-30T09:07:39Z</time>
   </trkpt>
   <trkpt lat="46.8540573120117" lon="12.7738809585571">
    <ele>1331.2861328125</ele>
    <time>2025-03-30T09:07:41Z</time>
   </trkpt>
   <trkpt lat="46.8540649414062" lon="12.7738447189331">
    <ele>1331.54528808594</ele>
    <time>2025-03-30T09:07:43Z</time>
   </trkpt>
   <trkpt lat="46.8540687561035" lon="12.7738218307495">
    <ele>1331.62182617188</ele>
    <time>2025-03-30T09:07:45Z</time>
   </trkpt>
   <trkpt lat="46.8540802001953" lon="12.7738008499146">
    <ele>1332.39624023438</ele>
    <time>2025-03-30T09:07:47Z</time>
   </trkpt>
   <trkpt lat="46.8540916442871" lon="12.773738861084">
    <ele>1332.712890625</ele>
    <time>2025-03-30T09:07:51Z</time>
   </trkpt>
   <trkpt lat="46.8540840148926" lon="12.7736797332764">
    <ele>1331.3681640625</ele>
    <time>2025-03-30T09:07:55Z</time>
   </trkpt>
   <trkpt lat="46.8540840148926" lon="12.773663520813">
    <ele>1331.18542480469</ele>
    <time>2025-03-30T09:07:56Z</time>
   </trkpt>
   <trkpt lat="46.8540840148926" lon="12.7736482620239">
    <ele>1331.01330566406</ele>
    <time>2025-03-30T09:07:57Z</time>
   </trkpt>
   <trkpt lat="46.8540802001953" lon="12.773627281189">
    <ele>1330.43530273438</ele>
    <time>2025-03-30T09:07:59Z</time>
   </trkpt>
   <trkpt lat="46.8540725708008" lon="12.7735843658447">
    <ele>1329.265625</ele>
    <time>2025-03-30T09:08:03Z</time>
   </trkpt>
   <trkpt lat="46.8540649414062" lon="12.773530960083">
    <ele>1327.97277832031</ele>
    <time>2025-03-30T09:08:07Z</time>
   </trkpt>
   <trkpt lat="46.8540649414062" lon="12.7734775543213">
    <ele>1327.36474609375</ele>
    <time>2025-03-30T09:08:10Z</time>
   </trkpt>
   <trkpt lat="46.8540534973144" lon="12.7734355926514">
    <ele>1325.84997558594</ele>
    <time>2025-03-30T09:08:13Z</time>
   </trkpt>
   <trkpt lat="46.8540420532227" lon="12.7734003067017">
    <ele>1324.40661621094</ele>
    <time>2025-03-30T09:08:17Z</time>
   </trkpt>
   <trkpt lat="46.8540420532227" lon="12.773380279541">
    <ele>1324.17602539062</ele>
    <time>2025-03-30T09:08:19Z</time>
   </trkpt>
   <trkpt lat="46.8540420532227" lon="12.7733469009399">
    <ele>1323.79150390625</ele>
    <time>2025-03-30T09:08:22Z</time>
   </trkpt>
   <trkpt lat="46.8540382385254" lon="12.7733325958252">
    <ele>1323.27185058594</ele>
    <time>2025-03-30T09:08:23Z</time>
   </trkpt>
   <trkpt lat="46.8540382385254" lon="12.7733201980591">
    <ele>1323.01086425781</ele>
    <time>2025-03-30T09:08:24Z</time>
   </trkpt>
   <trkpt lat="46.8540420532227" lon="12.773268699646">
    <ele>1322.27392578125</ele>
    <time>2025-03-30T09:08:28Z</time>
   </trkpt>
   <trkpt lat="46.8540306091309" lon="12.7732400894165">
    <ele>1320.63232421875</ele>
    <time>2025-03-30T09:08:31Z</time>
   </trkpt>
   <trkpt lat="46.8540267944336" lon="12.773232460022">
    <ele>1320.12573242188</ele>
    <time>2025-03-30T09:08:32Z</time>
   </trkpt>
   <trkpt lat="46.8540153503418" lon="12.7731885910034">
    <ele>1318.16809082031</ele>
    <time>2025-03-30T09:08:36Z</time>
   </trkpt>
   <trkpt lat="46.8540115356445" lon="12.7731657028198">
    <ele>1317.34362792969</ele>
    <time>2025-03-30T09:08:38Z</time>
   </trkpt>
   <trkpt lat="46.8540077209473" lon="12.7731399536133">
    <ele>1316.4599609375</ele>
    <time>2025-03-30T09:08:40Z</time>
   </trkpt>
   <trkpt lat="46.8540115356445" lon="12.7730979919434">
    <ele>1315.92639160156</ele>
    <time>2025-03-30T09:08:43Z</time>
   </trkpt>
   <trkpt lat="46.8540153503418" lon="12.7730588912964">
    <ele>1315.45141601562</ele>
    <time>2025-03-30T09:08:46Z</time>
   </trkpt>
   <trkpt lat="46.8540153503418" lon="12.7729864120483">
    <ele>1313.93322753906</ele>
    <time>2025-03-30T09:08:52Z</time>
   </trkpt>
   <trkpt lat="46.8540153503418" lon="12.7729597091675">
    <ele>1313.37390136719</ele>
    <time>2025-03-30T09:08:54Z</time>
   </trkpt>
   <trkpt lat="46.8540191650391" lon="12.7729377746582">
    <ele>1313.255859375</ele>
    <time>2025-03-30T09:08:56Z</time>
   </trkpt>
   <trkpt lat="46.8540115356445" lon="12.7728700637817">
    <ele>1311.15588378906</ele>
    <time>2025-03-30T09:09:01Z</time>
   </trkpt>
   <trkpt lat="46.8540115356445" lon="12.7728595733643">
    <ele>1310.93627929688</ele>
    <time>2025-03-30T09:09:02Z</time>
   </trkpt>
   <trkpt lat="46.8540153503418" lon="12.7728204727173">
    <ele>1310.45739746094</ele>
    <time>2025-03-30T09:09:05Z</time>
   </trkpt>
   <trkpt lat="46.8540229797363" lon="12.7727899551392">
    <ele>1310.49609375</ele>
    <time>2025-03-30T09:09:07Z</time>
   </trkpt>
   <trkpt lat="46.8540267944336" lon="12.7727708816528">
    <ele>1310.4345703125</ele>
    <time>2025-03-30T09:09:08Z</time>
   </trkpt>
   <trkpt lat="46.8540306091309" lon="12.7727556228638">
    <ele>1310.45251464844</ele>
    <time>2025-03-30T09:09:09Z</time>
   </trkpt>
   <trkpt lat="46.8540306091309" lon="12.7726917266846">
    <ele>1309.10998535156</ele>
    <time>2025-03-30T09:09:13Z</time>
   </trkpt>
   <trkpt lat="46.8540344238281" lon="12.7726573944092">
    <ele>1308.72534179688</ele>
    <time>2025-03-30T09:09:16Z</time>
   </trkpt>
   <trkpt lat="46.8540344238281" lon="12.7726440429688">
    <ele>1308.44458007812</ele>
    <time>2025-03-30T09:09:17Z</time>
   </trkpt>
   <trkpt lat="46.8540420532227" lon="12.7725887298584">
    <ele>1307.95263671875</ele>
    <time>2025-03-30T09:09:21Z</time>
   </trkpt>
   <trkpt lat="46.8540382385254" lon="12.7725687026978">
    <ele>1307.19555664062</ele>
    <time>2025-03-30T09:09:23Z</time>
   </trkpt>
   <trkpt lat="46.8540382385254" lon="12.7725276947021">
    <ele>1306.33251953125</ele>
    <time>2025-03-30T09:09:26Z</time>
   </trkpt>
   <trkpt lat="46.8540344238281" lon="12.7724714279175">
    <ele>1304.48107910156</ele>
    <time>2025-03-30T09:09:30Z</time>
   </trkpt>
   <trkpt lat="46.8540382385254" lon="12.772424697876">
    <ele>1303.28234863281</ele>
    <time>2025-03-30T09:09:34Z</time>
   </trkpt>
   <trkpt lat="46.8540420532227" lon="12.7723779678345">
    <ele>1302.07800292969</ele>
    <time>2025-03-30T09:09:38Z</time>
   </trkpt>
   <trkpt lat="46.8540534973144" lon="12.7723159790039">
    <ele>1301.01232910156</ele>
    <time>2025-03-30T09:09:42Z</time>
   </trkpt>
   <trkpt lat="46.854061126709" lon="12.7722778320312">
    <ele>1300.39465332031</ele>
    <time>2025-03-30T09:09:46Z</time>
   </trkpt>
   <trkpt lat="46.8540649414062" lon="12.7722024917603">
    <ele>1298.21496582031</ele>
    <time>2025-03-30T09:09:51Z</time>
   </trkpt>
   <trkpt lat="46.8540573120117" lon="12.7721843719482">
    <ele>1296.9833984375</ele>
    <time>2025-03-30T09:09:53Z</time>
   </trkpt>
   <trkpt lat="46.854061126709" lon="12.7721662521362">
    <ele>1296.6982421875</ele>
    <time>2025-03-30T09:09:54Z</time>
   </trkpt>
   <trkpt lat="46.8540802001953" lon="12.7720804214478">
    <ele>1295.39892578125</ele>
    <time>2025-03-30T09:09:59Z</time>
   </trkpt>
   <trkpt lat="46.8541069030762" lon="12.7720031738281">
    <ele>1294.94543457031</ele>
    <time>2025-03-30T09:10:05Z</time>
   </trkpt>
   <trkpt lat="46.8541030883789" lon="12.772027015686">
    <ele>1295.44702148438</ele>
    <time>2025-03-30T09:10:09Z</time>
   </trkpt>
   <trkpt lat="46.8541030883789" lon="12.7720346450806">
    <ele>1295.70483398438</ele>
    <time>2025-03-30T09:10:11Z</time>
   </trkpt>
   <trkpt lat="46.8541069030762" lon="12.7719736099243">
    <ele>1293.94470214844</ele>
    <time>2025-03-30T09:10:20Z</time>
   </trkpt>
   <trkpt lat="46.854118347168" lon="12.7719316482544">
    <ele>1293.42358398438</ele>
    <time>2025-03-30T09:10:24Z</time>
   </trkpt>
   <trkpt lat="46.854118347168" lon="12.7719173431396">
    <ele>1292.93676757812</ele>
    <time>2025-03-30T09:10:25Z</time>
   </trkpt>
   <trkpt lat="46.8541221618652" lon="12.7718839645386">
    <ele>1292.09765625</ele>
    <time>2025-03-30T09:10:27Z</time>
   </trkpt>
   <trkpt lat="46.8541259765625" lon="12.7718439102173">
    <ele>1291.02648925781</ele>
    <time>2025-03-30T09:10:30Z</time>
   </trkpt>
   <trkpt lat="46.8541297912598" lon="12.7718105316162">
    <ele>1290.17895507812</ele>
    <time>2025-03-30T09:10:32Z</time>
   </trkpt>
   <trkpt lat="46.8541412353516" lon="12.7717361450195">
    <ele>1288.49780273438</ele>
    <time>2025-03-30T09:10:37Z</time>
   </trkpt>
   <trkpt lat="46.8541488647461" lon="12.7717275619507">
    <ele>1288.77746582031</ele>
    <time>2025-03-30T09:10:38Z</time>
   </trkpt>
   <trkpt lat="46.8541526794434" lon="12.771710395813">
    <ele>1288.47143554688</ele>
    <time>2025-03-30T09:10:42Z</time>
   </trkpt>
   <trkpt lat="46.8541564941406" lon="12.7717199325562">
    <ele>1289.08825683594</ele>
    <time>2025-03-30T09:10:44Z</time>
   </trkpt>
   <trkpt lat="46.8541679382324" lon="12.7717218399048">
    <ele>1290.01831054688</ele>
    <time>2025-03-30T09:10:46Z</time>
   </trkpt>
   <trkpt lat="46.8541679382324" lon="12.7717218399048">
    <ele>1290.01831054688</ele>
    <time>2025-03-30T09:10:48Z</time>
   </trkpt>
   <trkpt lat="46.8541717529297" lon="12.77170753479">
    <ele>1289.81628417969</ele>
    <time>2025-03-30T09:10:52Z</time>
   </trkpt>
   <trkpt lat="46.854175567627" lon="12.7717170715332">
    <ele>1290.44250488281</ele>
    <time>2025-03-30T09:10:58Z</time>
   </trkpt>
   <trkpt lat="46.8541717529297" lon="12.7717065811157">
    <ele>1289.78308105469</ele>
    <time>2025-03-30T09:11:06Z</time>
   </trkpt>
   <trkpt lat="46.8541603088379" lon="12.7716941833496">
    <ele>1288.48181152344</ele>
    <time>2025-03-30T09:11:11Z</time>
   </trkpt>
   <trkpt lat="46.8541564941406" lon="12.7716932296753">
    <ele>1288.16333007812</ele>
    <time>2025-03-30T09:11:13Z</time>
   </trkpt>
   <trkpt lat="46.8541603088379" lon="12.7716817855835">
    <ele>1288.05163574219</ele>
    <time>2025-03-30T09:11:15Z</time>
   </trkpt>
   <trkpt lat="46.8541603088379" lon="12.7716503143311">
    <ele>1287.03747558594</ele>
    <time>2025-03-30T09:11:19Z</time>
   </trkpt>
   <trkpt lat="46.8541831970215" lon="12.7715482711792">
    <ele>1285.7431640625</ele>
    <time>2025-03-30T09:11:26Z</time>
   </trkpt>
   <trkpt lat="46.8542022705078" lon="12.7714939117432">
    <ele>1285.61218261719</ele>
    <time>2025-03-30T09:11:30Z</time>
   </trkpt>
   <trkpt lat="46.8542175292969" lon="12.7714509963989">
    <ele>1285.52880859375</ele>
    <time>2025-03-30T09:11:33Z</time>
   </trkpt>
   <trkpt lat="46.8542251586914" lon="12.7714204788208">
    <ele>1285.21826171875</ele>
    <time>2025-03-30T09:11:35Z</time>
   </trkpt>
   <trkpt lat="46.8542518615723" lon="12.7713470458984">
    <ele>1285.13500976562</ele>
    <time>2025-03-30T09:11:40Z</time>
   </trkpt>
   <trkpt lat="46.8542556762695" lon="12.7713317871094">
    <ele>1284.98217773438</ele>
    <time>2025-03-30T09:11:41Z</time>
   </trkpt>
   <trkpt lat="46.8542633056641" lon="12.7713041305542">
    <ele>1284.7626953125</ele>
    <time>2025-03-30T09:11:43Z</time>
   </trkpt>
   <trkpt lat="46.8542900085449" lon="12.7712154388428">
    <ele>1284.244140625</ele>
    <time>2025-03-30T09:11:48Z</time>
   </trkpt>
   <trkpt lat="46.8542900085449" lon="12.7711992263794">
    <ele>1283.76354980469</ele>
    <time>2025-03-30T09:11:49Z</time>
   </trkpt>
   <trkpt lat="46.8543090820312" lon="12.7711458206177">
    <ele>1283.69665527344</ele>
    <time>2025-03-30T09:11:52Z</time>
   </trkpt>
   <trkpt lat="46.854320526123" lon="12.771110534668">
    <ele>1283.5634765625</ele>
    <time>2025-03-30T09:11:54Z</time>
   </trkpt>
   <trkpt lat="46.8543281555176" lon="12.7710800170898">
    <ele>1283.26953125</ele>
    <time>2025-03-30T09:11:56Z</time>
   </trkpt>
   <trkpt lat="46.8543434143066" lon="12.7710456848145">
    <ele>1283.47290039062</ele>
    <time>2025-03-30T09:11:58Z</time>
   </trkpt>
   <trkpt lat="46.8543510437012" lon="12.7710008621216">
    <ele>1282.76086425781</ele>
    <time>2025-03-30T09:12:01Z</time>
   </trkpt>
   <trkpt lat="46.854362487793" lon="12.7709760665894">
    <ele>1282.94555664062</ele>
    <time>2025-03-30T09:12:03Z</time>
   </trkpt>
   <trkpt lat="46.8543815612793" lon="12.7709064483643">
    <ele>1282.42578125</ele>
    <time>2025-03-30T09:12:07Z</time>
   </trkpt>
   <trkpt lat="46.8543930053711" lon="12.7708368301392">
    <ele>1281.30029296875</ele>
    <time>2025-03-30T09:12:11Z</time>
   </trkpt>
   <trkpt lat="46.8544006347656" lon="12.770824432373">
    <ele>1281.53198242188</ele>
    <time>2025-03-30T09:12:12Z</time>
   </trkpt>
   <trkpt lat="46.8544235229492" lon="12.7707586288452">
    <ele>1281.29956054688</ele>
    <time>2025-03-30T09:12:16Z</time>
   </trkpt>
   <trkpt lat="46.854434967041" lon="12.7707281112671">
    <ele>1281.25207519531</ele>
    <time>2025-03-30T09:12:18Z</time>
   </trkpt>
   <trkpt lat="46.8544502258301" lon="12.7706651687622">
    <ele>1280.478515625</ele>
    <time>2025-03-30T09:12:22Z</time>
   </trkpt>
   <trkpt lat="46.8544578552246" lon="12.7706174850464">
    <ele>1279.57409667969</ele>
    <time>2025-03-30T09:12:25Z</time>
   </trkpt>
   <trkpt lat="46.8544654846191" lon="12.770583152771">
    <ele>1279.08898925781</ele>
    <time>2025-03-30T09:12:27Z</time>
   </trkpt>
   <trkpt lat="46.8544960021973" lon="12.7705059051514">
    <ele>1279.03466796875</ele>
    <time>2025-03-30T09:12:32Z</time>
   </trkpt>
   <trkpt lat="46.8545379638672" lon="12.7704095840454">
    <ele>1279.23352050781</ele>
    <time>2025-03-30T09:12:38Z</time>
   </trkpt>
   <trkpt lat="46.8545455932617" lon="12.7703905105591">
    <ele>1279.21447753906</ele>
    <time>2025-03-30T09:12:39Z</time>
   </trkpt>
   <trkpt lat="46.854564666748" lon="12.7703247070312">
    <ele>1278.57434082031</ele>
    <time>2025-03-30T09:12:43Z</time>
   </trkpt>
   <trkpt lat="46.8545875549316" lon="12.7702598571777">
    <ele>1278.24487304688</ele>
    <time>2025-03-30T09:12:47Z</time>
   </trkpt>
   <trkpt lat="46.8545913696289" lon="12.7702417373657">
    <ele>1277.95104980469</ele>
    <time>2025-03-30T09:12:48Z</time>
   </trkpt>
   <trkpt lat="46.8546180725098" lon="12.7701387405396">
    <ele>1276.64929199219</ele>
    <time>2025-03-30T09:12:53Z</time>
   </trkpt>
   <trkpt lat="46.8546257019043" lon="12.7701101303101">
    <ele>1276.29821777344</ele>
    <time>2025-03-30T09:12:55Z</time>
   </trkpt>
   <trkpt lat="46.8546371459961" lon="12.7700357437134">
    <ele>1274.73742675781</ele>
    <time>2025-03-30T09:13:00Z</time>
   </trkpt>
   <trkpt lat="46.8546409606934" lon="12.7700157165527">
    <ele>1274.37109375</ele>
    <time>2025-03-30T09:13:01Z</time>
   </trkpt>
   <trkpt lat="46.8546485900879" lon="12.7699289321899">
    <ele>1271.53894042969</ele>
    <time>2025-03-30T09:13:05Z</time>
   </trkpt>
   <trkpt lat="46.8546562194824" lon="12.7698421478271">
    <ele>1268.56042480469</ele>
    <time>2025-03-30T09:13:09Z</time>
   </trkpt>
   <trkpt lat="46.8546676635742" lon="12.7698030471802">
    <ele>1267.7890625</ele>
    <time>2025-03-30T09:13:11Z</time>
   </trkpt>
   <trkpt lat="46.8546867370606" lon="12.7697219848633">
    <ele>1265.81115722656</ele>
    <time>2025-03-30T09:13:16Z</time>
   </trkpt>
   <trkpt lat="46.8546943664551" lon="12.769702911377">
    <ele>1265.55932617188</ele>
    <time>2025-03-30T09:13:17Z</time>
   </trkpt>
   <trkpt lat="46.8547096252441" lon="12.7696294784546">
    <ele>1263.56640625</ele>
    <time>2025-03-30T09:13:21Z</time>
   </trkpt>
   <trkpt lat="46.8547210693359" lon="12.7695646286011">
    <ele>1261.63586425781</ele>
    <time>2025-03-30T09:13:25Z</time>
   </trkpt>
   <trkpt lat="46.8547248840332" lon="12.7695512771606">
    <ele>1261.33422851562</ele>
    <time>2025-03-30T09:13:26Z</time>
   </trkpt>
   <trkpt lat="46.8547630310059" lon="12.7694625854492">
    <ele>1260.134765625</ele>
    <time>2025-03-30T09:13:31Z</time>
   </trkpt>
   <trkpt lat="46.8547744750977" lon="12.7694444656372">
    <ele>1260.1162109375</ele>
    <time>2025-03-30T09:13:32Z</time>
   </trkpt>
   <trkpt lat="46.8547973632812" lon="12.7693738937378">
    <ele>1258.5712890625</ele>
    <time>2025-03-30T09:13:36Z</time>
   </trkpt>
   <trkpt lat="46.8548164367676" lon="12.7693395614624">
    <ele>1258.30895996094</ele>
    <time>2025-03-30T09:13:38Z</time>
   </trkpt>
   <trkpt lat="46.8548469543457" lon="12.7692546844482">
    <ele>1256.52001953125</ele>
    <time>2025-03-30T09:13:43Z</time>
   </trkpt>
   <trkpt lat="46.8548583984375" lon="12.7692022323608">
    <ele>1254.91137695312</ele>
    <time>2025-03-30T09:13:46Z</time>
   </trkpt>
   <trkpt lat="46.8548583984375" lon="12.7691879272461">
    <ele>1254.27697753906</ele>
    <time>2025-03-30T09:13:47Z</time>
   </trkpt>
   <trkpt lat="46.854866027832" lon="12.7690734863281">
    <ele>1250.10705566406</ele>
    <time>2025-03-30T09:13:53Z</time>
   </trkpt>
   <trkpt lat="46.8548889160156" lon="12.7689218521118">
    <ele>1245.4482421875</ele>
    <time>2025-03-30T09:14:00Z</time>
   </trkpt>
   <trkpt lat="46.8548965454102" lon="12.7689046859741">
    <ele>1245.21398925781</ele>
    <time>2025-03-30T09:14:01Z</time>
   </trkpt>
   <trkpt lat="46.8549194335938" lon="12.7688302993774">
    <ele>1243.57971191406</ele>
    <time>2025-03-30T09:14:05Z</time>
   </trkpt>
   <trkpt lat="46.8549270629883" lon="12.76877784729">
    <ele>1241.91748046875</ele>
    <time>2025-03-30T09:14:08Z</time>
   </trkpt>
   <trkpt lat="46.8549385070801" lon="12.7687425613403">
    <ele>1241.15844726562</ele>
    <time>2025-03-30T09:14:10Z</time>
   </trkpt>
   <trkpt lat="46.8549766540527" lon="12.76868724823">
    <ele>1241.10766601562</ele>
    <time>2025-03-30T09:14:14Z</time>
   </trkpt>
   <trkpt lat="46.8549842834473" lon="12.7686700820923">
    <ele>1240.84497070312</ele>
    <time>2025-03-30T09:14:15Z</time>
   </trkpt>
   <trkpt lat="46.8550186157227" lon="12.7686080932617">
    <ele>1239.81945800781</ele>
    <time>2025-03-30T09:14:19Z</time>
   </trkpt>
   <trkpt lat="46.855037689209" lon="12.7685642242432">
    <ele>1238.61584472656</ele>
    <time>2025-03-30T09:14:22Z</time>
   </trkpt>
   <trkpt lat="46.8550796508789" lon="12.7685012817383">
    <ele>1237.26330566406</ele>
    <time>2025-03-30T09:14:27Z</time>
   </trkpt>
   <trkpt lat="46.8551063537598" lon="12.7684450149536">
    <ele>1235.63806152344</ele>
    <time>2025-03-30T09:14:30Z</time>
   </trkpt>
   <trkpt lat="46.8551254272461" lon="12.7683944702148">
    <ele>1233.98229980469</ele>
    <time>2025-03-30T09:14:33Z</time>
   </trkpt>
   <trkpt lat="46.8551406860352" lon="12.7683506011963">
    <ele>1232.474609375</ele>
    <time>2025-03-30T09:14:36Z</time>
   </trkpt>
   <trkpt lat="46.855152130127" lon="12.7683143615723">
    <ele>1231.14123535156</ele>
    <time>2025-03-30T09:14:38Z</time>
   </trkpt>
   <trkpt lat="46.8551788330078" lon="12.7682304382324">
    <ele>1228.07421875</ele>
    <time>2025-03-30T09:14:43Z</time>
   </trkpt>
   <trkpt lat="46.8551826477051" lon="12.7681980133057">
    <ele>1226.72912597656</ele>
    <time>2025-03-30T09:14:45Z</time>
   </trkpt>
   <trkpt lat="46.8551750183106" lon="12.7681856155396">
    <ele>1225.92895507812</ele>
    <time>2025-03-30T09:14:48Z</time>
   </trkpt>
   <trkpt lat="46.855167388916" lon="12.7681798934937">
    <ele>1225.42614746094</ele>
    <time>2025-03-30T09:14:50Z</time>
   </trkpt>
   <trkpt lat="46.855167388916" lon="12.7681694030762">
    <ele>1224.94812011719</ele>
    <time>2025-03-30T09:14:51Z</time>
   </trkpt>
   <trkpt lat="46.855167388916" lon="12.7681398391724">
    <ele>1223.60070800781</ele>
    <time>2025-03-30T09:14:55Z</time>
   </trkpt>
   <trkpt lat="46.8551712036133" lon="12.7680969238281">
    <ele>1221.77807617188</ele>
    <time>2025-03-30T09:14:58Z</time>
   </trkpt>
   <trkpt lat="46.8551788330078" lon="12.7680768966675">
    <ele>1221.14001464844</ele>
    <time>2025-03-30T09:15:00Z</time>
   </trkpt>
   <trkpt lat="46.8551864624023" lon="12.7680406570435">
    <ele>1219.78515625</ele>
    <time>2025-03-30T09:15:06Z</time>
   </trkpt>
   <trkpt lat="46.8551902770996" lon="12.7680130004883">
    <ele>1218.68835449219</ele>
    <time>2025-03-30T09:15:09Z</time>
   </trkpt>
   <trkpt lat="46.8551979064941" lon="12.767972946167">
    <ele>1217.19641113281</ele>
    <time>2025-03-30T09:15:12Z</time>
   </trkpt>
   <trkpt lat="46.8552017211914" lon="12.7679653167725">
    <ele>1217.00830078125</ele>
    <time>2025-03-30T09:15:13Z</time>
   </trkpt>
   <trkpt lat="46.855224609375" lon="12.7679090499878">
    <ele>1215.46740722656</ele>
    <time>2025-03-30T09:15:16Z</time>
   </trkpt>
   <trkpt lat="46.8552360534668" lon="12.7678813934326">
    <ele>1214.75231933594</ele>
    <time>2025-03-30T09:15:18Z</time>
   </trkpt>
   <trkpt lat="46.8552513122559" lon="12.7678356170654">
    <ele>1213.45544433594</ele>
    <time>2025-03-30T09:15:22Z</time>
   </trkpt>
   <trkpt lat="46.8552589416504" lon="12.767822265625">
    <ele>1213.22912597656</ele>
    <time>2025-03-30T09:15:24Z</time>
   </trkpt>
   <trkpt lat="46.8552780151367" lon="12.7677907943726">
    <ele>1212.77465820312</ele>
    <time>2025-03-30T09:15:27Z</time>
   </trkpt>
   <trkpt lat="46.8553047180176" lon="12.7677364349365">
    <ele>1211.79248046875</ele>
    <time>2025-03-30T09:15:31Z</time>
   </trkpt>
   <trkpt lat="46.855354309082" lon="12.7676563262939">
    <ele>1211.05554199219</ele>
    <time>2025-03-30T09:15:38Z</time>
   </trkpt>
   <trkpt lat="46.8553657531738" lon="12.7676219940186">
    <ele>1210.31701660156</ele>
    <time>2025-03-30T09:15:43Z</time>
   </trkpt>
   <trkpt lat="46.8553695678711" lon="12.7676134109497">
    <ele>1210.18676757812</ele>
    <time>2025-03-30T09:15:44Z</time>
   </trkpt>
   <trkpt lat="46.8553771972656" lon="12.7675914764404">
    <ele>1209.751953125</ele>
    <time>2025-03-30T09:15:47Z</time>
   </trkpt>
   <trkpt lat="46.8553810119629" lon="12.7675800323486">
    <ele>1209.52099609375</ele>
    <time>2025-03-30T09:15:49Z</time>
   </trkpt>
   <trkpt lat="46.8553886413574" lon="12.7675638198853">
    <ele>1209.31958007812</ele>
    <time>2025-03-30T09:15:52Z</time>
   </trkpt>
   <trkpt lat="46.8553810119629" lon="12.767539024353">
    <ele>1207.96740722656</ele>
    <time>2025-03-30T09:15:56Z</time>
   </trkpt>
   <trkpt lat="46.8553695678711" lon="12.7675399780273">
    <ele>1207.37463378906</ele>
    <time>2025-03-30T09:16:00Z</time>
   </trkpt>
   <trkpt lat="46.8553733825684" lon="12.7675428390503">
    <ele>1207.69348144531</ele>
    <time>2025-03-30T09:16:02Z</time>
   </trkpt>
   <trkpt lat="46.8553619384766" lon="12.7675352096558">
    <ele>1206.77136230469</ele>
    <time>2025-03-30T09:16:05Z</time>
   </trkpt>
   <trkpt lat="46.855354309082" lon="12.7675275802612">
    <ele>1206.05444335938</ele>
    <time>2025-03-30T09:16:08Z</time>
   </trkpt>
   <trkpt lat="46.8553504943848" lon="12.7675256729126">
    <ele>1205.76867675781</ele>
    <time>2025-03-30T09:16:09Z</time>
   </trkpt>
   <trkpt lat="46.8553276062012" lon="12.7675313949585">
    <ele>1204.72668457031</ele>
    <time>2025-03-30T09:16:14Z</time>
   </trkpt>
   <trkpt lat="46.8553276062012" lon="12.7675342559814">
    <ele>1204.84057617188</ele>
    <time>2025-03-30T09:16:15Z</time>
   </trkpt>
   <trkpt lat="46.8553085327148" lon="12.7675485610962">
    <ele>1204.36767578125</ele>
    <time>2025-03-30T09:16:20Z</time>
   </trkpt>
   <trkpt lat="46.8553009033203" lon="12.7675476074219">
    <ele>1203.91174316406</ele>
    <time>2025-03-30T09:16:21Z</time>
   </trkpt>
   <trkpt lat="46.855281829834" lon="12.7675409317017">
    <ele>1202.59204101562</ele>
    <time>2025-03-30T09:16:25Z</time>
   </trkpt>
   <trkpt lat="46.855281829834" lon="12.7675485610962">
    <ele>1202.908203125</ele>
    <time>2025-03-30T09:16:27Z</time>
   </trkpt>
   <trkpt lat="46.8552742004394" lon="12.7675590515137">
    <ele>1202.92907714844</ele>
    <time>2025-03-30T09:16:30Z</time>
   </trkpt>
   <trkpt lat="46.8552665710449" lon="12.7675676345825">
    <ele>1202.87548828125</ele>
    <time>2025-03-30T09:16:31Z</time>
   </trkpt>
   <trkpt lat="46.8552589416504" lon="12.7675952911377">
    <ele>1203.63305664062</ele>
    <time>2025-03-30T09:16:36Z</time>
   </trkpt>
   <trkpt lat="46.8552474975586" lon="12.7675943374634">
    <ele>1202.98608398438</ele>
    <time>2025-03-30T09:16:37Z</time>
   </trkpt>
   <trkpt lat="46.8552131652832" lon="12.7675914764404">
    <ele>1201.04077148438</ele>
    <time>2025-03-30T09:16:41Z</time>
   </trkpt>
   <trkpt lat="46.8551979064941" lon="12.7676010131836">
    <ele>1200.65454101562</ele>
    <time>2025-03-30T09:16:43Z</time>
   </trkpt>
   <trkpt lat="46.8551788330078" lon="12.7676067352295">
    <ele>1199.90661621094</ele>
    <time>2025-03-30T09:16:45Z</time>
   </trkpt>
   <trkpt lat="46.855152130127" lon="12.7676448822021">
    <ele>1200.26257324219</ele>
    <time>2025-03-30T09:16:50Z</time>
   </trkpt>
   <trkpt lat="46.8551330566406" lon="12.7676496505737">
    <ele>1199.50952148438</ele>
    <time>2025-03-30T09:16:53Z</time>
   </trkpt>
   <trkpt lat="46.8551139831543" lon="12.767671585083">
    <ele>1199.57836914062</ele>
    <time>2025-03-30T09:16:56Z</time>
   </trkpt>
   <trkpt lat="46.8550987243652" lon="12.7676773071289">
    <ele>1199.0869140625</ele>
    <time>2025-03-30T09:16:58Z</time>
   </trkpt>
   <trkpt lat="46.8550605773926" lon="12.7676820755005">
    <ele>1197.41455078125</ele>
    <time>2025-03-30T09:17:03Z</time>
   </trkpt>
   <trkpt lat="46.8550491333008" lon="12.7676935195923">
    <ele>1197.41442871094</ele>
    <time>2025-03-30T09:17:04Z</time>
   </trkpt>
   <trkpt lat="46.8550033569336" lon="12.7677068710327">
    <ele>1195.8388671875</ele>
    <time>2025-03-30T09:17:09Z</time>
   </trkpt>
   <trkpt lat="46.8549766540527" lon="12.7677192687988">
    <ele>1195.32189941406</ele>
    <time>2025-03-30T09:17:12Z</time>
   </trkpt>
   <trkpt lat="46.8549423217773" lon="12.7677326202393">
    <ele>1194.53723144531</ele>
    <time>2025-03-30T09:17:16Z</time>
   </trkpt>
   <trkpt lat="46.8549346923828" lon="12.7677335739136">
    <ele>1194.25903320312</ele>
    <time>2025-03-30T09:17:17Z</time>
   </trkpt>
   <trkpt lat="46.8549156188965" lon="12.7677459716797">
    <ele>1194.06335449219</ele>
    <time>2025-03-30T09:17:20Z</time>
   </trkpt>
   <trkpt lat="46.8548736572266" lon="12.7677602767944">
    <ele>1192.96313476562</ele>
    <time>2025-03-30T09:17:24Z</time>
   </trkpt>
   <trkpt lat="46.8548622131348" lon="12.767765045166">
    <ele>1192.70166015625</ele>
    <time>2025-03-30T09:17:25Z</time>
   </trkpt>
   <trkpt lat="46.8548278808594" lon="12.7677888870239">
    <ele>1192.36633300781</ele>
    <time>2025-03-30T09:17:29Z</time>
   </trkpt>
   <trkpt lat="46.8548126220703" lon="12.76780128479">
    <ele>1192.29418945312</ele>
    <time>2025-03-30T09:17:31Z</time>
   </trkpt>
   <trkpt lat="46.854793548584" lon="12.7678184509277">
    <ele>1192.27355957031</ele>
    <time>2025-03-30T09:17:33Z</time>
   </trkpt>
   <trkpt lat="46.8547706604004" lon="12.7678442001343">
    <ele>1192.47631835938</ele>
    <time>2025-03-30T09:17:36Z</time>
   </trkpt>
   <trkpt lat="46.8547668457031" lon="12.7678527832031">
    <ele>1192.71069335938</ele>
    <time>2025-03-30T09:17:37Z</time>
   </trkpt>
   <trkpt lat="46.8547401428223" lon="12.7678699493408">
    <ele>1192.31127929688</ele>
    <time>2025-03-30T09:17:41Z</time>
   </trkpt>
   <trkpt lat="46.8547210693359" lon="12.7678890228271">
    <ele>1192.33129882812</ele>
    <time>2025-03-30T09:17:44Z</time>
   </trkpt>
   <trkpt lat="46.8547172546387" lon="12.767894744873">
    <ele>1192.42199707031</ele>
    <time>2025-03-30T09:17:46Z</time>
   </trkpt>
   <trkpt lat="46.8547096252441" lon="12.7679138183594">
    <ele>1192.95324707031</ele>
    <time>2025-03-30T09:17:47Z</time>
   </trkpt>
   <trkpt lat="46.8547019958496" lon="12.7679290771484">
    <ele>1193.30334472656</ele>
    <time>2025-03-30T09:17:49Z</time>
   </trkpt>
   <trkpt lat="46.8546867370606" lon="12.7679529190063">
    <ele>1193.68530273438</ele>
    <time>2025-03-30T09:17:52Z</time>
   </trkpt>
   <trkpt lat="46.8546562194824" lon="12.767972946167">
    <ele>1193.1591796875</ele>
    <time>2025-03-30T09:17:55Z</time>
   </trkpt>
   <trkpt lat="46.8546333312988" lon="12.7679862976074">
    <ele>1192.67492675781</ele>
    <time>2025-03-30T09:17:58Z</time>
   </trkpt>
   <trkpt lat="46.8546257019043" lon="12.7679929733276">
    <ele>1192.61022949219</ele>
    <time>2025-03-30T09:18:01Z</time>
   </trkpt>
   <trkpt lat="46.854621887207" lon="12.7679996490479">
    <ele>1192.72570800781</ele>
    <time>2025-03-30T09:18:02Z</time>
   </trkpt>
   <trkpt lat="46.8545913696289" lon="12.7680225372314">
    <ele>1192.27429199219</ele>
    <time>2025-03-30T09:18:08Z</time>
   </trkpt>
   <trkpt lat="46.8545837402344" lon="12.7680339813232">
    <ele>1192.40808105469</ele>
    <time>2025-03-30T09:18:09Z</time>
   </trkpt>
   <trkpt lat="46.8545684814453" lon="12.7680654525757">
    <ele>1193.03930664062</ele>
    <time>2025-03-30T09:18:12Z</time>
   </trkpt>
   <trkpt lat="46.854549407959" lon="12.7680969238281">
    <ele>1193.46337890625</ele>
    <time>2025-03-30T09:18:15Z</time>
   </trkpt>
   <trkpt lat="46.8545379638672" lon="12.7681083679199">
    <ele>1193.38757324219</ele>
    <time>2025-03-30T09:18:16Z</time>
   </trkpt>
   <trkpt lat="46.8544883728027" lon="12.7681560516357">
    <ele>1192.92236328125</ele>
    <time>2025-03-30T09:18:21Z</time>
   </trkpt>
   <trkpt lat="46.8544769287109" lon="12.7681646347046">
    <ele>1192.701171875</ele>
    <time>2025-03-30T09:18:22Z</time>
   </trkpt>
   <trkpt lat="46.8544578552246" lon="12.7681941986084">
    <ele>1192.95690917969</ele>
    <time>2025-03-30T09:18:26Z</time>
   </trkpt>
   <trkpt lat="46.8544311523438" lon="12.7682323455811">
    <ele>1193.14660644531</ele>
    <time>2025-03-30T09:18:29Z</time>
   </trkpt>
   <trkpt lat="46.8544235229492" lon="12.7682466506958">
    <ele>1193.33288574219</ele>
    <time>2025-03-30T09:18:30Z</time>
   </trkpt>
   <trkpt lat="46.8543472290039" lon="12.7682771682739">
    <ele>1190.53857421875</ele>
    <time>2025-03-30T09:18:36Z</time>
   </trkpt>
   <trkpt lat="46.8542785644531" lon="12.768307685852">
    <ele>1188.0654296875</ele>
    <time>2025-03-30T09:18:42Z</time>
   </trkpt>
   <trkpt lat="46.8542671203613" lon="12.7683181762695">
    <ele>1187.85034179688</ele>
    <time>2025-03-30T09:18:43Z</time>
   </trkpt>
   <trkpt lat="46.8542098999023" lon="12.7683525085449">
    <ele>1185.98608398438</ele>
    <time>2025-03-30T09:18:48Z</time>
   </trkpt>
   <trkpt lat="46.8541946411133" lon="12.7683658599854">
    <ele>1185.611328125</ele>
    <time>2025-03-30T09:18:49Z</time>
   </trkpt>
   <trkpt lat="46.8541564941406" lon="12.7684240341187">
    <ele>1185.47668457031</ele>
    <time>2025-03-30T09:18:54Z</time>
   </trkpt>
   <trkpt lat="46.8541526794434" lon="12.7684326171875">
    <ele>1185.5498046875</ele>
    <time>2025-03-30T09:18:57Z</time>
   </trkpt>
   <trkpt lat="46.854133605957" lon="12.7684564590454">
    <ele>1185.27099609375</ele>
    <time>2025-03-30T09:19:00Z</time>
   </trkpt>
   <trkpt lat="46.8541145324707" lon="12.7684650421143">
    <ele>1184.47839355469</ele>
    <time>2025-03-30T09:19:01Z</time>
   </trkpt>
   <trkpt lat="46.8541030883789" lon="12.7684698104858">
    <ele>1183.98864746094</ele>
    <time>2025-03-30T09:19:06Z</time>
   </trkpt>
   <trkpt lat="46.8541030883789" lon="12.7684698104858">
    <ele>1183.98864746094</ele>
    <time>2025-03-30T09:19:15Z</time>
   </trkpt>
   <trkpt lat="46.8540954589844" lon="12.7684726715088">
    <ele>1183.65112304688</ele>
    <time>2025-03-30T09:19:17Z</time>
   </trkpt>
   <trkpt lat="46.8541030883789" lon="12.7684698104858">
    <ele>1183.98864746094</ele>
    <time>2025-03-30T09:19:20Z</time>
   </trkpt>
   <trkpt lat="46.8541030883789" lon="12.7684698104858">
    <ele>1183.98864746094</ele>
    <time>2025-03-30T09:19:22Z</time>
   </trkpt>
   <trkpt lat="46.8541030883789" lon="12.7684698104858">
    <ele>1183.98864746094</ele>
    <time>2025-03-30T09:19:30Z</time>
   </trkpt>
   <trkpt lat="46.8541030883789" lon="12.7684698104858">
    <ele>1183.98864746094</ele>
    <time>2025-03-30T09:19:31Z</time>
   </trkpt>
   <trkpt lat="46.8541030883789" lon="12.7684698104858">
    <ele>1183.98864746094</ele>
    <time>2025-03-30T09:19:39Z</time>
   </trkpt>
   <trkpt lat="46.8540954589844" lon="12.7684755325317">
    <ele>1183.7451171875</ele>
    <time>2025-03-30T09:19:51Z</time>
   </trkpt>
   <trkpt lat="46.8540992736816" lon="12.7684717178345">
    <ele>1183.83557128906</ele>
    <time>2025-03-30T09:20:02Z</time>
   </trkpt>
   <trkpt lat="46.8541030883789" lon="12.7684698104858">
    <ele>1183.98864746094</ele>
    <time>2025-03-30T09:20:14Z</time>
   </trkpt>
   <trkpt lat="46.8541145324707" lon="12.7684679031372">
    <ele>1184.57299804688</ele>
    <time>2025-03-30T09:20:22Z</time>
   </trkpt>
   <trkpt lat="46.8540802001953" lon="12.7684946060181">
    <ele>1183.50524902344</ele>
    <time>2025-03-30T09:20:32Z</time>
   </trkpt>
   <trkpt lat="46.8540229797363" lon="12.768515586853">
    <ele>1180.92822265625</ele>
    <time>2025-03-30T09:20:38Z</time>
   </trkpt>
   <trkpt lat="46.8540115356445" lon="12.7685194015503">
    <ele>1180.39770507812</ele>
    <time>2025-03-30T09:20:39Z</time>
   </trkpt>
   <trkpt lat="46.8539886474609" lon="12.7685356140137">
    <ele>1179.60693359375</ele>
    <time>2025-03-30T09:20:43Z</time>
   </trkpt>
   <trkpt lat="46.8539657592773" lon="12.768557548523">
    <ele>1178.98950195312</ele>
    <time>2025-03-30T09:20:46Z</time>
   </trkpt>
   <trkpt lat="46.853946685791" lon="12.7685680389404">
    <ele>1178.22277832031</ele>
    <time>2025-03-30T09:20:48Z</time>
   </trkpt>
   <trkpt lat="46.8539199829102" lon="12.7685918807983">
    <ele>1177.42736816406</ele>
    <time>2025-03-30T09:20:52Z</time>
   </trkpt>
   <trkpt lat="46.8539123535156" lon="12.7685966491699">
    <ele>1177.13427734375</ele>
    <time>2025-03-30T09:20:53Z</time>
   </trkpt>
   <trkpt lat="46.8538818359375" lon="12.7686204910278">
    <ele>1176.10144042969</ele>
    <time>2025-03-30T09:20:57Z</time>
   </trkpt>
   <trkpt lat="46.8538703918457" lon="12.768630027771">
    <ele>1175.728515625</ele>
    <time>2025-03-30T09:20:59Z</time>
   </trkpt>
   <trkpt lat="46.8538551330566" lon="12.768648147583">
    <ele>1175.39245605469</ele>
    <time>2025-03-30T09:21:01Z</time>
   </trkpt>
   <trkpt lat="46.8538246154785" lon="12.768684387207">
    <ele>1174.70373535156</ele>
    <time>2025-03-30T09:21:04Z</time>
   </trkpt>
   <trkpt lat="46.853816986084" lon="12.768702507019">
    <ele>1174.80065917969</ele>
    <time>2025-03-30T09:21:05Z</time>
   </trkpt>
   <trkpt lat="46.8537826538086" lon="12.7687387466431">
    <ele>1173.85510253906</ele>
    <time>2025-03-30T09:21:09Z</time>
   </trkpt>
   <trkpt lat="46.8537750244141" lon="12.7687463760376">
    <ele>1173.62902832031</ele>
    <time>2025-03-30T09:21:10Z</time>
   </trkpt>
   <trkpt lat="46.8537254333496" lon="12.768798828125">
    <ele>1172.21423339844</ele>
    <time>2025-03-30T09:21:16Z</time>
   </trkpt>
   <trkpt lat="46.8537063598633" lon="12.7688083648682">
    <ele>1171.34802246094</ele>
    <time>2025-03-30T09:21:18Z</time>
   </trkpt>
   <trkpt lat="46.8536720275879" lon="12.7688484191895">
    <ele>1170.4345703125</ele>
    <time>2025-03-30T09:21:22Z</time>
   </trkpt>
   <trkpt lat="46.8536338806152" lon="12.7688894271851">
    <ele>1169.28845214844</ele>
    <time>2025-03-30T09:21:26Z</time>
   </trkpt>
   <trkpt lat="46.8536224365234" lon="12.7688980102539">
    <ele>1168.83386230469</ele>
    <time>2025-03-30T09:21:28Z</time>
   </trkpt>
   <trkpt lat="46.8535766601562" lon="12.7689332962036">
    <ele>1167.02221679688</ele>
    <time>2025-03-30T09:21:34Z</time>
   </trkpt>
   <trkpt lat="46.8535690307617" lon="12.7689552307129">
    <ele>1167.15979003906</ele>
    <time>2025-03-30T09:21:36Z</time>
   </trkpt>
   <trkpt lat="46.8535499572754" lon="12.7689666748047">
    <ele>1166.30078125</ele>
    <time>2025-03-30T09:21:38Z</time>
   </trkpt>
   <trkpt lat="46.8535346984863" lon="12.7689743041992">
    <ele>1165.56884765625</ele>
    <time>2025-03-30T09:21:40Z</time>
   </trkpt>
   <trkpt lat="46.8535079956055" lon="12.7689914703369">
    <ele>1164.38513183594</ele>
    <time>2025-03-30T09:21:44Z</time>
   </trkpt>
   <trkpt lat="46.8534965515137" lon="12.7690019607544">
    <ele>1163.95910644531</ele>
    <time>2025-03-30T09:21:46Z</time>
   </trkpt>
   <trkpt lat="46.8534812927246" lon="12.7690124511719">
    <ele>1163.2939453125</ele>
    <time>2025-03-30T09:21:48Z</time>
   </trkpt>
   <trkpt lat="46.8534317016602" lon="12.7690677642822">
    <ele>1161.66577148438</ele>
    <time>2025-03-30T09:21:55Z</time>
   </trkpt>
   <trkpt lat="46.8534088134766" lon="12.7691125869751">
    <ele>1161.39660644531</ele>
    <time>2025-03-30T09:22:00Z</time>
   </trkpt>
   <trkpt lat="46.8533821105957" lon="12.7691431045532">
    <ele>1160.49682617188</ele>
    <time>2025-03-30T09:22:04Z</time>
   </trkpt>
   <trkpt lat="46.8533554077148" lon="12.7691507339478">
    <ele>1158.99890136719</ele>
    <time>2025-03-30T09:22:07Z</time>
   </trkpt>
   <trkpt lat="46.8533477783203" lon="12.7691421508789">
    <ele>1158.29736328125</ele>
    <time>2025-03-30T09:22:08Z</time>
   </trkpt>
   <trkpt lat="46.8533363342285" lon="12.769118309021">
    <ele>1156.97082519531</ele>
    <time>2025-03-30T09:22:12Z</time>
   </trkpt>
   <trkpt lat="46.8533401489258" lon="12.7691068649292">
    <ele>1156.92236328125</ele>
    <time>2025-03-30T09:22:13Z</time>
   </trkpt>
   <trkpt lat="46.8533363342285" lon="12.7691011428833">
    <ele>1156.53771972656</ele>
    <time>2025-03-30T09:22:14Z</time>
   </trkpt>
   <trkpt lat="46.8533325195312" lon="12.7690849304199">
    <ele>1155.89099121094</ele>
    <time>2025-03-30T09:22:17Z</time>
   </trkpt>
   <trkpt lat="46.8533248901367" lon="12.7690944671631">
    <ele>1155.66906738281</ele>
    <time>2025-03-30T09:22:20Z</time>
   </trkpt>
   <trkpt lat="46.8533210754394" lon="12.769097328186">
    <ele>1155.50988769531</ele>
    <time>2025-03-30T09:22:21Z</time>
   </trkpt>
   <trkpt lat="46.8533096313477" lon="12.7691068649292">
    <ele>1155.0546875</ele>
    <time>2025-03-30T09:22:24Z</time>
   </trkpt>
   <trkpt lat="46.8532867431641" lon="12.7691040039062">
    <ele>1153.59484863281</ele>
    <time>2025-03-30T09:22:27Z</time>
   </trkpt>
   <trkpt lat="46.8532829284668" lon="12.7690963745117">
    <ele>1153.17443847656</ele>
    <time>2025-03-30T09:22:28Z</time>
   </trkpt>
   <trkpt lat="46.8532752990723" lon="12.7690877914429">
    <ele>1152.50024414062</ele>
    <time>2025-03-30T09:22:29Z</time>
   </trkpt>
   <trkpt lat="46.8532600402832" lon="12.7690954208374">
    <ele>1151.76416015625</ele>
    <time>2025-03-30T09:22:32Z</time>
   </trkpt>
   <trkpt lat="46.8532409667969" lon="12.7690954208374">
    <ele>1150.60864257812</ele>
    <time>2025-03-30T09:22:35Z</time>
   </trkpt>
   <trkpt lat="46.8532371520996" lon="12.7691020965576">
    <ele>1150.54016113281</ele>
    <time>2025-03-30T09:22:36Z</time>
   </trkpt>
   <trkpt lat="46.853214263916" lon="12.7691316604614">
    <ele>1149.86682128906</ele>
    <time>2025-03-30T09:22:40Z</time>
   </trkpt>
   <trkpt lat="46.8531913757324" lon="12.7691526412964">
    <ele>1148.97595214844</ele>
    <time>2025-03-30T09:22:43Z</time>
   </trkpt>
   <trkpt lat="46.8531837463379" lon="12.7691497802734">
    <ele>1148.44152832031</ele>
    <time>2025-03-30T09:22:44Z</time>
   </trkpt>
   <trkpt lat="46.8531761169434" lon="12.7691402435303">
    <ele>1147.74841308594</ele>
    <time>2025-03-30T09:22:45Z</time>
   </trkpt>
   <trkpt lat="46.8531608581543" lon="12.7691268920898">
    <ele>1146.50146484375</ele>
    <time>2025-03-30T09:22:48Z</time>
   </trkpt>
   <trkpt lat="46.853141784668" lon="12.7691240310669">
    <ele>1145.27331542969</ele>
    <time>2025-03-30T09:22:50Z</time>
   </trkpt>
   <trkpt lat="46.8531265258789" lon="12.7691278457642">
    <ele>1144.43444824219</ele>
    <time>2025-03-30T09:22:53Z</time>
   </trkpt>
   <trkpt lat="46.8531150817871" lon="12.7691345214844">
    <ele>1143.8935546875</ele>
    <time>2025-03-30T09:22:54Z</time>
   </trkpt>
   <trkpt lat="46.8530960083008" lon="12.7691535949707">
    <ele>1143.17309570312</ele>
    <time>2025-03-30T09:22:57Z</time>
   </trkpt>
   <trkpt lat="46.8530731201172" lon="12.7691822052002">
    <ele>1142.45837402344</ele>
    <time>2025-03-30T09:23:00Z</time>
   </trkpt>
   <trkpt lat="46.8530693054199" lon="12.7692108154297">
    <ele>1142.92834472656</ele>
    <time>2025-03-30T09:23:03Z</time>
   </trkpt>
   <trkpt lat="46.8530616760254" lon="12.7692251205444">
    <ele>1142.80651855469</ele>
    <time>2025-03-30T09:23:06Z</time>
   </trkpt>
   <trkpt lat="46.8530502319336" lon="12.7692489624023">
    <ele>1142.67529296875</ele>
    <time>2025-03-30T09:23:09Z</time>
   </trkpt>
   <trkpt lat="46.8530311584473" lon="12.769250869751">
    <ele>1141.52893066406</ele>
    <time>2025-03-30T09:23:11Z</time>
   </trkpt>
   <trkpt lat="46.8530235290527" lon="12.7692375183105">
    <ele>1140.73278808594</ele>
    <time>2025-03-30T09:23:12Z</time>
   </trkpt>
   <trkpt lat="46.8530158996582" lon="12.7691946029663">
    <ele>1139.23718261719</ele>
    <time>2025-03-30T09:23:15Z</time>
   </trkpt>
   <trkpt lat="46.8530120849609" lon="12.7691793441772">
    <ele>1138.64025878906</ele>
    <time>2025-03-30T09:23:16Z</time>
   </trkpt>
   <trkpt lat="46.8529968261719" lon="12.7691259384155">
    <ele>1136.49780273438</ele>
    <time>2025-03-30T09:23:21Z</time>
   </trkpt>
   <trkpt lat="46.8530044555664" lon="12.7690906524658">
    <ele>1136.17309570312</ele>
    <time>2025-03-30T09:23:25Z</time>
   </trkpt>
   <trkpt lat="46.8530120849609" lon="12.7690734863281">
    <ele>1136.25012207031</ele>
    <time>2025-03-30T09:23:28Z</time>
   </trkpt>
   <trkpt lat="46.8529815673828" lon="12.7690753936768">
    <ele>1134.44921875</ele>
    <time>2025-03-30T09:23:35Z</time>
   </trkpt>
   <trkpt lat="46.8529739379883" lon="12.7690324783325">
    <ele>1133.04016113281</ele>
    <time>2025-03-30T09:23:39Z</time>
   </trkpt>
   <trkpt lat="46.8529891967773" lon="12.7690114974976">
    <ele>1133.48999023438</ele>
    <time>2025-03-30T09:23:41Z</time>
   </trkpt>
   <trkpt lat="46.8529891967773" lon="12.7689943313599">
    <ele>1133.1083984375</ele>
    <time>2025-03-30T09:23:43Z</time>
   </trkpt>
   <trkpt lat="46.8529853820801" lon="12.7689943313599">
    <ele>1132.88061523438</ele>
    <time>2025-03-30T09:23:45Z</time>
   </trkpt>
   <trkpt lat="46.852970123291" lon="12.7690181732178">
    <ele>1132.49548339844</ele>
    <time>2025-03-30T09:23:49Z</time>
   </trkpt>
   <trkpt lat="46.8529586791992" lon="12.7690210342407">
    <ele>1131.87268066406</ele>
    <time>2025-03-30T09:23:51Z</time>
   </trkpt>
   <trkpt lat="46.8529510498047" lon="12.7690286636353">
    <ele>1131.58239746094</ele>
    <time>2025-03-30T09:23:53Z</time>
   </trkpt>
   <trkpt lat="46.8529319763184" lon="12.769045829773">
    <ele>1130.81091308594</ele>
    <time>2025-03-30T09:23:57Z</time>
   </trkpt>
   <trkpt lat="46.8529052734375" lon="12.7690601348877">
    <ele>1129.51208496094</ele>
    <time>2025-03-30T09:24:01Z</time>
   </trkpt>
   <trkpt lat="46.852897644043" lon="12.7690658569336">
    <ele>1129.17492675781</ele>
    <time>2025-03-30T09:24:03Z</time>
   </trkpt>
   <trkpt lat="46.8528861999512" lon="12.7690811157227">
    <ele>1128.81005859375</ele>
    <time>2025-03-30T09:24:06Z</time>
   </trkpt>
   <trkpt lat="46.8528709411621" lon="12.7690887451172">
    <ele>1128.04931640625</ele>
    <time>2025-03-30T09:24:09Z</time>
   </trkpt>
   <trkpt lat="46.8528633117676" lon="12.7691059112549">
    <ele>1127.95031738281</ele>
    <time>2025-03-30T09:24:11Z</time>
   </trkpt>
   <trkpt lat="46.852855682373" lon="12.7691411972046">
    <ele>1128.23107910156</ele>
    <time>2025-03-30T09:24:14Z</time>
   </trkpt>
   <trkpt lat="46.8528518676758" lon="12.7691516876221">
    <ele>1128.21911621094</ele>
    <time>2025-03-30T09:24:15Z</time>
   </trkpt>
   <trkpt lat="46.8528327941894" lon="12.7691564559937">
    <ele>1127.15380859375</ele>
    <time>2025-03-30T09:24:18Z</time>
   </trkpt>
   <trkpt lat="46.8528213500977" lon="12.7691602706909">
    <ele>1126.53369140625</ele>
    <time>2025-03-30T09:24:21Z</time>
   </trkpt>
   <trkpt lat="46.8528175354004" lon="12.7691583633423">
    <ele>1126.26098632812</ele>
    <time>2025-03-30T09:24:23Z</time>
   </trkpt>
   <trkpt lat="46.8528022766113" lon="12.7691698074341">
    <ele>1125.56335449219</ele>
    <time>2025-03-30T09:24:27Z</time>
   </trkpt>
   <trkpt lat="46.8527946472168" lon="12.7691698074341">
    <ele>1125.09606933594</ele>
    <time>2025-03-30T09:24:28Z</time>
   </trkpt>
   <trkpt lat="46.8527526855469" lon="12.7691688537598">
    <ele>1122.50720214844</ele>
    <time>2025-03-30T09:24:33Z</time>
   </trkpt>
   <trkpt lat="46.8527336120606" lon="12.7691669464111">
    <ele>1121.30249023438</ele>
    <time>2025-03-30T09:24:35Z</time>
   </trkpt>
   <trkpt lat="46.852710723877" lon="12.7691717147827">
    <ele>1119.99194335938</ele>
    <time>2025-03-30T09:24:37Z</time>
   </trkpt>
   <trkpt lat="46.8526802062988" lon="12.7691841125488">
    <ele>1118.3505859375</ele>
    <time>2025-03-30T09:24:41Z</time>
   </trkpt>
   <trkpt lat="46.8526573181152" lon="12.7691955566406">
    <ele>1117.15051269531</ele>
    <time>2025-03-30T09:24:45Z</time>
   </trkpt>
   <trkpt lat="46.852653503418" lon="12.7691965103149">
    <ele>1116.93249511719</ele>
    <time>2025-03-30T09:24:46Z</time>
   </trkpt>
   <trkpt lat="46.8526268005371" lon="12.7692108154297">
    <ele>1115.53759765625</ele>
    <time>2025-03-30T09:24:50Z</time>
   </trkpt>
   <trkpt lat="46.8526077270508" lon="12.7692260742188">
    <ele>1114.62097167969</ele>
    <time>2025-03-30T09:24:52Z</time>
   </trkpt>
   <trkpt lat="46.8525924682617" lon="12.7692384719849">
    <ele>1113.88439941406</ele>
    <time>2025-03-30T09:24:54Z</time>
   </trkpt>
   <trkpt lat="46.8525657653809" lon="12.7692794799805">
    <ele>1112.90222167969</ele>
    <time>2025-03-30T09:24:58Z</time>
   </trkpt>
   <trkpt lat="46.8525505065918" lon="12.7693176269531">
    <ele>1112.56677246094</ele>
    <time>2025-03-30T09:25:02Z</time>
   </trkpt>
   <trkpt lat="46.8525390625" lon="12.7693567276001">
    <ele>1112.47314453125</ele>
    <time>2025-03-30T09:25:06Z</time>
   </trkpt>
   <trkpt lat="46.8525199890137" lon="12.7694187164307">
    <ele>1112.23510742188</ele>
    <time>2025-03-30T09:25:11Z</time>
   </trkpt>
   <trkpt lat="46.8525161743164" lon="12.7694368362427">
    <ele>1112.27368164062</ele>
    <time>2025-03-30T09:25:14Z</time>
   </trkpt>
   <trkpt lat="46.8525085449219" lon="12.7694463729858">
    <ele>1111.92419433594</ele>
    <time>2025-03-30T09:25:15Z</time>
   </trkpt>
   <trkpt lat="46.8525047302246" lon="12.7694873809814">
    <ele>1112.31665039062</ele>
    <time>2025-03-30T09:25:19Z</time>
   </trkpt>
   <trkpt lat="46.8525047302246" lon="12.7695016860962">
    <ele>1112.54089355469</ele>
    <time>2025-03-30T09:25:20Z</time>
   </trkpt>
   <trkpt lat="46.8525009155273" lon="12.7695331573486">
    <ele>1112.77856445312</ele>
    <time>2025-03-30T09:25:24Z</time>
   </trkpt>
   <trkpt lat="46.8525009155273" lon="12.7695512771606">
    <ele>1113.0615234375</ele>
    <time>2025-03-30T09:25:25Z</time>
   </trkpt>
   <trkpt lat="46.8524971008301" lon="12.7695875167847">
    <ele>1113.35827636719</ele>
    <time>2025-03-30T09:25:29Z</time>
   </trkpt>
   <trkpt lat="46.8524971008301" lon="12.7695999145508">
    <ele>1113.55187988281</ele>
    <time>2025-03-30T09:25:30Z</time>
   </trkpt>
   <trkpt lat="46.8525123596191" lon="12.7696495056152">
    <ele>1115.38317871094</ele>
    <time>2025-03-30T09:25:34Z</time>
   </trkpt>
   <trkpt lat="46.8525085449219" lon="12.7696599960327">
    <ele>1115.28564453125</ele>
    <time>2025-03-30T09:25:36Z</time>
   </trkpt>
   <trkpt lat="46.8524932861328" lon="12.769702911377">
    <ele>1114.88952636719</ele>
    <time>2025-03-30T09:25:40Z</time>
   </trkpt>
   <trkpt lat="46.8524856567383" lon="12.7697372436523">
    <ele>1114.88647460938</ele>
    <time>2025-03-30T09:25:43Z</time>
   </trkpt>
   <trkpt lat="46.8524856567383" lon="12.7697448730469">
    <ele>1115.005859375</ele>
    <time>2025-03-30T09:25:44Z</time>
   </trkpt>
   <trkpt lat="46.8524627685547" lon="12.7697858810425">
    <ele>1114.03405761719</ele>
    <time>2025-03-30T09:25:49Z</time>
   </trkpt>
   <trkpt lat="46.8524513244629" lon="12.7697944641113">
    <ele>1113.36254882812</ele>
    <time>2025-03-30T09:25:50Z</time>
   </trkpt>
   <trkpt lat="46.8524322509766" lon="12.7698488235474">
    <ele>1112.88208007812</ele>
    <time>2025-03-30T09:25:54Z</time>
   </trkpt>
   <trkpt lat="46.8524322509766" lon="12.7698526382446">
    <ele>1112.94274902344</ele>
    <time>2025-03-30T09:25:55Z</time>
   </trkpt>
   <trkpt lat="46.8524055480957" lon="12.7698822021484">
    <ele>1111.54040527344</ele>
    <time>2025-03-30T09:25:58Z</time>
   </trkpt>
   <trkpt lat="46.8523902893066" lon="12.7698831558228">
    <ele>1110.48596191406</ele>
    <time>2025-03-30T09:26:00Z</time>
   </trkpt>
   <trkpt lat="46.8523445129394" lon="12.7698850631714">
    <ele>1107.30786132812</ele>
    <time>2025-03-30T09:26:05Z</time>
   </trkpt>
   <trkpt lat="46.8523330688477" lon="12.769889831543">
    <ele>1106.58349609375</ele>
    <time>2025-03-30T09:26:07Z</time>
   </trkpt>
   <trkpt lat="46.8523101806641" lon="12.7699127197266">
    <ele>1105.35546875</ele>
    <time>2025-03-30T09:26:10Z</time>
   </trkpt>
   <trkpt lat="46.852294921875" lon="12.7699317932129">
    <ele>1104.60205078125</ele>
    <time>2025-03-30T09:26:12Z</time>
   </trkpt>
   <trkpt lat="46.8522796630859" lon="12.7699556350708">
    <ele>1103.93017578125</ele>
    <time>2025-03-30T09:26:14Z</time>
   </trkpt>
   <trkpt lat="46.8522453308106" lon="12.7699995040894">
    <ele>1102.26672363281</ele>
    <time>2025-03-30T09:26:19Z</time>
   </trkpt>
   <trkpt lat="46.852237701416" lon="12.7700071334839">
    <ele>1101.88684082031</ele>
    <time>2025-03-30T09:26:20Z</time>
   </trkpt>
   <trkpt lat="46.8522186279297" lon="12.7700433731079">
    <ele>1101.28369140625</ele>
    <time>2025-03-30T09:26:24Z</time>
   </trkpt>
   <trkpt lat="46.8522071838379" lon="12.7700634002686">
    <ele>1100.88659667969</ele>
    <time>2025-03-30T09:26:26Z</time>
   </trkpt>
   <trkpt lat="46.8521919250488" lon="12.7700824737549">
    <ele>1100.20385742188</ele>
    <time>2025-03-30T09:26:28Z</time>
   </trkpt>
   <trkpt lat="46.8521690368652" lon="12.7701025009155">
    <ele>1099.00708007812</ele>
    <time>2025-03-30T09:26:31Z</time>
   </trkpt>
   <trkpt lat="46.8521614074707" lon="12.7701101303101">
    <ele>1098.626953125</ele>
    <time>2025-03-30T09:26:32Z</time>
   </trkpt>
   <trkpt lat="46.8521347045898" lon="12.7701473236084">
    <ele>1097.50329589844</ele>
    <time>2025-03-30T09:26:36Z</time>
   </trkpt>
   <trkpt lat="46.852123260498" lon="12.7701730728149">
    <ele>1097.21569824219</ele>
    <time>2025-03-30T09:26:38Z</time>
   </trkpt>
   <trkpt lat="46.8521194458008" lon="12.7701835632324">
    <ele>1097.15747070312</ele>
    <time>2025-03-30T09:26:39Z</time>
   </trkpt>
   <trkpt lat="46.8520965576172" lon="12.7702331542969">
    <ele>1096.54125976562</ele>
    <time>2025-03-30T09:26:43Z</time>
   </trkpt>
   <trkpt lat="46.8520927429199" lon="12.7702388763428">
    <ele>1096.38793945312</ele>
    <time>2025-03-30T09:26:44Z</time>
   </trkpt>
   <trkpt lat="46.8520812988281" lon="12.7702541351318">
    <ele>1095.88952636719</ele>
    <time>2025-03-30T09:26:46Z</time>
   </trkpt>
   <trkpt lat="46.8520660400391" lon="12.7702684402466">
    <ele>1095.10485839844</ele>
    <time>2025-03-30T09:26:49Z</time>
   </trkpt>
   <trkpt lat="46.8520660400391" lon="12.7702713012695">
    <ele>1095.16137695312</ele>
    <time>2025-03-30T09:26:50Z</time>
   </trkpt>
   <trkpt lat="46.85205078125" lon="12.7702693939209">
    <ele>1094.05578613281</ele>
    <time>2025-03-30T09:26:52Z</time>
   </trkpt>
   <trkpt lat="46.8520202636719" lon="12.7702875137329">
    <ele>1092.27697753906</ele>
    <time>2025-03-30T09:26:56Z</time>
   </trkpt>
   <trkpt lat="46.8520126342773" lon="12.7702894210815">
    <ele>1091.78039550781</ele>
    <time>2025-03-30T09:26:57Z</time>
   </trkpt>
   <trkpt lat="46.8519897460938" lon="12.7702922821045">
    <ele>1090.23413085938</ele>
    <time>2025-03-30T09:27:00Z</time>
   </trkpt>
   <trkpt lat="46.8519668579102" lon="12.7703113555908">
    <ele>1089.00598144531</ele>
    <time>2025-03-30T09:27:02Z</time>
   </trkpt>
   <trkpt lat="46.8519515991211" lon="12.7703247070312">
    <ele>1088.19885253906</ele>
    <time>2025-03-30T09:27:03Z</time>
   </trkpt>
   <trkpt lat="46.8519248962402" lon="12.7703590393066">
    <ele>1086.99987792969</ele>
    <time>2025-03-30T09:27:06Z</time>
   </trkpt>
   <trkpt lat="46.8519020080566" lon="12.770396232605">
    <ele>1086.12170410156</ele>
    <time>2025-03-30T09:27:09Z</time>
   </trkpt>
   <trkpt lat="46.8518829345703" lon="12.7704172134399">
    <ele>1085.19262695312</ele>
    <time>2025-03-30T09:27:15Z</time>
   </trkpt>
   <trkpt lat="46.851879119873" lon="12.7704219818115">
    <ele>1085.01794433594</ele>
    <time>2025-03-30T09:27:16Z</time>
   </trkpt>
   <trkpt lat="46.8518714904785" lon="12.7704248428345">
    <ele>1084.5380859375</ele>
    <time>2025-03-30T09:27:18Z</time>
   </trkpt>
   <trkpt lat="46.8518486022949" lon="12.7704401016235">
    <ele>1083.22802734375</ele>
    <time>2025-03-30T09:27:22Z</time>
   </trkpt>
   <trkpt lat="46.8518257141113" lon="12.7704391479492">
    <ele>1081.60192871094</ele>
    <time>2025-03-30T09:27:26Z</time>
   </trkpt>
   <trkpt lat="46.8518180847168" lon="12.7704257965088">
    <ele>1080.80688476562</ele>
    <time>2025-03-30T09:27:28Z</time>
   </trkpt>
   <trkpt lat="46.8518104553223" lon="12.7704315185547">
    <ele>1080.38220214844</ele>
    <time>2025-03-30T09:27:30Z</time>
   </trkpt>
   <trkpt lat="46.8517951965332" lon="12.770468711853">
    <ele>1080.03173828125</ele>
    <time>2025-03-30T09:27:34Z</time>
   </trkpt>
   <trkpt lat="46.8517990112305" lon="12.7704620361328">
    <ele>1080.17028808594</ele>
    <time>2025-03-30T09:27:35Z</time>
   </trkpt>
   <trkpt lat="46.8517913818359" lon="12.7704830169678">
    <ele>1080.04089355469</ele>
    <time>2025-03-30T09:27:38Z</time>
   </trkpt>
   <trkpt lat="46.8517875671387" lon="12.7704906463623">
    <ele>1079.92053222656</ele>
    <time>2025-03-30T09:27:40Z</time>
   </trkpt>
   <trkpt lat="46.8517723083496" lon="12.7704887390137">
    <ele>1078.81079101562</ele>
    <time>2025-03-30T09:27:44Z</time>
   </trkpt>
   <trkpt lat="46.8517417907715" lon="12.7705078125">
    <ele>1077.03356933594</ele>
    <time>2025-03-30T09:27:48Z</time>
   </trkpt>
   <trkpt lat="46.8517227172852" lon="12.7705125808716">
    <ele>1075.78405761719</ele>
    <time>2025-03-30T09:27:51Z</time>
   </trkpt>
   <trkpt lat="46.8517074584961" lon="12.770510673523">
    <ele>1074.67407226562</ele>
    <time>2025-03-30T09:27:53Z</time>
   </trkpt>
   <trkpt lat="46.8516845703125" lon="12.7704992294312">
    <ele>1072.84411621094</ele>
    <time>2025-03-30T09:27:57Z</time>
   </trkpt>
   <trkpt lat="46.8516807556152" lon="12.7705030441284">
    <ele>1072.64929199219</ele>
    <time>2025-03-30T09:27:58Z</time>
   </trkpt>
   <trkpt lat="46.8516731262207" lon="12.7705097198486">
    <ele>1072.24096679688</ele>
    <time>2025-03-30T09:27:59Z</time>
   </trkpt>
   <trkpt lat="46.8516578674316" lon="12.7705154418945">
    <ele>1071.4228515625</ele>
    <time>2025-03-30T09:28:01Z</time>
   </trkpt>
   <trkpt lat="46.8516464233398" lon="12.7705202102661">
    <ele>1070.89794921875</ele>
    <time>2025-03-30T09:28:02Z</time>
   </trkpt>
   <trkpt lat="46.851619720459" lon="12.7705173492432">
    <ele>1069.40576171875</ele>
    <time>2025-03-30T09:28:04Z</time>
   </trkpt>
   <trkpt lat="46.8516044616699" lon="12.7705116271973">
    <ele>1068.47595214844</ele>
    <time>2025-03-30T09:28:05Z</time>
   </trkpt>
   <trkpt lat="46.8515892028809" lon="12.7705249786377">
    <ele>1067.90673828125</ele>
    <time>2025-03-30T09:28:08Z</time>
   </trkpt>
   <trkpt lat="46.8515853881836" lon="12.770544052124">
    <ele>1068.06079101562</ele>
    <time>2025-03-30T09:28:09Z</time>
   </trkpt>
   <trkpt lat="46.8515815734863" lon="12.7705574035645">
    <ele>1068.1064453125</ele>
    <time>2025-03-30T09:28:10Z</time>
   </trkpt>
   <trkpt lat="46.8515625" lon="12.7706079483032">
    <ele>1068.02404785156</ele>
    <time>2025-03-30T09:28:15Z</time>
   </trkpt>
   <trkpt lat="46.8515510559082" lon="12.7706460952759">
    <ele>1068.11682128906</ele>
    <time>2025-03-30T09:28:18Z</time>
   </trkpt>
   <trkpt lat="46.8515472412109" lon="12.7706527709961">
    <ele>1068.03405761719</ele>
    <time>2025-03-30T09:28:21Z</time>
   </trkpt>
   <trkpt lat="46.8515472412109" lon="12.7706527709961">
    <ele>1068.03405761719</ele>
    <time>2025-03-30T09:28:29Z</time>
   </trkpt>
   <trkpt lat="46.8515472412109" lon="12.7706527709961">
    <ele>1068.03405761719</ele>
    <time>2025-03-30T09:28:35Z</time>
   </trkpt>
   <trkpt lat="46.8515472412109" lon="12.7706527709961">
    <ele>1068.03405761719</ele>
    <time>2025-03-30T09:28:36Z</time>
   </trkpt>
   <trkpt lat="46.8515357971191" lon="12.7706651687622">
    <ele>1067.64233398438</ele>
    <time>2025-03-30T09:44:58Z</time>
   </trkpt>
   <trkpt lat="46.8515319824219" lon="12.7706575393677">
    <ele>1067.29248046875</ele>
    <time>2025-03-30T09:44:59Z</time>
   </trkpt>
   <trkpt lat="46.8515319824219" lon="12.7706441879272">
    <ele>1067.0439453125</ele>
    <time>2025-03-30T09:45:00Z</time>
   </trkpt>
   <trkpt lat="46.8515396118164" lon="12.7706108093262">
    <ele>1066.83630371094</ele>
    <time>2025-03-30T09:45:06Z</time>
   </trkpt>
   <trkpt lat="46.8515357971191" lon="12.7706079483032">
    <ele>1066.57604980469</ele>
    <time>2025-03-30T09:45:11Z</time>
   </trkpt>
   <trkpt lat="46.8515319824219" lon="12.7706146240234">
    <ele>1066.49340820312</ele>
    <time>2025-03-30T09:45:13Z</time>
   </trkpt>
   <trkpt lat="46.8515319824219" lon="12.7706317901611">
    <ele>1066.81311035156</ele>
    <time>2025-03-30T09:45:21Z</time>
   </trkpt>
   <trkpt lat="46.8515167236328" lon="12.7706680297852">
    <ele>1066.65637207031</ele>
    <time>2025-03-30T09:45:28Z</time>
   </trkpt>
   <trkpt lat="46.851505279541" lon="12.7706823348999">
    <ele>1066.29748535156</ele>
    <time>2025-03-30T09:45:30Z</time>
   </trkpt>
   <trkpt lat="46.8514785766602" lon="12.770715713501">
    <ele>1065.45471191406</ele>
    <time>2025-03-30T09:45:34Z</time>
   </trkpt>
   <trkpt lat="46.8514709472656" lon="12.77073097229">
    <ele>1065.31750488281</ele>
    <time>2025-03-30T09:45:36Z</time>
   </trkpt>
   <trkpt lat="46.851448059082" lon="12.7707767486572">
    <ele>1064.89990234375</ele>
    <time>2025-03-30T09:45:40Z</time>
   </trkpt>
   <trkpt lat="46.8514366149902" lon="12.7708082199097">
    <ele>1064.84387207031</ele>
    <time>2025-03-30T09:45:43Z</time>
   </trkpt>
   <trkpt lat="46.8514060974121" lon="12.7708492279053">
    <ele>1063.91101074219</ele>
    <time>2025-03-30T09:45:47Z</time>
   </trkpt>
   <trkpt lat="46.8513946533203" lon="12.7708768844604">
    <ele>1063.78796386719</ele>
    <time>2025-03-30T09:45:50Z</time>
   </trkpt>
   <trkpt lat="46.8513870239258" lon="12.7708892822266">
    <ele>1063.59240722656</ele>
    <time>2025-03-30T09:45:52Z</time>
   </trkpt>
   <trkpt lat="46.8513641357422" lon="12.7709217071533">
    <ele>1062.91064453125</ele>
    <time>2025-03-30T09:45:56Z</time>
   </trkpt>
   <trkpt lat="46.8513565063477" lon="12.7709293365479">
    <ele>1062.62316894531</ele>
    <time>2025-03-30T09:45:57Z</time>
   </trkpt>
   <trkpt lat="46.8513298034668" lon="12.7709474563599">
    <ele>1061.45642089844</ele>
    <time>2025-03-30T09:46:00Z</time>
   </trkpt>
   <trkpt lat="46.8513069152832" lon="12.7709703445435">
    <ele>1060.58190917969</ele>
    <time>2025-03-30T09:46:04Z</time>
   </trkpt>
   <trkpt lat="46.8512992858887" lon="12.7709770202637">
    <ele>1060.27172851562</ele>
    <time>2025-03-30T09:46:05Z</time>
   </trkpt>
   <trkpt lat="46.8512802124023" lon="12.7710046768188">
    <ele>1059.68640136719</ele>
    <time>2025-03-30T09:46:09Z</time>
   </trkpt>
   <trkpt lat="46.8512725830078" lon="12.7710189819336">
    <ele>1059.50708007812</ele>
    <time>2025-03-30T09:46:11Z</time>
   </trkpt>
   <trkpt lat="46.8512649536133" lon="12.771032333374">
    <ele>1059.30944824219</ele>
    <time>2025-03-30T09:46:14Z</time>
   </trkpt>
   <trkpt lat="46.8512229919434" lon="12.771068572998">
    <ele>1057.556640625</ele>
    <time>2025-03-30T09:46:19Z</time>
   </trkpt>
   <trkpt lat="46.851188659668" lon="12.7710914611816">
    <ele>1055.99145507812</ele>
    <time>2025-03-30T09:46:23Z</time>
   </trkpt>
   <trkpt lat="46.8511543273926" lon="12.7711048126221">
    <ele>1054.25561523438</ele>
    <time>2025-03-30T09:46:26Z</time>
   </trkpt>
   <trkpt lat="46.8511199951172" lon="12.77112865448">
    <ele>1052.68591308594</ele>
    <time>2025-03-30T09:46:30Z</time>
   </trkpt>
   <trkpt lat="46.8511123657227" lon="12.7711315155029">
    <ele>1052.29541015625</ele>
    <time>2025-03-30T09:46:31Z</time>
   </trkpt>
   <trkpt lat="46.8511085510254" lon="12.7711391448975">
    <ele>1052.20166015625</ele>
    <time>2025-03-30T09:46:32Z</time>
   </trkpt>
   <trkpt lat="46.8510818481445" lon="12.7711591720581">
    <ele>1050.9931640625</ele>
    <time>2025-03-30T09:46:35Z</time>
   </trkpt>
   <trkpt lat="46.8510818481445" lon="12.771164894104">
    <ele>1051.08581542969</ele>
    <time>2025-03-30T09:46:36Z</time>
   </trkpt>
   <trkpt lat="46.8510665893555" lon="12.771183013916">
    <ele>1050.49841308594</ele>
    <time>2025-03-30T09:46:39Z</time>
   </trkpt>
   <trkpt lat="46.8510551452637" lon="12.7711954116821">
    <ele>1050.03625488281</ele>
    <time>2025-03-30T09:46:41Z</time>
   </trkpt>
   <trkpt lat="46.8510398864746" lon="12.7712173461914">
    <ele>1049.50256347656</ele>
    <time>2025-03-30T09:46:44Z</time>
   </trkpt>
   <trkpt lat="46.8510360717773" lon="12.7712278366089">
    <ele>1049.44787597656</ele>
    <time>2025-03-30T09:46:46Z</time>
   </trkpt>
   <trkpt lat="46.8510208129883" lon="12.7712364196777">
    <ele>1048.69738769531</ele>
    <time>2025-03-30T09:46:48Z</time>
   </trkpt>
   <trkpt lat="46.8509826660156" lon="12.7712669372559">
    <ele>1046.95324707031</ele>
    <time>2025-03-30T09:46:52Z</time>
   </trkpt>
   <trkpt lat="46.8509750366211" lon="12.7712717056274">
    <ele>1046.58178710938</ele>
    <time>2025-03-30T09:46:53Z</time>
   </trkpt>
   <trkpt lat="46.8509521484375" lon="12.7712917327881">
    <ele>1045.55163574219</ele>
    <time>2025-03-30T09:46:56Z</time>
   </trkpt>
   <trkpt lat="46.850944519043" lon="12.7713069915771">
    <ele>1045.33728027344</ele>
    <time>2025-03-30T09:46:57Z</time>
   </trkpt>
   <trkpt lat="46.8509254455566" lon="12.7713384628296">
    <ele>1044.69348144531</ele>
    <time>2025-03-30T09:46:59Z</time>
   </trkpt>
   <trkpt lat="46.850902557373" lon="12.771372795105">
    <ele>1043.85827636719</ele>
    <time>2025-03-30T09:47:02Z</time>
   </trkpt>
   <trkpt lat="46.8508796691894" lon="12.7714052200317">
    <ele>1042.98364257812</ele>
    <time>2025-03-30T09:47:05Z</time>
   </trkpt>
   <trkpt lat="46.8508262634277" lon="12.7714939117432">
    <ele>1041.13403320312</ele>
    <time>2025-03-30T09:47:11Z</time>
   </trkpt>
   <trkpt lat="46.8507919311523" lon="12.7715291976929">
    <ele>1039.80114746094</ele>
    <time>2025-03-30T09:47:15Z</time>
   </trkpt>
   <trkpt lat="46.8507690429688" lon="12.7715625762939">
    <ele>1039.04870605469</ele>
    <time>2025-03-30T09:47:17Z</time>
   </trkpt>
   <trkpt lat="46.8507232666016" lon="12.7716245651245">
    <ele>1037.46350097656</ele>
    <time>2025-03-30T09:47:22Z</time>
   </trkpt>
   <trkpt lat="46.8506965637207" lon="12.7716608047485">
    <ele>1036.53234863281</ele>
    <time>2025-03-30T09:47:24Z</time>
   </trkpt>
   <trkpt lat="46.8506546020508" lon="12.7717304229736">
    <ele>1035.44689941406</ele>
    <time>2025-03-30T09:47:29Z</time>
   </trkpt>
   <trkpt lat="46.8506393432617" lon="12.7717475891113">
    <ele>1034.91333007812</ele>
    <time>2025-03-30T09:47:31Z</time>
   </trkpt>
   <trkpt lat="46.8506088256836" lon="12.7718286514282">
    <ele>1034.63525390625</ele>
    <time>2025-03-30T09:47:37Z</time>
   </trkpt>
   <trkpt lat="46.8505821228027" lon="12.771879196167">
    <ele>1034.02954101562</ele>
    <time>2025-03-30T09:47:41Z</time>
   </trkpt>
   <trkpt lat="46.8505668640137" lon="12.7719144821167">
    <ele>1033.78601074219</ele>
    <time>2025-03-30T09:47:44Z</time>
   </trkpt>
   <trkpt lat="46.8505249023438" lon="12.7719888687134">
    <ele>1032.71508789062</ele>
    <time>2025-03-30T09:47:49Z</time>
   </trkpt>
   <trkpt lat="46.8505172729492" lon="12.7720022201538">
    <ele>1032.51452636719</ele>
    <time>2025-03-30T09:47:50Z</time>
   </trkpt>
   <trkpt lat="46.8504753112793" lon="12.7720756530762">
    <ele>1031.39599609375</ele>
    <time>2025-03-30T09:47:55Z</time>
   </trkpt>
   <trkpt lat="46.8504486083984" lon="12.7721109390259">
    <ele>1030.4833984375</ele>
    <time>2025-03-30T09:47:58Z</time>
   </trkpt>
   <trkpt lat="46.8504104614258" lon="12.7721767425537">
    <ele>1029.41442871094</ele>
    <time>2025-03-30T09:48:03Z</time>
   </trkpt>
   <trkpt lat="46.8503913879394" lon="12.7722091674805">
    <ele>1028.8642578125</ele>
    <time>2025-03-30T09:48:05Z</time>
   </trkpt>
   <trkpt lat="46.8503494262695" lon="12.7722854614258">
    <ele>1027.71374511719</ele>
    <time>2025-03-30T09:48:10Z</time>
   </trkpt>
   <trkpt lat="46.8503303527832" lon="12.7723083496094">
    <ele>1026.99499511719</ele>
    <time>2025-03-30T09:48:12Z</time>
   </trkpt>
   <trkpt lat="46.8502922058106" lon="12.7723979949951">
    <ele>1026.2333984375</ele>
    <time>2025-03-30T09:48:17Z</time>
   </trkpt>
   <trkpt lat="46.850284576416" lon="12.7724084854126">
    <ele>1025.96130371094</ele>
    <time>2025-03-30T09:48:18Z</time>
   </trkpt>
   <trkpt lat="46.8502426147461" lon="12.7724885940552">
    <ele>1024.79846191406</ele>
    <time>2025-03-30T09:48:24Z</time>
   </trkpt>
   <trkpt lat="46.8502349853516" lon="12.7725095748901">
    <ele>1024.66149902344</ele>
    <time>2025-03-30T09:48:25Z</time>
   </trkpt>
   <trkpt lat="46.8501930236816" lon="12.7726058959961">
    <ele>1023.51599121094</ele>
    <time>2025-03-30T09:48:31Z</time>
   </trkpt>
   <trkpt lat="46.8501853942871" lon="12.7726202011108">
    <ele>1023.26538085938</ele>
    <time>2025-03-30T09:48:32Z</time>
   </trkpt>
   <trkpt lat="46.8501319885254" lon="12.7727222442627">
    <ele>1021.5361328125</ele>
    <time>2025-03-30T09:48:38Z</time>
   </trkpt>
   <trkpt lat="46.8500709533691" lon="12.7728185653687">
    <ele>1019.2919921875</ele>
    <time>2025-03-30T09:48:45Z</time>
   </trkpt>
   <trkpt lat="46.8500671386719" lon="12.7728385925293">
    <ele>1019.33660888672</ele>
    <time>2025-03-30T09:48:46Z</time>
   </trkpt>
   <trkpt lat="46.8500518798828" lon="12.7729234695435">
    <ele>1019.57806396484</ele>
    <time>2025-03-30T09:48:51Z</time>
   </trkpt>
   <trkpt lat="46.8500556945801" lon="12.773003578186">
    <ele>1020.85522460938</ele>
    <time>2025-03-30T09:48:56Z</time>
   </trkpt>
   <trkpt lat="46.8500595092773" lon="12.7730350494385">
    <ele>1021.49035644531</ele>
    <time>2025-03-30T09:48:58Z</time>
   </trkpt>
   <trkpt lat="46.8500900268555" lon="12.7730865478516">
    <ele>1023.92797851562</ele>
    <time>2025-03-30T09:49:01Z</time>
   </trkpt>
   <trkpt lat="46.85009765625" lon="12.7731370925903">
    <ele>1025.03466796875</ele>
    <time>2025-03-30T09:49:04Z</time>
   </trkpt>
   <trkpt lat="46.8501243591309" lon="12.7732057571411">
    <ele>1027.47912597656</ele>
    <time>2025-03-30T09:49:08Z</time>
   </trkpt>
   <trkpt lat="46.8501319885254" lon="12.7732391357422">
    <ele>1028.35913085938</ele>
    <time>2025-03-30T09:49:10Z</time>
   </trkpt>
   <trkpt lat="46.8501396179199" lon="12.7732610702515">
    <ele>1029.08813476562</ele>
    <time>2025-03-30T09:49:11Z</time>
   </trkpt>
   <trkpt lat="46.850154876709" lon="12.7733297348022">
    <ele>1030.87341308594</ele>
    <time>2025-03-30T09:49:14Z</time>
   </trkpt>
   <trkpt lat="46.8501625061035" lon="12.7733812332153">
    <ele>1031.27758789062</ele>
    <time>2025-03-30T09:49:17Z</time>
   </trkpt>
   <trkpt lat="46.850170135498" lon="12.7734546661377">
    <ele>1031.60083007812</ele>
    <time>2025-03-30T09:49:21Z</time>
   </trkpt>
   <trkpt lat="46.8501663208008" lon="12.7734937667847">
    <ele>1031.30993652344</ele>
    <time>2025-03-30T09:49:23Z</time>
   </trkpt>
   <trkpt lat="46.8501892089844" lon="12.7736196517944">
    <ele>1032.49182128906</ele>
    <time>2025-03-30T09:49:29Z</time>
   </trkpt>
   <trkpt lat="46.8502006530762" lon="12.7737913131714">
    <ele>1032.96752929688</ele>
    <time>2025-03-30T09:49:37Z</time>
   </trkpt>
   <trkpt lat="46.8502006530762" lon="12.7738084793091">
    <ele>1032.94543457031</ele>
    <time>2025-03-30T09:49:38Z</time>
   </trkpt>
   <trkpt lat="46.8502044677734" lon="12.7738981246948">
    <ele>1033.07446289062</ele>
    <time>2025-03-30T09:49:44Z</time>
   </trkpt>
   <trkpt lat="46.8501892089844" lon="12.7739658355713">
    <ele>1032.00012207031</ele>
    <time>2025-03-30T09:49:51Z</time>
   </trkpt>
   <trkpt lat="46.8501892089844" lon="12.773962020874">
    <ele>1032.00549316406</ele>
    <time>2025-03-30T09:49:57Z</time>
   </trkpt>
   <trkpt lat="46.8501892089844" lon="12.773962020874">
    <ele>1032.00549316406</ele>
    <time>2025-03-30T09:50:02Z</time>
   </trkpt>
   <trkpt lat="46.8501853942871" lon="12.773983001709">
    <ele>1031.72741699219</ele>
    <time>2025-03-30T09:50:03Z</time>
   </trkpt>
   <trkpt lat="46.8501815795898" lon="12.7740058898926">
    <ele>1031.44458007812</ele>
    <time>2025-03-30T09:50:04Z</time>
   </trkpt>
   <trkpt lat="46.8501739501953" lon="12.7740278244019">
    <ele>1030.91101074219</ele>
    <time>2025-03-30T09:50:05Z</time>
   </trkpt>
   <trkpt lat="46.8501663208008" lon="12.7741003036499">
    <ele>1030.28845214844</ele>
    <time>2025-03-30T09:50:09Z</time>
   </trkpt>
   <trkpt lat="46.850170135498" lon="12.7741413116455">
    <ele>1030.47473144531</ele>
    <time>2025-03-30T09:50:11Z</time>
   </trkpt>
   <trkpt lat="46.850170135498" lon="12.7741622924805">
    <ele>1030.44030761719</ele>
    <time>2025-03-30T09:50:17Z</time>
   </trkpt>
   <trkpt lat="46.8501586914062" lon="12.774206161499">
    <ele>1029.40673828125</ele>
    <time>2025-03-30T09:50:21Z</time>
   </trkpt>
   <trkpt lat="46.8501625061035" lon="12.7742471694946">
    <ele>1029.39733886719</ele>
    <time>2025-03-30T09:50:27Z</time>
   </trkpt>
   <trkpt lat="46.8501319885254" lon="12.7742786407471">
    <ele>1027.12731933594</ele>
    <time>2025-03-30T09:50:32Z</time>
   </trkpt>
   <trkpt lat="46.8501319885254" lon="12.7742910385132">
    <ele>1027.04504394531</ele>
    <time>2025-03-30T09:50:37Z</time>
   </trkpt>
   <trkpt lat="46.8501319885254" lon="12.7742862701416">
    <ele>1027.07666015625</ele>
    <time>2025-03-30T09:50:38Z</time>
   </trkpt>
   <trkpt lat="46.8500938415527" lon="12.774284362793">
    <ele>1024.50646972656</ele>
    <time>2025-03-30T09:50:42Z</time>
   </trkpt>
   <trkpt lat="46.8500709533691" lon="12.774245262146">
    <ele>1023.22625732422</ele>
    <time>2025-03-30T09:50:45Z</time>
   </trkpt>
   <trkpt lat="46.8500709533691" lon="12.7742233276367">
    <ele>1023.37750244141</ele>
    <time>2025-03-30T09:50:47Z</time>
   </trkpt>
   <trkpt lat="46.8500556945801" lon="12.7742109298706">
    <ele>1022.43463134766</ele>
    <time>2025-03-30T09:50:50Z</time>
   </trkpt>
   <trkpt lat="46.850040435791" lon="12.7742042541504">
    <ele>1021.45324707031</ele>
    <time>2025-03-30T09:50:53Z</time>
   </trkpt>
   <trkpt lat="46.850025177002" lon="12.7741870880127">
    <ele>1020.54705810547</ele>
    <time>2025-03-30T09:50:57Z</time>
   </trkpt>
   <trkpt lat="46.8500213623047" lon="12.7741823196411">
    <ele>1020.32427978516</ele>
    <time>2025-03-30T09:50:58Z</time>
   </trkpt>
   <trkpt lat="46.8500213623047" lon="12.7741603851318">
    <ele>1020.45660400391</ele>
    <time>2025-03-30T09:51:01Z</time>
   </trkpt>
   <trkpt lat="46.8500289916992" lon="12.7741260528564">
    <ele>1021.08087158203</ele>
    <time>2025-03-30T09:51:04Z</time>
   </trkpt>
   <trkpt lat="46.850025177002" lon="12.7740955352783">
    <ele>1020.92730712891</ele>
    <time>2025-03-30T09:51:07Z</time>
   </trkpt>
   <trkpt lat="46.8500137329102" lon="12.7740812301636">
    <ele>1020.21691894531</ele>
    <time>2025-03-30T09:51:09Z</time>
   </trkpt>
   <trkpt lat="46.849983215332" lon="12.7740592956543">
    <ele>1018.38726806641</ele>
    <time>2025-03-30T09:51:13Z</time>
   </trkpt>
   <trkpt lat="46.8499755859375" lon="12.7740497589111">
    <ele>1017.96838378906</ele>
    <time>2025-03-30T09:51:14Z</time>
   </trkpt>
   <trkpt lat="46.8499526977539" lon="12.774022102356">
    <ele>1016.71185302734</ele>
    <time>2025-03-30T09:51:18Z</time>
   </trkpt>
   <trkpt lat="46.8499450683594" lon="12.7740068435669">
    <ele>1016.3173828125</ele>
    <time>2025-03-30T09:51:20Z</time>
   </trkpt>
   <trkpt lat="46.8499412536621" lon="12.7739953994751">
    <ele>1016.13525390625</ele>
    <time>2025-03-30T09:51:22Z</time>
   </trkpt>
   <trkpt lat="46.8499336242676" lon="12.7739820480347">
    <ele>1015.73504638672</ele>
    <time>2025-03-30T09:51:26Z</time>
   </trkpt>
   <trkpt lat="46.8499183654785" lon="12.7739448547363">
    <ele>1014.97869873047</ele>
    <time>2025-03-30T09:51:31Z</time>
   </trkpt>
   <trkpt lat="46.8499145507812" lon="12.7739372253418">
    <ele>1014.78375244141</ele>
    <time>2025-03-30T09:51:32Z</time>
   </trkpt>
   <trkpt lat="46.8499031066894" lon="12.7739038467407">
    <ele>1014.24255371094</ele>
    <time>2025-03-30T09:51:35Z</time>
   </trkpt>
   <trkpt lat="46.8498916625977" lon="12.7738752365112">
    <ele>1013.68530273438</ele>
    <time>2025-03-30T09:51:39Z</time>
   </trkpt>
   <trkpt lat="46.8498878479004" lon="12.7738647460938">
    <ele>1013.50408935547</ele>
    <time>2025-03-30T09:51:40Z</time>
   </trkpt>
   <trkpt lat="46.8498649597168" lon="12.7738399505615">
    <ele>1012.26434326172</ele>
    <time>2025-03-30T09:51:44Z</time>
   </trkpt>
   <trkpt lat="46.8498573303223" lon="12.7738389968872">
    <ele>1011.82141113281</ele>
    <time>2025-03-30T09:51:46Z</time>
   </trkpt>
   <trkpt lat="46.8498458862305" lon="12.7738437652588">
    <ele>1011.13061523438</ele>
    <time>2025-03-30T09:51:48Z</time>
   </trkpt>
   <trkpt lat="46.8498268127441" lon="12.7738304138184">
    <ele>1010.07086181641</ele>
    <time>2025-03-30T09:51:52Z</time>
   </trkpt>
   <trkpt lat="46.8498229980469" lon="12.7738380432129">
    <ele>1009.81420898438</ele>
    <time>2025-03-30T09:51:54Z</time>
   </trkpt>
   <trkpt lat="46.8498191833496" lon="12.7738399505615">
    <ele>1009.58239746094</ele>
    <time>2025-03-30T09:51:55Z</time>
   </trkpt>
   <trkpt lat="46.8497924804688" lon="12.7738075256348">
    <ele>1008.16369628906</ele>
    <time>2025-03-30T09:51:59Z</time>
   </trkpt>
   <trkpt lat="46.8497734069824" lon="12.7737369537354">
    <ele>1007.37200927734</ele>
    <time>2025-03-30T09:52:03Z</time>
   </trkpt>
   <trkpt lat="46.8497543334961" lon="12.7736930847168">
    <ele>1006.46752929688</ele>
    <time>2025-03-30T09:52:06Z</time>
   </trkpt>
   <trkpt lat="46.8497467041016" lon="12.7736921310425">
    <ele>1006.02984619141</ele>
    <time>2025-03-30T09:52:09Z</time>
   </trkpt>
   <trkpt lat="46.8497467041016" lon="12.7737159729004">
    <ele>1005.91790771484</ele>
    <time>2025-03-30T09:52:13Z</time>
   </trkpt>
   <trkpt lat="46.849739074707" lon="12.7737464904785">
    <ele>1005.33074951172</ele>
    <time>2025-03-30T09:52:15Z</time>
   </trkpt>
   <trkpt lat="46.8497314453125" lon="12.7737674713135">
    <ele>1004.78692626953</ele>
    <time>2025-03-30T09:52:18Z</time>
   </trkpt>
   <trkpt lat="46.8497123718262" lon="12.7737722396851">
    <ele>1003.65234375</ele>
    <time>2025-03-30T09:52:20Z</time>
   </trkpt>
   <trkpt lat="46.8496932983398" lon="12.7737550735474">
    <ele>1002.625</ele>
    <time>2025-03-30T09:52:23Z</time>
   </trkpt>
   <trkpt lat="46.849681854248" lon="12.7737522125244">
    <ele>1001.97290039062</ele>
    <time>2025-03-30T09:52:25Z</time>
   </trkpt>
   <trkpt lat="46.8496627807617" lon="12.7737579345703">
    <ele>1000.83374023438</ele>
    <time>2025-03-30T09:52:29Z</time>
   </trkpt>
   <trkpt lat="46.8496589660644" lon="12.7737598419189">
    <ele>1000.60186767578</ele>
    <time>2025-03-30T09:52:30Z</time>
   </trkpt>
   <trkpt lat="46.8496284484863" lon="12.7737398147583">
    <ele>998.9287109375</ele>
    <time>2025-03-30T09:52:35Z</time>
   </trkpt>
   <trkpt lat="46.8496208190918" lon="12.773738861084">
    <ele>998.489990234375</ele>
    <time>2025-03-30T09:52:36Z</time>
   </trkpt>
   <trkpt lat="46.8495941162109" lon="12.7737436294556">
    <ele>996.911682128906</ele>
    <time>2025-03-30T09:52:39Z</time>
   </trkpt>
   <trkpt lat="46.8495788574219" lon="12.7737350463867">
    <ele>996.070556640625</ele>
    <time>2025-03-30T09:52:41Z</time>
   </trkpt>
   <trkpt lat="46.8495635986328" lon="12.7737321853638">
    <ele>995.199157714844</ele>
    <time>2025-03-30T09:52:43Z</time>
   </trkpt>
   <trkpt lat="46.8495407104492" lon="12.7737121582031">
    <ele>993.980651855469</ele>
    <time>2025-03-30T09:52:46Z</time>
   </trkpt>
   <trkpt lat="46.8495330810547" lon="12.7736968994141">
    <ele>993.623596191406</ele>
    <time>2025-03-30T09:52:48Z</time>
   </trkpt>
   <trkpt lat="46.8495254516602" lon="12.7737016677856">
    <ele>993.154357910156</ele>
    <time>2025-03-30T09:52:49Z</time>
   </trkpt>
   <trkpt lat="46.8494987487793" lon="12.7736673355103">
    <ele>991.803771972656</ele>
    <time>2025-03-30T09:52:53Z</time>
   </trkpt>
   <trkpt lat="46.8494873046875" lon="12.7736549377441">
    <ele>991.213928222656</ele>
    <time>2025-03-30T09:52:55Z</time>
   </trkpt>
   <trkpt lat="46.8494606018066" lon="12.7736501693726">
    <ele>989.699035644531</ele>
    <time>2025-03-30T09:52:59Z</time>
   </trkpt>
   <trkpt lat="46.8494453430176" lon="12.7736301422119">
    <ele>988.937622070312</ele>
    <time>2025-03-30T09:53:02Z</time>
   </trkpt>
   <trkpt lat="46.8494262695312" lon="12.7736043930054">
    <ele>987.993957519531</ele>
    <time>2025-03-30T09:53:05Z</time>
   </trkpt>
   <trkpt lat="46.8494186401367" lon="12.7735977172852">
    <ele>987.595520019531</ele>
    <time>2025-03-30T09:53:06Z</time>
   </trkpt>
   <trkpt lat="46.8493995666504" lon="12.7735652923584">
    <ele>986.698852539062</ele>
    <time>2025-03-30T09:53:09Z</time>
   </trkpt>
   <trkpt lat="46.8493843078613" lon="12.7735538482666">
    <ele>985.894592285156</ele>
    <time>2025-03-30T09:53:12Z</time>
   </trkpt>
   <trkpt lat="46.8493766784668" lon="12.7735452651978">
    <ele>985.511047363281</ele>
    <time>2025-03-30T09:53:13Z</time>
   </trkpt>
   <trkpt lat="46.8493576049805" lon="12.7735195159912">
    <ele>984.581970214844</ele>
    <time>2025-03-30T09:53:17Z</time>
   </trkpt>
   <trkpt lat="46.8493423461914" lon="12.7734985351562">
    <ele>983.84423828125</ele>
    <time>2025-03-30T09:53:20Z</time>
   </trkpt>
   <trkpt lat="46.8493385314941" lon="12.7734899520874">
    <ele>983.681823730469</ele>
    <time>2025-03-30T09:53:21Z</time>
   </trkpt>
   <trkpt lat="46.8493041992188" lon="12.7734575271606">
    <ele>981.936401367188</ele>
    <time>2025-03-30T09:53:26Z</time>
   </trkpt>
   <trkpt lat="46.849292755127" lon="12.7734527587891">
    <ele>981.316589355469</ele>
    <time>2025-03-30T09:53:27Z</time>
   </trkpt>
   <trkpt lat="46.8492469787598" lon="12.7734460830688">
    <ele>978.756896972656</ele>
    <time>2025-03-30T09:53:34Z</time>
   </trkpt>
   <trkpt lat="46.8492393493652" lon="12.7734365463257">
    <ele>978.388549804688</ele>
    <time>2025-03-30T09:53:35Z</time>
   </trkpt>
   <trkpt lat="46.8492317199707" lon="12.7733917236328">
    <ele>978.265014648438</ele>
    <time>2025-03-30T09:53:39Z</time>
   </trkpt>
   <trkpt lat="46.8492317199707" lon="12.7733879089355">
    <ele>978.291381835938</ele>
    <time>2025-03-30T09:53:40Z</time>
   </trkpt>
   <trkpt lat="46.8492164611816" lon="12.7733554840088">
    <ele>977.653686523438</ele>
    <time>2025-03-30T09:53:46Z</time>
   </trkpt>
   <trkpt lat="46.8492126464844" lon="12.7733526229858">
    <ele>977.458190917969</ele>
    <time>2025-03-30T09:53:47Z</time>
   </trkpt>
   <trkpt lat="46.849193572998" lon="12.7733306884766">
    <ele>976.507202148438</ele>
    <time>2025-03-30T09:53:53Z</time>
   </trkpt>
   <trkpt lat="46.8491897583008" lon="12.7733297348022">
    <ele>976.288452148438</ele>
    <time>2025-03-30T09:53:55Z</time>
   </trkpt>
   <trkpt lat="46.8491897583008" lon="12.7733287811279">
    <ele>976.284790039062</ele>
    <time>2025-03-30T09:53:56Z</time>
   </trkpt>
   <trkpt lat="46.8491706848144" lon="12.7732915878296">
    <ele>975.074401855469</ele>
    <time>2025-03-30T09:54:00Z</time>
   </trkpt>
   <trkpt lat="46.8491630554199" lon="12.7732877731323">
    <ele>974.600219726562</ele>
    <time>2025-03-30T09:54:01Z</time>
   </trkpt>
   <trkpt lat="46.8491477966309" lon="12.7732667922974">
    <ele>973.534912109375</ele>
    <time>2025-03-30T09:54:04Z</time>
   </trkpt>
   <trkpt lat="46.8491249084473" lon="12.773250579834">
    <ele>972.000793457031</ele>
    <time>2025-03-30T09:54:08Z</time>
   </trkpt>
   <trkpt lat="46.84912109375" lon="12.7732429504395">
    <ele>971.732055664062</ele>
    <time>2025-03-30T09:54:09Z</time>
   </trkpt>
   <trkpt lat="46.8490943908691" lon="12.7732067108154">
    <ele>969.9189453125</ele>
    <time>2025-03-30T09:54:15Z</time>
   </trkpt>
   <trkpt lat="46.8490867614746" lon="12.773190498352">
    <ele>969.392822265625</ele>
    <time>2025-03-30T09:54:18Z</time>
   </trkpt>
   <trkpt lat="46.8490715026856" lon="12.7731590270996">
    <ele>968.354431152344</ele>
    <time>2025-03-30T09:54:22Z</time>
   </trkpt>
   <trkpt lat="46.8490676879883" lon="12.7731485366821">
    <ele>968.091857910156</ele>
    <time>2025-03-30T09:54:23Z</time>
   </trkpt>
   <trkpt lat="46.8490600585938" lon="12.7731237411499">
    <ele>967.563293457031</ele>
    <time>2025-03-30T09:54:28Z</time>
   </trkpt>
   <trkpt lat="46.8490600585938" lon="12.7731103897095">
    <ele>967.537719726562</ele>
    <time>2025-03-30T09:54:29Z</time>
   </trkpt>
   <trkpt lat="46.8490447998047" lon="12.7730913162231">
    <ele>966.552734375</ele>
    <time>2025-03-30T09:54:32Z</time>
   </trkpt>
   <trkpt lat="46.8490371704102" lon="12.7730865478516">
    <ele>966.071044921875</ele>
    <time>2025-03-30T09:54:34Z</time>
   </trkpt>
   <trkpt lat="46.8490219116211" lon="12.7730770111084">
    <ele>965.111145019531</ele>
    <time>2025-03-30T09:54:37Z</time>
   </trkpt>
   <trkpt lat="46.849006652832" lon="12.773060798645">
    <ele>964.148742675781</ele>
    <time>2025-03-30T09:54:40Z</time>
   </trkpt>
   <trkpt lat="46.8490028381348" lon="12.7730550765991">
    <ele>963.907653808594</ele>
    <time>2025-03-30T09:54:42Z</time>
   </trkpt>
   <trkpt lat="46.8489875793457" lon="12.7730379104614">
    <ele>962.954772949219</ele>
    <time>2025-03-30T09:54:46Z</time>
   </trkpt>
   <trkpt lat="46.8489685058594" lon="12.7730140686035">
    <ele>961.774169921875</ele>
    <time>2025-03-30T09:54:51Z</time>
   </trkpt>
   <trkpt lat="46.8489646911621" lon="12.7730007171631">
    <ele>961.536315917969</ele>
    <time>2025-03-30T09:54:53Z</time>
   </trkpt>
   <trkpt lat="46.8489570617676" lon="12.7729759216309">
    <ele>961.066040039062</ele>
    <time>2025-03-30T09:54:57Z</time>
   </trkpt>
   <trkpt lat="46.848949432373" lon="12.7729711532593">
    <ele>960.604919433594</ele>
    <time>2025-03-30T09:54:59Z</time>
   </trkpt>
   <trkpt lat="46.8489379882812" lon="12.7729434967041">
    <ele>959.915893554688</ele>
    <time>2025-03-30T09:55:02Z</time>
   </trkpt>
   <trkpt lat="46.8489265441894" lon="12.7729158401489">
    <ele>959.236877441406</ele>
    <time>2025-03-30T09:55:05Z</time>
   </trkpt>
   <trkpt lat="46.8489265441894" lon="12.7729091644287">
    <ele>959.23828125</ele>
    <time>2025-03-30T09:55:06Z</time>
   </trkpt>
   <trkpt lat="46.8489036560059" lon="12.7728805541992">
    <ele>957.897583007812</ele>
    <time>2025-03-30T09:55:11Z</time>
   </trkpt>
   <trkpt lat="46.8488845825195" lon="12.7728691101074">
    <ele>956.785461425781</ele>
    <time>2025-03-30T09:55:14Z</time>
   </trkpt>
   <trkpt lat="46.848876953125" lon="12.7728576660156">
    <ele>956.349365234375</ele>
    <time>2025-03-30T09:55:16Z</time>
   </trkpt>
   <trkpt lat="46.8488655090332" lon="12.7728548049927">
    <ele>955.683654785156</ele>
    <time>2025-03-30T09:55:20Z</time>
   </trkpt>
   <trkpt lat="46.8488578796387" lon="12.7728519439697">
    <ele>955.241638183594</ele>
    <time>2025-03-30T09:55:21Z</time>
   </trkpt>
   <trkpt lat="46.8488464355469" lon="12.7728223800659">
    <ele>954.617126464844</ele>
    <time>2025-03-30T09:55:25Z</time>
   </trkpt>
   <trkpt lat="46.8488464355469" lon="12.77281665802">
    <ele>954.625549316406</ele>
    <time>2025-03-30T09:55:26Z</time>
   </trkpt>
   <trkpt lat="46.8488426208496" lon="12.7728071212769">
    <ele>954.419616699219</ele>
    <time>2025-03-30T09:55:28Z</time>
   </trkpt>
   <trkpt lat="46.8488235473633" lon="12.7727746963501">
    <ele>953.379211425781</ele>
    <time>2025-03-30T09:55:32Z</time>
   </trkpt>
   <trkpt lat="46.848819732666" lon="12.7727680206299">
    <ele>953.173889160156</ele>
    <time>2025-03-30T09:55:35Z</time>
   </trkpt>
   <trkpt lat="46.848819732666" lon="12.7727680206299">
    <ele>953.173889160156</ele>
    <time>2025-03-30T09:55:36Z</time>
   </trkpt>
   <trkpt lat="46.848804473877" lon="12.7727394104004">
    <ele>952.364562988281</ele>
    <time>2025-03-30T09:55:41Z</time>
   </trkpt>
   <trkpt lat="46.8487892150879" lon="12.7727270126343">
    <ele>951.530517578125</ele>
    <time>2025-03-30T09:55:42Z</time>
   </trkpt>
   <trkpt lat="46.8487701416016" lon="12.7727298736572">
    <ele>950.447204589844</ele>
    <time>2025-03-30T09:55:46Z</time>
   </trkpt>
   <trkpt lat="46.8487701416016" lon="12.7727279663086">
    <ele>950.452331542969</ele>
    <time>2025-03-30T09:55:48Z</time>
   </trkpt>
   <trkpt lat="46.8487701416016" lon="12.77272605896">
    <ele>950.457397460938</ele>
    <time>2025-03-30T09:55:52Z</time>
   </trkpt>
   <trkpt lat="46.8487701416016" lon="12.77272605896">
    <ele>950.457397460938</ele>
    <time>2025-03-30T09:55:53Z</time>
   </trkpt>
   <trkpt lat="46.8487701416016" lon="12.7727251052856">
    <ele>950.4599609375</ele>
    <time>2025-03-30T09:55:54Z</time>
   </trkpt>
   <trkpt lat="46.8487701416016" lon="12.7727251052856">
    <ele>950.4599609375</ele>
    <time>2025-03-30T09:55:55Z</time>
   </trkpt>
   <trkpt lat="46.8487701416016" lon="12.7727251052856">
    <ele>950.4599609375</ele>
    <time>2025-03-30T09:55:56Z</time>
   </trkpt>
   <trkpt lat="46.8487586975098" lon="12.77272605896">
    <ele>949.812194824219</ele>
    <time>2025-03-30T09:55:58Z</time>
   </trkpt>
   <trkpt lat="46.8487358093262" lon="12.7727298736572">
    <ele>948.509460449219</ele>
    <time>2025-03-30T09:56:01Z</time>
   </trkpt>
   <trkpt lat="46.8487091064453" lon="12.7727479934692">
    <ele>946.936218261719</ele>
    <time>2025-03-30T09:56:05Z</time>
   </trkpt>
   <trkpt lat="46.848705291748" lon="12.7727518081665">
    <ele>946.705627441406</ele>
    <time>2025-03-30T09:56:06Z</time>
   </trkpt>
   <trkpt lat="46.8486976623535" lon="12.7727813720703">
    <ele>946.1591796875</ele>
    <time>2025-03-30T09:56:11Z</time>
   </trkpt>
   <trkpt lat="46.8486785888672" lon="12.7727966308594">
    <ele>945.004089355469</ele>
    <time>2025-03-30T09:56:17Z</time>
   </trkpt>
   <trkpt lat="46.8486709594727" lon="12.7728252410889">
    <ele>944.443725585938</ele>
    <time>2025-03-30T09:56:22Z</time>
   </trkpt>
   <trkpt lat="46.8486671447754" lon="12.7728452682495">
    <ele>944.136291503906</ele>
    <time>2025-03-30T09:56:24Z</time>
   </trkpt>
   <trkpt lat="46.8486671447754" lon="12.7728805541992">
    <ele>943.984130859375</ele>
    <time>2025-03-30T09:56:27Z</time>
   </trkpt>
   <trkpt lat="46.8486633300781" lon="12.7729015350342">
    <ele>943.66796875</ele>
    <time>2025-03-30T09:56:31Z</time>
   </trkpt>
   <trkpt lat="46.8486633300781" lon="12.7729082107544">
    <ele>943.638793945312</ele>
    <time>2025-03-30T09:56:32Z</time>
   </trkpt>
   <trkpt lat="46.8486595153809" lon="12.7729473114014">
    <ele>943.239379882812</ele>
    <time>2025-03-30T09:56:36Z</time>
   </trkpt>
   <trkpt lat="46.8486557006836" lon="12.7729539871216">
    <ele>942.980895996094</ele>
    <time>2025-03-30T09:56:37Z</time>
   </trkpt>
   <trkpt lat="46.8486289978027" lon="12.7729997634888">
    <ele>941.153930664062</ele>
    <time>2025-03-30T09:56:42Z</time>
   </trkpt>
   <trkpt lat="46.8486175537109" lon="12.773021697998">
    <ele>940.347229003906</ele>
    <time>2025-03-30T09:56:44Z</time>
   </trkpt>
   <trkpt lat="46.8486022949219" lon="12.7730398178101">
    <ele>939.318725585938</ele>
    <time>2025-03-30T09:56:46Z</time>
   </trkpt>
   <trkpt lat="46.8485832214356" lon="12.7730951309204">
    <ele>937.836486816406</ele>
    <time>2025-03-30T09:56:51Z</time>
   </trkpt>
   <trkpt lat="46.8485565185547" lon="12.7731132507324">
    <ele>936.06494140625</ele>
    <time>2025-03-30T09:56:55Z</time>
   </trkpt>
   <trkpt lat="46.8485488891602" lon="12.7731323242188">
    <ele>935.470031738281</ele>
    <time>2025-03-30T09:56:58Z</time>
   </trkpt>
   <trkpt lat="46.8485450744629" lon="12.7731428146362">
    <ele>935.164916992188</ele>
    <time>2025-03-30T09:57:00Z</time>
   </trkpt>
   <trkpt lat="46.8485298156738" lon="12.773175239563">
    <ele>933.993530273438</ele>
    <time>2025-03-30T09:57:04Z</time>
   </trkpt>
   <trkpt lat="46.848518371582" lon="12.7732000350952">
    <ele>933.101501464844</ele>
    <time>2025-03-30T09:57:06Z</time>
   </trkpt>
   <trkpt lat="46.848503112793" lon="12.7732391357422">
    <ele>931.8564453125</ele>
    <time>2025-03-30T09:57:10Z</time>
   </trkpt>
   <trkpt lat="46.8484992980957" lon="12.7732648849487">
    <ele>931.430847167969</ele>
    <time>2025-03-30T09:57:14Z</time>
   </trkpt>
   <trkpt lat="46.848503112793" lon="12.7732715606689">
    <ele>931.63232421875</ele>
    <time>2025-03-30T09:57:15Z</time>
   </trkpt>
   <trkpt lat="46.8484840393066" lon="12.7732973098755">
    <ele>930.206420898438</ele>
    <time>2025-03-30T09:57:21Z</time>
   </trkpt>
   <trkpt lat="46.8484535217285" lon="12.7733144760132">
    <ele>928.077575683594</ele>
    <time>2025-03-30T09:57:25Z</time>
   </trkpt>
   <trkpt lat="46.848445892334" lon="12.773325920105">
    <ele>927.48681640625</ele>
    <time>2025-03-30T09:57:26Z</time>
   </trkpt>
   <trkpt lat="46.8484382629394" lon="12.7733526229858">
    <ele>926.725769042969</ele>
    <time>2025-03-30T09:57:29Z</time>
   </trkpt>
   <trkpt lat="46.8484344482422" lon="12.7733869552612">
    <ele>926.117919921875</ele>
    <time>2025-03-30T09:57:33Z</time>
   </trkpt>
   <trkpt lat="46.8484230041504" lon="12.7734003067017">
    <ele>925.220886230469</ele>
    <time>2025-03-30T09:57:35Z</time>
   </trkpt>
   <trkpt lat="46.8484115600586" lon="12.7734355926514">
    <ele>924.093139648438</ele>
    <time>2025-03-30T09:57:38Z</time>
   </trkpt>
   <trkpt lat="46.8484039306641" lon="12.7734546661377">
    <ele>923.386047363281</ele>
    <time>2025-03-30T09:57:40Z</time>
   </trkpt>
   <trkpt lat="46.848388671875" lon="12.7734804153442">
    <ele>922.098999023438</ele>
    <time>2025-03-30T09:57:42Z</time>
   </trkpt>
   <trkpt lat="46.8483734130859" lon="12.7735366821289">
    <ele>920.484313964844</ele>
    <time>2025-03-30T09:57:47Z</time>
   </trkpt>
   <trkpt lat="46.8483734130859" lon="12.7735471725464">
    <ele>920.372802734375</ele>
    <time>2025-03-30T09:57:48Z</time>
   </trkpt>
   <trkpt lat="46.8483734130859" lon="12.7735767364502">
    <ele>920.058654785156</ele>
    <time>2025-03-30T09:57:52Z</time>
   </trkpt>
   <trkpt lat="46.8483657836914" lon="12.7736101150513">
    <ele>919.191284179688</ele>
    <time>2025-03-30T09:57:55Z</time>
   </trkpt>
   <trkpt lat="46.8483581542969" lon="12.7736349105835">
    <ele>918.413513183594</ele>
    <time>2025-03-30T09:57:57Z</time>
   </trkpt>
   <trkpt lat="46.8483581542969" lon="12.773684501648">
    <ele>917.883239746094</ele>
    <time>2025-03-30T09:58:01Z</time>
   </trkpt>
   <trkpt lat="46.8483619689941" lon="12.7736940383911">
    <ele>918.038940429688</ele>
    <time>2025-03-30T09:58:02Z</time>
   </trkpt>
   <trkpt lat="46.8483581542969" lon="12.7737302780151">
    <ele>917.393737792969</ele>
    <time>2025-03-30T09:58:05Z</time>
   </trkpt>
   <trkpt lat="46.8483619689941" lon="12.7737503051758">
    <ele>917.438232421875</ele>
    <time>2025-03-30T09:58:07Z</time>
   </trkpt>
   <trkpt lat="46.8483619689941" lon="12.7737741470337">
    <ele>917.183715820312</ele>
    <time>2025-03-30T09:58:09Z</time>
   </trkpt>
   <trkpt lat="46.8483543395996" lon="12.7738523483276">
    <ele>915.828125</ele>
    <time>2025-03-30T09:58:13Z</time>
   </trkpt>
   <trkpt lat="46.8483505249023" lon="12.773907661438">
    <ele>914.974548339844</ele>
    <time>2025-03-30T09:58:17Z</time>
   </trkpt>
   <trkpt lat="46.8483505249023" lon="12.7739572525024">
    <ele>914.442626953125</ele>
    <time>2025-03-30T09:58:20Z</time>
   </trkpt>
   <trkpt lat="46.8483467102051" lon="12.7739725112915">
    <ele>914.016662597656</ele>
    <time>2025-03-30T09:58:21Z</time>
   </trkpt>
   <trkpt lat="46.8483467102051" lon="12.7740316390991">
    <ele>913.381530761719</ele>
    <time>2025-03-30T09:58:25Z</time>
   </trkpt>
   <trkpt lat="46.8483467102051" lon="12.7740755081177">
    <ele>912.910278320312</ele>
    <time>2025-03-30T09:58:28Z</time>
   </trkpt>
   <trkpt lat="46.8483428955078" lon="12.774097442627">
    <ele>912.410278320312</ele>
    <time>2025-03-30T09:58:31Z</time>
   </trkpt>
   <trkpt lat="46.8483467102051" lon="12.7741060256958">
    <ele>912.582458496094</ele>
    <time>2025-03-30T09:58:32Z</time>
   </trkpt>
   <trkpt lat="46.8483390808106" lon="12.774130821228">
    <ele>911.786254882812</ele>
    <time>2025-03-30T09:58:34Z</time>
   </trkpt>
   <trkpt lat="46.848331451416" lon="12.7741842269897">
    <ele>910.684143066406</ele>
    <time>2025-03-30T09:58:38Z</time>
   </trkpt>
   <trkpt lat="46.8483276367188" lon="12.7742128372192">
    <ele>910.120788574219</ele>
    <time>2025-03-30T09:58:40Z</time>
   </trkpt>
   <trkpt lat="46.8483200073242" lon="12.7742414474487">
    <ele>909.305480957031</ele>
    <time>2025-03-30T09:58:42Z</time>
   </trkpt>
   <trkpt lat="46.8483238220215" lon="12.7742881774902">
    <ele>909.058532714844</ele>
    <time>2025-03-30T09:58:47Z</time>
   </trkpt>
   <trkpt lat="46.8483238220215" lon="12.7743148803711">
    <ele>908.772338867188</ele>
    <time>2025-03-30T09:58:49Z</time>
   </trkpt>
   <trkpt lat="46.8483276367188" lon="12.7743263244629">
    <ele>908.900756835938</ele>
    <time>2025-03-30T09:58:50Z</time>
   </trkpt>
   <trkpt lat="46.8483276367188" lon="12.7743425369263">
    <ele>908.726440429688</ele>
    <time>2025-03-30T09:58:51Z</time>
   </trkpt>
   <trkpt lat="46.848331451416" lon="12.7743663787842">
    <ele>908.719909667969</ele>
    <time>2025-03-30T09:58:53Z</time>
   </trkpt>
   <trkpt lat="46.848331451416" lon="12.7743825912476">
    <ele>908.545043945312</ele>
    <time>2025-03-30T09:58:54Z</time>
   </trkpt>
   <trkpt lat="46.8483352661133" lon="12.7744150161743">
    <ele>908.452331542969</ele>
    <time>2025-03-30T09:58:56Z</time>
   </trkpt>
   <trkpt lat="46.8483390808106" lon="12.7744722366333">
    <ele>908.099853515625</ele>
    <time>2025-03-30T09:59:01Z</time>
   </trkpt>
   <trkpt lat="46.8483428955078" lon="12.7745456695557">
    <ele>907.572326660156</ele>
    <time>2025-03-30T09:59:06Z</time>
   </trkpt>
   <trkpt lat="46.8483390808106" lon="12.7745723724365">
    <ele>907.018432617188</ele>
    <time>2025-03-30T09:59:08Z</time>
   </trkpt>
   <trkpt lat="46.8483428955078" lon="12.7746095657349">
    <ele>906.882202148438</ele>
    <time>2025-03-30T09:59:10Z</time>
   </trkpt>
   <trkpt lat="46.8483505249023" lon="12.77467918396">
    <ele>906.661376953125</ele>
    <time>2025-03-30T09:59:15Z</time>
   </trkpt>
   <trkpt lat="46.8483505249023" lon="12.7746953964233">
    <ele>906.486267089844</ele>
    <time>2025-03-30T09:59:16Z</time>
   </trkpt>
   <trkpt lat="46.8483390808106" lon="12.774751663208">
    <ele>905.082092285156</ele>
    <time>2025-03-30T09:59:20Z</time>
   </trkpt>
   <trkpt lat="46.8483009338379" lon="12.7748126983643">
    <ele>902.026428222656</ele>
    <time>2025-03-30T09:59:25Z</time>
   </trkpt>
   <trkpt lat="46.8482894897461" lon="12.7748231887817">
    <ele>901.211975097656</ele>
    <time>2025-03-30T09:59:26Z</time>
   </trkpt>
   <trkpt lat="46.8482704162598" lon="12.7748470306396">
    <ele>899.793884277344</ele>
    <time>2025-03-30T09:59:28Z</time>
   </trkpt>
   <trkpt lat="46.848258972168" lon="12.7748775482178">
    <ele>898.782165527344</ele>
    <time>2025-03-30T09:59:30Z</time>
   </trkpt>
   <trkpt lat="46.8482360839844" lon="12.7749042510986">
    <ele>897.11865234375</ele>
    <time>2025-03-30T09:59:33Z</time>
   </trkpt>
   <trkpt lat="46.8482284545898" lon="12.7749147415161">
    <ele>896.55078125</ele>
    <time>2025-03-30T09:59:34Z</time>
   </trkpt>
   <trkpt lat="46.8482055664062" lon="12.7750034332275">
    <ele>894.300048828125</ele>
    <time>2025-03-30T09:59:39Z</time>
   </trkpt>
   <trkpt lat="46.8481712341309" lon="12.7750406265259">
    <ele>891.908447265625</ele>
    <time>2025-03-30T09:59:42Z</time>
   </trkpt>
   <trkpt lat="46.8481636047363" lon="12.77503490448">
    <ele>891.509094238281</ele>
    <time>2025-03-30T09:59:43Z</time>
   </trkpt>
   <trkpt lat="46.8481597900391" lon="12.7750110626221">
    <ele>891.491149902344</ele>
    <time>2025-03-30T09:59:45Z</time>
   </trkpt>
   <trkpt lat="46.8481559753418" lon="12.7749834060669">
    <ele>891.512329101562</ele>
    <time>2025-03-30T09:59:47Z</time>
   </trkpt>
   <trkpt lat="46.8481674194336" lon="12.7748899459839">
    <ele>893.075988769531</ele>
    <time>2025-03-30T09:59:51Z</time>
   </trkpt>
   <trkpt lat="46.8481750488281" lon="12.7748346328735">
    <ele>894.062744140625</ele>
    <time>2025-03-30T09:59:54Z</time>
   </trkpt>
   <trkpt lat="46.8481750488281" lon="12.7747640609741">
    <ele>894.728393554688</ele>
    <time>2025-03-30T09:59:57Z</time>
   </trkpt>
   <trkpt lat="46.8481597900391" lon="12.774697303772">
    <ele>894.402648925781</ele>
    <time>2025-03-30T10:00:01Z</time>
   </trkpt>
   <trkpt lat="46.8481521606445" lon="12.7746849060059">
    <ele>894.039428710938</ele>
    <time>2025-03-30T10:00:02Z</time>
   </trkpt>
   <trkpt lat="46.8481025695801" lon="12.7746706008911">
    <ele>891.054931640625</ele>
    <time>2025-03-30T10:00:06Z</time>
   </trkpt>
   <trkpt lat="46.848072052002" lon="12.77467918396">
    <ele>889.063720703125</ele>
    <time>2025-03-30T10:00:08Z</time>
   </trkpt>
   <trkpt lat="46.8480377197266" lon="12.7747287750244">
    <ele>886.499694824219</ele>
    <time>2025-03-30T10:00:11Z</time>
   </trkpt>
   <trkpt lat="46.8480110168457" lon="12.7747764587402">
    <ele>884.452758789062</ele>
    <time>2025-03-30T10:00:14Z</time>
   </trkpt>
   <trkpt lat="46.8479995727539" lon="12.7747974395752">
    <ele>883.577880859375</ele>
    <time>2025-03-30T10:00:16Z</time>
   </trkpt>
   <trkpt lat="46.847972869873" lon="12.774845123291">
    <ele>881.5625</ele>
    <time>2025-03-30T10:00:21Z</time>
   </trkpt>
   <trkpt lat="46.8479614257812" lon="12.7748651504517">
    <ele>880.708618164062</ele>
    <time>2025-03-30T10:00:22Z</time>
   </trkpt>
   <trkpt lat="46.8479042053223" lon="12.7749462127686">
    <ele>876.6337890625</ele>
    <time>2025-03-30T10:00:27Z</time>
   </trkpt>
   <trkpt lat="46.8478813171387" lon="12.7749767303467">
    <ele>875.039489746094</ele>
    <time>2025-03-30T10:00:29Z</time>
   </trkpt>
   <trkpt lat="46.847843170166" lon="12.7750148773193">
    <ele>872.582824707031</ele>
    <time>2025-03-30T10:00:32Z</time>
   </trkpt>
   <trkpt lat="46.8477745056152" lon="12.7750434875488">
    <ele>868.526184082031</ele>
    <time>2025-03-30T10:00:37Z</time>
   </trkpt>
   <trkpt lat="46.8477058410644" lon="12.7750444412231">
    <ele>864.486633300781</ele>
    <time>2025-03-30T10:00:42Z</time>
   </trkpt>
   <trkpt lat="46.8476829528809" lon="12.7750368118286">
    <ele>863.11181640625</ele>
    <time>2025-03-30T10:00:44Z</time>
   </trkpt>
   <trkpt lat="46.8476715087891" lon="12.775032043457">
    <ele>862.417236328125</ele>
    <time>2025-03-30T10:00:45Z</time>
   </trkpt>
   <trkpt lat="46.8476181030273" lon="12.7750196456909">
    <ele>859.191040039062</ele>
    <time>2025-03-30T10:00:50Z</time>
   </trkpt>
   <trkpt lat="46.847583770752" lon="12.7749996185303">
    <ele>857.027893066406</ele>
    <time>2025-03-30T10:00:54Z</time>
   </trkpt>
   <trkpt lat="46.8475608825684" lon="12.7749900817871">
    <ele>855.69384765625</ele>
    <time>2025-03-30T10:00:56Z</time>
   </trkpt>
   <trkpt lat="46.847526550293" lon="12.7749872207642">
    <ele>853.641967773438</ele>
    <time>2025-03-30T10:00:58Z</time>
   </trkpt>
   <trkpt lat="46.8474617004394" lon="12.7749729156494">
    <ele>851.114440917969</ele>
    <time>2025-03-30T10:01:02Z</time>
   </trkpt>
   <trkpt lat="46.8474426269531" lon="12.7749719619751">
    <ele>850.627319335938</ele>
    <time>2025-03-30T10:01:03Z</time>
   </trkpt>
   <trkpt lat="46.8474006652832" lon="12.7749691009521">
    <ele>849.554992675781</ele>
    <time>2025-03-30T10:01:06Z</time>
   </trkpt>
   <trkpt lat="46.8473434448242" lon="12.7749490737915">
    <ele>848.100402832031</ele>
    <time>2025-03-30T10:01:10Z</time>
   </trkpt>
   <trkpt lat="46.8473014831543" lon="12.7749366760254">
    <ele>847.008117675781</ele>
    <time>2025-03-30T10:01:13Z</time>
   </trkpt>
   <trkpt lat="46.8472595214844" lon="12.7749290466309">
    <ele>845.900512695312</ele>
    <time>2025-03-30T10:01:16Z</time>
   </trkpt>
   <trkpt lat="46.8472366333008" lon="12.7749214172363">
    <ele>845.288452148438</ele>
    <time>2025-03-30T10:01:18Z</time>
   </trkpt>
   <trkpt lat="46.8471984863281" lon="12.7749099731445">
    <ele>844.256896972656</ele>
    <time>2025-03-30T10:01:21Z</time>
   </trkpt>
   <trkpt lat="46.8471603393555" lon="12.7749004364014">
    <ele>843.214599609375</ele>
    <time>2025-03-30T10:01:24Z</time>
   </trkpt>
   <trkpt lat="46.8471488952637" lon="12.7748985290527">
    <ele>842.901794433594</ele>
    <time>2025-03-30T10:01:25Z</time>
   </trkpt>
   <trkpt lat="46.8470878601074" lon="12.7748880386353">
    <ele>841.219787597656</ele>
    <time>2025-03-30T10:01:29Z</time>
   </trkpt>
   <trkpt lat="46.8470230102539" lon="12.7748785018921">
    <ele>839.415832519531</ele>
    <time>2025-03-30T10:01:34Z</time>
   </trkpt>
   <trkpt lat="46.8470115661621" lon="12.7748765945435">
    <ele>839.094177246094</ele>
    <time>2025-03-30T10:01:35Z</time>
   </trkpt>
   <trkpt lat="46.8469734191894" lon="12.774866104126">
    <ele>837.993835449219</ele>
    <time>2025-03-30T10:01:38Z</time>
   </trkpt>
   <trkpt lat="46.8469276428223" lon="12.7748508453369">
    <ele>836.638366699219</ele>
    <time>2025-03-30T10:01:41Z</time>
   </trkpt>
   <trkpt lat="46.8469009399414" lon="12.7748327255249">
    <ele>835.774291992188</ele>
    <time>2025-03-30T10:01:43Z</time>
   </trkpt>
   <trkpt lat="46.8468856811523" lon="12.774829864502">
    <ele>835.325561523438</ele>
    <time>2025-03-30T10:01:44Z</time>
   </trkpt>
   <trkpt lat="46.8468284606934" lon="12.7748126983643">
    <ele>833.578002929688</ele>
    <time>2025-03-30T10:01:49Z</time>
   </trkpt>
   <trkpt lat="46.8468132019043" lon="12.7748079299927">
    <ele>833.104675292969</ele>
    <time>2025-03-30T10:01:50Z</time>
   </trkpt>
   <trkpt lat="46.8467712402344" lon="12.774787902832">
    <ele>831.727844238281</ele>
    <time>2025-03-30T10:01:53Z</time>
   </trkpt>
   <trkpt lat="46.8466987609863" lon="12.7747573852539">
    <ele>829.323059082031</ele>
    <time>2025-03-30T10:01:58Z</time>
   </trkpt>
   <trkpt lat="46.8466529846191" lon="12.774730682373">
    <ele>827.992858886719</ele>
    <time>2025-03-30T10:02:02Z</time>
   </trkpt>
   <trkpt lat="46.8466186523438" lon="12.7747020721436">
    <ele>827.436645507812</ele>
    <time>2025-03-30T10:02:06Z</time>
   </trkpt>
   <trkpt lat="46.8465461730957" lon="12.7746629714966">
    <ele>826.492553710938</ele>
    <time>2025-03-30T10:02:11Z</time>
   </trkpt>
   <trkpt lat="46.8465309143066" lon="12.7746515274048">
    <ele>826.259094238281</ele>
    <time>2025-03-30T10:02:12Z</time>
   </trkpt>
   <trkpt lat="46.8464584350586" lon="12.7746324539185">
    <ele>825.53125</ele>
    <time>2025-03-30T10:02:17Z</time>
   </trkpt>
   <trkpt lat="46.8464202880859" lon="12.7746391296387">
    <ele>825.328674316406</ele>
    <time>2025-03-30T10:02:20Z</time>
   </trkpt>
   <trkpt lat="46.8463668823242" lon="12.7746601104736">
    <ele>825.170715332031</ele>
    <time>2025-03-30T10:02:25Z</time>
   </trkpt>
   <trkpt lat="46.8463401794434" lon="12.7746772766113">
    <ele>825.163879394531</ele>
    <time>2025-03-30T10:02:28Z</time>
   </trkpt>
   <trkpt lat="46.8463249206543" lon="12.7746868133545">
    <ele>825.156982421875</ele>
    <time>2025-03-30T10:02:30Z</time>
   </trkpt>
   <trkpt lat="46.8462715148926" lon="12.7747030258179">
    <ele>824.947570800781</ele>
    <time>2025-03-30T10:02:35Z</time>
   </trkpt>
   <trkpt lat="46.8462448120117" lon="12.7747030258179">
    <ele>824.755310058594</ele>
    <time>2025-03-30T10:02:38Z</time>
   </trkpt>
   <trkpt lat="46.8462066650391" lon="12.7746810913086">
    <ele>824.243774414062</ele>
    <time>2025-03-30T10:02:42Z</time>
   </trkpt>
   <trkpt lat="46.84619140625" lon="12.7746667861938">
    <ele>823.979431152344</ele>
    <time>2025-03-30T10:02:43Z</time>
   </trkpt>
   <trkpt lat="46.8461532592773" lon="12.7746362686157">
    <ele>823.375183105469</ele>
    <time>2025-03-30T10:02:46Z</time>
   </trkpt>
   <trkpt lat="46.8461380004883" lon="12.7746248245239">
    <ele>823.141723632812</ele>
    <time>2025-03-30T10:02:48Z</time>
   </trkpt>
   <trkpt lat="46.8461265563965" lon="12.7746095657349">
    <ele>822.89453125</ele>
    <time>2025-03-30T10:02:50Z</time>
   </trkpt>
   <trkpt lat="46.8460960388184" lon="12.7745609283447">
    <ele>822.149475097656</ele>
    <time>2025-03-30T10:02:53Z</time>
   </trkpt>
   <trkpt lat="46.846076965332" lon="12.7745380401611">
    <ele>821.764953613281</ele>
    <time>2025-03-30T10:02:55Z</time>
   </trkpt>
   <trkpt lat="46.8460464477539" lon="12.7744846343994">
    <ele>820.968444824219</ele>
    <time>2025-03-30T10:02:59Z</time>
   </trkpt>
   <trkpt lat="46.8460006713867" lon="12.7744150161743">
    <ele>819.887023925781</ele>
    <time>2025-03-30T10:03:04Z</time>
   </trkpt>
   <trkpt lat="46.8459930419922" lon="12.7744073867798">
    <ele>819.749694824219</ele>
    <time>2025-03-30T10:03:05Z</time>
   </trkpt>
   <trkpt lat="46.845947265625" lon="12.7743482589722">
    <ele>818.781494140625</ele>
    <time>2025-03-30T10:03:10Z</time>
   </trkpt>
   <trkpt lat="46.8459129333496" lon="12.7743148803711">
    <ele>818.173828125</ele>
    <time>2025-03-30T10:03:13Z</time>
   </trkpt>
   <trkpt lat="46.8458976745606" lon="12.7742872238159">
    <ele>817.765258789062</ele>
    <time>2025-03-30T10:03:16Z</time>
   </trkpt>
   <trkpt lat="46.8458862304688" lon="12.7742834091187">
    <ele>817.641662597656</ele>
    <time>2025-03-30T10:03:17Z</time>
   </trkpt>
   <trkpt lat="46.8458404541016" lon="12.7742462158203">
    <ele>816.910400390625</ele>
    <time>2025-03-30T10:03:21Z</time>
   </trkpt>
   <trkpt lat="46.8458251953125" lon="12.7742385864258">
    <ele>816.618774414062</ele>
    <time>2025-03-30T10:03:22Z</time>
   </trkpt>
   <trkpt lat="46.8458023071289" lon="12.7742118835449">
    <ele>815.888610839844</ele>
    <time>2025-03-30T10:03:25Z</time>
   </trkpt>
   <trkpt lat="46.8457908630371" lon="12.774188041687">
    <ele>815.412780761719</ele>
    <time>2025-03-30T10:03:27Z</time>
   </trkpt>
   <trkpt lat="46.845760345459" lon="12.7741451263428">
    <ele>814.323364257812</ele>
    <time>2025-03-30T10:03:30Z</time>
   </trkpt>
   <trkpt lat="46.8457374572754" lon="12.7741165161133">
    <ele>813.52490234375</ele>
    <time>2025-03-30T10:03:32Z</time>
   </trkpt>
   <trkpt lat="46.8457221984863" lon="12.7741079330444">
    <ele>813.128540039062</ele>
    <time>2025-03-30T10:03:33Z</time>
   </trkpt>
   <trkpt lat="46.8456726074219" lon="12.7740850448608">
    <ele>811.912231445312</ele>
    <time>2025-03-30T10:03:38Z</time>
   </trkpt>
   <trkpt lat="46.8456649780273" lon="12.7740716934204">
    <ele>811.606018066406</ele>
    <time>2025-03-30T10:03:39Z</time>
   </trkpt>
   <trkpt lat="46.8456573486328" lon="12.7740526199341">
    <ele>811.231262207031</ele>
    <time>2025-03-30T10:03:41Z</time>
   </trkpt>
   <trkpt lat="46.8456344604492" lon="12.7740268707275">
    <ele>810.496459960938</ele>
    <time>2025-03-30T10:03:43Z</time>
   </trkpt>
   <trkpt lat="46.8456039428711" lon="12.7740049362183">
    <ele>809.674560546875</ele>
    <time>2025-03-30T10:03:45Z</time>
   </trkpt>
   <trkpt lat="46.8455810546875" lon="12.7739934921265">
    <ele>809.122009277344</ele>
    <time>2025-03-30T10:03:48Z</time>
   </trkpt>
   <trkpt lat="46.8455810546875" lon="12.773983001709">
    <ele>808.998779296875</ele>
    <time>2025-03-30T10:03:50Z</time>
   </trkpt>
   <trkpt lat="46.8455543518066" lon="12.7739448547363">
    <ele>808.072082519531</ele>
    <time>2025-03-30T10:03:53Z</time>
   </trkpt>
   <trkpt lat="46.8455276489258" lon="12.7739105224609">
    <ele>807.200744628906</ele>
    <time>2025-03-30T10:03:55Z</time>
   </trkpt>
   <trkpt lat="46.8454971313477" lon="12.7738676071167">
    <ele>806.176452636719</ele>
    <time>2025-03-30T10:03:59Z</time>
   </trkpt>
   <trkpt lat="46.8454513549805" lon="12.7738132476807">
    <ele>804.778503417969</ele>
    <time>2025-03-30T10:04:05Z</time>
   </trkpt>
   <trkpt lat="46.8454055786133" lon="12.7737684249878">
    <ele>803.511535644531</ele>
    <time>2025-03-30T10:04:09Z</time>
   </trkpt>
   <trkpt lat="46.8453903198242" lon="12.7737483978271">
    <ele>803.040283203125</ele>
    <time>2025-03-30T10:04:11Z</time>
   </trkpt>
   <trkpt lat="46.8453559875488" lon="12.7737188339233">
    <ele>802.154907226562</ele>
    <time>2025-03-30T10:04:14Z</time>
   </trkpt>
   <trkpt lat="46.845344543457" lon="12.7737035751343">
    <ele>801.806213378906</ele>
    <time>2025-03-30T10:04:15Z</time>
   </trkpt>
   <trkpt lat="46.8453140258789" lon="12.7736587524414">
    <ele>800.844116210938</ele>
    <time>2025-03-30T10:04:18Z</time>
   </trkpt>
   <trkpt lat="46.845287322998" lon="12.7736387252808">
    <ele>800.208190917969</ele>
    <time>2025-03-30T10:04:21Z</time>
   </trkpt>
   <trkpt lat="46.8452644348144" lon="12.7736282348633">
    <ele>799.734191894531</ele>
    <time>2025-03-30T10:04:24Z</time>
   </trkpt>
   <trkpt lat="46.8452453613281" lon="12.7736015319824">
    <ele>799.165100097656</ele>
    <time>2025-03-30T10:04:26Z</time>
   </trkpt>
   <trkpt lat="46.8452186584473" lon="12.7735729217529">
    <ele>798.462951660156</ele>
    <time>2025-03-30T10:04:29Z</time>
   </trkpt>
   <trkpt lat="46.8451957702637" lon="12.7735576629639">
    <ele>797.956420898438</ele>
    <time>2025-03-30T10:04:31Z</time>
   </trkpt>
   <trkpt lat="46.8451919555664" lon="12.7735528945923">
    <ele>797.851257324219</ele>
    <time>2025-03-30T10:04:32Z</time>
   </trkpt>
   <trkpt lat="46.8451538085938" lon="12.7735061645508">
    <ele>796.819763183594</ele>
    <time>2025-03-30T10:04:36Z</time>
   </trkpt>
   <trkpt lat="46.845142364502" lon="12.7734889984131">
    <ele>796.485290527344</ele>
    <time>2025-03-30T10:04:37Z</time>
   </trkpt>
   <trkpt lat="46.8450927734375" lon="12.7734527587891">
    <ele>795.402954101562</ele>
    <time>2025-03-30T10:04:41Z</time>
   </trkpt>
   <trkpt lat="46.845085144043" lon="12.7734489440918">
    <ele>795.25390625</ele>
    <time>2025-03-30T10:04:42Z</time>
   </trkpt>
   <trkpt lat="46.8450813293457" lon="12.773440361023">
    <ele>795.120300292969</ele>
    <time>2025-03-30T10:04:44Z</time>
   </trkpt>
   <trkpt lat="46.8450736999512" lon="12.7734298706055">
    <ele>794.913146972656</ele>
    <time>2025-03-30T10:04:46Z</time>
   </trkpt>
   <trkpt lat="46.8450546264648" lon="12.773419380188">
    <ele>794.536499023438</ele>
    <time>2025-03-30T10:04:47Z</time>
   </trkpt>
   <trkpt lat="46.845043182373" lon="12.7734107971191">
    <ele>794.291809082031</ele>
    <time>2025-03-30T10:04:48Z</time>
   </trkpt>
   <trkpt lat="46.8449935913086" lon="12.7733678817749">
    <ele>793.195678710938</ele>
    <time>2025-03-30T10:04:53Z</time>
   </trkpt>
   <trkpt lat="46.8449363708496" lon="12.7733154296875">
    <ele>791.915161132812</ele>
    <time>2025-03-30T10:04:57Z</time>
   </trkpt>
   <trkpt lat="46.8449249267578" lon="12.7732934951782">
    <ele>791.545104980469</ele>
    <time>2025-03-30T10:04:58Z</time>
   </trkpt>
   <trkpt lat="46.8449020385742" lon="12.773268699646">
    <ele>790.987121582031</ele>
    <time>2025-03-30T10:05:01Z</time>
   </trkpt>
   <trkpt lat="46.8449020385742" lon="12.7732572555542">
    <ele>790.880493164062</ele>
    <time>2025-03-30T10:05:02Z</time>
   </trkpt>
   <trkpt lat="46.8448867797852" lon="12.7732410430908">
    <ele>790.513732910156</ele>
    <time>2025-03-30T10:05:04Z</time>
   </trkpt>
   <trkpt lat="46.8448753356934" lon="12.7732305526733">
    <ele>790.255065917969</ele>
    <time>2025-03-30T10:05:05Z</time>
   </trkpt>
   <trkpt lat="46.8448333740234" lon="12.7731943130493">
    <ele>789.332702636719</ele>
    <time>2025-03-30T10:05:08Z</time>
   </trkpt>
   <trkpt lat="46.8448219299316" lon="12.7731885910034">
    <ele>789.120483398438</ele>
    <time>2025-03-30T10:05:09Z</time>
   </trkpt>
   <trkpt lat="46.844799041748" lon="12.7731742858887">
    <ele>788.67138671875</ele>
    <time>2025-03-30T10:05:12Z</time>
   </trkpt>
   <trkpt lat="46.8447875976562" lon="12.7731628417969">
    <ele>788.408996582031</ele>
    <time>2025-03-30T10:05:13Z</time>
   </trkpt>
   <trkpt lat="46.8447418212891" lon="12.7731094360352">
    <ele>787.29931640625</ele>
    <time>2025-03-30T10:05:17Z</time>
   </trkpt>
   <trkpt lat="46.8447303771973" lon="12.7730932235718">
    <ele>786.998840332031</ele>
    <time>2025-03-30T10:05:18Z</time>
   </trkpt>
   <trkpt lat="46.8446998596191" lon="12.7730751037598">
    <ele>786.422180175781</ele>
    <time>2025-03-30T10:05:21Z</time>
   </trkpt>
   <trkpt lat="46.8446846008301" lon="12.7730693817139">
    <ele>786.1640625</ele>
    <time>2025-03-30T10:05:23Z</time>
   </trkpt>
   <trkpt lat="46.8446578979492" lon="12.7730379104614">
    <ele>785.528747558594</ele>
    <time>2025-03-30T10:05:26Z</time>
   </trkpt>
   <trkpt lat="46.8446426391602" lon="12.7730159759521">
    <ele>785.133972167969</ele>
    <time>2025-03-30T10:05:28Z</time>
   </trkpt>
   <trkpt lat="46.8446197509766" lon="12.7729825973511">
    <ele>784.541442871094</ele>
    <time>2025-03-30T10:05:31Z</time>
   </trkpt>
   <trkpt lat="46.8445816040039" lon="12.7729597091675">
    <ele>783.838500976562</ele>
    <time>2025-03-30T10:05:34Z</time>
   </trkpt>
   <trkpt lat="46.8445434570312" lon="12.7729434967041">
    <ele>783.195922851562</ele>
    <time>2025-03-30T10:05:37Z</time>
   </trkpt>
   <trkpt lat="46.8444976806641" lon="12.7729244232178">
    <ele>782.4326171875</ele>
    <time>2025-03-30T10:05:40Z</time>
   </trkpt>
   <trkpt lat="46.8444633483887" lon="12.7729043960571">
    <ele>781.8173828125</ele>
    <time>2025-03-30T10:05:44Z</time>
   </trkpt>
   <trkpt lat="46.8444595336914" lon="12.7729005813599">
    <ele>781.736450195312</ele>
    <time>2025-03-30T10:05:45Z</time>
   </trkpt>
   <trkpt lat="46.8443832397461" lon="12.7728834152222">
    <ele>780.5986328125</ele>
    <time>2025-03-30T10:05:50Z</time>
   </trkpt>
   <trkpt lat="46.8443336486816" lon="12.7728757858276">
    <ele>779.89013671875</ele>
    <time>2025-03-30T10:05:55Z</time>
   </trkpt>
   <trkpt lat="46.8442726135254" lon="12.7728643417358">
    <ele>779.005798339844</ele>
    <time>2025-03-30T10:05:59Z</time>
   </trkpt>
   <trkpt lat="46.84423828125" lon="12.7728471755981">
    <ele>778.4306640625</ele>
    <time>2025-03-30T10:06:01Z</time>
   </trkpt>
   <trkpt lat="46.8442115783691" lon="12.772834777832">
    <ele>777.992614746094</ele>
    <time>2025-03-30T10:06:03Z</time>
   </trkpt>
   <trkpt lat="46.8441734313965" lon="12.7728080749512">
    <ele>777.305297851562</ele>
    <time>2025-03-30T10:06:07Z</time>
   </trkpt>
   <trkpt lat="46.8441581726074" lon="12.7728061676025">
    <ele>777.088562011719</ele>
    <time>2025-03-30T10:06:08Z</time>
   </trkpt>
   <trkpt lat="46.8441047668457" lon="12.772798538208">
    <ele>776.305786132812</ele>
    <time>2025-03-30T10:06:12Z</time>
   </trkpt>
   <trkpt lat="46.8440742492676" lon="12.7727909088135">
    <ele>775.8359375</ele>
    <time>2025-03-30T10:06:14Z</time>
   </trkpt>
   <trkpt lat="46.8440322875977" lon="12.7727861404419">
    <ele>775.231018066406</ele>
    <time>2025-03-30T10:06:17Z</time>
   </trkpt>
   <trkpt lat="46.8439865112305" lon="12.7727708816528">
    <ele>774.502014160156</ele>
    <time>2025-03-30T10:06:21Z</time>
   </trkpt>
   <trkpt lat="46.8439598083496" lon="12.7727632522583">
    <ele>774.086486816406</ele>
    <time>2025-03-30T10:06:23Z</time>
   </trkpt>
   <trkpt lat="46.8439292907715" lon="12.7727680206299">
    <ele>773.704772949219</ele>
    <time>2025-03-30T10:06:26Z</time>
   </trkpt>
   <trkpt lat="46.8438835144043" lon="12.7727518081665">
    <ele>772.972717285156</ele>
    <time>2025-03-30T10:06:30Z</time>
   </trkpt>
   <trkpt lat="46.8438758850098" lon="12.772744178772">
    <ele>772.817504882812</ele>
    <time>2025-03-30T10:06:31Z</time>
   </trkpt>
   <trkpt lat="46.8438377380371" lon="12.7727327346802">
    <ele>772.223571777344</ele>
    <time>2025-03-30T10:06:34Z</time>
   </trkpt>
   <trkpt lat="46.843807220459" lon="12.7727146148682">
    <ele>771.689453125</ele>
    <time>2025-03-30T10:06:38Z</time>
   </trkpt>
   <trkpt lat="46.8437957763672" lon="12.7727155685425">
    <ele>771.541198730469</ele>
    <time>2025-03-30T10:06:39Z</time>
   </trkpt>
   <trkpt lat="46.8437385559082" lon="12.7727098464966">
    <ele>770.73046875</ele>
    <time>2025-03-30T10:06:43Z</time>
   </trkpt>
   <trkpt lat="46.8437232971191" lon="12.7727108001709">
    <ele>770.530700683594</ele>
    <time>2025-03-30T10:06:44Z</time>
   </trkpt>
   <trkpt lat="46.8436889648438" lon="12.7727155685425">
    <ele>770.09814453125</ele>
    <time>2025-03-30T10:06:48Z</time>
   </trkpt>
   <trkpt lat="46.8436813354492" lon="12.7727127075195">
    <ele>769.976440429688</ele>
    <time>2025-03-30T10:06:49Z</time>
   </trkpt>
   <trkpt lat="46.8436393737793" lon="12.7727155685425">
    <ele>769.428161621094</ele>
    <time>2025-03-30T10:06:53Z</time>
   </trkpt>
   <trkpt lat="46.8436050415039" lon="12.772707939148">
    <ele>768.91552734375</ele>
    <time>2025-03-30T10:06:55Z</time>
   </trkpt>
   <trkpt lat="46.8435745239258" lon="12.7727069854736">
    <ele>768.497497558594</ele>
    <time>2025-03-30T10:06:57Z</time>
   </trkpt>
   <trkpt lat="46.8435325622559" lon="12.7727060317993">
    <ele>767.925109863281</ele>
    <time>2025-03-30T10:07:01Z</time>
   </trkpt>
   <trkpt lat="46.8435096740723" lon="12.772707939148">
    <ele>767.628112792969</ele>
    <time>2025-03-30T10:07:03Z</time>
   </trkpt>
   <trkpt lat="46.8434677124023" lon="12.7727088928223">
    <ele>767.067565917969</ele>
    <time>2025-03-30T10:07:06Z</time>
   </trkpt>
   <trkpt lat="46.8434448242188" lon="12.7727165222168">
    <ele>766.805603027344</ele>
    <time>2025-03-30T10:07:08Z</time>
   </trkpt>
   <trkpt lat="46.8434219360352" lon="12.7727184295654">
    <ele>766.507995605469</ele>
    <time>2025-03-30T10:07:11Z</time>
   </trkpt>
   <trkpt lat="46.8433723449707" lon="12.7727336883545">
    <ele>765.930236816406</ele>
    <time>2025-03-30T10:07:14Z</time>
   </trkpt>
   <trkpt lat="46.8433570861816" lon="12.7727422714233">
    <ele>765.775451660156</ele>
    <time>2025-03-30T10:07:15Z</time>
   </trkpt>
   <trkpt lat="46.8433036804199" lon="12.7727670669556">
    <ele>765.117004394531</ele>
    <time>2025-03-30T10:07:20Z</time>
   </trkpt>
   <trkpt lat="46.8432960510254" lon="12.7727708816528">
    <ele>765.014587402344</ele>
    <time>2025-03-30T10:07:21Z</time>
   </trkpt>
   <trkpt lat="46.8432426452637" lon="12.7728023529053">
    <ele>764.320434570312</ele>
    <time>2025-03-30T10:07:25Z</time>
   </trkpt>
   <trkpt lat="46.8432312011719" lon="12.7728147506714">
    <ele>764.20263671875</ele>
    <time>2025-03-30T10:07:26Z</time>
   </trkpt>
   <trkpt lat="46.8432121276856" lon="12.7728233337402">
    <ele>763.936340332031</ele>
    <time>2025-03-30T10:07:29Z</time>
   </trkpt>
   <trkpt lat="46.8431930541992" lon="12.7728338241577">
    <ele>763.679748535156</ele>
    <time>2025-03-30T10:07:31Z</time>
   </trkpt>
   <trkpt lat="46.8431587219238" lon="12.772855758667">
    <ele>763.231689453125</ele>
    <time>2025-03-30T10:07:34Z</time>
   </trkpt>
   <trkpt lat="46.8431243896484" lon="12.7728700637817">
    <ele>762.738159179688</ele>
    <time>2025-03-30T10:07:37Z</time>
   </trkpt>
   <trkpt lat="46.8431129455566" lon="12.7728700637817">
    <ele>762.547424316406</ele>
    <time>2025-03-30T10:07:39Z</time>
   </trkpt>
   <trkpt lat="46.8430633544922" lon="12.7728910446167">
    <ele>761.83056640625</ele>
    <time>2025-03-30T10:07:43Z</time>
   </trkpt>
   <trkpt lat="46.8430442810059" lon="12.7728958129883">
    <ele>761.5361328125</ele>
    <time>2025-03-30T10:07:44Z</time>
   </trkpt>
   <trkpt lat="46.8430061340332" lon="12.7728967666626">
    <ele>760.902404785156</ele>
    <time>2025-03-30T10:07:48Z</time>
   </trkpt>
   <trkpt lat="46.8429946899414" lon="12.7729005813599">
    <ele>760.72998046875</ele>
    <time>2025-03-30T10:07:49Z</time>
   </trkpt>
   <trkpt lat="46.8429527282715" lon="12.7729082107544">
    <ele>760.064392089844</ele>
    <time>2025-03-30T10:07:52Z</time>
   </trkpt>
   <trkpt lat="46.8429374694824" lon="12.7729148864746">
    <ele>759.8408203125</ele>
    <time>2025-03-30T10:07:53Z</time>
   </trkpt>
   <trkpt lat="46.8429222106934" lon="12.7729253768921">
    <ele>759.635070800781</ele>
    <time>2025-03-30T10:07:54Z</time>
   </trkpt>
   <trkpt lat="46.8428955078125" lon="12.7729339599609">
    <ele>759.226501464844</ele>
    <time>2025-03-30T10:07:57Z</time>
   </trkpt>
   <trkpt lat="46.8428764343262" lon="12.7729396820068">
    <ele>758.931884765625</ele>
    <time>2025-03-30T10:07:59Z</time>
   </trkpt>
   <trkpt lat="46.8428268432617" lon="12.7729482650757">
    <ele>758.134460449219</ele>
    <time>2025-03-30T10:08:04Z</time>
   </trkpt>
   <trkpt lat="46.8428001403809" lon="12.7729396820068">
    <ele>757.645080566406</ele>
    <time>2025-03-30T10:08:07Z</time>
   </trkpt>
   <trkpt lat="46.8427925109863" lon="12.7729320526123">
    <ele>757.482543945312</ele>
    <time>2025-03-30T10:08:08Z</time>
   </trkpt>
   <trkpt lat="46.8427848815918" lon="12.772931098938">
    <ele>757.349792480469</ele>
    <time>2025-03-30T10:08:09Z</time>
   </trkpt>
   <trkpt lat="46.8427276611328" lon="12.7729339599609">
    <ele>756.398315429688</ele>
    <time>2025-03-30T10:08:13Z</time>
   </trkpt>
   <trkpt lat="46.8426742553711" lon="12.7729473114014">
    <ele>755.553161621094</ele>
    <time>2025-03-30T10:08:18Z</time>
   </trkpt>
   <trkpt lat="46.842658996582" lon="12.7729530334473">
    <ele>755.318725585938</ele>
    <time>2025-03-30T10:08:19Z</time>
   </trkpt>
   <trkpt lat="46.842643737793" lon="12.7729587554932">
    <ele>755.083740234375</ele>
    <time>2025-03-30T10:08:22Z</time>
   </trkpt>
   <trkpt lat="46.842601776123" lon="12.7729711532593">
    <ele>754.421936035156</ele>
    <time>2025-03-30T10:08:26Z</time>
   </trkpt>
   <trkpt lat="46.842586517334" lon="12.7729759216309">
    <ele>754.181579589844</ele>
    <time>2025-03-30T10:08:27Z</time>
   </trkpt>
   <trkpt lat="46.8425178527832" lon="12.7729873657227">
    <ele>753.05810546875</ele>
    <time>2025-03-30T10:08:32Z</time>
   </trkpt>
   <trkpt lat="46.8425064086914" lon="12.772988319397">
    <ele>752.866943359375</ele>
    <time>2025-03-30T10:08:33Z</time>
   </trkpt>
   <trkpt lat="46.842456817627" lon="12.7729816436768">
    <ele>751.926696777344</ele>
    <time>2025-03-30T10:08:38Z</time>
   </trkpt>
   <trkpt lat="46.8424491882324" lon="12.7729864120483">
    <ele>751.800903320312</ele>
    <time>2025-03-30T10:08:39Z</time>
   </trkpt>
   <trkpt lat="46.8424072265625" lon="12.7729692459106">
    <ele>750.956665039062</ele>
    <time>2025-03-30T10:08:43Z</time>
   </trkpt>
   <trkpt lat="46.842399597168" lon="12.7729644775391">
    <ele>750.797729492188</ele>
    <time>2025-03-30T10:08:44Z</time>
   </trkpt>
   <trkpt lat="46.8423919677734" lon="12.7729444503784">
    <ele>750.586303710938</ele>
    <time>2025-03-30T10:08:46Z</time>
   </trkpt>
   <trkpt lat="46.8423843383789" lon="12.7729063034058">
    <ele>750.313110351562</ele>
    <time>2025-03-30T10:08:49Z</time>
   </trkpt>
   <trkpt lat="46.8423652648926" lon="12.7728834152222">
    <ele>749.880676269531</ele>
    <time>2025-03-30T10:08:50Z</time>
   </trkpt>
   <trkpt lat="46.8423233032227" lon="12.7728681564331">
    <ele>749.051147460938</ele>
    <time>2025-03-30T10:08:53Z</time>
   </trkpt>
   <trkpt lat="46.8423042297363" lon="12.772873878479">
    <ele>748.716674804688</ele>
    <time>2025-03-30T10:08:54Z</time>
   </trkpt>
   <trkpt lat="46.8422622680664" lon="12.7729120254517">
    <ele>748.063049316406</ele>
    <time>2025-03-30T10:08:58Z</time>
   </trkpt>
   <trkpt lat="46.842212677002" lon="12.7729873657227">
    <ele>747.381042480469</ele>
    <time>2025-03-30T10:09:04Z</time>
   </trkpt>
   <trkpt lat="46.8421592712402" lon="12.7730054855347">
    <ele>746.438598632812</ele>
    <time>2025-03-30T10:09:09Z</time>
   </trkpt>
   <trkpt lat="46.8421173095703" lon="12.7730188369751">
    <ele>745.693481445312</ele>
    <time>2025-03-30T10:09:12Z</time>
   </trkpt>
   <trkpt lat="46.8420524597168" lon="12.7731056213379">
    <ele>744.734191894531</ele>
    <time>2025-03-30T10:09:18Z</time>
   </trkpt>
   <trkpt lat="46.8420372009277" lon="12.7731475830078">
    <ele>744.5693359375</ele>
    <time>2025-03-30T10:09:21Z</time>
   </trkpt>
   <trkpt lat="46.8420219421387" lon="12.7732009887695">
    <ele>744.435974121094</ele>
    <time>2025-03-30T10:09:24Z</time>
   </trkpt>
   <trkpt lat="46.8420181274414" lon="12.7733306884766">
    <ele>744.740356445312</ele>
    <time>2025-03-30T10:09:30Z</time>
   </trkpt>
   <trkpt lat="46.8420181274414" lon="12.7733535766602">
    <ele>744.63037109375</ele>
    <time>2025-03-30T10:09:31Z</time>
   </trkpt>
   <trkpt lat="46.8420143127441" lon="12.7734518051147">
    <ele>743.987548828125</ele>
    <time>2025-03-30T10:09:37Z</time>
   </trkpt>
   <trkpt lat="46.8420295715332" lon="12.7735157012939">
    <ele>743.901794433594</ele>
    <time>2025-03-30T10:09:40Z</time>
   </trkpt>
   <trkpt lat="46.8420372009277" lon="12.7735691070557">
    <ele>743.73095703125</ele>
    <time>2025-03-30T10:09:44Z</time>
   </trkpt>
   <trkpt lat="46.8420562744141" lon="12.7736234664917">
    <ele>743.762268066406</ele>
    <time>2025-03-30T10:09:47Z</time>
   </trkpt>
   <trkpt lat="46.8420639038086" lon="12.7736701965332">
    <ele>743.624633789062</ele>
    <time>2025-03-30T10:09:50Z</time>
   </trkpt>
   <trkpt lat="46.8420753479004" lon="12.7737150192261">
    <ele>743.565368652344</ele>
    <time>2025-03-30T10:09:53Z</time>
   </trkpt>
  </trkseg>
 </trk>
</gpx>